Find the Weather for any City, State  
or Zipcode, or Country:

Daily Reports [Select Refresh to Update]
Updated Automatically by Ambient Software's Virtual Weather Station  V15.00


NOAA Yearly Report

                  YEARLY CLIMATOLOGICAL SUMMARY FOR 2020
                                        HEAT  COOL        
     MEAN                               DEG   DEG       WIND SPEED       DOM MEAN  MEAN
MON  TEMP  HIGH   DATE     LOW   DATE   DAYS  DAYS RAIN AVG  HI  DATE    DIR BAROM HUM
---------------------------------------------------------------------------------------
1    45.9  56.9   1/3/20  31.0   1/9/20  591    0 16.25   6  72  1/15/20  SE 29.97   94
2    43.6  57.0  2/20/20  28.8   2/4/20  619    0  7.44   2  60  2/15/20  SE 30.27   91
3    43.3  57.1  3/16/20  29.1   3/1/20  670    0  6.49   3  46  3/29/20  SE 30.07   89
4    48.9  63.1  4/16/20  32.0  4/12/20  482    0  2.07   3  44   4/8/20  NW 30.14   90
5    55.2  84.9   5/8/20  39.0   5/1/20  316   12  3.52   3  46  5/12/20  SE 30.04   87
6    56.7  74.6  6/23/20  43.7   6/1/20  248    1  2.42   3  56   6/9/20 NNW 30.08   92
7    56.8  64.5   7/3/20  47.0   7/5/20   43    0  0.21   2  22   7/3/20  NW 30.12   93
---------------------------------------------------------------------------------------
TOT  49.2  84.9   5/8/20  28.8   2/4/20 2969   13 38.71   3  72  1/15/20  SE 30.09   91

HEAT BASE: 65.0
COOL BASE: 65.0


NOAA Monthly Report

                  MONTHLY CLIMATOLOGICAL SUMMARY FOR 7/2020
                                        HEAT  COOL        
     MEAN                               DEG   DEG       WIND SPEED       DOM MEAN  MEAN
DAY  TEMP  HIGH   TIME     LOW   TIME   DAYS  DAYS RAIN AVG  HI  TIME    DIR BAROM HUM
---------------------------------------------------------------------------------------
1    55.9  59.7   2:11pm  53.1   5:39am    9    0  0.20   2  26   4:06pm WNW 30.03   96
2    57.0  62.0   3:49pm  54.6  12:00am    8    0  0.01   1  18   2:07pm  SW 30.04   94
3    58.2  64.5   1:09pm  52.2  11:09pm    7    0  0.00   2  22   1:34pm  SW 30.11   89
4    57.7  63.8   3:16pm  51.2  11:50pm    7    0  0.00   2  18   4:11pm  NW 30.21   93
5    56.5  63.4   5:14pm  47.0   4:38am    9    0  0.00   2  22   2:47pm  NW 30.20   91
6    51.3  53.9   5:57am  48.8   2:46am    3    0  0.00   0   0  12:00am   N 30.11   98
---------------------------------------------------------------------------------------
TOT  56.8  64.5   7/3/20  47.0   7/5/20   43    0  0.21   2  22   7/3/20  NW 30.12   93

HEAT BASE: 65.0
COOL BASE: 65.0



Today's  Data File

7/6/20
Time         Wind Dir   Wind Spd  Wind Gust     Hum In   Humidity    Temp In       Temp  Raw Barom   Tot Rain  Dew Point   Barom SL   Hum In H Humidity H Temp Out H    Barom H Tot Rain H   Hum In L Humidity L Temp Out L    Barom L Tot Rain L  DailyRain   HourRain   24HrRain   RainRate   Deg Heat   Deg Cool  MonthRain DegHeat Mo DegCool Mo DegHeat Yr DegCool Yr
                            mph        mph          %          %         F         F         in         in         F         in          %          %         F         in         in          %          %         F         in         in         in         in         in      in/hr         F         F         in         F         F         F         F
12:00am            49          0          0         58         96       70.9       51.9      30.11      61.58       50.8      30.13         58         96       51.9      30.11      61.58         58         96       51.9      30.11      61.58       0.00       0.00       0.00       0.00        8.5        0.0       0.21       39.7        0.0     2965.6       12.8
12:05am            49          0          0         58         97       70.8       51.7      30.11      61.58       50.9      30.13         58         97       51.9      30.11      61.58         58         96       51.7      30.11      61.58       0.00       0.00       0.00       0.00        0.0        0.0       0.21       39.7        0.0     2965.7       12.8
12:10am            49          0          0         57         96       70.8       51.7      30.11      61.58       50.6      30.13         58         97       51.9      30.11      61.58         57         96       51.7      30.11      61.58       0.00       0.00       0.00       0.00        0.1        0.0       0.21       39.8        0.0     2965.7       12.8
12:15am            49          0          0         57         97       70.8       51.7      30.11      61.58       50.9      30.13         58         97       51.9      30.11      61.58         57         96       51.6      30.11      61.58       0.00       0.00       0.00       0.00        0.1        0.0       0.21       39.8        0.0     2965.8       12.8
12:20am            49          0          0         57         97       70.8       51.5      30.11      61.58       50.7      30.13         58         97       51.9      30.11      61.58         57         96       51.5      30.11      61.58       0.00       0.00       0.00       0.00        0.2        0.0       0.21       39.9        0.0     2965.8       12.8
12:25am            49          0          0         57         97       70.7       51.5      30.11      61.58       50.7      30.13         58         97       51.9      30.11      61.58         57         96       51.5      30.11      61.58       0.00       0.00       0.00       0.00        0.2        0.0       0.21       39.9        0.0     2965.9       12.8
12:30am            49          0          0         57         97       70.7       51.5      30.11      61.58       50.7      30.13         58         97       51.9      30.11      61.58         57         96       51.4      30.11      61.58       0.00       0.00       0.00       0.00        0.3        0.0       0.21       40.0        0.0     2965.9       12.8
12:35am            49          0          0         57         97       70.7       51.4      30.11      61.58       50.6      30.13         58         97       51.9      30.11      61.58         57         96       51.4      30.11      61.58       0.00       0.00       0.00       0.00        0.3        0.0       0.21       40.0        0.0     2966.0       12.8
12:40am            49          0          0         57         97       70.6       51.2      30.11      61.58       50.4      30.13         58         97       51.9      30.11      61.58         57         96       51.2      30.11      61.58       0.00       0.00       0.00       0.00        0.4        0.0       0.21       40.1        0.0     2966.0       12.8
12:45am            49          0          0         57         97       70.7       51.1      30.11      61.58       50.3      30.13         58         97       51.9      30.11      61.58         57         96       51.1      30.11      61.58       0.00       0.00       0.00       0.00        0.4        0.0       0.21       40.1        0.0     2966.1       12.8
12:50am            49          0          0         57         97       70.6       51.1      30.11      61.58       50.3      30.13         58         97       51.9      30.11      61.58         57         96       51.0      30.11      61.58       0.00       0.00       0.00       0.00        0.5        0.0       0.21       40.2        0.0     2966.1       12.8
12:55am            49          0          0         57         97       70.6       50.9      30.11      61.58       50.1      30.13         58         97       51.9      30.11      61.58         57         96       50.9      30.11      61.58       0.00       0.00       0.00       0.00        0.5        0.0       0.21       40.2        0.0     2966.2       12.8
1:00am             49          0          0         57         97       70.6       50.7      30.11      61.58       49.9      30.13         58         97       51.9      30.11      61.58         57         96       50.7      30.10      61.58       0.00       0.00       0.00       0.00        0.6        0.0       0.21       40.3        0.0     2966.2       12.8
1:05am             49          0          0         57         97       70.5       50.7      30.10      61.58       49.9      30.12         58         97       51.9      30.11      61.58         57         96       50.7      30.10      61.58       0.00       0.00       0.00       0.00        0.6        0.0       0.21       40.3        0.0     2966.2       12.8
1:10am             49          0          0         57         97       70.5       50.7      30.10      61.58       49.9      30.12         58         97       51.9      30.11      61.58         57         96       50.6      30.10      61.58       0.00       0.00       0.00       0.00        0.7        0.0       0.21       40.4        0.0     2966.3       12.8
1:15am             49          0          0         57         97       70.5       50.5      30.10      61.58       49.7      30.12         58         97       51.9      30.11      61.58         57         96       50.5      30.10      61.58       0.00       0.00       0.00       0.00        0.7        0.0       0.21       40.4        0.0     2966.3       12.8
1:20am             49          0          0         57         97       70.4       50.6      30.10      61.58       49.8      30.12         58         97       51.9      30.11      61.58         57         96       50.5      30.10      61.58       0.00       0.00       0.00       0.00        0.8        0.0       0.21       40.5        0.0     2966.4       12.8
1:25am             49          0          0         57         97       70.4       50.5      30.10      61.58       49.7      30.12         58         97       51.9      30.11      61.58         57         96       50.5      30.10      61.58       0.00       0.00       0.00       0.00        0.8        0.0       0.21       40.5        0.0     2966.4       12.8
1:30am             49          0          0         57         97       70.4       50.5      30.10      61.58       49.7      30.12         58         97       51.9      30.11      61.58         57         96       50.4      30.10      61.58       0.00       0.00       0.00       0.00        0.9        0.0       0.21       40.6        0.0     2966.5       12.8
1:35am             49          0          0         57         97       70.3       50.3      30.10      61.58       49.5      30.12         58         97       51.9      30.11      61.58         57         96       50.3      30.10      61.58       0.00       0.00       0.00       0.00        0.9        0.0       0.21       40.6        0.0     2966.5       12.8
1:40am             49          0          0         57         97       70.3       50.2      30.10      61.58       49.4      30.12         58         97       51.9      30.11      61.58         57         96       50.2      30.10      61.58       0.00       0.00       0.00       0.00        1.0        0.0       0.21       40.7        0.0     2966.6       12.8
1:45am             49          0          0         57         97       70.3       50.1      30.10      61.58       49.3      30.12         58         97       51.9      30.11      61.58         57         96       50.1      30.10      61.58       0.00       0.00       0.00       0.00        1.0        0.0       0.21       40.7        0.0     2966.7       12.8
1:50am             49          0          0         57         97       70.2       50.1      30.10      61.58       49.3      30.12         58         98       51.9      30.11      61.58         57         96       50.0      30.10      61.58       0.00       0.00       0.00       0.00        1.1        0.0       0.21       40.8        0.0     2966.7       12.8
1:55am             49          0          0         57         97       70.2       49.8      30.10      61.58       49.0      30.12         58         98       51.9      30.11      61.58         57         96       49.8      30.10      61.58       0.00       0.00       0.00       0.00        1.1        0.0       0.21       40.8        0.0     2966.8       12.8
2:00am             49          0          0         57         98       70.2       49.8      30.10      61.58       49.3      30.12         58         98       51.9      30.11      61.58         57         96       49.8      30.10      61.58       0.00       0.00       0.00       0.00        1.2        0.0       0.21       40.9        0.0     2966.8       12.8
2:05am             49          0          0         57         98       70.2       49.8      30.10      61.58       49.3      30.12         58         98       51.9      30.11      61.58         57         96       49.7      30.09      61.58       0.00       0.00       0.00       0.00        1.2        0.0       0.21       40.9        0.0     2966.9       12.8
2:10am             49          0          0         57         97       70.1       49.6      30.09      61.58       48.8      30.11         58         98       51.9      30.11      61.58         57         96       49.6      30.09      61.58       0.00       0.00       0.00       0.00        1.3        0.0       0.21       41.0        0.0     2966.9       12.8
2:15am             49          0          0         57         98       70.1       49.5      30.09      61.58       49.0      30.11         58         98       51.9      30.11      61.58         57         96       49.4      30.09      61.58       0.00       0.00       0.00       0.00        1.3        0.0       0.21       41.0        0.0     2967.0       12.8
2:20am             49          0          0         57         97       70.1       49.3      30.09      61.58       48.5      30.11         58         98       51.9      30.11      61.58         57         96       49.3      30.09      61.58       0.00       0.00       0.00       0.00        1.4        0.0       0.21       41.1        0.0     2967.0       12.8
2:25am             49          0          0         57         98       70.1       49.3      30.09      61.58       48.8      30.11         58         98       51.9      30.11      61.58         57         96       49.2      30.09      61.58       0.00       0.00       0.00       0.00        1.4        0.0       0.21       41.1        0.0     2967.1       12.8
2:30am             49          0          0         57         98       70.0       49.2      30.09      61.58       48.7      30.11         58         98       51.9      30.11      61.58         57         96       49.2      30.09      61.58       0.00       0.00       0.00       0.00        1.5        0.0       0.21       41.2        0.0     2967.1       12.8
2:35am             49          0          0         57         98       70.0       49.2      30.09      61.58       48.7      30.11         58         98       51.9      30.11      61.58         57         96       49.1      30.09      61.58       0.00       0.00       0.00       0.00        1.6        0.0       0.21       41.3        0.0     2967.2       12.8
2:40am             49          0          0         57         98       70.0       49.2      30.09      61.58       48.7      30.11         58         98       51.9      30.11      61.58         57         96       49.1      30.09      61.58       0.00       0.00       0.00       0.00        1.6        0.0       0.21       41.3        0.0     2967.2       12.8
2:45am             49          0          0         57         98       70.0       48.9      30.09      61.58       48.4      30.11         58         98       51.9      30.11      61.58         57         96       48.9      30.09      61.58       0.00       0.00       0.00       0.00        1.7        0.0       0.21       41.4        0.0     2967.3       12.8
2:50am             49          0          0         57         98       70.0       49.0      30.09      61.58       48.5      30.11         58         98       51.9      30.11      61.58         57         96       48.8      30.09      61.58       0.00       0.00       0.00       0.00        1.7        0.0       0.21       41.4        0.0     2967.3       12.8
2:55am             49          0          0         57         98       69.9       49.2      30.09      61.58       48.7      30.11         58         98       51.9      30.11      61.58         57         96       48.8      30.09      61.58       0.00       0.00       0.00       0.00        1.8        0.0       0.21       41.5        0.0     2967.4       12.8
3:00am             49          0          0         57         98       69.8       49.3      30.09      61.58       48.8      30.11         58         98       51.9      30.11      61.58         57         96       48.8      30.09      61.58       0.00       0.00       0.00       0.00        1.8        0.0       0.21       41.5        0.0     2967.5       12.8
3:05am             49          0          0         57         98       69.8       49.4      30.09      61.58       48.9      30.11         58         98       51.9      30.11      61.58         57         96       48.8      30.09      61.58       0.00       0.00       0.00       0.00        1.9        0.0       0.21       41.6        0.0     2967.5       12.8
3:10am             49          0          0         57         98       69.8       49.6      30.09      61.58       49.1      30.11         58         98       51.9      30.11      61.58         57         96       48.8      30.09      61.58       0.00       0.00       0.00       0.00        1.9        0.0       0.21       41.6        0.0     2967.6       12.8
3:15am             49          0          0         57         98       69.7       49.7      30.09      61.58       49.2      30.11         58         98       51.9      30.11      61.58         57         96       48.8      30.09      61.58       0.00       0.00       0.00       0.00        2.0        0.0       0.21       41.7        0.0     2967.6       12.8
3:20am             49          0          0         57         98       69.7       50.2      30.09      61.58       49.7      30.11         58         99       51.9      30.11      61.58         57         96       48.8      30.09      61.58       0.00       0.00       0.00       0.00        2.0        0.0       0.21       41.7        0.0     2967.7       12.8
3:25am             49          0          0         57         98       69.7       50.4      30.09      61.58       49.9      30.11         58         99       51.9      30.11      61.58         57         96       48.8      30.09      61.58       0.00       0.00       0.00       0.00        2.1        0.0       0.21       41.8        0.0     2967.7       12.8
3:30am             49          0          0         57         98       69.7       50.6      30.09      61.58       50.1      30.11         58         99       51.9      30.11      61.58         57         96       48.8      30.09      61.58       0.00       0.00       0.00       0.00        2.1        0.0       0.21       41.8        0.0     2967.8       12.8
3:35am             49          0          0         57         98       69.7       50.9      30.09      61.58       50.4      30.11         58         99       51.9      30.11      61.58         57         96       48.8      30.09      61.58       0.00       0.00       0.00       0.00        2.2        0.0       0.21       41.9        0.0     2967.8       12.8
3:40am             49          0          0         57         99       69.7       51.1      30.09      61.58       50.8      30.11         58         99       51.9      30.11      61.58         57         96       48.8      30.09      61.58       0.00       0.00       0.00       0.00        2.2        0.0       0.21       41.9        0.0     2967.9       12.8
3:45am             49          0          0         57         99       69.7       51.4      30.09      61.58       51.1      30.11         58         99       51.9      30.11      61.58         57         96       48.8      30.09      61.58       0.00       0.00       0.00       0.00        2.3        0.0       0.21       42.0        0.0     2967.9       12.8
3:50am             49          0          0         57         98       69.7       51.5      30.08      61.58       51.0      30.10         58         99       51.9      30.11      61.58         57         96       48.8      30.08      61.58       0.00       0.00       0.00       0.00        2.3        0.0       0.21       42.0        0.0     2968.0       12.8
3:55am             49          0          0         57         99       69.6       51.8      30.09      61.58       51.5      30.11         58         99       51.9      30.11      61.58         57         96       48.8      30.08      61.58       0.00       0.00       0.00       0.00        2.4        0.0       0.21       42.1        0.0     2968.0       12.8
4:00am             49          0          0         57         99       69.6       52.0      30.09      61.58       51.7      30.11         58         99       52.0      30.11      61.58         57         96       48.8      30.08      61.58       0.00       0.00       0.00       0.00        2.4        0.0       0.21       42.1        0.0     2968.1       12.8
4:05am             49          0          0         57         99       69.6       52.0      30.08      61.58       51.7      30.10         58         99       52.1      30.11      61.58         57         96       48.8      30.08      61.58       0.00       0.00       0.00       0.00        2.5        0.0       0.21       42.2        0.0     2968.1       12.8
4:10am             49          0          0         57         98       69.5       52.1      30.08      61.58       51.6      30.10         58         99       52.1      30.11      61.58         57         96       48.8      30.08      61.58       0.00       0.00       0.00       0.00        2.5        0.0       0.21       42.2        0.0     2968.2       12.8
4:15am             49          0          0         57         98       69.5       52.1      30.08      61.58       51.6      30.10         58         99       52.1      30.11      61.58         57         96       48.8      30.08      61.58       0.00       0.00       0.00       0.00        2.6        0.0       0.21       42.3        0.0     2968.2       12.8
4:20am             49          0          0         58         98       69.5       52.2      30.08      61.58       51.7      30.10         58         99       52.3      30.11      61.58         57         96       48.8      30.08      61.58       0.00       0.00       0.00       0.00        2.6        0.0       0.21       42.3        0.0     2968.2       12.8
4:25am             49          0          0         58         98       69.5       52.3      30.08      61.58       51.8      30.10         58         99       52.3      30.11      61.58         57         96       48.8      30.08      61.58       0.00       0.00       0.00       0.00        2.7        0.0       0.21       42.4        0.0     2968.3       12.8
4:30am             49          0          0         58         99       69.5       52.4      30.09      61.58       52.1      30.11         58         99       52.4      30.11      61.58         57         96       48.8      30.08      61.58       0.00       0.00       0.00       0.00        2.7        0.0       0.21       42.4        0.0     2968.3       12.8
4:35am             49          0          0         58         99       69.4       52.6      30.09      61.58       52.3      30.11         58         99       52.6      30.11      61.58         57         96       48.8      30.08      61.58       0.00       0.00       0.00       0.00        2.7        0.0       0.21       42.4        0.0     2968.4       12.8
4:40am             49          0          0         58         99       69.4       52.8      30.08      61.58       52.5      30.10         58         99       52.8      30.11      61.58         57         96       48.8      30.08      61.58       0.00       0.00       0.00       0.00        2.8        0.0       0.21       42.5        0.0     2968.4       12.8
4:45am             49          0          0         58         99       69.4       53.1      30.08      61.58       52.8      30.10         58         99       53.1      30.11      61.58         57         96       48.8      30.08      61.58       0.00       0.00       0.00       0.00        2.8        0.0       0.21       42.5        0.0     2968.5       12.8
4:50am             49          0          0         58         99       69.4       53.3      30.08      61.58       53.0      30.10         58         99       53.3      30.11      61.58         57         96       48.8      30.08      61.58       0.00       0.00       0.00       0.00        2.9        0.0       0.21       42.6        0.0     2968.5       12.8
4:55am             49          0          0         58         99       69.4       53.3      30.08      61.58       53.0      30.10         58         99       53.4      30.11      61.58         57         96       48.8      30.08      61.58       0.00       0.00       0.00       0.00        2.9        0.0       0.21       42.6        0.0     2968.5       12.8
5:00am             49          0          0         58         99       69.3       53.3      30.08      61.58       53.0      30.10         58         99       53.4      30.11      61.58         57         96       48.8      30.08      61.58       0.00       0.00       0.00       0.00        3.0        0.0       0.21       42.7        0.0     2968.6       12.8
5:05am             49          0          0         58         99       69.3       53.3      30.08      61.58       53.0      30.10         58         99       53.4      30.11      61.58         57         96       48.8      30.08      61.58       0.00       0.00       0.00       0.00        3.0        0.0       0.21       42.7        0.0     2968.6       12.8
5:10am             49          0          0         58         99       69.3       53.4      30.08      61.58       53.1      30.10         58         99       53.4      30.11      61.58         57         96       48.8      30.08      61.58       0.00       0.00       0.00       0.00        3.0        0.0       0.21       42.7        0.0     2968.7       12.8
5:15am             49          0          0         58         99       69.2       53.4      30.08      61.58       53.1      30.10         58         99       53.4      30.11      61.58         57         96       48.8      30.08      61.58       0.00       0.00       0.00       0.00        3.1        0.0       0.21       42.8        0.0     2968.7       12.8
5:20am             49          0          0         58         99       69.2       53.5      30.08      61.58       53.2      30.10         58         99       53.5      30.11      61.58         57         96       48.8      30.08      61.58       0.00       0.00       0.00       0.00        3.1        0.0       0.21       42.8        0.0     2968.7       12.8
5:25am             49          0          0         58         99       69.2       53.7      30.08      61.58       53.4      30.10         58         99       53.7      30.11      61.58         57         96       48.8      30.08      61.58       0.00       0.00       0.00       0.00        3.2        0.0       0.21       42.9        0.0     2968.8       12.8
5:30am             49          0          0         58         99       69.2       53.7      30.08      61.58       53.4      30.10         58         99       53.7      30.11      61.58         57         96       48.8      30.08      61.58       0.00       0.00       0.00       0.00        3.2        0.0       0.21       42.9        0.0     2968.8       12.8
5:35am             49          0          0         58         99       69.1       53.7      30.08      61.58       53.4      30.10         58         99       53.7      30.11      61.58         57         96       48.8      30.08      61.58       0.00       0.00       0.00       0.00        3.2        0.0       0.21       42.9        0.0     2968.9       12.8
5:40am             49          0          0         58         99       69.1       53.7      30.08      61.58       53.4      30.10         58         99       53.7      30.11      61.58         57         96       48.8      30.08      61.58       0.00       0.00       0.00       0.00        3.3        0.0       0.21       43.0        0.0     2968.9       12.8
5:45am             49          0          0         58         99       69.1       53.7      30.08      61.58       53.4      30.10         58         99       53.8      30.11      61.58         57         96       48.8      30.08      61.58       0.00       0.00       0.00       0.00        3.3        0.0       0.21       43.0        0.0     2968.9       12.8
5:50am             49          0          0         58         99       69.1       53.8      30.08      61.58       53.5      30.10         58         99       53.8      30.11      61.58         57         96       48.8      30.08      61.58       0.00       0.00       0.00       0.00        3.3        0.0       0.21       43.0        0.0     2969.0       12.8
5:55am             49          0          0         58         99       69.0       53.8      30.08      61.58       53.5      30.10         58         99       53.8      30.11      61.58         57         96       48.8      30.08      61.58       0.00       0.00       0.00       0.00        3.4        0.0       0.21       43.1        0.0     2969.0       12.8
6:00am             49          0          0         58         99       69.0       53.8      30.08      61.58       53.5      30.10         58         99       53.9      30.11      61.58         57         96       48.8      30.08      61.58       0.00       0.00       0.00       0.00        3.4        0.0       0.21       43.1        0.0     2969.1       12.8
6:05am             49          0          0         58         99       69.0       53.9      30.08      61.58       53.6      30.10         58         99       53.9      30.11      61.58         57         96       48.8      30.08      61.58       0.00       0.00       0.00       0.00        3.5        0.0       0.21       43.2        0.0     2969.1       12.8
6:10am             49          0          0         58         99       69.0       54.0      30.08      61.58       53.7      30.10         58         99       54.0      30.11      61.58         57         96       48.8      30.08      61.58       0.00       0.00       0.00       0.00        3.5        0.0       0.21       43.2        0.0     2969.1       12.8
6:15am            182          0          2         58         99       69.0       54.0      30.08      61.58       53.7      30.10         58         99       54.0      30.11      61.58         57         96       48.8      30.08      61.58       0.00       0.00       0.00       0.00        3.5        0.0       0.21       43.2        0.0     2969.2       12.8
6:20am            182          0          0         58         99       69.0       54.0      30.08      61.58       53.7      30.10         58         99       54.1      30.11      61.58         57         96       48.8      30.08      61.58       0.00       0.00       0.00       0.00        3.6        0.0       0.21       43.3        0.0     2969.2       12.8
6:25am            182          0          0         58         99       68.9       54.0      30.08      61.58       53.7      30.10         58         99       54.1      30.11      61.58         57         96       48.8      30.08      61.58       0.00       0.00       0.00       0.00        3.6        0.0       0.21       43.3        0.0     2969.3       12.8

 


Yesterday's Data File

7/5/20
Time         Wind Dir   Wind Spd  Wind Gust     Hum In   Humidity    Temp In       Temp  Raw Barom   Tot Rain  Dew Point   Barom SL   Hum In H Humidity H Temp Out H    Barom H Tot Rain H   Hum In L Humidity L Temp Out L    Barom L Tot Rain L  DailyRain   HourRain   24HrRain   RainRate   Deg Heat   Deg Cool  MonthRain DegHeat Mo DegCool Mo DegHeat Yr DegCool Yr
                            mph        mph          %          %         F         F         in         in         F         in          %          %         F         in         in          %          %         F         in         in         in         in         in      in/hr         F         F         in         F         F         F         F
12:00am            11          0          0         61         97       70.6       51.2      30.21      61.58       50.4      30.24         61         97       51.2      30.21      61.58         61         97       51.2      30.21      61.58       0.00       0.00       0.00       0.00        7.3        0.0       0.21       31.2        0.0     2957.1       12.8
12:05am            11          0          0         61         97       70.6       51.0      30.21      61.58       50.2      30.23         61         97       51.2      30.21      61.58         61         97       51.0      30.21      61.58       0.00       0.00       0.00       0.00        0.0        0.0       0.21       31.2        0.0     2957.2       12.8
12:10am            11          0          0         61         97       70.7       50.9      30.21      61.58       50.1      30.23         61         97       51.2      30.21      61.58         61         97       50.8      30.21      61.58       0.00       0.00       0.00       0.00        0.1        0.0       0.21       31.3        0.0     2957.2       12.8
12:15am            11          0          0         61         97       70.7       50.9      30.21      61.58       50.1      30.23         61         97       51.2      30.21      61.58         61         97       50.8      30.21      61.58       0.00       0.00       0.00       0.00        0.1        0.0       0.21       31.3        0.0     2957.3       12.8
12:20am            11          0          0         61         97       70.8       50.8      30.21      61.58       50.0      30.23         61         97       51.2      30.21      61.58         61         97       50.8      30.21      61.58       0.00       0.00       0.00       0.00        0.2        0.0       0.21       31.4        0.0     2957.3       12.8
12:25am            11          0          0         61         97       70.9       50.5      30.21      61.58       49.7      30.23         61         97       51.2      30.21      61.58         61         97       50.5      30.21      61.58       0.00       0.00       0.00       0.00        0.2        0.0       0.21       31.4        0.0     2957.4       12.8
12:30am            11          0          0         61         97       70.9       50.1      30.21      61.58       49.3      30.23         61         97       51.2      30.21      61.58         61         97       50.1      30.21      61.58       0.00       0.00       0.00       0.00        0.3        0.0       0.21       31.5        0.0     2957.4       12.8
12:35am            11          0          0         61         97       70.9       50.2      30.20      61.58       49.4      30.23         61         97       51.2      30.21      61.58         61         97       50.1      30.20      61.58       0.00       0.00       0.00       0.00        0.3        0.0       0.21       31.5        0.0     2957.5       12.8
12:40am            11          0          0         61         97       71.0       50.2      30.20      61.58       49.4      30.22         61         97       51.2      30.21      61.58         61         97       50.1      30.20      61.58       0.00       0.00       0.00       0.00        0.4        0.0       0.21       31.6        0.0     2957.5       12.8
12:45am            11          0          0         61         97       71.1       49.9      30.21      61.58       49.1      30.23         61         97       51.2      30.21      61.58         61         97       49.9      30.20      61.58       0.00       0.00       0.00       0.00        0.4        0.0       0.21       31.6        0.0     2957.6       12.8
12:50am            11          0          0         61         97       71.1       49.6      30.20      61.58       48.8      30.22         61         97       51.2      30.21      61.58         61         97       49.6      30.20      61.58       0.00       0.00       0.00       0.00        0.5        0.0       0.21       31.7        0.0     2957.6       12.8
12:55am            11          0          0         61         97       71.1       49.8      30.20      61.58       49.0      30.22         61         97       51.2      30.21      61.58         61         97       49.6      30.20      61.58       0.00       0.00       0.00       0.00        0.6        0.0       0.21       31.7        0.0     2957.7       12.8
1:00am             11          0          0         61         97       71.2       49.7      30.20      61.58       48.9      30.22         61         97       51.2      30.21      61.58         61         97       49.6      30.20      61.58       0.00       0.00       0.00       0.00        0.6        0.0       0.21       31.8        0.0     2957.7       12.8
1:05am             11          0          0         61         97       71.2       49.6      30.20      61.58       48.8      30.22         61         97       51.2      30.21      61.58         61         97       49.6      30.20      61.58       0.00       0.00       0.00       0.00        0.7        0.0       0.21       31.8        0.0     2957.8       12.8
1:10am             11          0          0         61         97       71.2       49.4      30.20      61.58       48.6      30.22         61         97       51.2      30.21      61.58         61         97       49.4      30.20      61.58       0.00       0.00       0.00       0.00        0.7        0.0       0.21       31.9        0.0     2957.8       12.8
1:15am             11          0          0         61         97       71.2       49.2      30.20      61.58       48.4      30.22         61         97       51.2      30.21      61.58         61         97       49.2      30.20      61.58       0.00       0.00       0.00       0.00        0.8        0.0       0.21       31.9        0.0     2957.9       12.8
1:20am             11          0          0         60         98       71.2       49.3      30.20      61.58       48.8      30.22         61         98       51.2      30.21      61.58         60         97       49.2      30.20      61.58       0.00       0.00       0.00       0.00        0.8        0.0       0.21       32.0        0.0     2957.9       12.8
1:25am             11          0          0         60         98       71.2       49.4      30.20      61.58       48.9      30.22         61         98       51.2      30.21      61.58         60         97       49.2      30.20      61.58       0.00       0.00       0.00       0.00        0.9        0.0       0.21       32.1        0.0     2958.0       12.8
1:30am             11          0          0         60         97       71.2       49.3      30.20      61.58       48.5      30.22         61         98       51.2      30.21      61.58         60         97       49.2      30.20      61.58       0.00       0.00       0.00       0.00        0.9        0.0       0.21       32.1        0.0     2958.0       12.8
1:35am             11          0          0         60         97       71.1       48.9      30.20      61.58       48.1      30.22         61         98       51.2      30.21      61.58         60         97       48.9      30.20      61.58       0.00       0.00       0.00       0.00        1.0        0.0       0.21       32.2        0.0     2958.1       12.8
1:40am             11          0          0         60         98       71.1       48.9      30.20      61.58       48.4      30.22         61         98       51.2      30.21      61.58         60         97       48.8      30.20      61.58       0.00       0.00       0.00       0.00        1.0        0.0       0.21       32.2        0.0     2958.2       12.8
1:45am             11          0          0         60         98       71.1       49.0      30.20      61.58       48.5      30.22         61         98       51.2      30.21      61.58         60         97       48.8      30.20      61.58       0.00       0.00       0.00       0.00        1.1        0.0       0.21       32.3        0.0     2958.2       12.8
1:50am             11          0          0         60         98       71.1       48.9      30.20      61.58       48.4      30.22         61         98       51.2      30.21      61.58         60         97       48.8      30.20      61.58       0.00       0.00       0.00       0.00        1.2        0.0       0.21       32.3        0.0     2958.3       12.8
1:55am             11          0          0         60         98       71.0       48.8      30.20      61.58       48.3      30.22         61         98       51.2      30.21      61.58         60         97       48.8      30.20      61.58       0.00       0.00       0.00       0.00        1.2        0.0       0.21       32.4        0.0     2958.3       12.8
2:00am             11          0          0         60         98       71.0       48.7      30.20      61.58       48.2      30.22         61         98       51.2      30.21      61.58         60         97       48.7      30.20      61.58       0.00       0.00       0.00       0.00        1.3        0.0       0.21       32.4        0.0     2958.4       12.8
2:05am             11          0          0         60         97       71.0       48.4      30.20      61.58       47.6      30.22         61         98       51.2      30.21      61.58         60         97       48.4      30.20      61.58       0.00       0.00       0.00       0.00        1.3        0.0       0.21       32.5        0.0     2958.4       12.8
2:10am             11          0          0         60         98       71.0       48.3      30.20      61.58       47.8      30.22         61         98       51.2      30.21      61.58         60         97       48.2      30.19      61.58       0.00       0.00       0.00       0.00        1.4        0.0       0.21       32.6        0.0     2958.5       12.8
2:15am             11          0          0         60         98       70.9       48.2      30.20      61.58       47.7      30.22         61         98       51.2      30.21      61.58         60         97       48.2      30.19      61.58       0.00       0.00       0.00       0.00        1.4        0.0       0.21       32.6        0.0     2958.6       12.8
2:20am             11          0          0         60         98       70.9       48.4      30.19      61.58       47.9      30.21         61         98       51.2      30.21      61.58         60         97       48.2      30.19      61.58       0.00       0.00       0.00       0.00        1.5        0.0       0.21       32.7        0.0     2958.6       12.8
2:25am             11          0          0         60         98       70.9       48.5      30.19      61.58       48.0      30.21         61         98       51.2      30.21      61.58         60         97       48.2      30.19      61.58       0.00       0.00       0.00       0.00        1.6        0.0       0.21       32.7        0.0     2958.7       12.8
2:30am             11          0          0         60         98       70.9       48.5      30.19      61.58       48.0      30.21         61         98       51.2      30.21      61.58         60         97       48.2      30.19      61.58       0.00       0.00       0.00       0.00        1.6        0.0       0.21       32.8        0.0     2958.7       12.8
2:35am             11          0          0         60         98       70.8       48.3      30.19      61.58       47.8      30.21         61         98       51.2      30.21      61.58         60         97       48.2      30.19      61.58       0.00       0.00       0.00       0.00        1.7        0.0       0.21       32.8        0.0     2958.8       12.8
2:40am             11          0          0         60         98       70.9       48.1      30.19      61.58       47.6      30.21         61         98       51.2      30.21      61.58         60         97       48.1      30.19      61.58       0.00       0.00       0.00       0.00        1.7        0.0       0.21       32.9        0.0     2958.8       12.8
2:45am             11          0          0         60         98       70.8       47.9      30.19      61.58       47.4      30.21         61         98       51.2      30.21      61.58         60         97       47.9      30.19      61.58       0.00       0.00       0.00       0.00        1.8        0.0       0.21       33.0        0.0     2958.9       12.8
2:50am             11          0          0         60         98       70.8       48.0      30.19      61.58       47.5      30.21         61         98       51.2      30.21      61.58         60         97       47.9      30.19      61.58       0.00       0.00       0.00       0.00        1.8        0.0       0.21       33.0        0.0     2959.0       12.8
2:55am             11          0          0         60         98       70.8       48.0      30.19      61.58       47.5      30.21         61         98       51.2      30.21      61.58         60         97       47.9      30.19      61.58       0.00       0.00       0.00       0.00        1.9        0.0       0.21       33.1        0.0     2959.0       12.8
3:00am             11          0          0         61         98       70.8       47.9      30.19      61.58       47.4      30.21         61         98       51.2      30.21      61.58         60         97       47.8      30.19      61.58       0.00       0.00       0.00       0.00        2.0        0.0       0.21       33.1        0.0     2959.1       12.8
3:05am             11          0          0         61         98       70.8       47.8      30.19      61.58       47.3      30.21         61         98       51.2      30.21      61.58         60         97       47.7      30.19      61.58       0.00       0.00       0.00       0.00        2.0        0.0       0.21       33.2        0.0     2959.1       12.8
3:10am             11          0          0         61         98       70.8       47.8      30.19      61.58       47.3      30.21         61         98       51.2      30.21      61.58         60         97       47.7      30.19      61.58       0.00       0.00       0.00       0.00        2.1        0.0       0.21       33.3        0.0     2959.2       12.8
3:15am             11          0          0         61         98       70.7       47.7      30.19      61.58       47.2      30.21         61         98       51.2      30.21      61.58         60         97       47.7      30.19      61.58       0.00       0.00       0.00       0.00        2.1        0.0       0.21       33.3        0.0     2959.3       12.8
3:20am             11          0          0         61         98       70.7       47.6      30.19      61.58       47.1      30.21         61         98       51.2      30.21      61.58         60         97       47.5      30.19      61.58       0.00       0.00       0.00       0.00        2.2        0.0       0.21       33.4        0.0     2959.3       12.8
3:25am             11          0          0         60         98       70.7       47.7      30.19      61.58       47.2      30.21         61         98       51.2      30.21      61.58         60         97       47.5      30.19      61.58       0.00       0.00       0.00       0.00        2.3        0.0       0.21       33.4        0.0     2959.4       12.8
3:30am             11          0          0         60         98       70.6       47.7      30.19      61.58       47.2      30.21         61         98       51.2      30.21      61.58         60         97       47.5      30.19      61.58       0.00       0.00       0.00       0.00        2.3        0.0       0.21       33.5        0.0     2959.4       12.8
3:35am             11          0          0         60         98       70.6       47.8      30.19      61.58       47.3      30.21         61         98       51.2      30.21      61.58         60         97       47.5      30.19      61.58       0.00       0.00       0.00       0.00        2.4        0.0       0.21       33.6        0.0     2959.5       12.8
3:40am             11          0          0         60         98       70.6       47.8      30.19      61.58       47.3      30.21         61         98       51.2      30.21      61.58         60         97       47.5      30.19      61.58       0.00       0.00       0.00       0.00        2.4        0.0       0.21       33.6        0.0     2959.6       12.8
3:45am             11          0          0         60         98       70.6       47.6      30.19      61.58       47.1      30.21         61         98       51.2      30.21      61.58         60         97       47.5      30.19      61.58       0.00       0.00       0.00       0.00        2.5        0.0       0.21       33.7        0.0     2959.6       12.8
3:50am             11          0          0         60         99       70.5       47.7      30.19      61.58       47.4      30.21         61         99       51.2      30.21      61.58         60         97       47.5      30.19      61.58       0.00       0.00       0.00       0.00        2.6        0.0       0.21       33.7        0.0     2959.7       12.8
3:55am             11          0          0         61         98       70.5       47.6      30.19      61.58       47.1      30.21         61         99       51.2      30.21      61.58         60         97       47.5      30.19      61.58       0.00       0.00       0.00       0.00        2.6        0.0       0.21       33.8        0.0     2959.7       12.8
4:00am             11          0          0         60         98       70.5       47.4      30.19      61.58       46.9      30.21         61         99       51.2      30.21      61.58         60         97       47.4      30.19      61.58       0.00       0.00       0.00       0.00        2.7        0.0       0.21       33.9        0.0     2959.8       12.8
4:05am             11          0          0         60         98       70.4       47.4      30.19      61.58       46.9      30.21         61         99       51.2      30.21      61.58         60         97       47.4      30.19      61.58       0.00       0.00       0.00       0.00        2.7        0.0       0.21       33.9        0.0     2959.9       12.8
4:10am             11          0          0         60         99       70.4       47.4      30.19      61.58       47.1      30.21         61         99       51.2      30.21      61.58         60         97       47.4      30.19      61.58       0.00       0.00       0.00       0.00        2.8        0.0       0.21       34.0        0.0     2959.9       12.8
4:15am             11          0          0         60         98       70.4       47.5      30.19      61.58       47.0      30.21         61         99       51.2      30.21      61.58         60         97       47.4      30.19      61.58       0.00       0.00       0.00       0.00        2.9        0.0       0.21       34.0        0.0     2960.0       12.8
4:20am             11          0          0         60         98       70.3       47.4      30.19      61.58       46.9      30.21         61         99       51.2      30.21      61.58         60         97       47.4      30.19      61.58       0.00       0.00       0.00       0.00        2.9        0.0       0.21       34.1        0.0     2960.0       12.8
4:25am             11          0          0         60         99       70.3       47.5      30.19      61.58       47.2      30.21         61         99       51.2      30.21      61.58         60         97       47.4      30.19      61.58       0.00       0.00       0.00       0.00        3.0        0.0       0.21       34.2        0.0     2960.1       12.8
4:30am             11          0          0         60         98       70.2       47.2      30.19      61.58       46.7      30.21         61         99       51.2      30.21      61.58         60         97       47.2      30.19      61.58       0.00       0.00       0.00       0.00        3.0        0.0       0.21       34.2        0.0     2960.2       12.8
4:35am             11          0          0         60         99       70.2       47.2      30.19      61.58       46.9      30.21         61         99       51.2      30.21      61.58         60         97       47.2      30.19      61.58       0.00       0.00       0.00       0.00        3.1        0.0       0.21       34.3        0.0     2960.2       12.8
4:40am             11          0          0         60         98       70.2       47.0      30.19      61.58       46.5      30.21         61         99       51.2      30.21      61.58         60         97       47.0      30.19      61.58       0.00       0.00       0.00       0.00        3.2        0.0       0.21       34.4        0.0     2960.3       12.8
4:45am             11          0          0         60         99       70.2       47.1      30.19      61.58       46.8      30.21         61         99       51.2      30.21      61.58         60         97       47.0      30.19      61.58       0.00       0.00       0.00       0.00        3.2        0.0       0.21       34.4        0.0     2960.3       12.8
4:50am             11          0          0         60         99       70.1       47.2      30.19      61.58       46.9      30.21         61         99       51.2      30.21      61.58         60         97       47.0      30.19      61.58       0.00       0.00       0.00       0.00        3.3        0.0       0.21       34.5        0.0     2960.4       12.8
4:55am             11          0          0         60         99       70.1       47.5      30.19      61.58       47.2      30.21         61         99       51.2      30.21      61.58         60         97       47.0      30.19      61.58       0.00       0.00       0.00       0.00        3.4        0.0       0.21       34.5        0.0     2960.5       12.8
5:00am             11          0          0         60         99       70.1       47.8      30.19      61.58       47.5      30.21         61         99       51.2      30.21      61.58         60         97       47.0      30.19      61.58       0.00       0.00       0.00       0.00        3.4        0.0       0.21       34.6        0.0     2960.5       12.8
5:05am             11          0          0         60         99       70.1       47.9      30.19      61.58       47.6      30.21         61         99       51.2      30.21      61.58         60         97       47.0      30.19      61.58       0.00       0.00       0.00       0.00        3.5        0.0       0.21       34.7        0.0     2960.6       12.8
5:10am             11          0          0         60         99       70.1       48.3      30.19      61.58       48.0      30.21         61         99       51.2      30.21      61.58         60         97       47.0      30.19      61.58       0.00       0.00       0.00       0.00        3.5        0.0       0.21       34.7        0.0     2960.7       12.8
5:15am             11          0          0         60         99       70.0       48.6      30.19      61.58       48.3      30.21         61         99       51.2      30.21      61.58         60         97       47.0      30.19      61.58       0.00       0.00       0.00       0.00        3.6        0.0       0.21       34.8        0.0     2960.7       12.8
5:20am             11          0          0         60         99       70.0       48.7      30.19      61.58       48.4      30.21         61         99       51.2      30.21      61.58         60         97       47.0      30.19      61.58       0.00       0.00       0.00       0.00        3.7        0.0       0.21       34.8        0.0     2960.8       12.8
5:25am             11          0          0         60         99       70.0       49.0      30.19      61.58       48.7      30.21         61         99       51.2      30.21      61.58         60         97       47.0      30.19      61.58       0.00       0.00       0.00       0.00        3.7        0.0       0.21       34.9        0.0     2960.8       12.8
5:30am             11          0          0         60         99       69.9       49.2      30.19      61.58       48.9      30.21         61         99       51.2      30.21      61.58         60         97       47.0      30.19      61.58       0.00       0.00       0.00       0.00        3.8        0.0       0.21       34.9        0.0     2960.9       12.8
5:35am             11          0          0         60         99       69.9       49.3      30.19      61.58       49.0      30.21         61         99       51.2      30.21      61.58         60         97       47.0      30.19      61.58       0.00       0.00       0.00       0.00        3.8        0.0       0.21       35.0        0.0     2960.9       12.8
5:40am             11          0          0         60         99       69.8       49.6      30.19      61.58       49.3      30.21         61         99       51.2      30.21      61.58         60         97       47.0      30.19      61.58       0.00       0.00       0.00       0.00        3.9        0.0       0.21       35.1        0.0     2961.0       12.8
5:45am             11          0          0         60         99       69.9       49.7      30.19      61.58       49.4      30.21         61         99       51.2      30.21      61.58         60         97       47.0      30.19      61.58       0.00       0.00       0.00       0.00        3.9        0.0       0.21       35.1        0.0     2961.0       12.8
5:50am             11          0          0         60         99       69.8       49.9      30.19      61.58       49.6      30.21         61         99       51.2      30.21      61.58         60         97       47.0      30.19      61.58       0.00       0.00       0.00       0.00        4.0        0.0       0.21       35.2        0.0     2961.1       12.8
5:55am             11          0          0         60         99       69.8       50.2      30.19      61.58       49.9      30.21         61         99       51.2      30.21      61.58         60         97       47.0      30.19      61.58       0.00       0.00       0.00       0.00        4.0        0.0       0.21       35.2        0.0     2961.1       12.8
6:00am             11          0          0         61         99       69.7       50.5      30.19      61.58       50.2      30.21         61         99       51.2      30.21      61.58         60         97       47.0      30.19      61.58       0.00       0.00       0.00       0.00        4.1        0.0       0.21       35.3        0.0     2961.2       12.8
6:05am             11          0          0         61         99       69.7       50.7      30.19      61.58       50.4      30.21         61         99       51.2      30.21      61.58         60         97       47.0      30.19      61.58       0.00       0.00       0.00       0.00        4.1        0.0       0.21       35.3        0.0     2961.2       12.8
6:10am             11          0          0         61         99       69.7       50.9      30.19      61.58       50.6      30.21         61         99       51.2      30.21      61.58         60         97       47.0      30.19      61.58       0.00       0.00       0.00       0.00        4.2        0.0       0.21       35.4        0.0     2961.3       12.8
6:15am             11          0          0         61         99       69.7       51.2      30.19      61.58       50.9      30.21         61         99       51.2      30.21      61.58         60         97       47.0      30.19      61.58       0.00       0.00       0.00       0.00        4.2        0.0       0.21       35.4        0.0     2961.3       12.8
6:20am             11          0          0         60         99       69.6       51.5      30.19      61.58       51.2      30.21         61         99       51.5      30.21      61.58         60         97       47.0      30.19      61.58       0.00       0.00       0.00       0.00        4.3        0.0       0.21       35.5        0.0     2961.4       12.8
6:25am             11          0          0         60        100       69.6       51.8      30.19      61.58       51.8      30.21         61        100       51.9      30.21      61.58         60         97       47.0      30.19      61.58       0.00       0.00       0.00       0.00        4.3        0.0       0.21       35.5        0.0     2961.4       12.8
6:30am             11          0          0         60        100       69.6       52.2      30.19      61.58       52.2      30.21         61        100       52.2      30.21      61.58         60         97       47.0      30.19      61.58       0.00       0.00       0.00       0.00        4.4        0.0       0.21       35.6        0.0     2961.5       12.8
6:35am             11          0          0         60        100       69.6       52.5      30.19      61.58       52.5      30.21         61        100       52.5      30.21      61.58         60         97       47.0      30.19      61.58       0.00       0.00       0.00       0.00        4.4        0.0       0.21       35.6        0.0     2961.5       12.8
6:40am             11          0          0         60         99       69.5       52.7      30.19      61.58       52.4      30.21         61        100       52.7      30.21      61.58         60         97       47.0      30.19      61.58       0.00       0.00       0.00       0.00        4.5        0.0       0.21       35.6        0.0     2961.6       12.8
6:45am             11          0          0         60         99       69.5       53.0      30.19      61.58       52.7      30.21         61        100       53.0      30.21      61.58         60         97       47.0      30.19      61.58       0.00       0.00       0.00       0.00        4.5        0.0       0.21       35.7        0.0     2961.6       12.8
6:50am             11          0          0         60        100       69.5       53.3      30.19      61.58       53.3      30.21         61        100       53.3      30.21      61.58         60         97       47.0      30.19      61.58       0.00       0.00       0.00       0.00        4.5        0.0       0.21       35.7        0.0     2961.7       12.8
6:55am             11          0          0         60        100       69.4       53.5      30.19      61.58       53.5      30.21         61        100       53.5      30.21      61.58         60         97       47.0      30.19      61.58       0.00       0.00       0.00       0.00        4.6        0.0       0.21       35.8        0.0     2961.7       12.8
7:00am             11          0          0         60        100       69.4       53.8      30.19      61.58       53.8      30.21         61        100       53.8      30.21      61.58         60         97       47.0      30.19      61.58       0.00       0.00       0.00       0.00        4.6        0.0       0.21       35.8        0.0     2961.7       12.8
7:05am             11          0          0         60        100       69.4       54.1      30.19      61.58       54.1      30.22         61        100       54.1      30.21      61.58         60         97       47.0      30.19      61.58       0.00       0.00       0.00       0.00        4.7        0.0       0.21       35.8        0.0     2961.8       12.8
7:10am             11          0          0         60        100       69.4       54.4      30.19      61.58       54.4      30.21         61        100       54.4      30.21      61.58         60         97       47.0      30.19      61.58       0.00       0.00       0.00       0.00        4.7        0.0       0.21       35.9        0.0     2961.8       12.8
7:15am             11          0          0         60        100       69.4       54.7      30.19      61.58       54.7      30.21         61        100       54.7      30.21      61.58         60         97       47.0      30.19      61.58       0.00       0.00       0.00       0.00        4.7        0.0       0.21       35.9        0.0     2961.9       12.8
7:20am             11          0          0         60        100       69.4       55.1      30.19      61.58       55.1      30.21         61        100       55.1      30.21      61.58         60         97       47.0      30.19      61.58       0.00       0.00       0.00       0.00        4.8        0.0       0.21       36.0        0.0     2961.9       12.8
7:25am             11          0          0         60        100       69.4       55.3      30.19      61.58       55.3      30.21         61        100       55.4      30.21      61.58         60         97       47.0      30.19      61.58       0.00       0.00       0.00       0.00        4.8        0.0       0.21       36.0        0.0     2961.9       12.8
7:30am             11          0          0         60        100       69.3       55.6      30.19      61.58       55.6      30.21         61        100       55.6      30.21      61.58         60         97       47.0      30.19      61.58       0.00       0.00       0.00       0.00        4.8        0.0       0.21       36.0        0.0     2962.0       12.8
7:35am             11          0          0         61        100       69.3       55.9      30.19      61.58       55.9      30.22         61        100       55.9      30.21      61.58         60         97       47.0      30.19      61.58       0.00       0.00       0.00       0.00        4.9        0.0       0.21       36.1        0.0     2962.0       12.8
7:40am             11          0          0         61         99       69.3       56.0      30.20      61.58       55.7      30.22         61        100       56.0      30.21      61.58         60         97       47.0      30.19      61.58       0.00       0.00       0.00       0.00        4.9        0.0       0.21       36.1        0.0     2962.0       12.8
7:45am             11          0          0         61         99       69.1       56.0      30.20      61.58       55.7      30.22         61        100       56.1      30.21      61.58         60         97       47.0      30.19      61.58       0.00       0.00       0.00       0.00        4.9        0.0       0.21       36.1        0.0     2962.1       12.8
7:50am             11          0          0         61         99       69.0       55.9      30.20      61.58       55.6      30.22         61        100       56.1      30.21      61.58         60         97       47.0      30.19      61.58       0.00       0.00       0.00       0.00        5.0        0.0       0.21       36.2        0.0     2962.1       12.8
7:55am             11          0          0         61         99       68.9       56.0      30.19      61.58       55.7      30.21         61        100       56.1      30.21      61.58         60         97       47.0      30.19      61.58       0.00       0.00       0.00       0.00        5.0        0.0       0.21       36.2        0.0     2962.1       12.8
8:00am             11          0          0         61         99       68.7       55.9      30.20      61.58       55.6      30.22         61        100       56.1      30.21      61.58         60         97       47.0      30.19      61.58       0.00       0.00       0.00       0.00        5.0        0.0       0.21       36.2        0.0     2962.1       12.8
8:05am             11          0          0         61         99       68.6       56.1      30.20      61.58       55.8      30.22         61        100       56.1      30.21      61.58         60         97       47.0      30.19      61.58       0.00       0.00       0.00       0.00        5.1        0.0       0.21       36.2        0.0     2962.2       12.8
8:10am             10          0          0         61         98       68.6       55.7      30.20      61.58       55.1      30.22         61        100       56.1      30.21      61.58         60         97       47.0      30.19      61.58       0.00       0.00       0.00       0.00        5.1        0.0       0.21       36.3        0.0     2962.2       12.8
8:15am             10          0          0         61         99       68.5       55.6      30.19      61.58       55.3      30.22         61        100       56.1      30.21      61.58         60         97       47.0      30.19      61.58       0.00       0.00       0.00       0.00        5.1        0.0       0.21       36.3        0.0     2962.2       12.8
8:20am             10          0          0         61         99       68.4       55.9      30.20      61.58       55.6      30.22         61        100       56.1      30.21      61.58         60         97       47.0      30.19      61.58       0.00       0.00       0.00       0.00        5.2        0.0       0.21       36.3        0.0     2962.3       12.8
8:25am            343          2          2         61         99       68.4       56.0      30.20      61.58       55.7      30.22         61        100       56.1      30.21      61.58         60         97       47.0      30.19      61.58       0.00       0.00       0.00       0.00        5.2        0.0       0.21       36.4        0.0     2962.3       12.8
8:30am            356          0          2         61         99       68.3       55.9      30.20      61.58       55.6      30.22         61        100       56.1      30.21      61.58         60         97       47.0      30.19      61.58       0.00       0.00       0.00       0.00        5.2        0.0       0.21       36.4        0.0     2962.3       12.8
8:35am            293          2          4         61         98       68.3       55.9      30.19      61.58       55.3      30.22         61        100       56.1      30.21      61.58         60         97       47.0      30.19      61.58       0.00       0.00       0.00       0.00        5.3        0.0       0.21       36.4        0.0     2962.4       12.8
8:40am            293          0          0         61         99       68.3       56.2      30.20      61.58       55.9      30.22         61        100       56.2      30.21      61.58         60         97       47.0      30.19      61.58       0.00       0.00       0.00       0.00        5.3        0.0       0.21       36.5        0.0     2962.4       12.8
8:45am            284          0          2         61         98       68.2       55.9      30.20      61.58       55.3      30.22         61        100       56.3      30.21      61.58         60         97       47.0      30.19      61.58       0.00       0.00       0.00       0.00        5.3        0.0       0.21       36.5        0.0     2962.4       12.8
8:50am            218          2          4         61         98       68.2       56.0      30.20      61.58       55.4      30.22         61        100       56.3      30.21      61.58         60         97       47.0      30.19      61.58       0.00       0.00       0.00       0.00        5.4        0.0       0.21       36.5        0.0     2962.5       12.8
8:55am            270          0          0         61         98       68.2       56.1      30.20      61.58       55.5      30.22         61        100       56.3      30.21      61.58         60         97       47.0      30.19      61.58       0.00       0.00       0.00       0.00        5.4        0.0       0.21       36.6        0.0     2962.5       12.8
9:00am            270          0          0         61         98       68.2       56.5      30.20      61.58       55.9      30.22         61        100       56.6      30.21      61.58         60         97       47.0      30.19      61.58       0.00       0.00       0.00       0.00        5.4        0.0       0.21       36.6        0.0     2962.5       12.8
9:05am            330          2          2         61         97       68.2       56.7      30.20      61.58       55.9      30.22         61        100       56.8      30.21      61.58         60         97       47.0      30.19      61.58       0.00       0.00       0.00       0.00        5.4        0.0       0.21       36.6        0.0     2962.6       12.8
9:10am            295          0          0         61         97       68.3       57.0      30.20      61.58       56.2      30.22         61        100       57.0      30.21      61.58         60         97       47.0      30.19      61.58       0.00       0.00       0.00       0.00        5.5        0.0       0.21       36.7        0.0     2962.6       12.8
9:15am              1          2          4         61         96       68.3       57.3      30.20      61.58       56.2      30.22         62        100       57.3      30.21      61.58         60         96       47.0      30.19      61.58       0.00       0.00       0.00       0.00        5.5        0.0       0.21       36.7        0.0     2962.6       12.8
9:20am            334          0          4         62         95       68.2       57.6      30.20      61.58       56.2      30.22         62        100       57.6      30.21      61.58         60         95       47.0      30.19      61.58       0.00       0.00       0.00       0.00        5.5        0.0       0.21       36.7        0.0     2962.6       12.8
9:25am            349          0          0         62         95       68.3       58.0      30.19      61.58       56.6      30.21         62        100       58.0      30.21      61.58         60         95       47.0      30.19      61.58       0.00       0.00       0.00       0.00        5.6        0.0       0.21       36.7        0.0     2962.7       12.8
9:30am            358          0          2         62         95       68.2       58.5      30.19      61.58       57.1      30.22         62        100       58.5      30.21      61.58         60         95       47.0      30.19      61.58       0.00       0.00       0.00       0.00        5.6        0.0       0.21       36.8        0.0     2962.7       12.8
9:35am            309          0          2         62         93       68.2       58.6      30.19      61.58       56.6      30.22         62        100       58.7      30.21      61.58         60         93       47.0      30.19      61.58       0.00       0.00       0.00       0.00        5.6        0.0       0.21       36.8        0.0     2962.7       12.8
9:40am            296          2          4         62         92       68.3       58.9      30.20      61.58       56.6      30.22         62        100       58.9      30.21      61.58         60         92       47.0      30.19      61.58       0.00       0.00       0.00       0.00        5.6        0.0       0.21       36.8        0.0     2962.7       12.8
9:45am             20          3          6         62         90       68.2       59.3      30.19      61.58       56.4      30.22         62        100       59.3      30.21      61.58         60         90       47.0      30.19      61.58       0.00       0.00       0.00       0.00        5.6        0.0       0.21       36.8        0.0     2962.8       12.8
9:50am            297          0          4         62         90       68.3       59.4      30.19      61.58       56.5      30.21         62        100       59.4      30.21      61.58         60         90       47.0      30.19      61.58       0.00       0.00       0.00       0.00        5.7        0.0       0.21       36.8        0.0     2962.8       12.8
9:55am            346          0          4         61         90       68.3       59.7      30.19      61.58       56.8      30.21         62        100       59.7      30.21      61.58         60         90       47.0      30.19      61.58       0.00       0.00       0.00       0.00        5.7        0.0       0.21       36.9        0.0     2962.8       12.8
10:00am             9          3          6         61         89       68.3       59.7      30.19      61.58       56.5      30.21         62        100       59.8      30.21      61.58         60         88       47.0      30.19      61.58       0.00       0.00       0.00       0.00        5.7        0.0       0.21       36.9        0.0     2962.8       12.8
10:05am           330          5          6         61         89       68.3       59.8      30.19      61.58       56.6      30.21         62        100       59.8      30.21      61.58         60         88       47.0      30.19      61.58       0.00       0.00       0.00       0.00        5.7        0.0       0.21       36.9        0.0     2962.8       12.8
10:10am           296          2          4         61         88       68.3       60.0      30.19      61.58       56.4      30.21         62        100       60.0      30.21      61.58         60         88       47.0      30.19      61.58       0.00       0.00       0.00       0.00        5.7        0.0       0.21       36.9        0.0     2962.8       12.8
10:15am           275          5          6         61         89       68.3       60.2      30.19      61.58       57.0      30.21         62        100       60.2      30.21      61.58         60         88       47.0      30.19      61.58       0.00       0.00       0.00       0.00        5.8        0.0       0.21       36.9        0.0     2962.9       12.8
10:20am           278          2          6         61         88       68.3       60.1      30.19      61.58       56.5      30.21         62        100       60.2      30.21      61.58         60         88       47.0      30.19      61.58       0.00       0.00       0.00       0.00        5.8        0.0       0.21       36.9        0.0     2962.9       12.8
10:25am           217          2          2         61         88       68.3       60.4      30.19      61.58       56.8      30.21         62        100       60.4      30.21      61.58         60         88       47.0      30.19      61.58       0.00       0.00       0.00       0.00        5.8        0.0       0.21       37.0        0.0     2962.9       12.8
10:30am           302          2          4         61         88       68.3       60.7      30.19      61.58       57.1      30.21         62        100       60.7      30.21      61.58         60         88       47.0      30.19      61.58       0.00       0.00       0.00       0.00        5.8        0.0       0.21       37.0        0.0     2962.9       12.8
10:35am           256          3          6         61         88       68.3       61.1      30.19      61.58       57.5      30.21         62        100       61.1      30.21      61.58         60         88       47.0      30.19      61.58       0.00       0.00       0.00       0.00        5.8        0.0       0.21       37.0        0.0     2962.9       12.8
10:40am           295          3          4         61         87       68.3       60.9      30.19      61.58       57.0      30.21         62        100       61.2      30.21      61.58         60         86       47.0      30.19      61.58       0.00       0.00       0.00       0.00        5.8        0.0       0.21       37.0        0.0     2962.9       12.8
10:45am           290          2          6         61         87       68.4       60.7      30.19      61.58       56.8      30.21         62        100       61.2      30.21      61.58         60         86       47.0      30.19      61.58       0.00       0.00       0.00       0.00        5.8        0.0       0.21       37.0        0.0     2963.0       12.8
10:50am           331          3          4         61         88       68.4       60.4      30.19      61.58       56.8      30.21         62        100       61.2      30.21      61.58         60         86       47.0      30.19      61.58       0.00       0.00       0.00       0.00        5.9        0.0       0.21       37.0        0.0     2963.0       12.8
10:55am           285          0          6         61         87       68.4       60.2      30.19      61.58       56.3      30.21         62        100       61.2      30.21      61.58         60         86       47.0      30.19      61.58       0.00       0.00       0.00       0.00        5.9        0.0       0.21       37.1        0.0     2963.0       12.8
11:00am            28          0          2         61         89       68.4       60.3      30.19      61.58       57.0      30.21         62        100       61.2      30.21      61.58         60         86       47.0      30.19      61.58       0.00       0.00       0.00       0.00        5.9        0.0       0.21       37.1        0.0     2963.0       12.8
11:05am           334          6          8         61         88       68.4       60.8      30.19      61.58       57.2      30.21         62        100       61.2      30.21      61.58         60         86       47.0      30.19      61.58       0.00       0.00       0.00       0.00        5.9        0.0       0.21       37.1        0.0     2963.0       12.8
11:10am           308          2          2         61         88       68.5       60.8      30.19      61.58       57.2      30.21         62        100       61.2      30.21      61.58         60         86       47.0      30.19      61.58       0.00       0.00       0.00       0.00        5.9        0.0       0.21       37.1        0.0     2963.0       12.8
11:15am           269          5          8         61         86       68.5       61.3      30.19      61.58       57.1      30.21         62        100       61.3      30.21      61.58         60         86       47.0      30.19      61.58       0.00       0.00       0.00       0.00        5.9        0.0       0.21       37.1        0.0     2963.1       12.8
11:20am           311          2         10         61         87       68.5       61.0      30.18      61.58       57.1      30.20         62        100       61.3      30.21      61.58         60         86       47.0      30.18      61.58       0.00       0.00       0.00       0.00        6.0        0.0       0.21       37.1        0.0     2963.1       12.8
11:25am           296          2         10         61         87       68.6       60.9      30.19      61.58       57.0      30.21         62        100       61.3      30.21      61.58         60         86       47.0      30.18      61.58       0.00       0.00       0.00       0.00        6.0        0.0       0.21       37.1        0.0     2963.1       12.8
11:30am           160          0          2         61         87       68.6       60.8      30.19      61.58       56.9      30.21         62        100       61.3      30.21      61.58         60         86       47.0      30.18      61.58       0.00       0.00       0.00       0.00        6.0        0.0       0.21       37.2        0.0     2963.1       12.8
11:35am           334          5          8         61         87       68.6       61.1      30.19      61.58       57.2      30.21         62        100       61.3      30.21      61.58         60         86       47.0      30.18      61.58       0.00       0.00       0.00       0.00        6.0        0.0       0.21       37.2        0.0     2963.1       12.8
11:40am            20          3          6         61         86       68.6       61.4      30.19      61.58       57.2      30.21         62        100       61.4      30.21      61.58         60         86       47.0      30.18      61.58       0.00       0.00       0.00       0.00        6.0        0.0       0.21       37.2        0.0     2963.1       12.8
11:45am             6          5          6         61         86       68.6       61.8      30.19      61.58       57.6      30.21         62        100       61.8      30.21      61.58         60         86       47.0      30.18      61.58       0.00       0.00       0.00       0.00        6.0        0.0       0.21       37.2        0.0     2963.1       12.8
11:50am           334          0          6         61         86       68.7       61.8      30.19      61.58       57.6      30.21         62        100       61.9      30.21      61.58         60         85       47.0      30.18      61.58       0.00       0.00       0.00       0.00        6.0        0.0       0.21       37.2        0.0     2963.1       12.8
11:55am            10          5          6         61         87       68.7       62.0      30.19      61.58       58.1      30.21         62        100       62.0      30.21      61.58         60         85       47.0      30.18      61.58       0.00       0.00       0.00       0.00        6.0        0.0       0.21       37.2        0.0     2963.2       12.8
12:00pm           301          3         10         61         86       68.6       62.1      30.19      61.58       57.9      30.21         62        100       62.2      30.21      61.58         60         85       47.0      30.18      61.58       0.00       0.00       0.00       0.00        6.1        0.0       0.21       37.2        0.0     2963.2       12.8
12:05pm           339          6         14         61         86       68.7       61.9      30.19      61.58       57.7      30.21         62        100       62.2      30.21      61.58         60         85       47.0      30.18      61.58       0.00       0.00       0.00       0.00        6.1        0.0       0.21       37.2        0.0     2963.2       12.8
12:10pm           245          2          8         61         87       68.7       61.7      30.19      61.58       57.8      30.21         62        100       62.2      30.21      61.58         60         85       47.0      30.18      61.58       0.00       0.00       0.00       0.00        6.1        0.0       0.21       37.3        0.0     2963.2       12.8
12:15pm           336          8         16         61         86       68.7       62.3      30.19      61.58       58.1      30.21         62        100       62.3      30.21      61.58         60         85       47.0      30.18      61.58       0.00       0.00       0.00       0.00        6.1        0.0       0.21       37.3        0.0     2963.2       12.8
12:20pm             3          2          8         61         86       68.8       62.6      30.19      61.58       58.4      30.21         62        100       62.6      30.21      61.58         60         85       47.0      30.18      61.58       0.00       0.00       0.00       0.00        6.1        0.0       0.21       37.3        0.0     2963.2       12.8
12:25pm           329          6         12         61         87       68.8       62.3      30.19      61.58       58.4      30.21         62        100       62.6      30.21      61.58         60         85       47.0      30.18      61.58       0.00       0.00       0.00       0.00        6.1        0.0       0.21       37.3        0.0     2963.2       12.8
12:30pm           119          6          8         61         86       68.9       61.8      30.19      61.58       57.6      30.21         62        100       62.6      30.21      61.58         60         85       47.0      30.18      61.58       0.00       0.00       0.00       0.00        6.1        0.0       0.21       37.3        0.0     2963.2       12.8
12:35pm           305          3         10         61         86       68.9       62.0      30.20      61.58       57.8      30.22         62        100       62.6      30.21      61.58         60         85       47.0      30.18      61.58       0.00       0.00       0.00       0.00        6.1        0.0       0.21       37.3        0.0     2963.2       12.8
12:40pm           328          3          4         61         85       68.9       61.6      30.19      61.58       57.1      30.21         62        100       62.6      30.21      61.58         60         84       47.0      30.18      61.58       0.00       0.00       0.00       0.00        6.1        0.0       0.21       37.3        0.0     2963.2       12.8
12:45pm           338          5          8         61         86       68.9       62.0      30.19      61.58       57.8      30.21         62        100       62.6      30.21      61.58         60         84       47.0      30.18      61.58       0.00       0.00       0.00       0.00        6.1        0.0       0.21       37.3        0.0     2963.3       12.8
12:50pm            22          5         12         61         86       68.9       62.1      30.19      61.58       57.9      30.21         62        100       62.6      30.21      61.58         60         84       47.0      30.18      61.58       0.00       0.00       0.00       0.00        6.2        0.0       0.21       37.3        0.0     2963.3       12.8
12:55pm            19          3         12         61         85       69.0       62.6      30.19      61.58       58.0      30.21         62        100       62.6      30.21      61.58         60         84       47.0      30.18      61.58       0.00       0.00       0.00       0.00        6.2        0.0       0.21       37.3        0.0     2963.3       12.8
1:00pm            286          6          8         61         84       69.0       62.6      30.19      61.58       57.7      30.21         62        100       62.8      30.21      61.58         60         84       47.0      30.18      61.58       0.00       0.00       0.00       0.00        6.2        0.0       0.21       37.4        0.0     2963.3       12.8
1:05pm              1          2          4         61         85       69.0       62.6      30.19      61.58       58.0      30.21         62        100       62.8      30.21      61.58         60         84       47.0      30.18      61.58       0.00       0.00       0.00       0.00        6.2        0.0       0.21       37.4        0.0     2963.3       12.8
1:10pm            330          3         10         61         84       69.0       62.5      30.19      61.58       57.6      30.21         62        100       62.8      30.21      61.58         60         84       47.0      30.18      61.58       0.00       0.00       0.00       0.00        6.2        0.0       0.21       37.4        0.0     2963.3       12.8
1:15pm            232          6         12         61         83       69.1       62.3      30.19      61.58       57.1      30.21         62        100       62.8      30.21      61.58         60         83       47.0      30.18      61.58       0.00       0.00       0.00       0.00        6.2        0.0       0.21       37.4        0.0     2963.3       12.8
1:20pm             25          2          8         61         85       69.1       61.9      30.19      61.58       57.3      30.21         62        100       62.8      30.21      61.58         60         83       47.0      30.18      61.58       0.00       0.00       0.00       0.00        6.2        0.0       0.21       37.4        0.0     2963.3       12.8
1:25pm            306          3          8         61         86       69.1       61.7      30.19      61.58       57.5      30.21         62        100       62.8      30.21      61.58         60         83       47.0      30.18      61.58       0.00       0.00       0.00       0.00        6.2        0.0       0.21       37.4        0.0     2963.3       12.8
1:30pm            278          6         10         61         86       69.2       62.0      30.19      61.58       57.8      30.21         62        100       62.8      30.21      61.58         60         83       47.0      30.18      61.58       0.00       0.00       0.00       0.00        6.2        0.0       0.21       37.4        0.0     2963.3       12.8
1:35pm             11          5         10         61         86       69.2       61.8      30.19      61.58       57.6      30.21         62        100       62.8      30.21      61.58         60         83       47.0      30.18      61.58       0.00       0.00       0.00       0.00        6.2        0.0       0.21       37.4        0.0     2963.4       12.8
1:40pm            264          3         14         61         86       69.2       61.8      30.19      61.58       57.6      30.21         62        100       62.8      30.21      61.58         60         83       47.0      30.18      61.58       0.00       0.00       0.00       0.00        6.3        0.0       0.21       37.4        0.0     2963.4       12.8
1:45pm             24          8         10         61         87       69.3       62.6      30.19      61.58       58.7      30.21         62        100       62.8      30.21      61.58         60         83       47.0      30.18      61.58       0.00       0.00       0.00       0.00        6.3        0.0       0.21       37.4        0.0     2963.4       12.8
1:50pm            310          5          6         61         88       69.3       62.5      30.19      61.58       58.9      30.21         62        100       62.8      30.21      61.58         60         83       47.0      30.18      61.58       0.00       0.00       0.00       0.00        6.3        0.0       0.21       37.5        0.0     2963.4       12.8
1:55pm            317         11         16         61         86       69.4       62.6      30.19      61.58       58.4      30.21         62        100       62.8      30.21      61.58         60         83       47.0      30.18      61.58       0.00       0.00       0.00       0.00        6.3        0.0       0.21       37.5        0.0     2963.4       12.8
2:00pm            269          6         16         61         86       69.4       62.3      30.19      61.58       58.1      30.21         62        100       62.8      30.21      61.58         60         83       47.0      30.18      61.58       0.00       0.00       0.00       0.00        6.3        0.0       0.21       37.5        0.0     2963.4       12.8
2:05pm            349         10         18         62         86       69.4       62.5      30.19      61.58       58.3      30.21         62        100       62.8      30.21      61.58         60         83       47.0      30.18      61.58       0.00       0.00       0.00       0.00        6.3        0.0       0.21       37.5        0.0     2963.4       12.8
2:10pm            311          8         14         62         87       69.4       62.3      30.19      61.58       58.4      30.21         62        100       62.8      30.21      61.58         60         83       47.0      30.18      61.58       0.00       0.00       0.00       0.00        6.3        0.0       0.21       37.5        0.0     2963.4       12.8
2:15pm            335          5          8         62         85       69.4       62.2      30.19      61.58       57.6      30.21         62        100       62.8      30.21      61.58         60         83       47.0      30.18      61.58       0.00       0.00       0.00       0.00        6.3        0.0       0.21       37.5        0.0     2963.4       12.8
2:20pm            324          6         12         62         87       69.4       62.6      30.19      61.58       58.7      30.21         62        100       62.8      30.21      61.58         60         83       47.0      30.18      61.58       0.00       0.00       0.00       0.00        6.3        0.0       0.21       37.5        0.0     2963.4       12.8
2:25pm             28          5         14         62         86       69.5       62.2      30.19      61.58       58.0      30.21         62        100       62.8      30.21      61.58         60         83       47.0      30.18      61.58       0.00       0.00       0.00       0.00        6.3        0.0       0.21       37.5        0.0     2963.4       12.8
2:30pm            345          5          8         62         85       69.5       62.3      30.18      61.58       57.7      30.20         62        100       62.8      30.21      61.58         60         83       47.0      30.18      61.58       0.00       0.00       0.00       0.00        6.3        0.0       0.21       37.5        0.0     2963.5       12.8
2:35pm             34         10         14         62         85       69.5       62.2      30.18      61.58       57.6      30.20         62        100       62.8      30.21      61.58         60         83       47.0      30.18      61.58       0.00       0.00       0.00       0.00        6.4        0.0       0.21       37.5        0.0     2963.5       12.8
2:40pm            345         10         16         62         86       69.5       62.5      30.19      61.58       58.3      30.21         62        100       62.8      30.21      61.58         60         83       47.0      30.18      61.58       0.00       0.00       0.00       0.00        6.4        0.0       0.21       37.5        0.0     2963.5       12.8
2:45pm            298          5         16         62         85       69.6       62.2      30.19      61.58       57.6      30.21         62        100       62.8      30.21      61.58         60         83       47.0      30.18      61.58       0.00       0.00       0.00       0.00        6.4        0.0       0.21       37.6        0.0     2963.5       12.8
2:50pm            291          3         22         62         86       69.6       62.0      30.18      61.58       57.8      30.20         62        100       62.8      30.21      61.58         60         83       47.0      30.18      61.58       0.00       0.00       0.00       0.00        6.4        0.0       0.21       37.6        0.0     2963.5       12.8
2:55pm            292          8         16         62         84       69.7       62.5      30.18      61.58       57.6      30.20         62        100       62.8      30.21      61.58         60         83       47.0      30.18      61.58       0.00       0.00       0.00       0.00        6.4        0.0       0.21       37.6        0.0     2963.5       12.8
3:00pm             84          2          8         62         86       69.7       62.4      30.18      61.58       58.2      30.20         62        100       62.8      30.21      61.58         60         83       47.0      30.18      61.58       0.00       0.00       0.00       0.00        6.4        0.0       0.21       37.6        0.0     2963.5       12.8
3:05pm            285          6         14         62         84       69.7       62.4      30.18      61.58       57.5      30.20         62        100       62.8      30.21      61.58         60         83       47.0      30.18      61.58       0.00       0.00       0.00       0.00        6.4        0.0       0.21       37.6        0.0     2963.5       12.8
3:10pm             13          6         14         62         85       69.7       62.0      30.18      61.58       57.4      30.20         62        100       62.8      30.21      61.58         60         83       47.0      30.18      61.58       0.00       0.00       0.00       0.00        6.4        0.0       0.21       37.6        0.0     2963.5       12.8
3:15pm            306          3          6         62         85       69.7       62.2      30.18      61.58       57.6      30.20         62        100       62.8      30.21      61.58         60         83       47.0      30.18      61.58       0.00       0.00       0.00       0.00        6.4        0.0       0.21       37.6        0.0     2963.5       12.8
3:20pm            307         10         18         62         84       69.7       62.0      30.18      61.58       57.1      30.20         62        100       62.8      30.21      61.58         60         83       47.0      30.18      61.58       0.00       0.00       0.00       0.00        6.4        0.0       0.21       37.6        0.0     2963.6       12.8
3:25pm            358          2         16         62         85       69.7       62.1      30.18      61.58       57.5      30.20         62        100       62.8      30.21      61.58         60         83       47.0      30.18      61.58       0.00       0.00       0.00       0.00        6.4        0.0       0.21       37.6        0.0     2963.6       12.8
3:30pm            323          6         16         62         83       69.7       62.3      30.18      61.58       57.1      30.20         62        100       62.8      30.21      61.58         60         83       47.0      30.18      61.58       0.00       0.00       0.00       0.00        6.5        0.0       0.21       37.6        0.0     2963.6       12.8
3:35pm            295         10         16         62         84       69.8       62.0      30.18      61.58       57.1      30.20         62        100       62.8      30.21      61.58         60         83       47.0      30.18      61.58       0.00       0.00       0.00       0.00        6.5        0.0       0.21       37.6        0.0     2963.6       12.8
3:40pm            263          8         12         62         84       69.9       61.9      30.18      61.58       57.0      30.20         62        100       62.8      30.21      61.58         60         83       47.0      30.18      61.58       0.00       0.00       0.00       0.00        6.5        0.0       0.21       37.7        0.0     2963.6       12.8
3:45pm            314          6         16         62         84       69.8       62.2      30.18      61.58       57.3      30.20         62        100       62.8      30.21      61.58         60         83       47.0      30.18      61.58       0.00       0.00       0.00       0.00        6.5        0.0       0.21       37.7        0.0     2963.6       12.8
3:50pm            297          8         12         62         84       69.9       62.1      30.18      61.58       57.2      30.20         62        100       62.8      30.21      61.58         60         83       47.0      30.18      61.58       0.00       0.00       0.00       0.00        6.5        0.0       0.21       37.7        0.0     2963.6       12.8
3:55pm            267         11         14         62         85       69.9       62.5      30.18      61.58       57.9      30.20         62        100       62.8      30.21      61.58         60         83       47.0      30.18      61.58       0.00       0.00       0.00       0.00        6.5        0.0       0.21       37.7        0.0     2963.6       12.8
4:00pm            319          5         16         62         83       69.9       62.5      30.18      61.58       57.3      30.20         62        100       62.8      30.21      61.58         60         83       47.0      30.18      61.58       0.00       0.00       0.00       0.00        6.5        0.0       0.21       37.7        0.0     2963.6       12.8
4:05pm            300          5         12         62         84       70.0       62.0      30.18      61.58       57.1      30.20         62        100       62.8      30.21      61.58         60         82       47.0      30.18      61.58       0.00       0.00       0.00       0.00        6.5        0.0       0.21       37.7        0.0     2963.6       12.8
4:10pm            303          3         12         62         83       70.0       61.8      30.18      61.58       56.6      30.20         62        100       62.8      30.21      61.58         60         82       47.0      30.18      61.58       0.00       0.00       0.00       0.00        6.5        0.0       0.21       37.7        0.0     2963.7       12.8
4:15pm            329          6         12         62         83       70.0       61.6      30.18      61.58       56.4      30.20         62        100       62.8      30.21      61.58         60         82       47.0      30.18      61.58       0.00       0.00       0.00       0.00        6.5        0.0       0.21       37.7        0.0     2963.7       12.8
4:20pm              8          3         16         61         82       70.0       61.8      30.18      61.58       56.3      30.20         62        100       62.8      30.21      61.58         60         82       47.0      30.18      61.58       0.00       0.00       0.00       0.00        6.6        0.0       0.21       37.7        0.0     2963.7       12.8
4:25pm            335          3         14         60         83       69.8       61.8      30.18      61.58       56.6      30.20         62        100       62.8      30.21      61.58         60         82       47.0      30.18      61.58       0.00       0.00       0.00       0.00        6.6        0.0       0.21       37.8        0.0     2963.7       12.8
4:30pm            304          8         14         59         82       69.7       62.1      30.18      61.58       56.5      30.20         62        100       62.8      30.21      61.58         59         82       47.0      30.17      61.58       0.00       0.00       0.00       0.00        6.6        0.0       0.21       37.8        0.0     2963.7       12.8
4:35pm            307          6         16         59         83       69.5       62.6      30.17      61.58       57.4      30.19         62        100       62.8      30.21      61.58         59         81       47.0      30.17      61.58       0.00       0.00       0.00       0.00        6.6        0.0       0.21       37.8        0.0     2963.7       12.8
4:40pm            298          3         10         59         82       69.4       62.4      30.17      61.58       56.8      30.19         62        100       62.8      30.21      61.58         59         80       47.0      30.17      61.58       0.00       0.00       0.00       0.00        6.6        0.0       0.21       37.8        0.0     2963.7       12.8
4:45pm            302          3          6         59         82       69.4       62.6      30.17      61.58       57.0      30.19         62        100       62.8      30.21      61.58         59         80       47.0      30.17      61.58       0.00       0.00       0.00       0.00        6.6        0.0       0.21       37.8        0.0     2963.7       12.8
4:50pm             13         11         14         59         81       69.2       62.9      30.17      61.58       57.0      30.19         62        100       63.0      30.21      61.58         59         80       47.0      30.17      61.58       0.00       0.00       0.00       0.00        6.6        0.0       0.21       37.8        0.0     2963.7       12.8
4:55pm            330          2          2         58         83       69.0       62.5      30.17      61.58       57.3      30.19         62        100       63.0      30.21      61.58         58         79       47.0      30.17      61.58       0.00       0.00       0.00       0.00        6.6        0.0       0.21       37.8        0.0     2963.7       12.8
5:00pm            286          5         14         59         80       68.9       63.2      30.17      61.58       56.9      30.19         62        100       63.3      30.21      61.58         58         79       47.0      30.17      61.58       0.00       0.00       0.00       0.00        6.6        0.0       0.21       37.8        0.0     2963.7       12.8
5:05pm            325         10         18         57         80       68.7       62.4      30.17      61.58       56.2      30.19         62        100       63.3      30.21      61.58         57         78       47.0      30.17      61.58       0.00       0.00       0.00       0.00        6.6        0.0       0.21       37.8        0.0     2963.8       12.8
5:10pm            322          3         18         58         81       68.5       62.7      30.17      61.58       56.8      30.19         62        100       63.3      30.21      61.58         57         78       47.0      30.17      61.58       0.00       0.00       0.00       0.00        6.6        0.0       0.21       37.8        0.0     2963.8       12.8
5:15pm            281          5         10         58         81       68.4       63.4      30.17      61.58       57.5      30.19         62        100       63.4      30.21      61.58         57         78       47.0      30.17      61.58       0.00       0.00       0.00       0.00        6.7        0.0       0.21       37.8        0.0     2963.8       12.8
5:20pm             47          2          6         59         80       68.4       62.9      30.16      61.58       56.6      30.18         62        100       63.4      30.21      61.58         57         78       47.0      30.16      61.58       0.00       0.00       0.00       0.00        6.7        0.0       0.21       37.8        0.0     2963.8       12.8
5:25pm            274          2          8         59         81       68.4       63.4      30.16      61.58       57.5      30.18         62        100       63.4      30.21      61.58         57         78       47.0      30.16      61.58       0.00       0.00       0.00       0.00        6.7        0.0       0.21       37.9        0.0     2963.8       12.8
5:30pm              1         10         14         59         80       68.3       63.0      30.16      61.58       56.7      30.18         62        100       63.4      30.21      61.58         57         78       47.0      30.16      61.58       0.00       0.00       0.00       0.00        6.7        0.0       0.21       37.9        0.0     2963.8       12.8
5:35pm            360          5          6         59         81       68.2       62.7      30.16      61.58       56.8      30.18         62        100       63.4      30.21      61.58         57         78       47.0      30.16      61.58       0.00       0.00       0.00       0.00        6.7        0.0       0.21       37.9        0.0     2963.8       12.8
5:40pm            310          5         12         59         81       68.1       62.0      30.16      61.58       56.1      30.18         62        100       63.4      30.21      61.58         57         78       47.0      30.16      61.58       0.00       0.00       0.00       0.00        6.7        0.0       0.21       37.9        0.0     2963.8       12.8
5:45pm            283          3         10         59         81       68.1       62.0      30.16      61.58       56.1      30.18         62        100       63.4      30.21      61.58         57         78       47.0      30.15      61.58       0.00       0.00       0.00       0.00        6.7        0.0       0.21       37.9        0.0     2963.8       12.8
5:50pm            285          2          4         59         83       68.2       62.0      30.16      61.58       56.8      30.18         62        100       63.4      30.21      61.58         57         78       47.0      30.15      61.58       0.00       0.00       0.00       0.00        6.7        0.0       0.21       37.9        0.0     2963.8       12.8
5:55pm            245          3          8         59         82       68.3       62.6      30.15      61.58       57.0      30.17         62        100       63.4      30.21      61.58         57         78       47.0      30.15      61.58       0.00       0.00       0.00       0.00        6.7        0.0       0.21       37.9        0.0     2963.8       12.8
6:00pm             11          5         14         59         80       68.3       62.5      30.15      61.58       56.3      30.17         62        100       63.4      30.21      61.58         57         78       47.0      30.15      61.58       0.00       0.00       0.00       0.00        6.7        0.0       0.21       37.9        0.0     2963.8       12.8
6:05pm            299          6         10         59         81       68.4       62.9      30.15      61.58       57.0      30.17         62        100       63.4      30.21      61.58         57         78       47.0      30.15      61.58       0.00       0.00       0.00       0.00        6.7        0.0       0.21       37.9        0.0     2963.9       12.8
6:10pm            328          3         14         59         81       68.5       62.7      30.15      61.58       56.8      30.17         62        100       63.4      30.21      61.58         57         78       47.0      30.15      61.58       0.00       0.00       0.00       0.00        6.7        0.0       0.21       37.9        0.0     2963.9       12.8
6:15pm            351          8         10         60         82       68.6       62.4      30.15      61.58       56.8      30.17         62        100       63.4      30.21      61.58         57         78       47.0      30.15      61.58       0.00       0.00       0.00       0.00        6.8        0.0       0.21       37.9        0.0     2963.9       12.8
6:20pm            346          5          6         60         83       68.7       62.0      30.15      61.58       56.8      30.17         62        100       63.4      30.21      61.58         57         78       47.0      30.15      61.58       0.00       0.00       0.00       0.00        6.8        0.0       0.21       37.9        0.0     2963.9       12.8
6:25pm            312          2          8         60         82       68.7       62.3      30.15      61.58       56.7      30.17         62        100       63.4      30.21      61.58         57         78       47.0      30.15      61.58       0.00       0.00       0.00       0.00        6.8        0.0       0.21       38.0        0.0     2963.9       12.8
6:30pm            319          8         10         60         82       68.8       62.2      30.15      61.58       56.6      30.17         62        100       63.4      30.21      61.58         57         78       47.0      30.15      61.58       0.00       0.00       0.00       0.00        6.8        0.0       0.21       38.0        0.0     2963.9       12.8
6:35pm            321          6          8         60         83       68.8       62.2      30.15      61.58       57.0      30.17         62        100       63.4      30.21      61.58         57         78       47.0      30.15      61.58       0.00       0.00       0.00       0.00        6.8        0.0       0.21       38.0        0.0     2963.9       12.8
6:40pm            311          6          8         60         82       68.9       61.9      30.15      61.58       56.4      30.17         62        100       63.4      30.21      61.58         57         78       47.0      30.15      61.58       0.00       0.00       0.00       0.00        6.8        0.0       0.21       38.0        0.0     2963.9       12.8
6:45pm            312          2          8         60         83       69.0       62.4      30.15      61.58       57.2      30.17         62        100       63.4      30.21      61.58         57         78       47.0      30.15      61.58       0.00       0.00       0.00       0.00        6.8        0.0       0.21       38.0        0.0     2963.9       12.8
6:50pm            316          6          8         60         82       69.1       62.9      30.15      61.58       57.3      30.17         62        100       63.4      30.21      61.58         57         78       47.0      30.15      61.58       0.00       0.00       0.00       0.00        6.8        0.0       0.21       38.0        0.0     2963.9       12.8
6:55pm            293          3          6         60         80       69.1       63.0      30.15      61.58       56.7      30.17         62        100       63.4      30.21      61.58         57         78       47.0      30.15      61.58       0.00       0.00       0.00       0.00        6.8        0.0       0.21       38.0        0.0     2963.9       12.8
7:00pm              8          2          4         60         81       69.2       63.0      30.15      61.58       57.1      30.17         62        100       63.4      30.21      61.58         57         78       47.0      30.15      61.58       0.00       0.00       0.00       0.00        6.8        0.0       0.21       38.0        0.0     2964.0       12.8
7:05pm            281          5         10         60         79       69.3       62.8      30.15      61.58       56.2      30.17         62        100       63.4      30.21      61.58         57         78       47.0      30.15      61.58       0.00       0.00       0.00       0.00        6.8        0.0       0.21       38.0        0.0     2964.0       12.8
7:10pm            324          5         10         60         81       69.3       62.1      30.15      61.58       56.2      30.17         62        100       63.4      30.21      61.58         57         78       47.0      30.15      61.58       0.00       0.00       0.00       0.00        6.9        0.0       0.21       38.0        0.0     2964.0       12.8
7:15pm            255          6          8         60         82       69.4       62.0      30.15      61.58       56.4      30.17         62        100       63.4      30.21      61.58         57         78       47.0      30.15      61.58       0.00       0.00       0.00       0.00        6.9        0.0       0.21       38.0        0.0     2964.0       12.8
7:20pm            328          2          2         60         83       69.4       61.8      30.14      61.58       56.6      30.16         62        100       63.4      30.21      61.58         57         78       47.0      30.14      61.58       0.00       0.00       0.00       0.00        6.9        0.0       0.21       38.1        0.0     2964.0       12.8
7:25pm            252          0          4         60         82       69.5       61.3      30.14      61.58       55.8      30.17         62        100       63.4      30.21      61.58         57         78       47.0      30.14      61.58       0.00       0.00       0.00       0.00        6.9        0.0       0.21       38.1        0.0     2964.0       12.8
7:30pm            283          0          6         60         83       69.6       61.1      30.14      61.58       55.9      30.17         62        100       63.4      30.21      61.58         57         78       47.0      30.14      61.58       0.00       0.00       0.00       0.00        6.9        0.0       0.21       38.1        0.0     2964.0       12.8
7:35pm            295          2          2         60         83       69.7       61.0      30.14      61.58       55.8      30.17         62        100       63.4      30.21      61.58         57         78       47.0      30.14      61.58       0.00       0.00       0.00       0.00        6.9        0.0       0.21       38.1        0.0     2964.0       12.8
7:40pm            309          3          8         60         83       69.7       60.7      30.14      61.58       55.5      30.16         62        100       63.4      30.21      61.58         57         78       47.0      30.14      61.58       0.00       0.00       0.00       0.00        6.9        0.0       0.21       38.1        0.0     2964.0       12.8
7:45pm            289          3          4         60         84       69.7       60.5      30.14      61.58       55.6      30.16         62        100       63.4      30.21      61.58         57         78       47.0      30.14      61.58       0.00       0.00       0.00       0.00        6.9        0.0       0.21       38.1        0.0     2964.1       12.8
7:50pm            298          2          2         60         84       69.7       60.5      30.14      61.58       55.6      30.16         62        100       63.4      30.21      61.58         57         78       47.0      30.14      61.58       0.00       0.00       0.00       0.00        7.0        0.0       0.21       38.1        0.0     2964.1       12.8
7:55pm            321          0          2         59         84       69.7       60.4      30.14      61.58       55.6      30.16         62        100       63.4      30.21      61.58         57         78       47.0      30.14      61.58       0.00       0.00       0.00       0.00        7.0        0.0       0.21       38.1        0.0     2964.1       12.8
8:00pm            297          3          6         59         84       69.5       60.4      30.14      61.58       55.6      30.16         62        100       63.4      30.21      61.58         57         78       47.0      30.14      61.58       0.00       0.00       0.00       0.00        7.0        0.0       0.21       38.2        0.0     2964.1       12.8
8:05pm            321          0          4         59         84       69.4       60.0      30.14      61.58       55.2      30.16         62        100       63.4      30.21      61.58         57         78       47.0      30.13      61.58       0.00       0.00       0.00       0.00        7.0        0.0       0.21       38.2        0.0     2964.1       12.8
8:10pm            250          2          2         58         85       69.3       60.0      30.13      61.58       55.5      30.15         62        100       63.4      30.21      61.58         57         78       47.0      30.13      61.58       0.00       0.00       0.00       0.00        7.0        0.0       0.21       38.2        0.0     2964.1       12.8
8:15pm            225          2          2         58         84       69.2       60.1      30.13      61.58       55.3      30.15         62        100       63.4      30.21      61.58         57         78       47.0      30.13      61.58       0.00       0.00       0.00       0.00        7.0        0.0       0.21       38.2        0.0     2964.2       12.8
8:20pm            244          0          2         59         84       69.2       60.1      30.13      61.58       55.3      30.15         62        100       63.4      30.21      61.58         57         78       47.0      30.13      61.58       0.00       0.00       0.00       0.00        7.1        0.0       0.21       38.2        0.0     2964.2       12.8
8:25pm            200          0          2         59         84       69.3       60.4      30.13      61.58       55.6      30.15         62        100       63.4      30.21      61.58         57         78       47.0      30.13      61.58       0.00       0.00       0.00       0.00        7.1        0.0       0.21       38.2        0.0     2964.2       12.8
8:30pm            237          0          2         59         83       69.4       60.5      30.13      61.58       55.3      30.15         62        100       63.4      30.21      61.58         57         78       47.0      30.13      61.58       0.00       0.00       0.00       0.00        7.1        0.0       0.21       38.3        0.0     2964.2       12.8
8:35pm            294          0          0         59         82       69.6       60.1      30.13      61.58       54.6      30.15         62        100       63.4      30.21      61.58         57         78       47.0      30.13      61.58       0.00       0.00       0.00       0.00        7.1        0.0       0.21       38.3        0.0     2964.2       12.8
8:40pm            293          0          4         59         83       69.7       59.8      30.13      61.58       54.6      30.15         62        100       63.4      30.21      61.58         57         78       47.0      30.13      61.58       0.00       0.00       0.00       0.00        7.1        0.0       0.21       38.3        0.0     2964.2       12.8
8:45pm            296          0          4         59         84       69.8       59.4      30.13      61.58       54.6      30.15         62        100       63.4      30.21      61.58         57         78       47.0      30.13      61.58       0.00       0.00       0.00       0.00        7.1        0.0       0.21       38.3        0.0     2964.3       12.8
8:50pm            296          0          0         59         85       69.9       59.2      30.13      61.58       54.7      30.15         62        100       63.4      30.21      61.58         57         78       47.0      30.13      61.58       0.00       0.00       0.00       0.00        7.2        0.0       0.21       38.3        0.0     2964.3       12.8
8:55pm            326          0          0         59         85       70.0       58.9      30.13      61.58       54.4      30.15         62        100       63.4      30.21      61.58         57         78       47.0      30.13      61.58       0.00       0.00       0.00       0.00        7.2        0.0       0.21       38.4        0.0     2964.3       12.8
9:00pm             12          0          6         60         86       70.2       58.5      30.13      61.58       54.3      30.15         62        100       63.4      30.21      61.58         57         78       47.0      30.13      61.58       0.00       0.00       0.00       0.00        7.2        0.0       0.21       38.4        0.0     2964.3       12.8
9:05pm            300          0          0         60         86       70.2       58.2      30.13      61.58       54.0      30.15         62        100       63.4      30.21      61.58         57         78       47.0      30.13      61.58       0.00       0.00       0.00       0.00        7.2        0.0       0.21       38.4        0.0     2964.3       12.8
9:10pm            300          0          0         60         86       70.4       58.0      30.13      61.58       53.8      30.15         62        100       63.4      30.21      61.58         57         78       47.0      30.13      61.58       0.00       0.00       0.00       0.00        7.2        0.0       0.21       38.4        0.0     2964.4       12.8
9:15pm            300          0          0         60         87       70.4       57.7      30.13      61.58       53.9      30.15         62        100       63.4      30.21      61.58         57         78       47.0      30.13      61.58       0.00       0.00       0.00       0.00        7.3        0.0       0.21       38.4        0.0     2964.4       12.8
9:20pm             18          0          2         60         87       70.5       57.4      30.13      61.58       53.6      30.15         62        100       63.4      30.21      61.58         57         78       47.0      30.12      61.58       0.00       0.00       0.00       0.00        7.3        0.0       0.21       38.5        0.0     2964.4       12.8
9:25pm             18          0          0         60         88       70.6       57.2      30.13      61.58       53.7      30.15         62        100       63.4      30.21      61.58         57         78       47.0      30.12      61.58       0.00       0.00       0.00       0.00        7.3        0.0       0.21       38.5        0.0     2964.4       12.8
9:30pm             18          0          2         59         88       70.7       56.9      30.13      61.58       53.4      30.15         62        100       63.4      30.21      61.58         57         78       47.0      30.12      61.58       0.00       0.00       0.00       0.00        7.3        0.0       0.21       38.5        0.0     2964.5       12.8
9:35pm             18          0          0         59         89       70.8       56.7      30.13      61.58       53.5      30.15         62        100       63.4      30.21      61.58         57         78       47.0      30.12      61.58       0.00       0.00       0.00       0.00        7.4        0.0       0.21       38.6        0.0     2964.5       12.8
9:40pm             18          0          0         59         89       70.8       56.4      30.13      61.58       53.2      30.15         62        100       63.4      30.21      61.58         57         78       47.0      30.12      61.58       0.00       0.00       0.00       0.00        7.4        0.0       0.21       38.6        0.0     2964.5       12.8
9:45pm             18          0          0         59         89       70.9       56.1      30.13      61.58       52.9      30.15         62        100       63.4      30.21      61.58         57         78       47.0      30.12      61.58       0.00       0.00       0.00       0.00        7.4        0.0       0.21       38.6        0.0     2964.5       12.8
9:50pm             18          0          0         59         91       71.0       55.9      30.13      61.58       53.3      30.15         62        100       63.4      30.21      61.58         57         78       47.0      30.12      61.58       0.00       0.00       0.00       0.00        7.5        0.0       0.21       38.6        0.0     2964.6       12.8
9:55pm             18          0          0         59         91       71.0       55.6      30.13      61.58       53.0      30.15         62        100       63.4      30.21      61.58         57         78       47.0      30.12      61.58       0.00       0.00       0.00       0.00        7.5        0.0       0.21       38.7        0.0     2964.6       12.8
10:00pm            18          0          0         59         92       71.0       55.2      30.13      61.58       52.9      30.15         62        100       63.4      30.21      61.58         57         78       47.0      30.12      61.58       0.00       0.00       0.00       0.00        7.5        0.0       0.21       38.7        0.0     2964.6       12.8
10:05pm            18          0          2         59         92       71.1       55.0      30.13      61.58       52.7      30.15         62        100       63.4      30.21      61.58         57         78       47.0      30.12      61.58       0.00       0.00       0.00       0.00        7.6        0.0       0.21       38.7        0.0     2964.7       12.8
10:10pm            18          0          0         59         93       71.2       54.7      30.13      61.58       52.7      30.15         62        100       63.4      30.21      61.58         57         78       47.0      30.12      61.58       0.00       0.00       0.00       0.00        7.6        0.0       0.21       38.8        0.0     2964.7       12.8
10:15pm            18          0          0         59         93       71.2       54.4      30.13      61.58       52.4      30.15         62        100       63.4      30.21      61.58         57         78       47.0      30.12      61.58       0.00       0.00       0.00       0.00        7.6        0.0       0.21       38.8        0.0     2964.7       12.8
10:20pm            18          0          0         58         93       71.2       54.2      30.13      61.58       52.2      30.15         62        100       63.4      30.21      61.58         57         78       47.0      30.12      61.58       0.00       0.00       0.00       0.00        7.7        0.0       0.21       38.8        0.0     2964.8       12.8
10:25pm            18          0          0         58         94       71.1       53.9      30.13      61.58       52.2      30.15         62        100       63.4      30.21      61.58         57         78       47.0      30.12      61.58       0.00       0.00       0.00       0.00        7.7        0.0       0.21       38.9        0.0     2964.8       12.8
10:30pm            18          0          0         58         94       71.2       53.8      30.13      61.58       52.1      30.15         62        100       63.4      30.21      61.58         57         78       47.0      30.12      61.58       0.00       0.00       0.00       0.00        7.7        0.0       0.21       38.9        0.0     2964.9       12.8
10:35pm            49          0          0         58         94       71.2       53.6      30.13      61.58       51.9      30.15         62        100       63.4      30.21      61.58         57         78       47.0      30.12      61.58       0.00       0.00       0.00       0.00        7.8        0.0       0.21       39.0        0.0     2964.9       12.8
10:40pm            49          0          0         58         95       71.2       53.3      30.13      61.58       51.9      30.15         62        100       63.4      30.21      61.58         57         78       47.0      30.12      61.58       0.00       0.00       0.00       0.00        7.8        0.0       0.21       39.0        0.0     2964.9       12.8
10:45pm            49          0          0         58         95       71.2       53.1      30.12      61.58       51.7      30.14         62        100       63.4      30.21      61.58         57         78       47.0      30.12      61.58       0.00       0.00       0.00       0.00        7.9        0.0       0.21       39.0        0.0     2965.0       12.8
10:50pm            49          0          0         58         95       71.2       53.0      30.13      61.58       51.6      30.15         62        100       63.4      30.21      61.58         57         78       47.0      30.12      61.58       0.00       0.00       0.00       0.00        7.9        0.0       0.21       39.1        0.0     2965.0       12.8
10:55pm            49          0          0         58         95       71.2       52.8      30.12      61.58       51.4      30.14         62        100       63.4      30.21      61.58         57         78       47.0      30.12      61.58       0.00       0.00       0.00       0.00        7.9        0.0       0.21       39.1        0.0     2965.1       12.8
11:00pm            49          0          0         58         95       71.2       52.6      30.12      61.58       51.2      30.14         62        100       63.4      30.21      61.58         57         78       47.0      30.12      61.58       0.00       0.00       0.00       0.00        8.0        0.0       0.21       39.2        0.0     2965.1       12.8
11:05pm            49          0          0         58         96       71.1       52.5      30.12      61.58       51.4      30.14         62        100       63.4      30.21      61.58         57         78       47.0      30.12      61.58       0.00       0.00       0.00       0.00        8.0        0.0       0.21       39.2        0.0     2965.1       12.8
11:10pm            49          0          0         58         96       71.1       52.5      30.12      61.58       51.4      30.14         62        100       63.4      30.21      61.58         57         78       47.0      30.12      61.58       0.00       0.00       0.00       0.00        8.1        0.0       0.21       39.3        0.0     2965.2       12.8
11:15pm            49          0          0         58         96       71.1       52.4      30.12      61.58       51.3      30.14         62        100       63.4      30.21      61.58         57         78       47.0      30.12      61.58       0.00       0.00       0.00       0.00        8.1        0.0       0.21       39.3        0.0     2965.2       12.8
11:20pm            49          0          0         58         96       71.1       52.3      30.12      61.58       51.2      30.14         62        100       63.4      30.21      61.58         57         78       47.0      30.12      61.58       0.00       0.00       0.00       0.00        8.2        0.0       0.21       39.3        0.0     2965.3       12.8
11:25pm            49          0          0         58         96       71.0       52.2      30.12      61.58       51.1      30.14         62        100       63.4      30.21      61.58         57         78       47.0      30.12      61.58       0.00       0.00       0.00       0.00        8.2        0.0       0.21       39.4        0.0     2965.3       12.8
11:30pm            49          0          0         58         96       71.0       52.3      30.12      61.58       51.2      30.14         62        100       63.4      30.21      61.58         57         78       47.0      30.12      61.58       0.00       0.00       0.00       0.00        8.3        0.0       0.21       39.4        0.0     2965.4       12.8
11:35pm            49          0          0         58         96       71.0       52.2      30.12      61.58       51.1      30.14         62        100       63.4      30.21      61.58         57         78       47.0      30.12      61.58       0.00       0.00       0.00       0.00        8.3        0.0       0.21       39.5        0.0     2965.4       12.8
11:40pm            49          0          0         58         96       71.0       52.2      30.12      61.58       51.1      30.14         62        100       63.4      30.21      61.58         57         78       47.0      30.12      61.58       0.00       0.00       0.00       0.00        8.3        0.0       0.21       39.5        0.0     2965.5       12.8
11:45pm            49          0          0         58         96       71.0       52.2      30.12      61.58       51.1      30.14         62        100       63.4      30.21      61.58         57         78       47.0      30.12      61.58       0.00       0.00       0.00       0.00        8.4        0.0       0.21       39.6        0.0     2965.5       12.8
11:50pm            49          0          0         58         96       70.9       52.1      30.12      61.58       51.0      30.14         62        100       63.4      30.21      61.58         57         78       47.0      30.12      61.58       0.00       0.00       0.00       0.00        8.4        0.0       0.21       39.6        0.0     2965.5       12.8
11:55pm            49          0          0         58         96       70.9       52.0      30.12      61.58       50.9      30.14         62        100       63.4      30.21      61.58         57         78       47.0      30.11      61.58       0.00       0.00       0.00       0.00        8.5        0.0       0.21       39.7        0.0     2965.6       12.8

Yearly Archive Report

Parameter                   Max   Max Time   Max Date        Min   Min Time   Min Date    Average
Wind Direction              360    12:40am     1/1/20          0     6:25pm     1/8/20        135
Wind Speed                   63    12:41pm    1/15/20          0    12:02am     1/1/20          3
Wind Gust                    72    12:41pm    1/15/20          0     2:01am     1/1/20          8
In Humidity                  77    10:16am    6/24/20         26    11:24am    2/20/20         50
Humidity                    100    12:00am     1/1/20         31    10:53am    4/13/20         91
In Temp                    84.1     9:46am    2/21/20       59.8     7:02pm     4/6/20       70.0
Out Temp                   84.9     5:11pm     5/8/20       28.8    12:42am     2/4/20       49.2
Raw Barometer             30.62     9:59pm    2/24/20      29.24     6:04pm    1/15/20      30.07
Total Rain                61.58    10:20am     7/3/20      22.87    12:00am     1/1/20      49.77
Dew Point                  63.1     2:03pm    6/20/20       25.7     8:16am    3/15/20       46.4
SL Barometer              30.64     9:59pm    2/24/20      29.26     6:04pm    1/15/20      30.09


Monthly Archive Report

Parameter                   Max   Max Time   Max Date        Min   Min Time   Min Date    Average
Wind Direction              360    12:24am     7/1/20          1    12:22am     7/1/20        315
Wind Speed                   18     1:34pm     7/3/20          0    12:00am     7/1/20          2
Wind Gust                    22     1:34pm     7/3/20          0    12:20am     7/1/20          4
In Humidity                  64    10:00am     7/1/20         57     5:04pm     7/5/20         61
Humidity                    100     6:22am     7/5/20         76     1:32pm     7/3/20         93
In Temp                    71.2    12:58am     7/5/20       66.3     4:29pm     7/3/20       68.8
Out Temp                   64.5     1:09pm     7/3/20       47.0     4:38am     7/5/20       56.8
Raw Barometer             30.22     2:33pm     7/4/20      29.99     8:20am     7/1/20      30.10
Total Rain                61.58    10:20am     7/3/20      61.36    10:31am     7/3/20      61.56
Dew Point                  59.5     2:54pm     7/4/20       46.5     4:38am     7/5/20       54.7
SL Barometer              30.25     2:33pm     7/4/20      30.01     8:20am     7/1/20      30.12

 


Daily Archive Report

Parameter                   Max   Max Time        Min   Min Time    Average
Wind Direction              183     6:13am         49    12:00am        180
Wind Speed                    2     6:13am          0    12:00am          0
Wind Gust                     2     6:13am          0    12:00am          0
In Humidity                  58    12:00am         57    12:05am         57
Humidity                     99     3:17am         96    12:00am         98
In Temp                    70.9    12:00am       68.9     6:15am       69.9
Out Temp                   54.1     6:18am       48.8     2:46am       51.5
Raw Barometer             30.11    12:13am      30.08     5:14am      30.09
Total Rain                61.58    12:00am      61.58    12:00am      61.58
Dew Point                  53.8     6:18am       48.3     2:46am       51.0
SL Barometer              30.14    12:13am      30.10     5:14am      30.11


Daily Summary Report

Date         Wind Dir         Hi         Lo   Wind Spd         Hi         Lo  Wind Gust         Hi         Lo     Hum In         Hi         Lo   Humidity         Hi         Lo    Temp In         Hi         Lo       Temp         Hi         Lo  Raw Barom         Hi         Lo   Tot Rain         Hi         Lo  Dew Point         Hi         Lo   Barom SL         Hi         Lo   Hum In H         Hi         Lo Humidity H         Hi         Lo Temp Out H         Hi         Lo    Barom H         Hi         Lo   Hum In L         Hi         Lo Humidity L         Hi         Lo Temp Out L         Hi         Lo    Barom L         Hi         Lo  DailyRain         Hi         Lo   HourRain         Hi         Lo   24HrRain         Hi         Lo   RainRate         Hi         Lo   Deg Heat         Hi         Lo   Deg Cool         Hi         Lo  MonthRain         Hi         Lo DegHeat Mo         Hi         Lo DegCool Mo         Hi         Lo DegHeat Yr         Hi         Lo DegCool Yr         Hi         Lo
                                                mph        mph        mph        mph        mph        mph          %          %          %          %          %          %         F         F         F         F         F         F         in         in         in         in         in         in         F         F         F         in         in         in          %          %          %          %          %          %         F         F         F         in         in         in          %          %          %          %          %          %         F         F         F         in         in         in         in         in         in         in         in         in         in         in         in      in/hr      in/hr      in/hr         F         F         F         F         F         F         in         in         in         F         F         F         F         F         F         F         F         F         F         F         F
3/14/2015           0          0          0          0          0          0          0          0          0          0          0          0         82         82         82        0.0        0.0        0.0       60.8       60.8       60.8      30.12      30.12      30.12       0.00       0.00       0.00       55.3       55.3       55.3      30.12      30.12      30.12          0          0          0          0          0          0        0.0        0.0        0.0       0.00       0.00       0.00          0          0          0          0          0          0        0.0        0.0        0.0       0.00       0.00       0.00       0.00       0.00       0.00       0.00       0.00       0.00       0.00       0.00       0.00      0.000      0.000      0.000        0.0        0.0        0.0        0.0        0.0        0.0       0.00      -2.04      -2.04        0.0        0.0        0.0        0.0        0.0        0.0        0.0        0.0        0.0        0.0        0.0        0.0
3/15/2015         248        360          0          2         10          0          4         10          0          0          0          0         72         82         46        0.0        0.0        0.0       63.1       66.2       57.2      30.03      30.12      29.98       0.00       0.00       0.00       53.4       55.6       44.8      30.03      30.12      29.98          0          0          0          0          0          0        0.0        0.0        0.0       0.00       0.00       0.00          0          0          0          0          0          0        0.0        0.0        0.0       0.00       0.00       0.00       0.00       0.00       0.00       0.00       0.00       0.00       0.00       0.00       0.00      0.000      0.000      0.000        0.0        0.0        0.0        0.0        0.0        0.0       0.00       0.00       0.00        0.0        0.0        0.0        0.0        0.0        0.0        0.0        0.0        0.0        0.0        0.0        0.0
3/16/2015           0        360          0          2         10          0          4         10          0          0          0          0         78         94         46        0.0        0.0        0.0       60.9       66.2       55.4      30.02      30.12      29.98       0.00       0.00       0.00       53.8       55.6       44.8      30.02      30.12      29.98          0          0          0          0          0          0        0.0        0.0        0.0       0.00       0.00       0.00          0          0          0          0          0          0        0.0        0.0        0.0       0.00       0.00       0.00       0.00       0.00       0.00       0.00       0.00       0.00       0.00       0.00       0.00      0.000      0.000      0.000        0.0        0.0        0.0        0.0        0.0        0.0       0.00       0.00       0.00        0.0        0.0        0.0        0.0        0.0        0.0        0.0        0.0        0.0        0.0        0.0        0.0
3/17/2015           0        350          0          2          5          0          4          5          0          0          0          0         66        100         29        0.0        0.0        0.0       61.5       73.4       50.0      30.03      30.08      29.99       0.00       0.00       0.00       48.1       53.7       39.2      30.03      30.08      29.99          0          0          0          0          0          0        0.0        0.0        0.0       0.00       0.00       0.00          0          0          0          0          0          0        0.0        0.0        0.0       0.00       0.00       0.00       0.00       0.00       0.00       0.00       0.00       0.00       0.00       0.00       0.00      0.000      0.000      0.000        0.0        0.0        0.0        0.0        0.0        0.0       0.00     -95.88     -95.88        0.0        0.0        0.0        0.0        0.0        0.0        0.0        0.0        0.0        0.0        0.0        0.0
3/18/2015         338        360        300          9         23          4         13         23          5          0          0          0         35         77         21        0.0        0.0        0.0       66.6       78.8       53.6      30.03      30.08      29.96       0.00       0.00       0.00       36.5       46.6       33.8      30.03      30.08      29.96          0          0          0          0          0          0        0.0        0.0        0.0       0.00       0.00       0.00          0          0          0          0          0          0        0.0        0.0        0.0       0.00       0.00       0.00       0.00       0.00       0.00       0.00       0.00       0.00       0.00       0.00       0.00      0.000      0.000      0.000        0.0        0.0        0.0        0.0        0.0        0.0       0.00       0.00       0.00        0.0        0.0        0.0        0.0        0.0        0.0        0.0        0.0        0.0        0.0        0.0        0.0
3/19/2015           0        360          0          4         12          0          6         12          0          0          0          0         39         71         15        0.0        0.0        0.0       66.1       82.4       51.8      30.01      30.06      29.93       0.00       0.00       0.00       37.6       48.1       30.2      30.01      30.06      29.93          0          0          0          0          0          0        0.0        0.0        0.0       0.00       0.00       0.00          0          0          0          0          0          0        0.0        0.0        0.0       0.00       0.00       0.00       0.00       0.00       0.00       0.00       0.00       0.00       0.00       0.00       0.00      0.000      0.000      0.000        0.0        0.0        0.0        0.0        0.1        0.1       0.00    -369.24    -369.24        0.0        0.1        0.1        0.0        0.1        0.1        0.0        0.1        0.1        0.0        0.1        0.1
3/20/2015         180        350          0          3         12          0          4         12          0          0          0          0         64         87         38        0.0        0.0        0.0       59.1       71.6       48.2      30.05      30.09      30.03       0.00       0.00       0.00       46.0       51.9       42.7      30.05      30.09      30.03          0          0          0          0          0          0        0.0        0.0        0.0       0.00       0.00       0.00          0          0          0          0          0          0        0.0        0.0        0.0       0.00       0.00       0.00       0.00       0.00       0.00       0.00       0.00       0.00       0.00       0.00       0.00      0.000      0.000      0.000        0.0        0.0        0.0        0.0        0.0        0.0       0.00       0.00       0.00        0.0        0.0        0.0        0.0        0.0        0.0        0.0        0.0        0.0        0.0        0.0        0.0
3/21/2015         225        280          0          3         13          0          5         13          0          0          0          0         57         88         25        0.0        0.0        0.0       63.7       73.4       51.8      30.08      30.15      30.02       0.00       0.00       0.00       46.2       51.9       35.5      30.08      30.15      30.02          0          0          0          0          0          0        0.0        0.0        0.0       0.00       0.00       0.00          0          0          0          0          0          0        0.0        0.0        0.0       0.00       0.00       0.00       0.00       0.00       0.00       0.00       0.00       0.00       0.00       0.00       0.00      0.000      0.000      0.000        0.0        0.1        0.1        0.0        0.0        0.0       0.00    -656.88    -656.88        0.0        0.3        0.3        0.0        0.3        0.3        0.0        0.3        0.3        0.0        0.3        0.3
3/22/2015         180        320          0          7         25          0          9         25          0          0          0          0         74         94         49        0.0        0.0        0.0       59.0       69.8       51.8      30.05      30.09      29.98       0.01       0.00       0.00       50.0       53.6       46.4      30.05      30.09      29.98          0          0          0          0          0          0        0.0        0.0        0.0       0.00       0.00       0.00          0          0          0          0          0          0        0.0        0.0        0.0       0.00       0.00       0.00       0.00       0.00       0.00       0.00       0.00       0.00       0.00       0.00       0.00      0.000      0.000      0.000        0.0        0.0        0.0        0.0        0.0        0.0       0.00       0.00       0.00        0.0        0.0        0.0        0.0        0.0        0.0        0.0        0.0        0.0        0.0        0.0        0.0
3/23/2015         180        280          0          5         14          0          8         14          0          0          0          0         66        100         34        0.0        0.0        0.0       56.6       64.4       46.4      30.16      30.23      30.08       0.00       0.00       0.00       43.8       50.1       35.4      30.16      30.23      30.08          0          0          0          0          0          0        0.0        0.0        0.0       0.00       0.00       0.00          0          0          0          0          0          0        0.0        0.0        0.0       0.00       0.00       0.00       0.00       0.00       0.00       0.00       0.00       0.00       0.00       0.00       0.00      0.000      0.000      0.000        0.0        0.1        0.1        0.0        0.0        0.0       0.00    -883.32    -883.32        0.0        0.4        0.4        0.0        0.3        0.3        0.0        0.4        0.4        0.0        0.3        0.3
3/24/2015         180        350          0          5         13          0          7         13          0          0          0          0         64         82         51        0.0        0.0        0.0       57.9       64.4       53.6      30.23      30.28      30.18       0.00       0.00       0.00       45.5       48.4       39.3      30.23      30.28      30.18          0          0          0          0          0          0        0.0        0.0        0.0       0.00       0.00       0.00          0          0          0          0          0          0        0.0        0.0        0.0       0.00       0.00       0.00       0.00       0.00       0.00       0.00       0.00       0.00       0.00       0.00       0.00      0.000      0.000      0.000        0.0        0.1        0.1        0.0        0.0        0.0       0.00    -981.24    -981.24        0.0        0.6        0.6        0.0        0.3        0.3        0.0        0.6        0.6        0.0        0.3        0.3
3/25/2015         315        360          0          3          6          0          5          6          0          0          0          0         73         93         38        0.0        0.0        0.0       56.1       73.4       46.4      30.21      30.27      30.13       0.00       0.00       0.00       46.0       48.4       44.5      30.21      30.27      30.13          0          0          0          0          0          0        0.0        0.0        0.0       0.00       0.00       0.00          0          0          0          0          0          0        0.0        0.0        0.0       0.00       0.00       0.00       0.00       0.00       0.00       0.00       0.00       0.00       0.00       0.00       0.00      0.000      0.000      0.000        0.0        0.0        0.0        0.0        0.0        0.0       0.00       0.00       0.00        0.0        0.0        0.0        0.0        0.0        0.0        0.0        0.0        0.0        0.0        0.0        0.0
3/26/2015         338        340          0          2          7          0          4          7          0          0          0          0         64         82         30        0.0        0.0        0.0       63.5       80.6       51.8      30.14      30.18      30.08       0.00       0.00       0.00       49.8       53.7       46.3      30.14      30.18      30.08          0          0          0          0          0          0        0.0        0.0        0.0       0.00       0.00       0.00          0          0          0          0          0          0        0.0        0.0        0.0       0.00       0.00       0.00       0.00       0.00       0.00       0.00       0.00       0.00       0.00       0.00       0.00      0.000      0.000      0.000        0.0        0.0        0.0        0.0        0.0        0.0       0.00       0.00       0.00        0.0        0.0        0.0        0.0        0.0        0.0        0.0        0.0        0.0        0.0        0.0        0.0
3/27/2015           0        360          0          4         17          0          6         17          0          0          0          0         57         87         33        0.0        0.0        0.0       66.9       82.4       50.0      30.07      30.12      29.99       0.00       0.00       0.00       49.3       53.8       39.2      30.07      30.12      29.99          0          0          0          0          0          0        0.0        0.0        0.0       0.00       0.00       0.00          0          0          0          0          0          0        0.0        0.0        0.0       0.00       0.00       0.00       0.00       0.00       0.00       0.00       0.00       0.00       0.00       0.00       0.00      0.000      0.000      0.000        0.0        0.0        0.0        0.0        0.0        0.0       0.00       0.00       0.00        0.0        0.0        0.0        0.0        0.0        0.0        0.0        0.0        0.0        0.0        0.0        0.0
3/28/2015           0        360          0          8         17          0         12         17          0          0          0          0         32         62         15        0.0        0.0        0.0       68.2       80.6       51.8      30.15      30.23      30.06       0.00       0.00       0.00       35.1       39.2       28.7      30.15      30.23      30.06          0          0          0          0          0          0        0.0        0.0        0.0       0.00       0.00       0.00          0          0          0          0          0          0        0.0        0.0        0.0       0.00       0.00       0.00       0.00       0.00       0.00       0.00       0.00       0.00       0.00       0.00       0.00      0.000      0.000      0.000        0.0        0.1        0.1        0.0        0.1        0.1       0.00   -1377.00   -1377.00        0.0        0.8        0.8        0.0        0.5        0.5        0.0        0.8        0.8        0.0        0.5        0.5
3/29/2015           0        360          0          5         14          0          8         14          0          0          0          0         31         72         12        0.0        0.0        0.0       71.1       87.8       57.2      30.04      30.10      29.95       0.00       0.00       0.00       36.0       52.0       28.9      30.04      30.10      29.95          0          0          0          0          0          0        0.0        0.0        0.0       0.00       0.00       0.00          0          0          0          0          0          0        0.0        0.0        0.0       0.00       0.00       0.00       0.00       0.00       0.00       0.00       0.00       0.00       0.00       0.00       0.00      0.000      0.000      0.000        0.0        0.0        0.0        0.0        0.1        0.1       0.00   -1505.52   -1505.52        0.0        0.8        0.8        0.0        0.6        0.6        0.0        0.8        0.8        0.0        0.6        0.6
3/30/2015         180        330          0          3         13          0          5         13          0          0          0          0         50         77         28        0.0        0.0        0.0       67.1       80.6       53.6      29.97      30.03      29.89       0.00       0.00       0.00       46.0       52.0       37.7      29.97      30.03      29.89          0          0          0          0          0          0        0.0        0.0        0.0       0.00       0.00       0.00          0          0          0          0          0          0        0.0        0.0        0.0       0.00       0.00       0.00       0.00       0.00       0.00       0.00       0.00       0.00       0.00       0.00       0.00      0.000      0.000      0.000        0.0        0.0        0.0        0.0        0.1        0.1       0.00   -1623.84   -1623.84        0.0        0.9        0.9        0.0        0.8        0.8        0.0        0.9        0.9        0.0        0.8        0.8
3/31/2015           0        360          0          3         11          0          6         11          0          0          0          0         49         66         29        0.0        0.0        0.0       55.5       62.6       50.0      30.05      30.20      29.95       0.00       0.00       0.00       36.1       44.7       28.2      30.05      30.20      29.95          0          0          0          0          0          0        0.0        0.0        0.0       0.00       0.00       0.00          0          0          0          0          0          0        0.0        0.0        0.0       0.00       0.00       0.00       0.00       0.00       0.00       0.00       0.00       0.00       0.00       0.00       0.00      0.000      0.000      0.000        0.0        0.0        0.0        0.0        0.0        0.0       0.00       0.00       0.00        0.0        0.0        0.0        0.0        0.0        0.0        0.0        0.0        0.0        0.0        0.0        0.0
4/1/2015            0        360          0         10         23          0         12         23          0          0          0          0         33         65         15        0.0        0.0        0.0       58.2       69.8       42.8      30.13      30.21      30.03       0.00       0.00       0.00       26.8       32.0       20.1      30.13      30.21      30.03          0          0          0          0          0          0        0.0        0.0        0.0       0.00       0.00       0.00          0          0          0          0          0          0        0.0        0.0        0.0       0.00       0.00       0.00       0.00       0.00       0.00       0.00       0.00       0.00       0.00       0.00       0.00      0.000      0.000      0.000        0.0        0.1        0.1        0.0        0.0        0.0       0.00   -1795.20   -1795.20        0.0        1.0        1.0        0.0        0.9        0.9        0.0        1.0        1.0        0.0        0.9        0.9
4/2/2015            0        360         10          9         23          3         13         23          4          0          0          0         32         46         17        0.0        0.0        0.0       58.8       71.6       48.2      30.21      30.28      30.14       0.00       0.00       0.00       27.9       30.5       23.1      30.21      30.28      30.14          0          0          0          0          0          0        0.0        0.0        0.0       0.00       0.00       0.00          0          0          0          0          0          0        0.0        0.0        0.0       0.00       0.00       0.00       0.00       0.00       0.00       0.00       0.00       0.00       0.00       0.00       0.00      0.000      0.000      0.000        0.0        0.1        0.1        0.0        0.0        0.0       0.00   -1901.28   -1901.28        0.0        0.1        0.1        0.0        0.0        0.0        0.0        1.1        1.1        0.0        0.9        0.9
4/3/2015            0        340          0          4         12          0          7         12          0          0          0          0         32         70         13        0.0        0.0        0.0       60.2       73.4       39.2      30.12      30.19      30.02       0.00       0.00       0.00       27.1       33.9       19.6      30.12      30.19      30.02          0          0          0          0          0          0        0.0        0.0        0.0       0.00       0.00       0.00          0          0          0          0          0          0        0.0        0.0        0.0       0.00       0.00       0.00       0.00       0.00       0.00       0.00       0.00       0.00       0.00       0.00       0.00      0.000      0.000      0.000        0.0        0.1        0.1        0.0        0.0        0.0       0.00   -2186.88   -2186.88        0.0        0.2        0.2        0.0        0.1        0.1        0.0        1.2        1.2        0.0        0.9        0.9
4/4/2015          292        320          0          6         14          0          9         14          0          0          0          0         37         62         21        0.0        0.0        0.0       60.2       69.8       50.0      29.95      30.04      29.83       0.00       0.00       0.00       32.5       39.3       26.6      29.95      30.04      29.83          0          0          0          0          0          0        0.0        0.0        0.0       0.00       0.00       0.00          0          0          0          0          0          0        0.0        0.0        0.0       0.00       0.00       0.00       0.00       0.00       0.00       0.00       0.00       0.00       0.00       0.00       0.00      0.000      0.000      0.000        0.0        0.1        0.1        0.0        0.1        0.1       0.00   -2458.20   -2458.20        0.0        0.3        0.3        0.0        0.1        0.1        0.0        1.3        1.3        0.0        1.0        1.0
4/5/2015            0        360          0          7         22          0         10         22          0          0          0          0         67         93         47        0.0        0.0        0.0       50.2       55.4       39.2      29.82      29.88      29.77       0.00       0.00       0.00       39.3       44.6       32.2      29.82      29.88      29.77          0          0          0          0          0          0        0.0        0.0        0.0       0.00       0.00       0.00          0          0          0          0          0          0        0.0        0.0        0.0       0.00       0.00       0.00       0.00       0.00       0.00       0.00       0.00       0.00       0.00       0.00       0.00      0.000      0.000      0.000        0.0        0.1        0.1        0.0        0.0        0.0       0.00   -2792.76   -2792.76        0.0        0.4        0.4        0.0        0.1        0.1        0.0        1.4        1.4        0.0        1.0        1.0
4/6/2015          158        310          0         10         29          0         14         29          0          0          0          0         62         93         39        0.0        0.0        0.0       50.8       60.8       37.4      29.86      29.94      29.76       0.00       0.00       0.00       36.8       41.0       34.1      29.86      29.94      29.76          0          0          0          0          0          0        0.0        0.0        0.0       0.00       0.00       0.00          0          0          0          0          0          0        0.0        0.0        0.0       0.00       0.00       0.00       0.00       0.00       0.00       0.00       0.00       0.00       0.00       0.00       0.00      0.000      0.000      0.000        0.0        0.3        0.3        0.0        0.0        0.0       0.00   -3137.52   -3137.52        0.0        0.7        0.7        0.0        0.1        0.1        0.0        1.6        1.6        0.0        1.0        1.0
4/7/2015          180        360          0          9         29          0         14         29          0          0          0          0         85         93         51        0.0        0.0        0.0       47.3       55.4       44.6      29.83      30.01      29.73       0.00       0.00       0.00       42.9       44.7       37.4      29.83      30.01      29.73          0          0          0          0          0          0        0.0        0.0        0.0       0.00       0.00       0.00          0          0          0          0          0          0        0.0        0.0        0.0       0.00       0.00       0.00       0.00       0.00       0.00       0.00       0.00       0.00       0.00       0.00       0.00      0.000      0.000      0.000        0.0        0.0        0.0        0.0        0.0        0.0       0.00       0.00       0.00        0.0        0.0        0.0        0.0        0.0        0.0        0.0        0.0        0.0        0.0        0.0        0.0
4/8/2015          180        360          0          6         29          0          9         29          0          0          0          0         79        100         41        0.0        0.0        0.0       48.8       60.8       42.8      29.98      30.21      29.73       0.00       0.00       0.00       42.0       44.7       35.4      29.98      30.21      29.73          0          0          0          0          0          0        0.0        0.0        0.0       0.00       0.00       0.00          0          0          0          0          0          0        0.0        0.0        0.0       0.00       0.00       0.00       0.00       0.00       0.00       0.00       0.00       0.00       0.00       0.00       0.00      0.000      0.000      0.000        0.0        0.0        0.0        0.0        0.0        0.0       0.00       0.00       0.00        0.0        0.0        0.0        0.0        0.0        0.0        0.0        0.0        0.0        0.0        0.0        0.0
4/9/2015            0        340          0          2          7          0          4          7          0          0          0          0         63         87         28        0.0        0.0        0.0       53.7       69.8       37.4      30.00      30.10      29.92       0.00       0.00       0.00       39.4       43.0       33.9      30.00      30.10      29.92          0          0          0          0          0          0        0.0        0.0        0.0       0.00       0.00       0.00          0          0          0          0          0          0        0.0        0.0        0.0       0.00       0.00       0.00       0.00       0.00       0.00       0.00       0.00       0.00       0.00       0.00       0.00      0.000      0.000      0.000        0.0        0.5        0.5        0.0        0.0        0.0       0.00   -4041.24   -4041.24        0.0        1.4        1.4        0.0        0.1        0.1        0.0        2.4        2.4        0.0        1.0        1.0
4/10/2015         180        350          0          4         14          0          6         14          0          0          0          0         59         87         27        0.0        0.0        0.0       57.8       71.6       41.0      29.98      30.03      29.93       0.00       0.00       0.00       41.4       48.1       35.6      29.98      30.03      29.93          0          0          0          0          0          0        0.0        0.0        0.0       0.00       0.00       0.00          0          0          0          0          0          0        0.0        0.0        0.0       0.00       0.00       0.00       0.00       0.00       0.00       0.00       0.00       0.00       0.00       0.00       0.00      0.000      0.000      0.000        0.0        0.2        0.2        0.0        0.0        0.0       0.00   -4414.56   -4414.56        0.0        1.6        1.6        0.0        0.1        0.1        0.0        2.6        2.6        0.0        1.0        1.0
4/11/2015           0        360          0          3         11          0          5         11          0          0          0          0         55         82         33        0.0        0.0        0.0       60.8       71.6       50.0      30.00      30.05      29.96       0.00       0.00       0.00       42.8       46.7       37.3      30.00      30.05      29.96          0          0          0          0          0          0        0.0        0.0        0.0       0.00       0.00       0.00          0          0          0          0          0          0        0.0        0.0        0.0       0.00       0.00       0.00       0.00       0.00       0.00       0.00       0.00       0.00       0.00       0.00       0.00      0.000      0.000      0.000        0.0        0.1        0.1        0.0        0.0        0.0       0.00   -4716.48   -4716.48        0.0        1.7        1.7        0.0        0.2        0.2        0.0        2.7        2.7        0.0        1.1        1.1
4/12/2015         338        360          0          5         17          0          8         17          0          0          0          0         39         71         11        0.0        0.0        0.0       64.8       82.4       51.8      30.00      30.07      29.89       0.00       0.00       0.00       35.8       44.7       22.7      30.00      30.07      29.89          0          0          0          0          0          0        0.0        0.0        0.0       0.00       0.00       0.00          0          0          0          0          0          0        0.0        0.0        0.0       0.00       0.00       0.00       0.00       0.00       0.00       0.00       0.00       0.00       0.00       0.00       0.00      0.000      0.000      0.000        0.0        0.1        0.1        0.0        0.0        0.0       0.00   -5053.08   -5053.08        0.0        1.8        1.8        0.0        0.2        0.2        0.0        2.8        2.8        0.0        1.1        1.1
4/13/2015         292        330          0          7         20          0          9         20          0          0          0          0         50         82         22        0.0        0.0        0.0       61.9       78.8       44.6      29.94      30.04      29.82       0.00       0.00       0.00       40.7       46.4       28.4      29.94      30.04      29.82          0          0          0          0          0          0        0.0        0.0        0.0       0.00       0.00       0.00          0          0          0          0          0          0        0.0        0.0        0.0       0.00       0.00       0.00       0.00       0.00       0.00       0.00       0.00       0.00       0.00       0.00       0.00      0.000      0.000      0.000        0.0        0.0        0.0        0.0        0.0        0.0       0.00       0.00       0.00        0.0        0.0        0.0        0.0        0.0        0.0        0.0        0.0        0.0        0.0        0.0        0.0
4/14/2015           0        360          0          8         19          3         12         19          4          0          0          0         29         43         16        0.0        0.0        0.0       56.4       68.0       48.2      30.25      30.33      30.07       0.00       0.00       0.00       23.5       28.3       18.7      30.25      30.33      30.07          0          0          0          0          0          0        0.0        0.0        0.0       0.00       0.00       0.00          0          0          0          0          0          0        0.0        0.0        0.0       0.00       0.00       0.00       0.00       0.00       0.00       0.00       0.00       0.00       0.00       0.00       0.00      0.000      0.000      0.000        0.0        0.1        0.1        0.0        0.1        0.1       0.00   -5767.08   -5767.08        0.0        2.0        2.0        0.0        0.4        0.4        0.0        3.0        3.0        0.0        1.3        1.3
4/15/2015           0        360         10         14         32          5         19         32          6          0          0          0         29         50         14        0.0        0.0        0.0       61.6       77.0       48.2      30.20      30.33      30.07       0.00       0.00       0.00       26.8       30.4       21.5      30.20      30.33      30.07          0          0          0          0          0          0        0.0        0.0        0.0       0.00       0.00       0.00          0          0          0          0          0          0        0.0        0.0        0.0       0.00       0.00       0.00       0.00       0.00       0.00       0.00       0.00       0.00       0.00       0.00       0.00      0.000      0.000      0.000        0.0        0.1        0.1        0.0        0.0        0.0       0.00   -6062.88   -6062.88        0.0        2.1        2.1        0.0        0.4        0.4        0.0        3.1        3.1        0.0        1.3        1.3
4/16/2015           0        360          0          9         28          0         12         28          0          0          0          0         24         67         10        0.0        0.0        0.0       69.3       86.0       53.6      30.05      30.14      29.93       0.00       0.00       0.00       27.9       42.9       20.4      30.05      30.14      29.93          0          0          0          0          0          0        0.0        0.0        0.0       0.00       0.00       0.00          0          0          0          0          0          0        0.0        0.0        0.0       0.00       0.00       0.00       0.00       0.00       0.00       0.00       0.00       0.00       0.00       0.00       0.00      0.000      0.000      0.000        0.0        0.1        0.1        0.0        0.1        0.1       0.00   -6397.44   -6397.44        0.0        2.2        2.2        0.0        0.5        0.5        0.0        3.2        3.2        0.0        1.3        1.3
4/17/2015           0        350          0          3          7          0          4          7          0          0          0          0         42         76         12        0.0        0.0        0.0       66.9       87.8       44.6      30.01      30.08      29.92       0.00       0.00       0.00       38.5       44.9       27.5      30.01      30.08      29.92          0          0          0          0          0          0        0.0        0.0        0.0       0.00       0.00       0.00          0          0          0          0          0          0        0.0        0.0        0.0       0.00       0.00       0.00       0.00       0.00       0.00       0.00       0.00       0.00       0.00       0.00       0.00      0.000      0.000      0.000        0.0        0.0        0.0        0.0        0.0        0.0       0.00       0.00       0.00        0.0        0.0        0.0        0.0        0.0        0.0        0.0        0.0        0.0        0.0        0.0        0.0
4/18/2015           0        360          0          4         19          0          6         19          0          0          0          0         41         82         11        0.0        0.0        0.0       72.4       91.4       48.2      29.94      30.02      29.85       0.00       0.00       0.00       41.8       48.1       29.6      29.94      30.02      29.85          0          0          0          0          0          0        0.0        0.0        0.0       0.00       0.00       0.00          0          0          0          0          0          0        0.0        0.0        0.0       0.00       0.00       0.00       0.00       0.00       0.00       0.00       0.00       0.00       0.00       0.00       0.00      0.000      0.000      0.000        0.0        0.0        0.0        0.0        0.0        0.0       0.00       0.00       0.00        0.0        0.0        0.0        0.0        0.0        0.0        0.0        0.0        0.0        0.0        0.0        0.0
4/19/2015           0        360          0          6         14          0          8         14          0          0          0          0         23         59         10        0.0        0.0        0.0       78.1       91.4       62.6      29.86      29.95      29.74       0.00       0.00       0.00       33.6       48.4       27.0      29.86      29.95      29.74          0          0          0          0          0          0        0.0        0.0        0.0       0.00       0.00       0.00          0          0          0          0          0          0        0.0        0.0        0.0       0.00       0.00       0.00       0.00       0.00       0.00       0.00       0.00       0.00       0.00       0.00       0.00      0.000      0.000      0.000        0.0        0.0        0.0        0.0        0.2        0.2       0.00   -7309.32   -7309.32        0.0        2.4        2.4        0.0        0.9        0.9        0.0        3.3        3.3        0.0        1.8        1.8
4/20/2015         158        340          0          3         11          0          5         11          0          0          0          0         46         77         18        0.0        0.0        0.0       71.5       89.6       53.6      29.77      29.85      29.68       0.00       0.00       0.00       47.1       55.3       40.5      29.77      29.85      29.68          0          0          0          0          0          0        0.0        0.0        0.0       0.00       0.00       0.00          0          0          0          0          0          0        0.0        0.0        0.0       0.00       0.00       0.00       0.00       0.00       0.00       0.00       0.00       0.00       0.00       0.00       0.00      0.000      0.000      0.000        0.0        0.0        0.0        0.0        0.2        0.2       0.00   -7603.08   -7603.08        0.0        2.4        2.4        0.0        1.2        1.2        0.0        3.3        3.3        0.0        2.1        2.1
4/21/2015         180        310          0          5         20          0          7         20          0          0          0          0         59         88         37        0.0        0.0        0.0       69.7       82.4       55.4      29.75      29.82      29.67       0.00       0.00       0.00       53.5       55.7       50.0      29.75      29.82      29.67          0          0          0          0          0          0        0.0        0.0        0.0       0.00       0.00       0.00          0          0          0          0          0          0        0.0        0.0        0.0       0.00       0.00       0.00       0.00       0.00       0.00       0.00       0.00       0.00       0.00       0.00       0.00      0.000      0.000      0.000        0.0        0.0        0.0        0.0        0.2        0.2       0.00   -7953.96   -7953.96        0.0        2.4        2.4        0.0        1.3        1.3        0.0        3.4        3.4        0.0        2.2        2.2
4/22/2015           0        360          0          6         22          0         10         22          0          0          0          0         50         82         24        0.0        0.0        0.0       70.8       86.0       55.4      29.80      29.87      29.70       0.00       0.00       0.00       48.7       53.7       44.6      29.80      29.87      29.70          0          0          0          0          0          0        0.0        0.0        0.0       0.00       0.00       0.00          0          0          0          0          0          0        0.0        0.0        0.0       0.00       0.00       0.00       0.00       0.00       0.00       0.00       0.00       0.00       0.00       0.00       0.00      0.000      0.000      0.000        0.0        0.0        0.0        0.0        0.1        0.1       0.00   -8290.56   -8290.56        0.0        2.4        2.4        0.0        1.5        1.5        0.0        3.4        3.4        0.0        2.4        2.4
4/23/2015           0        360          0          7         16          0          9         16          0          0          0          0         37         68         16        0.0        0.0        0.0       70.8       84.2       60.8      29.77      29.84      29.67       0.00       0.00       0.00       40.7       53.6       33.2      29.77      29.84      29.67          0          0          0          0          0          0        0.0        0.0        0.0       0.00       0.00       0.00          0          0          0          0          0          0        0.0        0.0        0.0       0.00       0.00       0.00       0.00       0.00       0.00       0.00       0.00       0.00       0.00       0.00       0.00      0.000      0.000      0.000        0.0        0.0        0.0        0.0        0.2        0.2       0.00   -8635.32   -8635.32        0.0        2.4        2.4        0.0        1.6        1.6        0.0        3.4        3.4        0.0        2.5        2.5
4/24/2015           0        320          0          8         16          0         11         16          0          0          0          0         40         58         21        0.0        0.0        0.0       62.4       69.8       53.6      29.84      29.90      29.77       0.00       0.00       0.00       36.5       46.2       28.1      29.84      29.90      29.77          0          0          0          0          0          0        0.0        0.0        0.0       0.00       0.00       0.00          0          0          0          0          0          0        0.0        0.0        0.0       0.00       0.00       0.00       0.00       0.00       0.00       0.00       0.00       0.00       0.00       0.00       0.00      0.000      0.000      0.000        0.0        0.0        0.0        0.0        0.0        0.0       0.00       0.00       0.00        0.0        0.0        0.0        0.0        0.0        0.0        0.0        0.0        0.0        0.0        0.0        0.0
4/25/2015           0        360          0          6         16          0          9         16          0          0          0          0         43         88         21        0.0        0.0        0.0       62.5       71.6       53.6      29.86      29.97      29.77       0.00       0.00       0.00       37.8       51.9       28.1      29.86      29.97      29.77          0          0          0          0          0          0        0.0        0.0        0.0       0.00       0.00       0.00          0          0          0          0          0          0        0.0        0.0        0.0       0.00       0.00       0.00       0.00       0.00       0.00       0.00       0.00       0.00       0.00       0.00       0.00      0.000      0.000      0.000        0.0        0.0        0.0        0.0        0.0        0.0       0.00       0.00       0.00        0.0        0.0        0.0        0.0        0.0        0.0        0.0        0.0        0.0        0.0        0.0        0.0
4/26/2015           0        360          0          5         12          0          7         12          0          0          0          0         41         71         23        0.0        0.0        0.0       64.2       80.6       48.2      30.07      30.13      29.99       0.00       0.00       0.00       38.4       44.9       30.4      30.07      30.13      29.99          0          0          0          0          0          0        0.0        0.0        0.0       0.00       0.00       0.00          0          0          0          0          0          0        0.0        0.0        0.0       0.00       0.00       0.00       0.00       0.00       0.00       0.00       0.00       0.00       0.00       0.00       0.00      0.000      0.000      0.000        0.0        0.1        0.1        0.0        0.0        0.0       0.00   -9314.64   -9314.64        0.0        2.5        2.5        0.0        1.8        1.8        0.0        3.5        3.5        0.0        2.7        2.7
4/27/2015           0        360          0          8         20          0         11         20          0          0          0          0         35         60         16        0.0        0.0        0.0       75.7       91.4       64.4      30.00      30.10      29.87       0.00       0.00       0.00       43.5       51.9       38.8      30.00      30.10      29.87          0          0          0          0          0          0        0.0        0.0        0.0       0.00       0.00       0.00          0          0          0          0          0          0        0.0        0.0        0.0       0.00       0.00       0.00       0.00       0.00       0.00       0.00       0.00       0.00       0.00       0.00       0.00      0.000      0.000      0.000        0.0        0.1        0.1        0.0        0.1        0.1       0.00   -9539.04   -9539.04        0.0        2.6        2.6        0.0        1.9        1.9        0.0        3.5        3.5        0.0        2.8        2.8
4/28/2015         292        360          0          3          7          0          5          7          0          0          0          0         49         77         31        0.0        0.0        0.0       70.5       80.6       57.2      29.91      29.96      29.88       0.00       0.00       0.00       48.9       53.8       42.5      29.91      29.96      29.88          0          0          0          0          0          0        0.0        0.0        0.0       0.00       0.00       0.00          0          0          0          0          0          0        0.0        0.0        0.0       0.00       0.00       0.00       0.00       0.00       0.00       0.00       0.00       0.00       0.00       0.00       0.00      0.000      0.000      0.000        0.0        0.0        0.0        0.0        0.0        0.0       0.00       0.00       0.00        0.0        0.0        0.0        0.0        0.0        0.0        0.0        0.0        0.0        0.0        0.0        0.0
4/29/2015           0        360          0          4         12          0          6         12          0          0          0          0         35         82         13        0.0        0.0        0.0       74.5       87.8       55.4      29.93      29.98      29.86       0.00       0.00       0.00       41.9       51.8       27.0      29.93      29.98      29.86          0          0          0          0          0          0        0.0        0.0        0.0       0.00       0.00       0.00          0          0          0          0          0          0        0.0        0.0        0.0       0.00       0.00       0.00       0.00       0.00       0.00       0.00       0.00       0.00       0.00       0.00       0.00      0.000      0.000      0.000        0.0        0.0        0.0        0.0        0.0        0.0       0.00   -9991.92   -9991.92        0.0        2.6        2.6        0.0        2.1        2.1        0.0        3.5        3.5        0.0        3.0        3.0
4/30/2015         338        360         10         15         29          5         20         29          6          0          0          0         18         28         10        0.0        0.0        0.0       76.6       91.4       64.4      29.93      30.00      29.79       0.00       0.00       0.00       28.4       31.6       24.4      29.93      30.00      29.79          0          0          0          0          0          0        0.0        0.0        0.0       0.00       0.00       0.00          0          0          0          0          0          0        0.0        0.0        0.0       0.00       0.00       0.00       0.00       0.00       0.00       0.00       0.00       0.00       0.00       0.00       0.00      0.000      0.000      0.000        0.0        0.0        0.0        0.0        0.2        0.2       0.00  -10353.00  -10353.00        0.0        2.6        2.6        0.0        2.3        2.3        0.0        3.6        3.6        0.0        3.2        3.2
5/1/2015            0        360          0         11         29          0         14         29          0          0          0          0         21        100         10        0.0        0.0        0.0       78.1       93.2       32.0      29.86      30.00      29.72       0.00       0.00       0.00       31.8       46.3       24.4      29.86      30.00      29.72          0          0          0          0          0          0        0.0        0.0        0.0       0.00       0.00       0.00          0          0          0          0          0          0        0.0        0.0        0.0       0.00       0.00       0.00       0.00       0.00       0.00       0.00       0.00       0.00       0.00       0.00       0.00      0.000      0.000      0.000        0.0        0.0        0.0        0.0        0.2        0.2       0.00  -10353.00  -10353.00        0.0        2.6        2.6        0.0        2.3        2.3        0.0        3.6        3.6        0.0        3.2        3.2
5/2/2015          158        360          0          5         13          0          8         13          0          0          0          0         39         67          0        0.0        0.0        0.0       75.0       89.6        0.0      29.76      29.81      29.70       0.00       0.00       0.00       45.7       50.4        0.0      29.76      29.81      29.70          0          0          0          0          0          0        0.0        0.0        0.0       0.00       0.00       0.00          0          0          0          0          0          0        0.0        0.0        0.0       0.00       0.00       0.00       0.00       0.00       0.00       0.00       0.00       0.00       0.00       0.00       0.00      0.000      0.000      0.000        0.0        0.0        0.0        0.0        0.0        0.0       0.00       0.00       0.00        0.0        0.0        0.0        0.0        0.0        0.0        0.0        0.0        0.0        0.0        0.0        0.0
5/3/2015          180        260          0          4         14          0          6         14          0          0          0          0         44         77         21        0.0        0.0        0.0       73.2       87.8       57.2      29.78      29.83      29.72       0.00       0.00       0.00       47.4       51.8       41.6      29.78      29.83      29.72          0          0          0          0          0          0        0.0        0.0        0.0       0.00       0.00       0.00          0          0          0          0          0          0        0.0        0.0        0.0       0.00       0.00       0.00       0.00       0.00       0.00       0.00       0.00       0.00       0.00       0.00       0.00      0.000      0.000      0.000        0.0        0.0        0.0        0.0        0.0        0.0       0.00       0.00       0.00        0.0        0.0        0.0        0.0        0.0        0.0        0.0        0.0        0.0        0.0        0.0        0.0
5/4/2015          180        350          0          4         17          0          6         17          0          0          0          0         45         77         21        0.0        0.0        0.0       72.0       87.8       55.4      29.81      29.90      29.72       0.00       0.00       0.00       46.9       51.8       41.3      29.81      29.90      29.72          0          0          0          0          0          0        0.0        0.0        0.0       0.00       0.00       0.00          0          0          0          0          0          0        0.0        0.0        0.0       0.00       0.00       0.00       0.00       0.00       0.00       0.00       0.00       0.00       0.00       0.00       0.00      0.000      0.000      0.000        0.0        0.0        0.0        0.0        0.0        0.0       0.00       0.00       0.00        0.0        0.0        0.0        0.0        0.0        0.0        0.0        0.0        0.0        0.0        0.0        0.0
5/5/2015          180        360          0          5         14          0          7         14          0          0          0          0         47         77         15        0.0        0.0        0.0       68.9       82.4       55.4      29.84      29.92      29.75       0.00       0.00       0.00       45.2       50.0       30.2      29.84      29.92      29.75          0          0          0          0          0          0        0.0        0.0        0.0       0.00       0.00       0.00          0          0          0          0          0          0        0.0        0.0        0.0       0.00       0.00       0.00       0.00       0.00       0.00       0.00       0.00       0.00       0.00       0.00       0.00      0.000      0.000      0.000        0.0        0.0        0.0        0.0        0.3        0.3       0.00  -11605.56  -11605.56        0.0        2.6        2.6        0.0        3.2        3.2        0.0        3.6        3.6        0.0        4.1        4.1
5/6/2015          338        350         10         13         25          4         16         25          5          0          0          0         20         39          5        0.0        0.0        0.0       69.6       80.6       60.8      29.81      29.86      29.73       0.00       0.00       0.00       22.8       37.6        3.5      29.81      29.86      29.73          0          0          0          0          0          0        0.0        0.0        0.0       0.00       0.00       0.00          0          0          0          0          0          0        0.0        0.0        0.0       0.00       0.00       0.00       0.00       0.00       0.00       0.00       0.00       0.00       0.00       0.00       0.00      0.000      0.000      0.000        0.0        0.0        0.0        0.0        0.1        0.1       0.00  -11911.56  -11911.56        0.0        2.7        2.7        0.0        3.3        3.3        0.0        3.6        3.6        0.0        4.2        4.2
5/7/2015            0        360         10         16         32          5         22         32          6          0          0          0         22         33         14        0.0        0.0        0.0       67.7       78.8       55.4      29.80      29.86      29.70       0.00       0.00       0.00       26.7       30.4       24.2      29.80      29.86      29.70          0          0          0          0          0          0        0.0        0.0        0.0       0.00       0.00       0.00          0          0          0          0          0          0        0.0        0.0        0.0       0.00       0.00       0.00       0.00       0.00       0.00       0.00       0.00       0.00       0.00       0.00       0.00      0.000      0.000      0.000        0.0        0.0        0.0        0.0        0.1        0.1       0.00  -12250.20  -12250.20        0.0        2.7        2.7        0.0        3.4        3.4        0.0        3.7        3.7        0.0        4.3        4.3
5/8/2015          135        360          0          2         13          0          4         13          0          0          0          0         55         76         25        0.0        0.0        0.0       56.0       75.2       46.4      29.79      29.82      29.78       0.00       0.00       0.00       39.0       42.7       32.2      29.79      29.82      29.78          0          0          0          0          0          0        0.0        0.0        0.0       0.00       0.00       0.00          0          0          0          0          0          0        0.0        0.0        0.0       0.00       0.00       0.00       0.00       0.00       0.00       0.00       0.00       0.00       0.00       0.00       0.00      0.000      0.000      0.000        0.0        0.0        0.0        0.0        0.0        0.0       0.00       0.00       0.00        0.0        0.0        0.0        0.0        0.0        0.0        0.0        0.0        0.0        0.0        0.0        0.0
5/9/2015          158        360          0          3         13          0          6         13          0          0          0          0         44         76         19        0.0        0.0        0.0       67.5       87.8       46.4      29.85      29.97      29.78       0.00       0.00       0.00       41.7       50.1       32.2      29.85      29.97      29.78          0          0          0          0          0          0        0.0        0.0        0.0       0.00       0.00       0.00          0          0          0          0          0          0        0.0        0.0        0.0       0.00       0.00       0.00       0.00       0.00       0.00       0.00       0.00       0.00       0.00       0.00       0.00      0.000      0.000      0.000        0.0        0.0        0.0        0.0        0.0        0.0       0.00       0.00       0.00        0.0        0.0        0.0        0.0        0.0        0.0        0.0        0.0        0.0        0.0        0.0        0.0
5/10/2015         158        360          0          4         12          0          6         12          0          0          0          0         51         77         32        0.0        0.0        0.0       70.5       80.6       57.2      29.94      30.02      29.86       0.00       0.00       0.00       50.3       53.7       42.5      29.94      30.02      29.86          0          0          0          0          0          0        0.0        0.0        0.0       0.00       0.00       0.00          0          0          0          0          0          0        0.0        0.0        0.0       0.00       0.00       0.00       0.00       0.00       0.00       0.00       0.00       0.00       0.00       0.00       0.00      0.000      0.000      0.000        0.0        0.0        0.0        0.0        0.1        0.1       0.00  -12835.68  -12835.68        0.0        2.7        2.7        0.0        3.6        3.6        0.0        3.7        3.7        0.0        4.5        4.5
5/11/2015         180        320          0          8         20          0         10         20          0          0          0          0         36         55         23        0.0        0.0        0.0       68.2       78.8       57.2      29.81      29.87      29.72       0.00       0.00       0.00       40.0       48.1       30.4      29.81      29.87      29.72          0          0          0          0          0          0        0.0        0.0        0.0       0.00       0.00       0.00          0          0          0          0          0          0        0.0        0.0        0.0       0.00       0.00       0.00       0.00       0.00       0.00       0.00       0.00       0.00       0.00       0.00       0.00      0.000      0.000      0.000        0.0        0.0        0.0        0.0        0.1        0.1       0.00  -13086.60  -13086.60        0.0        2.8        2.8        0.0        3.7        3.7        0.0        3.7        3.7        0.0        4.6        4.6
5/12/2015         292        340          0          7         16          0         10         16          0          0          0          0         44         63         31        0.0        0.0        0.0       61.3       69.8       55.4      29.84      29.89      29.78       0.00       0.00       0.00       38.8       44.7       33.7      29.84      29.89      29.78          0          0          0          0          0          0        0.0        0.0        0.0       0.00       0.00       0.00          0          0          0          0          0          0        0.0        0.0        0.0       0.00       0.00       0.00       0.00       0.00       0.00       0.00       0.00       0.00       0.00       0.00       0.00      0.000      0.000      0.000        0.0        0.0        0.0        0.0        0.1        0.1       0.00  -13404.84  -13404.84        0.0        2.8        2.8        0.0        3.8        3.8        0.0        3.8        3.8        0.0        4.7        4.7
5/13/2015           0        360          0          6         17          0          9         17          0          0          0          0         46         67         22        0.0        0.0        0.0       62.8       71.6       55.4      29.85      29.89      29.80       0.00       0.00       0.00       40.8       44.8       30.8      29.85      29.89      29.80          0          0          0          0          0          0        0.0        0.0        0.0       0.00       0.00       0.00          0          0          0          0          0          0        0.0        0.0        0.0       0.00       0.00       0.00       0.00       0.00       0.00       0.00       0.00       0.00       0.00       0.00       0.00      0.000      0.000      0.000        0.0        0.1        0.1        0.0        0.0        0.0       0.00  -13739.40  -13739.40        0.0        2.8        2.8        0.0        3.8        3.8        0.0        3.8        3.8        0.0        4.7        4.7
5/14/2015           0        350          0          5         13          0          6         13          0          0          0          0         47         77         25        0.0        0.0        0.0       63.4       73.4       53.6      29.78      29.85      29.68       0.00       0.00       0.00       40.8       48.3       35.4      29.78      29.85      29.68          0          0          0          0          0          0        0.0        0.0        0.0       0.00       0.00       0.00          0          0          0          0          0          0        0.0        0.0        0.0       0.00       0.00       0.00       0.00       0.00       0.00       0.00       0.00       0.00       0.00       0.00       0.00      0.000      0.000      0.000        0.0        0.0        0.0        0.0        0.0        0.0       0.00  -14057.64  -14057.64        0.0        2.9        2.9        0.0        3.9        3.9        0.0        3.9        3.9        0.0        4.8        4.8
5/15/2015         180        360          0          4         17          0          7         17          0          0          0          0         58         77         36        0.0        0.0        0.0       62.7       73.4       51.8      29.83      29.87      29.79       0.00       0.00       0.00       46.7       51.7       44.4      29.83      29.87      29.79          0          0          0          0          0          0        0.0        0.0        0.0       0.00       0.00       0.00          0          0          0          0          0          0        0.0        0.0        0.0       0.00       0.00       0.00       0.00       0.00       0.00       0.00       0.00       0.00       0.00       0.00       0.00      0.000      0.000      0.000        0.0        0.0        0.0        0.0        0.0        0.0       0.00  -14408.52  -14408.52        0.0        2.9        2.9        0.0        3.9        3.9        0.0        3.9        3.9        0.0        4.8        4.8
5/16/2015         180        330          0          4         12          0          6         12          0          0          0          0         55         82         34        0.0        0.0        0.0       65.5       77.0       51.8      29.91      29.96      29.87       0.00       0.00       0.00       47.3       50.3       42.5      29.91      29.96      29.87          0          0          0          0          0          0        0.0        0.0        0.0       0.00       0.00       0.00          0          0          0          0          0          0        0.0        0.0        0.0       0.00       0.00       0.00       0.00       0.00       0.00       0.00       0.00       0.00       0.00       0.00       0.00      0.000      0.000      0.000        0.0        0.0        0.0        0.0        0.0        0.0       0.00       0.00       0.00        0.0        0.0        0.0        0.0        0.0        0.0        0.0        0.0        0.0        0.0        0.0        0.0
5/17/2015           0        350          0          4         20          0          7         20          0          0          0          0         65         94         24        0.0        0.0        0.0       65.2       77.0       55.4      29.95      29.99      29.90       0.00       0.00       0.00       51.9       55.5       37.5      29.95      29.99      29.90          0          0          0          0          0          0        0.0        0.0        0.0       0.00       0.00       0.00          0          0          0          0          0          0        0.0        0.0        0.0       0.00       0.00       0.00       0.00       0.00       0.00       0.00       0.00       0.00       0.00       0.00       0.00      0.000      0.000      0.000        0.0        0.0        0.0        0.0        0.1        0.1       0.00  -15077.64  -15077.64        0.0        3.0        3.0        0.0        4.1        4.1        0.0        4.0        4.0        0.0        4.9        4.9
5/18/2015         180        360          0          5         14          0          7         14          0          0          0          0         55         77         26        0.0        0.0        0.0       67.8       80.6       60.8      29.97      30.01      29.91       0.00       0.00       0.00       49.1       53.7       42.6      29.97      30.01      29.91          0          0          0          0          0          0        0.0        0.0        0.0       0.00       0.00       0.00          0          0          0          0          0          0        0.0        0.0        0.0       0.00       0.00       0.00       0.00       0.00       0.00       0.00       0.00       0.00       0.00       0.00       0.00      0.000      0.000      0.000        0.0        0.0        0.0        0.0        0.0        0.0       0.00       0.00       0.00        0.0        0.0        0.0        0.0        0.0        0.0        0.0        0.0        0.0        0.0        0.0        0.0
5/19/2015           0        320          0          5         12          0          7         12          0          0          0          0         58         77         32        0.0        0.0        0.0       67.3       78.8       59.0      29.98      30.06      29.89       0.00       0.00       0.00       51.2       53.7       46.5      29.98      30.06      29.89          0          0          0          0          0          0        0.0        0.0        0.0       0.00       0.00       0.00          0          0          0          0          0          0        0.0        0.0        0.0       0.00       0.00       0.00       0.00       0.00       0.00       0.00       0.00       0.00       0.00       0.00       0.00      0.000      0.000      0.000        0.0        0.0        0.0        0.0        0.1        0.1       0.00  -15536.64  -15536.64        0.0        3.1        3.1        0.0        4.2        4.2        0.0        4.0        4.0        0.0        5.1        5.1
5/20/2015           0        350          0          5         14          0          7         14          0          0          0          0         61         77         30        0.0        0.0        0.0       68.3       82.4       60.8      29.86      29.91      29.80       0.00       0.00       0.00       53.2       57.3       47.9      29.86      29.91      29.80          0          0          0          0          0          0        0.0        0.0        0.0       0.00       0.00       0.00          0          0          0          0          0          0        0.0        0.0        0.0       0.00       0.00       0.00       0.00       0.00       0.00       0.00       0.00       0.00       0.00       0.00       0.00      0.000      0.000      0.000        0.0        0.0        0.0        0.0        0.1        0.1       0.00  -15797.76  -15797.76        0.0        3.1        3.1        0.0        4.3        4.3        0.0        4.0        4.0        0.0        5.1        5.1
5/21/2015         158        340          0          7         20          0         10         20          0          0          0          0         66         88         26        0.0        0.0        0.0       67.1       80.6       59.0      29.86      29.90      29.77       0.00       0.00       0.00       53.3       57.4       42.6      29.86      29.90      29.77          0          0          0          0          0          0        0.0        0.0        0.0       0.00       0.00       0.00          0          0          0          0          0          0        0.0        0.0        0.0       0.00       0.00       0.00       0.00       0.00       0.00       0.00       0.00       0.00       0.00       0.00       0.00      0.000      0.000      0.000        0.0        0.0        0.0        0.0        0.1        0.1       0.00  -16203.72  -16203.72        0.0        3.1        3.1        0.0        4.3        4.3        0.0        4.1        4.1        0.0        5.2        5.2
5/22/2015         180        270          0          4         11          0          6         11          0          0          0          0         51         68         37        0.0        0.0        0.0       70.1       78.8       60.8      29.92      29.97      29.87       0.00       0.00       0.00       50.6       55.6       47.9      29.92      29.97      29.87          0          0          0          0          0          0        0.0        0.0        0.0       0.00       0.00       0.00          0          0          0          0          0          0        0.0        0.0        0.0       0.00       0.00       0.00       0.00       0.00       0.00       0.00       0.00       0.00       0.00       0.00       0.00      0.000      0.000      0.000        0.0        0.0        0.0        0.0        0.0        0.0       0.00       0.00       0.00        0.0        0.0        0.0        0.0        0.0        0.0        0.0        0.0        0.0        0.0        0.0        0.0
5/23/2015         180        260          0          5         12          0          7         12          0          0          0          0         49         72         25        0.0        0.0        0.0       71.3       82.4       60.8      29.98      30.05      29.91       0.00       0.00       0.00       49.3       55.3       41.6      29.98      30.05      29.91          0          0          0          0          0          0        0.0        0.0        0.0       0.00       0.00       0.00          0          0          0          0          0          0        0.0        0.0        0.0       0.00       0.00       0.00       0.00       0.00       0.00       0.00       0.00       0.00       0.00       0.00       0.00      0.000      0.000      0.000        0.0        0.0        0.0        0.0        0.1        0.1       0.00  -16883.04  -16883.04        0.0        3.1        3.1        0.0        4.5        4.5        0.0        4.1        4.1        0.0        5.4        5.4
5/24/2015           0        360          0          6         23          3          8         23          4          0          0          0         44         77         18        0.0        0.0        0.0       76.4       91.4       59.0      29.87      29.99      29.75       0.00       0.00       0.00       49.9       55.4       40.5      29.87      29.99      29.75          0          0          0          0          0          0        0.0        0.0        0.0       0.00       0.00       0.00          0          0          0          0          0          0        0.0        0.0        0.0       0.00       0.00       0.00       0.00       0.00       0.00       0.00       0.00       0.00       0.00       0.00       0.00      0.000      0.000      0.000        0.0        0.0        0.0        0.0        0.1        0.1       0.00  -17264.52  -17264.52        0.0        3.1        3.1        0.0        4.7        4.7        0.0        4.1        4.1        0.0        5.5        5.5
5/25/2015         180        240          0          6         19          0          9         19          0          0          0          0         43         64         24        0.0        0.0        0.0       75.6       87.8       62.6      29.85      29.91      29.80       0.00       0.00       0.00       50.3       53.8       46.1      29.85      29.91      29.80          0          0          0          0          0          0        0.0        0.0        0.0       0.00       0.00       0.00          0          0          0          0          0          0        0.0        0.0        0.0       0.00       0.00       0.00       0.00       0.00       0.00       0.00       0.00       0.00       0.00       0.00       0.00      0.000      0.000      0.000        0.0        0.0        0.0        0.0        0.2        0.2       0.00  -17668.44  -17668.44        0.0        3.1        3.1        0.0        4.9        4.9        0.0        4.1        4.1        0.0        5.8        5.8
5/26/2015         180        270          0          6         19          0          9         19          0          0          0          0         47         72         24        0.0        0.0        0.0       74.3       87.8       60.8      29.89      29.95      29.82       0.00       0.00       0.00       51.2       55.2       45.0      29.89      29.95      29.82          0          0          0          0          0          0        0.0        0.0        0.0       0.00       0.00       0.00          0          0          0          0          0          0        0.0        0.0        0.0       0.00       0.00       0.00       0.00       0.00       0.00       0.00       0.00       0.00       0.00       0.00       0.00      0.000      0.000      0.000        0.0        0.0        0.0        0.0        0.2        0.2       0.00  -18086.64  -18086.64        0.0        3.1        3.1        0.0        5.1        5.1        0.0        4.1        4.1        0.0        6.0        6.0
5/27/2015         225        230          0          3         16          0          6         16          0          0          0          0         45         63         24        0.0        0.0        0.0       71.9       87.8       60.8      29.93      29.97      29.84       0.00       0.00       0.00       48.5       52.0       44.9      29.93      29.97      29.84          0          0          0          0          0          0        0.0        0.0        0.0       0.00       0.00       0.00          0          0          0          0          0          0        0.0        0.0        0.0       0.00       0.00       0.00       0.00       0.00       0.00       0.00       0.00       0.00       0.00       0.00       0.00      0.000      0.000      0.000        0.0        0.0        0.0        0.0        0.0        0.0       0.00       0.00       0.00        0.0        0.0        0.0        0.0        0.0        0.0        0.0        0.0        0.0        0.0        0.0        0.0
5/28/2015         158        340          0          4         16          0          6         16          0          0          0          0         42         68         22        0.0        0.0        0.0       78.1       93.2       60.8      29.92      29.98      29.84       0.00       0.00       0.00       51.4       55.7       48.1      29.92      29.98      29.84          0          0          0          0          0          0        0.0        0.0        0.0       0.00       0.00       0.00          0          0          0          0          0          0        0.0        0.0        0.0       0.00       0.00       0.00       0.00       0.00       0.00       0.00       0.00       0.00       0.00       0.00       0.00      0.000      0.000      0.000        0.0        0.0        0.0        0.0        0.1        0.1       0.00  -18778.20  -18778.20        0.0        3.1        3.1        0.0        5.4        5.4        0.0        4.1        4.1        0.0        6.3        6.3
5/29/2015         180        360          0          4         13          0          6         13          0          0          0          0         40         68         17        0.0        0.0        0.0       79.8       95.0       64.4      29.87      29.93      29.80       0.00       0.00       0.00       50.9       55.3       40.5      29.87      29.93      29.80          0          0          0          0          0          0        0.0        0.0        0.0       0.00       0.00       0.00          0          0          0          0          0          0        0.0        0.0        0.0       0.00       0.00       0.00       0.00       0.00       0.00       0.00       0.00       0.00       0.00       0.00       0.00      0.000      0.000      0.000        0.0        0.0        0.0        0.0        0.3        0.3       0.00  -19208.64  -19208.64        0.0        3.1        3.1        0.0        5.7        5.7        0.0        4.1        4.1        0.0        6.5        6.5
5/30/2015           0        360          0          4         12          0          5         12          0          0          0          0         35         64          9        0.0        0.0        0.0       80.4       93.2       66.2      29.86      29.90      29.78       0.00       0.00       0.00       45.9       53.7       26.1      29.86      29.90      29.78          0          0          0          0          0          0        0.0        0.0        0.0       0.00       0.00       0.00          0          0          0          0          0          0        0.0        0.0        0.0       0.00       0.00       0.00       0.00       0.00       0.00       0.00       0.00       0.00       0.00       0.00       0.00      0.000      0.000      0.000        0.0        0.0        0.0        0.0        0.0        0.0       0.00       0.00       0.00        0.0        0.0        0.0        0.0        0.0        0.0        0.0        0.0        0.0        0.0        0.0        0.0
5/31/2015         180        260          0          5         20          0          7         20          0          0          0          0         33         59         18        0.0        0.0        0.0       79.8       87.8       62.6      29.83      29.84      29.73       0.00       0.00       0.00       45.1       48.3       35.6      29.83      29.84      29.73          0          0          0          0          0          0        0.0        0.0        0.0       0.00       0.00       0.00          0          0          0          0          0          0        0.0        0.0        0.0       0.00       0.00       0.00       0.00       0.00       0.00       0.00       0.00       0.00       0.00       0.00       0.00      0.000      0.000      0.000        0.0        0.0        0.0        0.0        0.2        0.2       0.00       0.00       0.00        0.0        3.1        3.1        0.0        6.2        6.2        0.0        4.1        4.1        0.0        7.1        7.1
6/1/2015          180        330          0          6         17          0          9         17          0          0          0          0         43         83         30        0.0        0.0        0.0       75.0       80.6       57.2      29.87      29.99      29.87       0.00       0.00       0.00       47.4       60.9       41.2      29.87      29.99      29.87          0          0          0          0          0          0        0.0        0.0        0.0       0.00       0.00       0.00          0          0          0          0          0          0        0.0        0.0        0.0       0.00       0.00       0.00       0.00       0.00       0.00       0.00       0.00       0.00       0.00       0.00       0.00      0.000      0.000      0.000        0.0        0.0        0.0        0.0        0.4        0.4       0.00       0.00       0.00        0.0        3.1        3.1        0.0        6.3        6.3        0.0        4.1        4.1        0.0        7.2        7.2
6/2/2015            0        340          0          4         13          0          7         13          0          0          0          0         48         88         21        0.0        0.0        0.0       74.4       84.2       64.4      29.95      30.03      29.86       0.00       0.00       0.00       50.6       60.9       37.1      29.95      30.03      29.86          0          0          0          0          0          0        0.0        0.0        0.0       0.00       0.00       0.00          0          0          0          0          0          0        0.0        0.0        0.0       0.00       0.00       0.00       0.00       0.00       0.00       0.00       0.00       0.00       0.00       0.00       0.00      0.000      0.000      0.000        0.0        0.0        0.0        0.0        0.5        0.5       0.00  -20569.32  -20569.32        0.0        3.1        3.1        0.0        6.4        6.4        0.0        4.1        4.1        0.0        7.3        7.3
6/3/2015          315        350          0          6         12          4          8         12          5          0          0          0         32         49         13        0.0        0.0        0.0       76.6       87.8       64.4      29.82      29.88      29.73       0.00       0.00       0.00       43.1       46.7       30.9      29.82      29.88      29.73          0          0          0          0          0          0        0.0        0.0        0.0       0.00       0.00       0.00          0          0          0          0          0          0        0.0        0.0        0.0       0.00       0.00       0.00       0.00       0.00       0.00       0.00       0.00       0.00       0.00       0.00       0.00      0.000      0.000      0.000        0.0        0.0        0.0        0.0        0.2        0.2       0.00  -21003.84  -21003.84        0.0        3.1        3.1        0.0        6.6        6.6        0.0        4.1        4.1        0.0        7.5        7.5
6/4/2015            0        360          0          9         23          0         13         23          0          0          0          0         42         68         25        0.0        0.0        0.0       75.8       86.0       64.4      29.79      29.82      29.74       0.00       0.00       0.00       50.1       53.8       44.5      29.79      29.82      29.74          0          0          0          0          0          0        0.0        0.0        0.0       0.00       0.00       0.00          0          0          0          0          0          0        0.0        0.0        0.0       0.00       0.00       0.00       0.00       0.00       0.00       0.00       0.00       0.00       0.00       0.00       0.00      0.000      0.000      0.000        0.0        0.0        0.0        0.0        0.2        0.2       0.00  -21373.08  -21373.08        0.0        3.1        3.1        0.0        6.8        6.8        0.0        4.1        4.1        0.0        7.7        7.7
6/5/2015            0        350          0         10         29          0         15         29          0          0          0          0         31         56         16        0.0        0.0        0.0       84.3       96.8       69.8      29.76      29.83      29.67       0.00       0.00       0.00       47.7       57.5       41.8      29.76      29.83      29.67          0          0          0          0          0          0        0.0        0.0        0.0       0.00       0.00       0.00          0          0          0          0          0          0        0.0        0.0        0.0       0.00       0.00       0.00       0.00       0.00       0.00       0.00       0.00       0.00       0.00       0.00       0.00      0.000      0.000      0.000        0.0        0.0        0.0        0.0        0.2        0.2       0.00  -21703.56  -21703.56        0.0        3.1        3.1        0.0        7.1        7.1        0.0        4.1        4.1        0.0        7.9        7.9
6/6/2015            0        360          0          7         30          0         11         30          0          0          0          0         34         60         12        0.0        0.0        0.0       86.1      102.2       69.8      29.79      29.87      29.69       0.00       0.00       0.00       50.4       57.5       40.0      29.79      29.87      29.69          0          0          0          0          0          0        0.0        0.0        0.0       0.00       0.00       0.00          0          0          0          0          0          0        0.0        0.0        0.0       0.00       0.00       0.00       0.00       0.00       0.00       0.00       0.00       0.00       0.00       0.00       0.00      0.000      0.000      0.000        0.0        0.0        0.0        0.0        0.4        0.4       0.00  -22072.80  -22072.80        0.0        3.1        3.1        0.0        7.5        7.5        0.0        4.1        4.1        0.0        8.3        8.3
6/7/2015            0        360          0          4         13          0          7         13          0          0          0          0         33         61          9        0.0        0.0        0.0       88.3      105.8       69.8      29.82      29.89      29.73       0.00       0.00       0.00       49.5       57.5       34.1      29.82      29.89      29.73          0          0          0          0          0          0        0.0        0.0        0.0       0.00       0.00       0.00          0          0          0          0          0          0        0.0        0.0        0.0       0.00       0.00       0.00       0.00       0.00       0.00       0.00       0.00       0.00       0.00       0.00       0.00      0.000      0.000      0.000        0.0        0.0        0.0        0.0        0.4        0.4       0.00  -22458.36  -22458.36        0.0        3.1        3.1        0.0        7.8        7.8        0.0        4.1        4.1        0.0        8.7        8.7
6/8/2015          180        360          0          4         13          0          6         13          0          0          0          0         33         61         14        0.0        0.0        0.0       90.1      105.8       71.6      29.81      29.88      29.72       0.00       0.00       0.00       53.9       60.6       46.8      29.81      29.88      29.72          0          0          0          0          0          0        0.0        0.0        0.0       0.00       0.00       0.00          0          0          0          0          0          0        0.0        0.0        0.0       0.00       0.00       0.00       0.00       0.00       0.00       0.00       0.00       0.00       0.00       0.00       0.00      0.000      0.000      0.000        0.0        0.0        0.0        0.0        0.4        0.4       0.00  -22835.76  -22835.76        0.0        3.1        3.1        0.0        8.3        8.3        0.0        4.1        4.1        0.0        9.1        9.1
6/9/2015            0        360          0          5         24          0          8         24          0          0          0          0         45         83         15        0.0        0.0        0.0       86.4      105.8       73.4      29.77      29.87      29.63       0.00       0.00       0.00       58.3       68.2       48.7      29.77      29.87      29.63          0          0          0          0          0          0        0.0        0.0        0.0       0.00       0.00       0.00          0          0          0          0          0          0        0.0        0.0        0.0       0.00       0.00       0.00       0.00       0.00       0.00       0.00       0.00       0.00       0.00       0.00       0.00      0.000      0.000      0.000        0.0        0.0        0.0        0.0        0.5        0.5       0.00  -23278.44  -23278.44        0.0        3.1        3.1        0.0        8.7        8.7        0.0        4.1        4.1        0.0        9.6        9.6
6/10/2015         158        360          0          7         22          0         10         22          0          0          0          0         59         88         34        0.0        0.0        0.0       79.2       89.6       71.6      29.84      29.89      29.77       0.00       0.00       0.00       62.1       67.9       55.7      29.84      29.89      29.77          0          0          0          0          0          0        0.0        0.0        0.0       0.00       0.00       0.00          0          0          0          0          0          0        0.0        0.0        0.0       0.00       0.00       0.00       0.00       0.00       0.00       0.00       0.00       0.00       0.00       0.00       0.00      0.000      0.000      0.000        0.0        0.0        0.0        0.0        0.0        0.0       0.00       0.00       0.00        0.0        0.0        0.0        0.0        0.0        0.0        0.0        0.0        0.0        0.0        0.0        0.0
6/11/2015           0        360          0          6         14          0          9         14          0          0          0          0         35         77         11        0.0        0.0        0.0       86.5      104.0       64.4      29.81      29.89      29.71       0.00       0.00       0.00       48.4       59.2       36.4      29.81      29.89      29.71          0          0          0          0          0          0        0.0        0.0        0.0       0.00       0.00       0.00          0          0          0          0          0          0        0.0        0.0        0.0       0.00       0.00       0.00       0.00       0.00       0.00       0.00       0.00       0.00       0.00       0.00       0.00      0.000      0.000      0.000        0.0        0.0        0.0        0.0        0.3        0.3       0.00  -24110.76  -24110.76        0.0        3.1        3.1        0.0        9.4        9.4        0.0        4.1        4.1        0.0       10.3       10.3
6/12/2015           0        360          0          8         16          3         10         16          4          0          0          0         18         30          7        0.0        0.0        0.0       95.4      109.4       82.4      29.73      29.82      29.62       0.00       0.00       0.00       43.2       48.7       29.2      29.73      29.82      29.62          0          0          0          0          0          0        0.0        0.0        0.0       0.00       0.00       0.00          0          0          0          0          0          0        0.0        0.0        0.0       0.00       0.00       0.00       0.00       0.00       0.00       0.00       0.00       0.00       0.00       0.00       0.00      0.000      0.000      0.000        0.0        0.0        0.0        0.0        0.4        0.4       0.00  -24524.88  -24524.88        0.0        3.1        3.1        0.0        9.8        9.8        0.0        4.1        4.1        0.0       10.6       10.6
6/13/2015           0        360          0          5         13          0          9         13          0          0          0          0         26         40         13        0.0        0.0        0.0       89.9      102.2       77.0      29.64      29.70      29.58       0.00       0.00       0.00       49.0       57.6       42.1      29.64      29.70      29.58          0          0          0          0          0          0        0.0        0.0        0.0       0.00       0.00       0.00          0          0          0          0          0          0        0.0        0.0        0.0       0.00       0.00       0.00       0.00       0.00       0.00       0.00       0.00       0.00       0.00       0.00       0.00      0.000      0.000      0.000        0.0        0.0        0.0        0.0        0.0        0.0       0.00       0.00       0.00        0.0        0.0        0.0        0.0        0.0        0.0        0.0        0.0        0.0        0.0        0.0        0.0
6/14/2015         158        240          0          6         22          0          9         22          0          0          0          0         37         61         16        0.0        0.0        0.0       84.7       98.6       69.8      29.69      29.74      29.64       0.00       0.00       0.00       52.8       60.8       43.3      29.69      29.74      29.64          0          0          0          0          0          0        0.0        0.0        0.0       0.00       0.00       0.00          0          0          0          0          0          0        0.0        0.0        0.0       0.00       0.00       0.00       0.00       0.00       0.00       0.00       0.00       0.00       0.00       0.00       0.00      0.000      0.000      0.000        0.0        0.0        0.0        0.0        0.2        0.2       0.00  -25194.00  -25194.00        0.0        3.1        3.1        0.0       10.5       10.5        0.0        4.1        4.1        0.0       11.4       11.4
6/15/2015         180        210          0          6         22          0          9         22          0          0          0          0         38         57         14        0.0        0.0        0.0       82.8       96.8       69.8      29.77      29.85      29.72       0.00       0.00       0.00       51.2       60.8       39.8      29.77      29.85      29.72          0          0          0          0          0          0        0.0        0.0        0.0       0.00       0.00       0.00          0          0          0          0          0          0        0.0        0.0        0.0       0.00       0.00       0.00       0.00       0.00       0.00       0.00       0.00       0.00       0.00       0.00       0.00      0.000      0.000      0.000        0.0        0.0        0.0        0.0        0.0        0.0       0.00       0.00       0.00        0.0        0.0        0.0        0.0        0.0        0.0        0.0        0.0        0.0        0.0        0.0        0.0
6/16/2015         202        360          0          4         19          0          7         19          0          0          0          0         34         60         11        0.0        0.0        0.0       85.3      100.4       68.0      29.85      29.90      29.78       0.00       0.00       0.00       49.2       55.3       36.4      29.85      29.90      29.78          0          0          0          0          0          0        0.0        0.0        0.0       0.00       0.00       0.00          0          0          0          0          0          0        0.0        0.0        0.0       0.00       0.00       0.00       0.00       0.00       0.00       0.00       0.00       0.00       0.00       0.00       0.00      0.000      0.000      0.000        0.0        0.0        0.0        0.0        0.0        0.0       0.00       0.00       0.00        0.0        0.0        0.0        0.0        0.0        0.0        0.0        0.0        0.0        0.0        0.0        0.0
6/17/2015         202        350          0          5         16          0          8         16          0          0          0          0         31         53         13        0.0        0.0        0.0       86.8      102.2       71.6      29.84      29.89      29.76       0.00       0.00       0.00       49.1       53.8       42.1      29.84      29.89      29.76          0          0          0          0          0          0        0.0        0.0        0.0       0.00       0.00       0.00          0          0          0          0          0          0        0.0        0.0        0.0       0.00       0.00       0.00       0.00       0.00       0.00       0.00       0.00       0.00       0.00       0.00       0.00      0.000      0.000      0.000        0.0        0.0        0.0        0.0        0.3        0.3       0.00       0.00       0.00        0.0        3.1        3.1        0.0       11.5       11.5        0.0        4.1        4.1        0.0       12.4       12.4
6/18/2015         180        360          0          6         24          0          9         24          0          0          0          0         31         53         11        0.0        0.0        0.0       83.8       98.6       71.6      29.86      29.89      29.81       0.00       0.00       0.00       46.7       57.6       33.7      29.86      29.89      29.81          0          0          0          0          0          0        0.0        0.0        0.0       0.00       0.00       0.00          0          0          0          0          0          0        0.0        0.0        0.0       0.00       0.00       0.00       0.00       0.00       0.00       0.00       0.00       0.00       0.00       0.00       0.00      0.000      0.000      0.000        0.0        0.0        0.0        0.0        0.7        0.7       0.00  -26626.08  -26626.08        0.0        3.1        3.1        0.0       11.9       11.9        0.0        4.1        4.1        0.0       12.8       12.8
6/19/2015           0        360          0          2          6          0          5          6          0          0          0          0         34         48         28        0.0        0.0        0.0       69.5       77.0       62.6      29.91      29.94      29.89       0.00       0.00       0.00       39.5       42.7       37.1      29.91      29.94      29.89          0          0          0          0          0          0        0.0        0.0        0.0       0.00       0.00       0.00          0          0          0          0          0          0        0.0        0.0        0.0       0.00       0.00       0.00       0.00       0.00       0.00       0.00       0.00       0.00       0.00       0.00       0.00      0.000      0.000      0.000        0.0        0.0        0.0        0.0        0.0        0.0       0.00       0.00       0.00        0.0        0.0        0.0        0.0        0.0        0.0        0.0        0.0        0.0        0.0        0.0        0.0
6/21/2015         180        360          0          4         10          0          6         10          0          0          0          0         30         48         20        0.0        0.0        0.0       73.9       84.2       62.6      29.90      29.94      29.87       0.00       0.00       0.00       40.0       43.0       37.1      29.90      29.94      29.87          0          0          0          0          0          0        0.0        0.0        0.0       0.00       0.00       0.00          0          0          0          0          0          0        0.0        0.0        0.0       0.00       0.00       0.00       0.00       0.00       0.00       0.00       0.00       0.00       0.00       0.00       0.00      0.000      0.000      0.000        0.0        0.0        0.0        0.0        0.0        0.0       0.00       0.00       0.00        0.0        0.0        0.0        0.0        0.0        0.0        0.0        0.0        0.0        0.0        0.0        0.0
6/22/2015           0        360          0          4         16          0          7         16          0          0          0          0         25         48          6        0.0        0.0        0.0       79.8       95.0       62.6      29.94      30.00      29.87       0.00       0.00       0.00       36.1       43.1       17.8      29.94      30.00      29.87          0          0          0          0          0          0        0.0        0.0        0.0       0.00       0.00       0.00          0          0          0          0          0          0        0.0        0.0        0.0       0.00       0.00       0.00       0.00       0.00       0.00       0.00       0.00       0.00       0.00       0.00       0.00      0.000      0.000      0.000        0.0        0.0        0.0        0.0        0.1        0.1       0.00  -26860.68  -26860.68        0.0        3.1        3.1        0.0       12.3       12.3        0.0        4.1        4.1        0.0       13.1       13.1
6/23/2015         338        360          0          4         11          0          7         11          0          0          0          0         22         38          9        0.0        0.0        0.0       85.0      100.4       66.2      29.89      29.97      29.78       0.00       0.00       0.00       39.1       46.3       31.4      29.89      29.97      29.78          0          0          0          0          0          0        0.0        0.0        0.0       0.00       0.00       0.00          0          0          0          0          0          0        0.0        0.0        0.0       0.00       0.00       0.00       0.00       0.00       0.00       0.00       0.00       0.00       0.00       0.00       0.00      0.000      0.000      0.000        0.0        0.0        0.0        0.0        0.3        0.3       0.00  -27064.68  -27064.68        0.0        3.1        3.1        0.0       12.5       12.5        0.0        4.1        4.1        0.0       13.4       13.4
6/24/2015           0        360          0          5         17          0          8         17          0          0          0          0         28         47         10        0.0        0.0        0.0       89.1      105.8       69.8      29.82      29.87      29.75       0.00       0.00       0.00       48.5       60.7       38.1      29.82      29.87      29.75          0          0          0          0          0          0        0.0        0.0        0.0       0.00       0.00       0.00          0          0          0          0          0          0        0.0        0.0        0.0       0.00       0.00       0.00       0.00       0.00       0.00       0.00       0.00       0.00       0.00       0.00       0.00      0.000      0.000      0.000        0.0        0.0        0.0        0.0        0.4        0.4       0.00  -27270.72  -27270.72        0.0        3.1        3.1        0.0       12.9       12.9        0.0        4.1        4.1        0.0       13.8       13.8
6/25/2015           0        360          0          6         16          0          9         16          0          0          0          0         29         57         10        0.0        0.0        0.0       92.9      111.2       73.4      29.82      29.87      29.75       0.00       0.00       0.00       51.5       57.6       42.2      29.82      29.87      29.75          0          0          0          0          0          0        0.0        0.0        0.0       0.00       0.00       0.00          0          0          0          0          0          0        0.0        0.0        0.0       0.00       0.00       0.00       0.00       0.00       0.00       0.00       0.00       0.00       0.00       0.00       0.00      0.000      0.000      0.000        0.0        0.0        0.0        0.0        0.4        0.4       0.00  -27497.16  -27497.16        0.0        3.1        3.1        0.0       13.3       13.3        0.0        4.1        4.1        0.0       14.2       14.2
6/26/2015           0        340          0          4         16          0          6         16          0          0          0          0         32         57         11        0.0        0.0        0.0       93.0      111.2       75.2      29.83      29.90      29.75       0.00       0.00       0.00       55.4       61.2       44.6      29.83      29.90      29.75          0          0          0          0          0          0        0.0        0.0        0.0       0.00       0.00       0.00          0          0          0          0          0          0        0.0        0.0        0.0       0.00       0.00       0.00       0.00       0.00       0.00       0.00       0.00       0.00       0.00       0.00       0.00      0.000      0.000      0.000        0.0        0.0        0.0        0.0        0.5        0.5       0.00  -27713.40  -27713.40        0.0        3.1        3.1        0.0       13.8       13.8        0.0        4.1        4.1        0.0       14.7       14.7
6/27/2015         180        360          0          6         14          0          8         14          0          0          0          0         34         57         18        0.0        0.0        0.0       88.2      100.4       75.2      29.89      29.94      29.84       0.00       0.00       0.00       55.1       60.9       47.8      29.89      29.94      29.84          0          0          0          0          0          0        0.0        0.0        0.0       0.00       0.00       0.00          0          0          0          0          0          0        0.0        0.0        0.0       0.00       0.00       0.00       0.00       0.00       0.00       0.00       0.00       0.00       0.00       0.00       0.00      0.000      0.000      0.000        0.0        0.0        0.0        0.0        0.0        0.0       0.00       0.00       0.00        0.0        0.0        0.0        0.0        0.0        0.0        0.0        0.0        0.0        0.0        0.0        0.0
6/28/2015         180        360          0          3         14          0          6         14          0          0          0          0         38         57         14        0.0        0.0        0.0       86.2      100.4       77.0      29.90      29.95      29.82       0.00       0.00       0.00       55.4       60.8       42.6      29.90      29.95      29.82          0          0          0          0          0          0        0.0        0.0        0.0       0.00       0.00       0.00          0          0          0          0          0          0        0.0        0.0        0.0       0.00       0.00       0.00       0.00       0.00       0.00       0.00       0.00       0.00       0.00       0.00       0.00      0.000      0.000      0.000        0.0        0.0        0.0        0.0        0.4        0.4       0.00  -28149.96  -28149.96        0.0        3.1        3.1        0.0       14.8       14.8        0.0        4.1        4.1        0.0       15.6       15.6
6/29/2015           0        320          0          3         13          0          6         13          0          0          0          0         32         60         11        0.0        0.0        0.0       87.7      104.0       69.8      29.90      29.96      29.81       0.00       0.00       0.00       50.2       59.1       39.2      29.90      29.96      29.81          0          0          0          0          0          0        0.0        0.0        0.0       0.00       0.00       0.00          0          0          0          0          0          0        0.0        0.0        0.0       0.00       0.00       0.00       0.00       0.00       0.00       0.00       0.00       0.00       0.00       0.00       0.00      0.000      0.000      0.000        0.0        0.0        0.0        0.0        0.4        0.4       0.00  -28366.20  -28366.20        0.0        3.1        3.1        0.0       15.1       15.1        0.0        4.1        4.1        0.0       16.0       16.0
6/30/2015           0        360          0          4         14          0          7         14          0          0          0          0         25         49          5        0.0        0.0        0.0       92.6      111.2       69.8      29.82      29.90      29.71       0.00       0.00       0.00       45.7       53.6       24.9      29.82      29.90      29.71          0          0          0          0          0          0        0.0        0.0        0.0       0.00       0.00       0.00          0          0          0          0          0          0        0.0        0.0        0.0       0.00       0.00       0.00       0.00       0.00       0.00       0.00       0.00       0.00       0.00       0.00       0.00      0.000      0.000      0.000        0.0        0.0        0.0        0.0        0.4        0.4       0.00  -28584.48  -28584.48        0.0        3.1        3.1        0.0       15.5       15.5        0.0        4.1        4.1        0.0       16.4       16.4
7/1/2015          338        340          0          7         37          0         10         37          0          0          0          0         29        100         13        0.0        0.0        0.0       90.9      109.4       32.0      29.81      29.86      29.78       0.00       0.00       0.00       50.6       55.7       32.0      29.81      29.86      29.78          0          0          0          0          0          0        0.0        0.0        0.0       0.00       0.00       0.00          0          0          0          0          0          0        0.0        0.0        0.0       0.00       0.00       0.00       0.00       0.00       0.00       0.00       0.00       0.00       0.00       0.00       0.00      0.000      0.000      0.000        0.0        0.0        0.0        0.0        0.5        0.5       0.00  -28800.72  -28800.72        0.0        3.1        3.1        0.0       16.0       16.0        0.0        4.1        4.1        0.0       16.9       16.9
7/2/2015            0        360          0          7         24          0         10         24          0          0          0          0         28         50         17        0.0        0.0        0.0       92.5      107.6       75.2      29.83      29.89      29.75       0.00       0.00       0.00       53.0       57.3       43.0      29.83      29.89      29.75          0          0          0          0          0          0        0.0        0.0        0.0       0.00       0.00       0.00          0          0          0          0          0          0        0.0        0.0        0.0       0.00       0.00       0.00       0.00       0.00       0.00       0.00       0.00       0.00       0.00       0.00       0.00      0.000      0.000      0.000        0.0        0.0        0.0        0.0        0.5        0.5       0.00  -29012.88  -29012.88        0.0        0.0        0.0        0.0        0.5        0.5        0.0        4.1        4.1        0.0       17.4       17.4
7/3/2015          202        360          0          6         16          3          9         16          4          0          0          0         28         45         20        0.0        0.0        0.0       89.7      100.4       78.8      29.83      29.91      29.76       0.00       0.00       0.00       51.9       61.2       44.6      29.83      29.91      29.76          0          0          0          0          0          0        0.0        0.0        0.0       0.00       0.00       0.00          0          0          0          0          0          0        0.0        0.0        0.0       0.00       0.00       0.00       0.00       0.00       0.00       0.00       0.00       0.00       0.00       0.00       0.00      0.000      0.000      0.000        0.0        0.0        0.0        0.0        0.5        0.5       0.00  -29231.16  -29231.16        0.0        0.0        0.0        0.0        1.0        1.0        0.0        4.1        4.1        0.0       17.9       17.9
7/4/2015          180        350          0          5         17          0          8         17          0          0          0          0         39         61         21        0.0        0.0        0.0       91.2      105.8       77.0      29.76      29.82      29.68       0.00       0.00       0.00       60.9       66.4       57.1      29.76      29.82      29.68          0          0          0          0          0          0        0.0        0.0        0.0       0.00       0.00       0.00          0          0          0          0          0          0        0.0        0.0        0.0       0.00       0.00       0.00       0.00       0.00       0.00       0.00       0.00       0.00       0.00       0.00       0.00      0.000      0.000      0.000        0.0        0.0        0.0        0.0        0.4        0.4       0.00  -29461.68  -29461.68        0.0        0.0        0.0        0.0        1.4        1.4        0.0        4.1        4.1        0.0       18.3       18.3
7/5/2015          180        250          0          7         16          0          9         16          0          0          0          0         37         51         21        0.0        0.0        0.0       89.9      102.2       78.8      29.81      29.87      29.74       0.00       0.00       0.00       58.9       64.5       53.4      29.81      29.87      29.74          0          0          0          0          0          0        0.0        0.0        0.0       0.00       0.00       0.00          0          0          0          0          0          0        0.0        0.0        0.0       0.00       0.00       0.00       0.00       0.00       0.00       0.00       0.00       0.00       0.00       0.00       0.00      0.000      0.000      0.000        0.0        0.0        0.0        0.0        0.5        0.5       0.00  -29671.80  -29671.80        0.0        0.0        0.0        0.0        1.9        1.9        0.0        4.1        4.1        0.0       18.8       18.8
7/6/2015          180        230          0          6         14          0          9         14          0          0          0          0         40         57         24        0.0        0.0        0.0       85.2       96.8       73.4      29.93      30.00      29.86       0.00       0.00       0.00       56.4       60.6       49.6      29.93      30.00      29.86          0          0          0          0          0          0        0.0        0.0        0.0       0.00       0.00       0.00          0          0          0          0          0          0        0.0        0.0        0.0       0.00       0.00       0.00       0.00       0.00       0.00       0.00       0.00       0.00       0.00       0.00       0.00      0.000      0.000      0.000        0.0        0.0        0.0        0.0        0.0        0.0       0.00       0.00       0.00        0.0        0.0        0.0        0.0        0.0        0.0        0.0        0.0        0.0        0.0        0.0        0.0
7/7/2015          180        280          0          6         19          0          9         19          0          0          0          0         41         65         23        0.0        0.0        0.0       82.8       96.8       71.6      29.87      29.95      29.79       0.00       0.00       0.00       55.1       60.9       51.4      29.87      29.95      29.79          0          0          0          0          0          0        0.0        0.0        0.0       0.00       0.00       0.00          0          0          0          0          0          0        0.0        0.0        0.0       0.00       0.00       0.00       0.00       0.00       0.00       0.00       0.00       0.00       0.00       0.00       0.00      0.000      0.000      0.000        0.0        0.0        0.0        0.0        0.3        0.3       0.00  -30110.40  -30110.40        0.0        0.0        0.0        0.0        2.7        2.7        0.0        4.1        4.1        0.0       19.6       19.6
7/8/2015          180        360          0          7         29          0         10         29          0          0          0          0         44         69         27        0.0        0.0        0.0       80.4       95.0       71.6      29.76      29.83      29.66       0.00       0.00       0.00       55.5       62.6       52.0      29.76      29.83      29.66          0          0          0          0          0          0        0.0        0.0        0.0       0.00       0.00       0.00          0          0          0          0          0          0        0.0        0.0        0.0       0.00       0.00       0.00       0.00       0.00       0.00       0.00       0.00       0.00       0.00       0.00       0.00      0.000      0.000      0.000        0.0        0.0        0.0        0.0        0.0        0.0       0.00       0.00       0.00        0.0        0.0        0.0        0.0        0.0        0.0        0.0        0.0        0.0        0.0        0.0        0.0
7/9/2015          180        350          0          7         14          0          9         14          0          0          0          0         65         78         54        0.0        0.0        0.0       73.5       78.8       68.0      29.78      29.83      29.73       0.00       0.00       0.00       60.9       64.4       57.1      29.78      29.83      29.73          0          0          0          0          0          0        0.0        0.0        0.0       0.00       0.00       0.00          0          0          0          0          0          0        0.0        0.0        0.0       0.00       0.00       0.00       0.00       0.00       0.00       0.00       0.00       0.00       0.00       0.00       0.00      0.000      0.000      0.000        0.0        0.0        0.0        0.0        0.0        0.0       0.00       0.00       0.00        0.0        0.0        0.0        0.0        0.0        0.0        0.0        0.0        0.0        0.0        0.0        0.0
7/10/2015         158        230          0          7         16          0         10         16          0          0          0          0         54         73         37        0.0        0.0        0.0       75.3       84.2       66.2      29.86      29.90      29.81       0.00       0.00       0.00       57.0       60.9       53.8      29.86      29.90      29.81          0          0          0          0          0          0        0.0        0.0        0.0       0.00       0.00       0.00          0          0          0          0          0          0        0.0        0.0        0.0       0.00       0.00       0.00       0.00       0.00       0.00       0.00       0.00       0.00       0.00       0.00       0.00      0.000      0.000      0.000        0.0        0.0        0.0        0.0        0.2        0.2       0.00  -30757.08  -30757.08        0.0        0.0        0.0        0.0        3.5        3.5        0.0        4.1        4.1        0.0       20.3       20.3
7/11/2015         225        230          0          6         16          0          8         16          0          0          0          0         49         73         30        0.0        0.0        0.0       78.3       89.6       66.2      29.89      29.94      29.84       0.00       0.00       0.00       56.1       60.8       51.9      29.89      29.94      29.84          0          0          0          0          0          0        0.0        0.0        0.0       0.00       0.00       0.00          0          0          0          0          0          0        0.0        0.0        0.0       0.00       0.00       0.00       0.00       0.00       0.00       0.00       0.00       0.00       0.00       0.00       0.00      0.000      0.000      0.000        0.0        0.0        0.0        0.0        0.2        0.2       0.00  -30950.88  -30950.88        0.0        0.0        0.0        0.0        3.7        3.7        0.0        4.1        4.1        0.0       20.5       20.5
7/12/2015         180        350          0          5         16          0          8         16          0          0          0          0         39         56         23        0.0        0.0        0.0       79.5       89.6       69.8      29.95      30.00      29.90       0.00       0.00       0.00       51.2       53.6       46.6      29.95      30.00      29.90          0          0          0          0          0          0        0.0        0.0        0.0       0.00       0.00       0.00          0          0          0          0          0          0        0.0        0.0        0.0       0.00       0.00       0.00       0.00       0.00       0.00       0.00       0.00       0.00       0.00       0.00       0.00      0.000      0.000      0.000        0.0        0.0        0.0        0.0        0.3        0.3       0.00  -31167.12  -31167.12        0.0        0.0        0.0        0.0        3.9        3.9        0.0        4.1        4.1        0.0       20.8       20.8
7/13/2015           0        350          0          4         12          0          5         12          0          0          0          0         37         68         19        0.0        0.0        0.0       81.6       93.2       66.2      29.91      30.00      29.81       0.00       0.00       0.00       50.3       55.3       43.4      29.91      30.00      29.81          0          0          0          0          0          0        0.0        0.0        0.0       0.00       0.00       0.00          0          0          0          0          0          0        0.0        0.0        0.0       0.00       0.00       0.00       0.00       0.00       0.00       0.00       0.00       0.00       0.00       0.00       0.00      0.000      0.000      0.000        0.0        0.0        0.0        0.0        0.3        0.3       0.00  -31403.76  -31403.76        0.0        0.0        0.0        0.0        4.2        4.2        0.0        4.1        4.1        0.0       21.1       21.1
7/14/2015           0        360          0          5         17          0          7         17          0          0          0          0         32         53         17        0.0        0.0        0.0       84.0       98.6       69.8      29.80      29.87      29.72       0.00       0.00       0.00       49.0       53.6       46.1      29.80      29.87      29.72          0          0          0          0          0          0        0.0        0.0        0.0       0.00       0.00       0.00          0          0          0          0          0          0        0.0        0.0        0.0       0.00       0.00       0.00       0.00       0.00       0.00       0.00       0.00       0.00       0.00       0.00       0.00      0.000      0.000      0.000        0.0        0.0        0.0        0.0        0.3        0.3       0.00  -31636.32  -31636.32        0.0        0.0        0.0        0.0        4.5        4.5        0.0        4.1        4.1        0.0       21.4       21.4
7/15/2015           0        360          0          5         14          0          7         14          0          0          0          0         31         49         14        0.0        0.0        0.0       86.5      104.0       68.0      29.80      29.86      29.72       0.00       0.00       0.00       49.9       57.0       44.0      29.80      29.86      29.72          0          0          0          0          0          0        0.0        0.0        0.0       0.00       0.00       0.00          0          0          0          0          0          0        0.0        0.0        0.0       0.00       0.00       0.00       0.00       0.00       0.00       0.00       0.00       0.00       0.00       0.00       0.00      0.000      0.000      0.000        0.0        0.0        0.0        0.0        0.3        0.3       0.00  -31872.96  -31872.96        0.0        0.0        0.0        0.0        4.8        4.8        0.0        4.1        4.1        0.0       21.7       21.7
7/16/2015         338        360          0          7         22          0         10         22          0          0          0          0         31         53         13        0.0        0.0        0.0       90.2      105.8       73.4      29.80      29.87      29.69       0.00       0.00       0.00       51.5       60.7       44.9      29.80      29.87      29.69          0          0          0          0          0          0        0.0        0.0        0.0       0.00       0.00       0.00          0          0          0          0          0          0        0.0        0.0        0.0       0.00       0.00       0.00       0.00       0.00       0.00       0.00       0.00       0.00       0.00       0.00       0.00      0.000      0.000      0.000        0.0        0.0        0.0        0.0        0.0        0.0       0.00       0.00       0.00        0.0        0.0        0.0        0.0        0.0        0.0        0.0        0.0        0.0        0.0        0.0        0.0
7/17/2015           0        360          0          8         23          0         11         23          0          0          0          0         28         54         15        0.0        0.0        0.0       90.7      105.8       75.2      29.73      29.82      29.61       0.00       0.00       0.00       51.1       57.5       44.8      29.73      29.82      29.61          0          0          0          0          0          0        0.0        0.0        0.0       0.00       0.00       0.00          0          0          0          0          0          0        0.0        0.0        0.0       0.00       0.00       0.00       0.00       0.00       0.00       0.00       0.00       0.00       0.00       0.00       0.00      0.000      0.000      0.000        0.0        0.0        0.0        0.0        0.4        0.4       0.00  -32295.24  -32295.24        0.0        0.0        0.0        0.0        5.6        5.6        0.0        4.1        4.1        0.0       22.5       22.5
7/18/2015         180        260          0          7         14          0          9         14          0          0          0          0         28         42         12        0.0        0.0        0.0       88.1       98.6       78.8      29.81      29.86      29.70       0.00       0.00       0.00       48.7       53.8       37.3      29.81      29.86      29.70          0          0          0          0          0          0        0.0        0.0        0.0       0.00       0.00       0.00          0          0          0          0          0          0        0.0        0.0        0.0       0.00       0.00       0.00       0.00       0.00       0.00       0.00       0.00       0.00       0.00       0.00       0.00      0.000      0.000      0.000        0.0        0.0        0.0        0.0        0.5        0.5       0.00  -32509.44  -32509.44        0.0        0.0        0.0        0.0        6.1        6.1        0.0        4.1        4.1        0.0       23.0       23.0
7/19/2015         180        260          0          6         14          0          8         14          0          0          0          0         29         50         12        0.0        0.0        0.0       88.5      100.4       71.6      29.89      30.07      29.70       0.00       0.00       0.00       50.9       59.3       37.3      29.89      30.07      29.70          0          0          0          0          0          0        0.0        0.0        0.0       0.00       0.00       0.00          0          0          0          0          0          0        0.0        0.0        0.0       0.00       0.00       0.00       0.00       0.00       0.00       0.00       0.00       0.00       0.00       0.00       0.00      0.000      0.000      0.000        0.0        0.0        0.0        0.0        0.0        0.0       0.00       0.00       0.00        0.0        0.0        0.0        0.0        0.0        0.0        0.0        0.0        0.0        0.0        0.0        0.0
7/20/2015           0        350          0          5         12          0          7         12          0          0          0          0         35         61         13        0.0        0.0        0.0       90.4      105.8       75.2      29.90      30.00      29.79       0.00       0.00       0.00       56.3       62.8       44.9      29.90      30.00      29.79          0          0          0          0          0          0        0.0        0.0        0.0       0.00       0.00       0.00          0          0          0          0          0          0        0.0        0.0        0.0       0.00       0.00       0.00       0.00       0.00       0.00       0.00       0.00       0.00       0.00       0.00       0.00      0.000      0.000      0.000        0.0        0.0        0.0        0.0        0.7        0.7       0.00  -32862.36  -32862.36        0.0        0.0        0.0        0.0        6.8        6.8        0.0        4.1        4.1        0.0       23.6       23.6
7/21/2015         180        300          0          7         23          0         10         23          0          0          0          0         39         57         24        0.0        0.0        0.0       89.8      100.4       77.0      29.77      29.87      29.64       0.00       0.00       0.00       60.2       64.2       57.1      29.77      29.87      29.64          0          0          0          0          0          0        0.0        0.0        0.0       0.00       0.00       0.00          0          0          0          0          0          0        0.0        0.0        0.0       0.00       0.00       0.00       0.00       0.00       0.00       0.00       0.00       0.00       0.00       0.00       0.00      0.000      0.000      0.000        0.0        0.0        0.0        0.0        0.5        0.5       0.00  -33103.08  -33103.08        0.0        0.0        0.0        0.0        7.2        7.2        0.0        4.1        4.1        0.0       24.1       24.1
7/22/2015         180        230          0         10         22          4         13         22          5          0          0          0         33         47         16        0.0        0.0        0.0       83.8       96.8       73.4      29.72      29.78      29.65       0.00       0.00       0.00       50.1       57.0       36.1      29.72      29.78      29.65          0          0          0          0          0          0        0.0        0.0        0.0       0.00       0.00       0.00          0          0          0          0          0          0        0.0        0.0        0.0       0.00       0.00       0.00       0.00       0.00       0.00       0.00       0.00       0.00       0.00       0.00       0.00      0.000      0.000      0.000        0.0        0.0        0.0        0.0        0.4        0.4       0.00  -33327.48  -33327.48        0.0        0.0        0.0        0.0        7.7        7.7        0.0        4.1        4.1        0.0       24.5       24.5
7/23/2015         180        220          0          6         14          0          9         14          0          0          0          0         39         68         18        0.0        0.0        0.0       76.3       89.6       62.6      29.90      29.96      29.80       0.00       0.00       0.00       47.2       52.0       39.1      29.90      29.96      29.80          0          0          0          0          0          0        0.0        0.0        0.0       0.00       0.00       0.00          0          0          0          0          0          0        0.0        0.0        0.0       0.00       0.00       0.00       0.00       0.00       0.00       0.00       0.00       0.00       0.00       0.00       0.00      0.000      0.000      0.000        0.0        0.0        0.0        0.0        0.3        0.3       0.00  -33543.72  -33543.72        0.0        0.0        0.0        0.0        8.0        8.0        0.0        4.1        4.1        0.0       24.9       24.9
7/24/2015         158        360          0          5         19          0          7         19          0          0          0          0         27         49         11        0.0        0.0        0.0       80.2       93.2       62.6      30.02      30.08      29.96       0.00       0.00       0.00       40.7       46.6       29.6      30.02      30.08      29.96          0          0          0          0          0          0        0.0        0.0        0.0       0.00       0.00       0.00          0          0          0          0          0          0        0.0        0.0        0.0       0.00       0.00       0.00       0.00       0.00       0.00       0.00       0.00       0.00       0.00       0.00       0.00      0.000      0.000      0.000        0.0        0.0        0.0        0.0        0.0        0.0       0.00       0.00       0.00        0.0        0.0        0.0        0.0        0.0        0.0        0.0        0.0        0.0        0.0        0.0        0.0
7/25/2015           0        340          0          5         20          0          7         20          0          0          0          0         25         48          9        0.0        0.0        0.0       80.1       96.8       62.6      29.97      30.05      29.87       0.00       0.00       0.00       37.8       43.1       27.4      29.97      30.05      29.87          0          0          0          0          0          0        0.0        0.0        0.0       0.00       0.00       0.00          0          0          0          0          0          0        0.0        0.0        0.0       0.00       0.00       0.00       0.00       0.00       0.00       0.00       0.00       0.00       0.00       0.00       0.00      0.000      0.000      0.000        0.0        0.0        0.0        0.0        0.3        0.3       0.00  -33990.48  -33990.48        0.0        0.0        0.0        0.0        8.5        8.5        0.0        4.1        4.1        0.0       25.4       25.4
7/26/2015           0        360          0          6         20          0          8         20          0          0          0          0         28         45         13        0.0        0.0        0.0       80.4       96.8       62.6      29.86      29.92      29.76       0.00       0.00       0.00       42.0       44.9       32.3      29.86      29.92      29.76          0          0          0          0          0          0        0.0        0.0        0.0       0.00       0.00       0.00          0          0          0          0          0          0        0.0        0.0        0.0       0.00       0.00       0.00       0.00       0.00       0.00       0.00       0.00       0.00       0.00       0.00       0.00      0.000      0.000      0.000        0.0        0.0        0.0        0.0        0.3        0.3       0.00  -34196.52  -34196.52        0.0        0.0        0.0        0.0        8.8        8.8        0.0        4.1        4.1        0.0       25.7       25.7
7/27/2015           0        360         10         12         22          8         16         22         10          0          0          0         23         38          8        0.0        0.0        0.0       85.3       98.6       73.4      29.91      29.98      29.85       0.00       0.00       0.00       39.8       46.4       27.2      29.91      29.98      29.85          0          0          0          0          0          0        0.0        0.0        0.0       0.00       0.00       0.00          0          0          0          0          0          0        0.0        0.0        0.0       0.00       0.00       0.00       0.00       0.00       0.00       0.00       0.00       0.00       0.00       0.00       0.00      0.000      0.000      0.000        0.0        0.0        0.0        0.0        0.3        0.3       0.00  -34402.56  -34402.56        0.0        0.0        0.0        0.0        9.1        9.1        0.0        4.1        4.1        0.0       25.9       25.9
7/28/2015         338        360         10         10         23          5         14         23          6          0          0          0         15         25          7        0.0        0.0        0.0       91.4      105.8       78.8      29.87      29.94      29.79       0.00       0.00       0.00       34.7       41.6       27.9      29.87      29.94      29.79          0          0          0          0          0          0        0.0        0.0        0.0       0.00       0.00       0.00          0          0          0          0          0          0        0.0        0.0        0.0       0.00       0.00       0.00       0.00       0.00       0.00       0.00       0.00       0.00       0.00       0.00       0.00      0.000      0.000      0.000        0.0        0.0        0.0        0.0        0.0        0.0       0.00       0.00       0.00        0.0        0.0        0.0        0.0        0.0        0.0        0.0        0.0        0.0        0.0        0.0        0.0
7/29/2015           0        360          0          6         14          0          9         14          0          0          0          0         14         31          5        0.0        0.0        0.0       93.6      109.4       75.2      29.86      29.90      29.81       0.00       0.00       0.00       33.2       42.5       23.6      29.86      29.90      29.81          0          0          0          0          0          0        0.0        0.0        0.0       0.00       0.00       0.00          0          0          0          0          0          0        0.0        0.0        0.0       0.00       0.00       0.00       0.00       0.00       0.00       0.00       0.00       0.00       0.00       0.00       0.00      0.000      0.000      0.000        0.0        0.0        0.0        0.0        0.5        0.5       0.00  -34904.40  -34904.40        0.0        0.0        0.0        0.0        9.9        9.9        0.0        4.1        4.1        0.0       26.8       26.8
7/30/2015           0        350          0          4         11          0          6         11          0          0          0          0         20         38          8        0.0        0.0        0.0       93.1      113.0       71.6      29.90      29.96      29.83       0.00       0.00       0.00       43.2       51.9       35.1      29.90      29.96      29.83          0          0          0          0          0          0        0.0        0.0        0.0       0.00       0.00       0.00          0          0          0          0          0          0        0.0        0.0        0.0       0.00       0.00       0.00       0.00       0.00       0.00       0.00       0.00       0.00       0.00       0.00       0.00      0.000      0.000      0.000        0.0        0.0        0.0        0.0        0.5        0.5       0.00  -35149.20  -35149.20        0.0        0.0        0.0        0.0       10.4       10.4        0.0        4.1        4.1        0.0       27.3       27.3
7/31/2015           0        330          0          3         10          0          5         10          0          0          0          0         32         47         15        0.0        0.0        0.0       89.6      104.0       75.2      29.90      29.98      29.83       0.00       0.00       0.00       53.8       57.3       47.3      29.90      29.98      29.83          0          0          0          0          0          0        0.0        0.0        0.0       0.00       0.00       0.00          0          0          0          0          0          0        0.0        0.0        0.0       0.00       0.00       0.00       0.00       0.00       0.00       0.00       0.00       0.00       0.00       0.00       0.00      0.000      0.000      0.000        0.0        0.0        0.0        0.0        0.5        0.5       0.00  -35408.28  -35408.28        0.0        0.0        0.0        0.0       10.9       10.9        0.0        4.1        4.1        0.0       27.8       27.8
8/1/2015            0        210        120          6         12          3          9         12          4          0          0          0         49         57         42        0.0        0.0        0.0       79.7       82.4       73.4      29.87      29.92      29.86       0.00       0.00       0.00       58.6       60.8       55.4      29.87      29.92      29.86          0          0          0          0          0          0        0.0        0.0        0.0       0.00       0.00       0.00          0          0          0          0          0          0        0.0        0.0        0.0       0.00       0.00       0.00       0.00       0.00       0.00       0.00       0.00       0.00       0.00       0.00       0.00      0.000      0.000      0.000        0.0        0.0        0.0        0.0        0.0        0.0       0.00       0.00       0.00        0.0        0.0        0.0        0.0        0.0        0.0        0.0        0.0        0.0        0.0        0.0        0.0
8/4/2015            0        240          0          5         13          0          8         13          0          0          0          0         48         60         39        0.0        0.0        0.0       76.5       82.4       66.2      29.91      29.94      29.86       0.00       0.00       0.00       54.9       60.8       51.8      29.91      29.94      29.86          0          0          0          0          0          0        0.0        0.0        0.0       0.00       0.00       0.00          0          0          0          0          0          0        0.0        0.0        0.0       0.00       0.00       0.00       0.00       0.00       0.00       0.00       0.00       0.00       0.00       0.00       0.00      0.000      0.000      0.000        0.0        0.0        0.0        0.0        0.0        0.0       0.00       0.00       0.00        0.0        0.0        0.0        0.0        0.0        0.0        0.0        0.0        0.0        0.0        0.0        0.0
8/5/2015          180        360          0          3         13          0          6         13          0          0          0          0         43         64         28        0.0        0.0        0.0       79.1       89.6       66.2      29.93      30.04      29.86       0.00       0.00       0.00       54.2       60.8       51.8      29.93      30.04      29.86          0          0          0          0          0          0        0.0        0.0        0.0       0.00       0.00       0.00          0          0          0          0          0          0        0.0        0.0        0.0       0.00       0.00       0.00       0.00       0.00       0.00       0.00       0.00       0.00       0.00       0.00       0.00      0.000      0.000      0.000        0.0        0.0        0.0        0.0        0.0        0.0       0.00       0.00       0.00        0.0        0.0        0.0        0.0        0.0        0.0        0.0        0.0        0.0        0.0        0.0        0.0
8/6/2015            0        360          0          5         19          0          7         19          0          0          0          0         35         73          9        0.0        0.0        0.0       83.9      100.4       64.4      29.81      29.90      29.72       0.00       0.00       0.00       48.2       57.3       30.1      29.81      29.90      29.72          0          0          0          0          0          0        0.0        0.0        0.0       0.00       0.00       0.00          0          0          0          0          0          0        0.0        0.0        0.0       0.00       0.00       0.00       0.00       0.00       0.00       0.00       0.00       0.00       0.00       0.00       0.00      0.000      0.000      0.000        0.0        0.0        0.0        0.0        0.0        0.0       0.00       0.00       0.00        0.0        0.0        0.0        0.0        0.0        0.0        0.0        0.0        0.0        0.0        0.0        0.0
8/7/2015          158        350          0          6         17          0          9         17          0          0          0          0         33         50         17        0.0        0.0        0.0       84.8       96.8       73.4      29.78      29.85      29.71       0.00       0.00       0.00       50.8       53.7       44.8      29.78      29.85      29.71          0          0          0          0          0          0        0.0        0.0        0.0       0.00       0.00       0.00          0          0          0          0          0          0        0.0        0.0        0.0       0.00       0.00       0.00       0.00       0.00       0.00       0.00       0.00       0.00       0.00       0.00       0.00      0.000      0.000      0.000        0.0        0.0        0.0        0.0        0.0        0.0       0.00       0.00       0.00        0.0        0.0        0.0        0.0        0.0        0.0        0.0        0.0        0.0        0.0        0.0        0.0
8/8/2015            0        190          0          1         10          0          3         10          0          0          0          0         52         60         44        0.0        0.0        0.0       72.6       77.0       68.0      29.84      29.90      29.80       0.00       0.00       0.00       54.0       55.6       52.0      29.84      29.90      29.80          0          0          0          0          0          0        0.0        0.0        0.0       0.00       0.00       0.00          0          0          0          0          0          0        0.0        0.0        0.0       0.00       0.00       0.00       0.00       0.00       0.00       0.00       0.00       0.00       0.00       0.00       0.00      0.000      0.000      0.000        0.0        0.0        0.0        0.0        0.0        0.0       0.00       0.00       0.00        0.0        0.0        0.0        0.0        0.0        0.0        0.0        0.0        0.0        0.0        0.0        0.0
8/9/2015          180        350          0          3         10          0          5         10          0          0          0          0         38         64         15        0.0        0.0        0.0       80.9       96.8       64.4      29.85      29.93      29.78       0.00       0.00       0.00       50.2       55.6       41.6      29.85      29.93      29.78          0          0          0          0          0          0        0.0        0.0        0.0       0.00       0.00       0.00          0          0          0          0          0          0        0.0        0.0        0.0       0.00       0.00       0.00       0.00       0.00       0.00       0.00       0.00       0.00       0.00       0.00       0.00      0.000      0.000      0.000        0.0        0.0        0.0        0.0        0.0        0.0       0.00       0.00       0.00        0.0        0.0        0.0        0.0        0.0        0.0        0.0        0.0        0.0        0.0        0.0        0.0
8/10/2015           0        360          0          5         17          0          7         17          0          0          0          0         36         52         19        0.0        0.0        0.0       81.0       95.0       66.2      29.82      29.87      29.75       0.00       0.00       0.00       49.9       60.9       44.9      29.82      29.87      29.75          0          0          0          0          0          0        0.0        0.0        0.0       0.00       0.00       0.00          0          0          0          0          0          0        0.0        0.0        0.0       0.00       0.00       0.00       0.00       0.00       0.00       0.00       0.00       0.00       0.00       0.00       0.00      0.000      0.000      0.000        0.0        0.0        0.0        0.0        0.3        0.3       0.00  -36707.76  -36707.76        0.0        0.0        0.0        0.0        1.4        1.4        0.0        4.1        4.1        0.0       29.6       29.6
8/11/2015         180        230        110          7         14          3         10         14          4          0          0          0         37         64         14        0.0        0.0        0.0       81.1       91.4       68.0      29.83      29.89      29.79       0.00       0.00       0.00       48.9       55.6       35.6      29.83      29.89      29.79          0          0          0          0          0          0        0.0        0.0        0.0       0.00       0.00       0.00          0          0          0          0          0          0        0.0        0.0        0.0       0.00       0.00       0.00       0.00       0.00       0.00       0.00       0.00       0.00       0.00       0.00       0.00      0.000      0.000      0.000        0.0        0.0        0.0        0.0        0.3        0.3       0.00  -36960.72  -36960.72        0.0        0.0        0.0        0.0        1.7        1.7        0.0        4.1        4.1        0.0       30.0       30.0
8/12/2015         180        360          0          6         19          0          9         19          0          0          0          0         33         64         14        0.0        0.0        0.0       81.3       93.2       62.6      29.91      30.02      29.79       0.00       0.00       0.00       47.1       55.6       35.6      29.91      30.02      29.79          0          0          0          0          0          0        0.0        0.0        0.0       0.00       0.00       0.00          0          0          0          0          0          0        0.0        0.0        0.0       0.00       0.00       0.00       0.00       0.00       0.00       0.00       0.00       0.00       0.00       0.00       0.00      0.000      0.000      0.000        0.0        0.0        0.0        0.0        0.3        0.3       0.00  -36960.72  -36960.72        0.0        0.0        0.0        0.0        1.7        1.7        0.0        4.1        4.1        0.0       30.0       30.0
8/13/2015         180        330          0          6         25          0          9         25          0          0          0          0         33         55         14        0.0        0.0        0.0       79.1       95.0       62.6      29.94      30.02      29.84       0.00       0.00       0.00       45.2       48.3       37.0      29.94      30.02      29.84          0          0          0          0          0          0        0.0        0.0        0.0       0.00       0.00       0.00          0          0          0          0          0          0        0.0        0.0        0.0       0.00       0.00       0.00       0.00       0.00       0.00       0.00       0.00       0.00       0.00       0.00       0.00      0.000      0.000      0.000        0.0        0.0        0.0        0.0        0.4        0.4       0.00  -37278.96  -37278.96        0.0        0.0        0.0        0.0        2.2        2.2        0.0        4.1        4.1        0.0       30.4       30.4
8/14/2015           0        340          0          4         12          0          7         12          0          0          0          0         34         56         17        0.0        0.0        0.0       78.0       89.6       64.4      30.00      30.05      29.92       0.00       0.00       0.00       46.0       52.0       39.1      30.00      30.05      29.92          0          0          0          0          0          0        0.0        0.0        0.0       0.00       0.00       0.00          0          0          0          0          0          0        0.0        0.0        0.0       0.00       0.00       0.00       0.00       0.00       0.00       0.00       0.00       0.00       0.00       0.00       0.00      0.000      0.000      0.000        0.0        0.0        0.0        0.0        0.0        0.0       0.00       0.00       0.00        0.0        0.0        0.0        0.0        0.0        0.0        0.0        0.0        0.0        0.0        0.0        0.0
8/15/2015         338        360          0          7         20          0         10         20          0          0          0          0         22         41          6        0.0        0.0        0.0       85.6      102.2       73.4      29.94      30.01      29.85       0.00       0.00       0.00       38.5       48.6       22.9      29.94      30.01      29.85          0          0          0          0          0          0        0.0        0.0        0.0       0.00       0.00       0.00          0          0          0          0          0          0        0.0        0.0        0.0       0.00       0.00       0.00       0.00       0.00       0.00       0.00       0.00       0.00       0.00       0.00       0.00      0.000      0.000      0.000        0.0        0.0        0.0        0.0        0.2        0.2       0.00  -37809.36  -37809.36        0.0        0.0        0.0        0.0        2.7        2.7        0.0        4.1        4.1        0.0       30.9       30.9
8/16/2015           0        360          0          5         17          0          8         17          0          0          0          0         19         39          4        0.0        0.0        0.0       85.7      107.6       62.6      29.86      29.94      29.76       0.00       0.00       0.00       32.0       42.8       13.5      29.86      29.94      29.76          0          0          0          0          0          0        0.0        0.0        0.0       0.00       0.00       0.00          0          0          0          0          0          0        0.0        0.0        0.0       0.00       0.00       0.00       0.00       0.00       0.00       0.00       0.00       0.00       0.00       0.00       0.00      0.000      0.000      0.000        0.0        0.0        0.0        0.0        0.4        0.4       0.00  -38086.80  -38086.80        0.0        0.0        0.0        0.0        3.1        3.1        0.0        4.1        4.1        0.0       31.3       31.3
8/17/2015           0        360          0          3         11          0          5         11          0          0          0          0         20         34          8        0.0        0.0        0.0       86.5      107.6       64.4      29.81      29.86      29.74       0.00       0.00       0.00       37.7       46.9       31.9      29.81      29.86      29.74          0          0          0          0          0          0        0.0        0.0        0.0       0.00       0.00       0.00          0          0          0          0          0          0        0.0        0.0        0.0       0.00       0.00       0.00       0.00       0.00       0.00       0.00       0.00       0.00       0.00       0.00       0.00      0.000      0.000      0.000        0.0        0.0        0.0        0.0        0.4        0.4       0.00  -38352.00  -38352.00        0.0        0.0        0.0        0.0        3.4        3.4        0.0        4.1        4.1        0.0       31.6       31.6
8/18/2015           0        350          0          4         17          0          6         17          0          0          0          0         27         49          8        0.0        0.0        0.0       86.0      107.6       64.4      29.81      29.87      29.74       0.00       0.00       0.00       43.8       52.0       32.5      29.81      29.87      29.74          0          0          0          0          0          0        0.0        0.0        0.0       0.00       0.00       0.00          0          0          0          0          0          0        0.0        0.0        0.0       0.00       0.00       0.00       0.00       0.00       0.00       0.00       0.00       0.00       0.00       0.00       0.00      0.000      0.000      0.000        0.0        0.0        0.0        0.0        0.4        0.4       0.00  -38627.40  -38627.40        0.0        0.0        0.0        0.0        3.8        3.8        0.0        4.1        4.1        0.0       32.0       32.0
8/19/2015         180        360          0          4         16          0          6         16          0          0          0          0         36         56         16        0.0        0.0        0.0       82.0       98.6       66.2      29.83      29.89      29.77       0.00       0.00       0.00       50.1       53.8       44.7      29.83      29.89      29.77          0          0          0          0          0          0        0.0        0.0        0.0       0.00       0.00       0.00          0          0          0          0          0          0        0.0        0.0        0.0       0.00       0.00       0.00       0.00       0.00       0.00       0.00       0.00       0.00       0.00       0.00       0.00      0.000      0.000      0.000        0.0        0.0        0.0        0.0        0.4        0.4       0.00  -38882.40  -38882.40        0.0        0.0        0.0        0.0        4.2        4.2        0.0        4.1        4.1        0.0       32.4       32.4
8/20/2015         180        310          0          3         12          0          4         12          0          0          0          0         43         60         22        0.0        0.0        0.0       79.0       93.2       66.2      29.81      29.88      29.73       0.00       0.00       0.00       53.1       57.5       48.7      29.81      29.88      29.73          0          0          0          0          0          0        0.0        0.0        0.0       0.00       0.00       0.00          0          0          0          0          0          0        0.0        0.0        0.0       0.00       0.00       0.00       0.00       0.00       0.00       0.00       0.00       0.00       0.00       0.00       0.00      0.000      0.000      0.000        0.0        0.0        0.0        0.0        0.3        0.3       0.00  -39094.56  -39094.56        0.0        0.0        0.0        0.0        4.5        4.5        0.0        4.1        4.1        0.0       32.7       32.7
8/21/2015         158        220          0          4         13          0          5         13          0          0          0          0         43         68         17        0.0        0.0        0.0       79.4       96.8       62.6      29.80      29.84      29.73       0.00       0.00       0.00       52.1       55.9       44.8      29.80      29.84      29.73          0          0          0          0          0          0        0.0        0.0        0.0       0.00       0.00       0.00          0          0          0          0          0          0        0.0        0.0        0.0       0.00       0.00       0.00       0.00       0.00       0.00       0.00       0.00       0.00       0.00       0.00       0.00      0.000      0.000      0.000        0.0        0.0        0.0        0.0        0.3        0.3       0.00  -39312.84  -39312.84        0.0        0.0        0.0        0.0        4.8        4.8        0.0        4.1        4.1        0.0       33.0       33.0
8/22/2015         180        190          0          4         17          0          6         17          0          0          0          0         39         68         17        0.0        0.0        0.0       82.2       98.6       64.4      29.83      29.88      29.77       0.00       0.00       0.00       51.6       57.0       44.8      29.83      29.88      29.77          0          0          0          0          0          0        0.0        0.0        0.0       0.00       0.00       0.00          0          0          0          0          0          0        0.0        0.0        0.0       0.00       0.00       0.00       0.00       0.00       0.00       0.00       0.00       0.00       0.00       0.00       0.00      0.000      0.000      0.000        0.0        0.0        0.0        0.0        0.0        0.0       0.00       0.00       0.00        0.0        0.0        0.0        0.0        0.0        0.0        0.0        0.0        0.0        0.0        0.0        0.0
8/23/2015         180        190          0          3         16          0          4         16          0          0          0          0         43         64         17        0.0        0.0        0.0       78.6       95.0       64.4      29.92      29.96      29.87       0.00       0.00       0.00       51.9       55.6       43.4      29.92      29.96      29.87          0          0          0          0          0          0        0.0        0.0        0.0       0.00       0.00       0.00          0          0          0          0          0          0        0.0        0.0        0.0       0.00       0.00       0.00       0.00       0.00       0.00       0.00       0.00       0.00       0.00       0.00       0.00      0.000      0.000      0.000        0.0        0.0        0.0        0.0        0.3        0.3       0.00  -39769.80  -39769.80        0.0        0.0        0.0        0.0        5.3        5.3        0.0        4.1        4.1        0.0       33.6       33.6
8/24/2015         180        260          0          3         12          0          5         12          0          0          0          0         36         64         16        0.0        0.0        0.0       81.2       96.8       64.4      29.93      30.00      29.86       0.00       0.00       0.00       48.9       53.7       43.3      29.93      30.00      29.86          0          0          0          0          0          0        0.0        0.0        0.0       0.00       0.00       0.00          0          0          0          0          0          0        0.0        0.0        0.0       0.00       0.00       0.00       0.00       0.00       0.00       0.00       0.00       0.00       0.00       0.00       0.00      0.000      0.000      0.000        0.0        0.0        0.0        0.0        0.2        0.2       0.00  -40012.56  -40012.56        0.0        0.0        0.0        0.0        5.6        5.6        0.0        4.1        4.1        0.0       33.8       33.8
8/25/2015           0        220          0          3         14          0          5         14          0          0          0          0         34         60         12        0.0        0.0        0.0       80.1       98.6       64.4      29.92      29.97      29.85       0.00       0.00       0.00       45.5       50.2       37.3      29.92      29.97      29.85          0          0          0          0          0          0        0.0        0.0        0.0       0.00       0.00       0.00          0          0          0          0          0          0        0.0        0.0        0.0       0.00       0.00       0.00       0.00       0.00       0.00       0.00       0.00       0.00       0.00       0.00       0.00      0.000      0.000      0.000        0.0        0.0        0.0        0.0        0.0        0.0       0.00       0.00       0.00        0.0        0.0        0.0        0.0        0.0        0.0        0.0        0.0        0.0        0.0        0.0        0.0
9/3/2015          180        220          0          3         14          0          5         14          0          0          0          0         36         60         12        0.0        0.0        0.0       78.5       98.6       64.4      29.89      29.97      29.74       0.00       0.00       0.00       45.8       50.2       37.3      29.89      29.97      29.74          0          0          0          0          0          0        0.0        0.0        0.0       0.00       0.00       0.00          0          0          0          0          0          0        0.0        0.0        0.0       0.00       0.00       0.00       0.00       0.00       0.00       0.00       0.00       0.00       0.00       0.00       0.00      0.000      0.000      0.000        0.0        0.0        0.0        0.0        0.0        0.0       0.00       0.00       0.00        0.0        0.0        0.0        0.0        0.0        0.0        0.0        0.0        0.0        0.0        0.0        0.0
9/4/2015            0        330          0          5         14          0          7         14          0          0          0          0         34         63         11        0.0        0.0        0.0       71.4       84.2       57.2      29.79      29.89      29.74       0.00       0.00       0.00       38.1       46.2       22.7      29.79      29.89      29.74          0          0          0          0          0          0        0.0        0.0        0.0       0.00       0.00       0.00          0          0          0          0          0          0        0.0        0.0        0.0       0.00       0.00       0.00       0.00       0.00       0.00       0.00       0.00       0.00       0.00       0.00       0.00      0.000      0.000      0.000        0.0        0.0        0.0        0.0        0.2        0.2       0.00  -40467.48  -40467.48        0.0        0.0        0.0        0.0        6.1        6.1        0.0        4.1        4.1        0.0       34.3       34.3
9/5/2015          338        360         10         13         29          9         18         29         11          0          0          0         32         42         23        0.0        0.0        0.0       67.2       73.4       60.8      29.99      30.03      29.91       0.00       0.00       0.00       35.6       37.8       33.4      29.99      30.03      29.91          0          0          0          0          0          0        0.0        0.0        0.0       0.00       0.00       0.00          0          0          0          0          0          0        0.0        0.0        0.0       0.00       0.00       0.00       0.00       0.00       0.00       0.00       0.00       0.00       0.00       0.00       0.00      0.000      0.000      0.000        0.0        0.0        0.0        0.0        0.0        0.0       0.00       0.00       0.00        0.0        0.0        0.0        0.0        0.0        0.0        0.0        0.0        0.0        0.0        0.0        0.0
9/6/2015          338        360          0          8         29          0         11         29          0          0          0          0         20         42          5        0.0        0.0        0.0       77.3       93.2       60.8      29.94      30.03      29.85       0.00       0.00       0.00       28.0       37.8       11.1      29.94      30.03      29.85          0          0          0          0          0          0        0.0        0.0        0.0       0.00       0.00       0.00          0          0          0          0          0          0        0.0        0.0        0.0       0.00       0.00       0.00       0.00       0.00       0.00       0.00       0.00       0.00       0.00       0.00       0.00      0.000      0.000      0.000        0.0        0.0        0.0        0.0        0.0        0.0       0.00       0.00       0.00        0.0        0.0        0.0        0.0        0.0        0.0        0.0        0.0        0.0        0.0        0.0        0.0
9/7/2015            0        360          0          5         14          0          7         14          0          0          0          0         21         38          7        0.0        0.0        0.0       80.0       98.6       57.2      29.90      29.96      29.82       0.00       0.00       0.00       32.5       42.5       24.0      29.90      29.96      29.82          0          0          0          0          0          0        0.0        0.0        0.0       0.00       0.00       0.00          0          0          0          0          0          0        0.0        0.0        0.0       0.00       0.00       0.00       0.00       0.00       0.00       0.00       0.00       0.00       0.00       0.00       0.00      0.000      0.000      0.000        0.0        0.0        0.0        0.0        0.2        0.2       0.00  -40755.12  -40755.12        0.0        0.0        0.0        0.0        6.4        6.4        0.0        4.2        4.2        0.0       34.6       34.6
9/8/2015          158        350          0          4         16          0          7         16          0          0          0          0         22         41          6        0.0        0.0        0.0       80.4      104.0       57.2      29.87      29.92      29.78       0.00       0.00       0.00       31.9       37.8       24.2      29.87      29.92      29.78          0          0          0          0          0          0        0.0        0.0        0.0       0.00       0.00       0.00          0          0          0          0          0          0        0.0        0.0        0.0       0.00       0.00       0.00       0.00       0.00       0.00       0.00       0.00       0.00       0.00       0.00       0.00      0.000      0.000      0.000        0.0        0.0        0.0        0.0        0.3        0.3       0.00  -40940.76  -40940.76        0.0        0.0        0.0        0.0        6.7        6.7        0.0        4.2        4.2        0.0       34.9       34.9
9/9/2015            0        360          0          4         10          0          5         10          0          0          0          0         20         44          7        0.0        0.0        0.0       85.5      104.0       59.0      29.85      29.90      29.77       0.00       0.00       0.00       33.8       39.4       27.9      29.85      29.90      29.77          0          0          0          0          0          0        0.0        0.0        0.0       0.00       0.00       0.00          0          0          0          0          0          0        0.0        0.0        0.0       0.00       0.00       0.00       0.00       0.00       0.00       0.00       0.00       0.00       0.00       0.00       0.00      0.000      0.000      0.000        0.0        0.0        0.0        0.0        0.2        0.2       0.00  -41089.68  -41089.68        0.0        0.0        0.0        0.0        6.9        6.9        0.0        4.2        4.2        0.0       35.2       35.2
9/10/2015           0        360          0          4         11          0          6         11          0          0          0          0         36        100          7        0.0        0.0        0.0       72.3      104.0       32.0      29.86      29.90       0.00       0.00       0.00       0.00       34.5       39.4       27.9      29.86      29.90       0.00          0          0          0          0          0          0        0.0        0.0        0.0       0.00       0.00       0.00          0          0          0          0          0          0        0.0        0.0        0.0       0.00       0.00       0.00       0.00       0.00       0.00       0.00       0.00       0.00       0.00       0.00       0.00      0.000      0.000      0.000        0.0        0.0        0.0        0.0        0.0        0.0       0.00       0.00       0.00        0.0        0.0        0.0        0.0        0.0        0.0        0.0        0.0        0.0        0.0        0.0        0.0
9/13/2015           0        350          0          4         11          0          6         11          0          0          0          0         34         56         13        0.0        0.0        0.0       77.5       96.8       69.8      29.81      29.86      29.63       0.00       0.00       0.00       40.2       55.7       37.9      29.81      29.86      29.63          0          0          0          0          0          0        0.0        0.0        0.0       0.00       0.00       0.00          0          0          0          0          0          0        0.0        0.0        0.0       0.00       0.00       0.00       0.00       0.00       0.00       0.00       0.00       0.00       0.00       0.00       0.00      0.000      0.000      0.000        0.0        0.1        0.1        0.0        0.3        0.3       0.00       0.00       0.00        0.0        0.1        0.1        0.0        7.2        7.2        0.0        4.3        4.3        0.0       35.4       35.4
9/14/2015           0        310          0          2         10          0          4         10          0          0          0          0         53         69         42        0.0        0.0        0.0       74.0       78.8       71.6      29.66      29.71      29.63       0.00       0.00       0.00       55.6       60.9       53.6      29.66      29.71      29.63          0          0          0          0          0          0        0.0        0.0        0.0       0.00       0.00       0.00          0          0          0          0          0          0        0.0        0.0        0.0       0.00       0.00       0.00       0.00       0.00       0.00       0.00       0.00       0.00       0.00       0.00       0.00      0.000      0.000      0.000        0.0        0.0        0.0        0.0        0.0        0.0       0.00       0.00       0.00        0.0        0.0        0.0        0.0        0.0        0.0        0.0        0.0        0.0        0.0        0.0        0.0
9/15/2015         202        310          0          6         19          0          9         19          0          0          0          0         56         77         37        0.0        0.0        0.0       69.9       78.8       62.6      29.75      29.83      29.63       0.00       0.00       0.00       53.2       60.9       39.2      29.75      29.83      29.63          0          0          0          0          0          0        0.0        0.0        0.0       0.00       0.00       0.00          0          0          0          0          0          0        0.0        0.0        0.0       0.00       0.00       0.00       0.00       0.00       0.00       0.00       0.00       0.00       0.00       0.00       0.00      0.000      0.000      0.000        0.0        0.0        0.0        0.0        0.0        0.0       0.00       0.00       0.00        0.0        0.0        0.0        0.0        0.0        0.0        0.0        0.0        0.0        0.0        0.0        0.0
9/16/2015         180        360          0          5         12          0          7         12          0          0          0          0         74         94         51        0.0        0.0        0.0       57.6       60.8       53.6      29.94      30.01      29.83       0.00       0.00       0.00       48.9       55.5       40.9      29.94      30.01      29.83          0          0          0          0          0          0        0.0        0.0        0.0       0.00       0.00       0.00          0          0          0          0          0          0        0.0        0.0        0.0       0.00       0.00       0.00       0.00       0.00       0.00       0.00       0.00       0.00       0.00       0.00       0.00      0.000      0.000      0.000        0.0        0.0        0.0        0.0        0.0        0.0       0.00       0.00       0.00        0.0        0.0        0.0        0.0        0.0        0.0        0.0        0.0        0.0        0.0        0.0        0.0
9/17/2015         338        340          0          2          7          0          4          7          0          0          0          0         68         94         34        0.0        0.0        0.0       65.2       78.8       57.2      30.04      30.12      29.99       0.00       0.00       0.00       53.0       55.6       46.5      30.04      30.12      29.99          0          0          0          0          0          0        0.0        0.0        0.0       0.00       0.00       0.00          0          0          0          0          0          0        0.0        0.0        0.0       0.00       0.00       0.00       0.00       0.00       0.00       0.00       0.00       0.00       0.00       0.00       0.00      0.000      0.000      0.000        0.0        0.1        0.1        0.0        0.0        0.0       0.00  -41932.20  -41932.20        0.0        0.2        0.2        0.0        7.6        7.6        0.0        4.4        4.4        0.0       35.8       35.8
9/18/2015         338        360          0          5         13          0          7         13          0          0          0          0         45         68         11        0.0        0.0        0.0       70.4       91.4       60.8      29.91      29.99      29.82       0.00       0.00       0.00       45.2       51.9       29.6      29.91      29.99      29.82          0          0          0          0          0          0        0.0        0.0        0.0       0.00       0.00       0.00          0          0          0          0          0          0        0.0        0.0        0.0       0.00       0.00       0.00       0.00       0.00       0.00       0.00       0.00       0.00       0.00       0.00       0.00      0.000      0.000      0.000        0.0        0.0        0.0        0.0        0.0        0.0       0.00       0.00       0.00        0.0        0.0        0.0        0.0        0.0        0.0        0.0        0.0        0.0        0.0        0.0        0.0
9/19/2015           0        360          0          2          7          0          4          7          0          0          0          0         40         77          8        0.0        0.0        0.0       76.0       98.6       55.4      29.84      29.90      29.76       0.00       0.00       0.00       43.0       51.9       27.2      29.84      29.90      29.76          0          0          0          0          0          0        0.0        0.0        0.0       0.00       0.00       0.00          0          0          0          0          0          0        0.0        0.0        0.0       0.00       0.00       0.00       0.00       0.00       0.00       0.00       0.00       0.00       0.00       0.00       0.00      0.000      0.000      0.000        0.0        0.0        0.0        0.0        0.1        0.1       0.00  -42521.76  -42521.76        0.0        0.3        0.3        0.0        7.8        7.8        0.0        4.4        4.4        0.0       36.0       36.0
9/20/2015           0        350          0          1          6          0          2          6          0          0          0          0         40         72         12        0.0        0.0        0.0       77.1       96.8       57.2      29.85      29.92      29.79       0.00       0.00       0.00       46.2       52.0       35.9      29.85      29.92      29.79          0          0          0          0          0          0        0.0        0.0        0.0       0.00       0.00       0.00          0          0          0          0          0          0        0.0        0.0        0.0       0.00       0.00       0.00       0.00       0.00       0.00       0.00       0.00       0.00       0.00       0.00       0.00      0.000      0.000      0.000        0.0        0.0        0.0        0.0        0.0        0.0       0.00       0.00       0.00        0.0        0.0        0.0        0.0        0.0        0.0        0.0        0.0        0.0        0.0        0.0        0.0
9/21/2015           0        360          0          3         11          0          4         11          0          0          0          0         39         72         12        0.0        0.0        0.0       79.9      100.4       60.8      29.76      29.84      29.65       0.00       0.00       0.00       47.8       53.5       38.7      29.76      29.84      29.65          0          0          0          0          0          0        0.0        0.0        0.0       0.00       0.00       0.00          0          0          0          0          0          0        0.0        0.0        0.0       0.00       0.00       0.00       0.00       0.00       0.00       0.00       0.00       0.00       0.00       0.00       0.00      0.000      0.000      0.000        0.0        0.0        0.0        0.0        0.2        0.2       0.00  -43280.64  -43280.64        0.0        0.3        0.3        0.0        8.2        8.2        0.0        4.4        4.4        0.0       36.5       36.5
9/22/2015           0        350          0          4         16          0          7         16          0          0          0          0         40         72         17        0.0        0.0        0.0       76.6       91.4       60.8      29.78      29.88      29.71       0.00       0.00       0.00       47.3       51.9       39.0      29.78      29.88      29.71          0          0          0          0          0          0        0.0        0.0        0.0       0.00       0.00       0.00          0          0          0          0          0          0        0.0        0.0        0.0       0.00       0.00       0.00       0.00       0.00       0.00       0.00       0.00       0.00       0.00       0.00       0.00      0.000      0.000      0.000        0.0        0.0        0.0        0.0        0.0        0.0       0.00       0.00       0.00        0.0        0.0        0.0        0.0        0.0        0.0        0.0        0.0        0.0        0.0        0.0        0.0
9/23/2015           0        360          0          1         10          0          3         10          0          0          0          0         38         72         13        0.0        0.0        0.0       72.9       91.4       55.4      29.94      30.01      29.88       0.00       0.00       0.00       41.7       46.5       30.9      29.94      30.01      29.88          0          0          0          0          0          0        0.0        0.0        0.0       0.00       0.00       0.00          0          0          0          0          0          0        0.0        0.0        0.0       0.00       0.00       0.00       0.00       0.00       0.00       0.00       0.00       0.00       0.00       0.00       0.00      0.000      0.000      0.000        0.0        0.0        0.0        0.0        0.2        0.2       0.00  -44298.60  -44298.60        0.0        0.3        0.3        0.0        8.8        8.8        0.0        4.4        4.4        0.0       37.0       37.0
9/24/2015           0        350          0          2          7          0          3          7          0          0          0          0         37         59         13        0.0        0.0        0.0       73.1       95.0       59.0      29.91      29.99      29.84       0.00       0.00       0.00       41.6       46.5       35.1      29.91      29.99      29.84          0          0          0          0          0          0        0.0        0.0        0.0       0.00       0.00       0.00          0          0          0          0          0          0        0.0        0.0        0.0       0.00       0.00       0.00       0.00       0.00       0.00       0.00       0.00       0.00       0.00       0.00       0.00      0.000      0.000      0.000        0.0        0.0        0.0        0.0        0.0        0.0       0.00       0.00       0.00        0.0        0.0        0.0        0.0        0.0        0.0        0.0        0.0        0.0        0.0        0.0        0.0
9/25/2015         180        330          0          3         12          0          4         12          0          0          0          0         36         67         14        0.0        0.0        0.0       76.1       96.8       57.2      29.86      29.90      29.80       0.00       0.00       0.00       43.3       46.4       37.0      29.86      29.90      29.80          0          0          0          0          0          0        0.0        0.0        0.0       0.00       0.00       0.00          0          0          0          0          0          0        0.0        0.0        0.0       0.00       0.00       0.00       0.00       0.00       0.00       0.00       0.00       0.00       0.00       0.00       0.00      0.000      0.000      0.000        0.0        0.0        0.0        0.0        0.1        0.1       0.00  -45220.68  -45220.68        0.0        0.3        0.3        0.0        9.1        9.1        0.0        4.5        4.5        0.0       37.3       37.3
9/26/2015           0        360          0          2         10          0          4         10          0          0          0          0         36         63         15        0.0        0.0        0.0       76.4       93.2       59.0      29.84      29.91      29.76       0.00       0.00       0.00       44.4       48.1       38.7      29.84      29.91      29.76          0          0          0          0          0          0        0.0        0.0        0.0       0.00       0.00       0.00          0          0          0          0          0          0        0.0        0.0        0.0       0.00       0.00       0.00       0.00       0.00       0.00       0.00       0.00       0.00       0.00       0.00       0.00      0.000      0.000      0.000        0.0        0.0        0.0        0.0        0.2        0.2       0.00  -45740.88  -45740.88        0.0        0.4        0.4        0.0        9.3        9.3        0.0        4.5        4.5        0.0       37.5       37.5
9/27/2015           0        360          0          5         14          0          8         14          0          0          0          0         35         63         16        0.0        0.0        0.0       78.3       95.0       59.0      29.78      29.83      29.71       0.00       0.00       0.00       44.6       48.3       37.6      29.78      29.83      29.71          0          0          0          0          0          0        0.0        0.0        0.0       0.00       0.00       0.00          0          0          0          0          0          0        0.0        0.0        0.0       0.00       0.00       0.00       0.00       0.00       0.00       0.00       0.00       0.00       0.00       0.00       0.00      0.000      0.000      0.000        0.0        0.0        0.0        0.0        0.0        0.0       0.00       0.00       0.00        0.0        0.0        0.0        0.0        0.0        0.0        0.0        0.0        0.0        0.0        0.0        0.0
9/28/2015         158        360          0          5         16          0          8         16          0          0          0          0         31         63         12        0.0        0.0        0.0       79.7       95.0       59.0      29.80      29.87      29.71       0.00       0.00       0.00       43.1       48.3       33.1      29.80      29.87      29.71          0          0          0          0          0          0        0.0        0.0        0.0       0.00       0.00       0.00          0          0          0          0          0          0        0.0        0.0        0.0       0.00       0.00       0.00       0.00       0.00       0.00       0.00       0.00       0.00       0.00       0.00       0.00      0.000      0.000      0.000        0.0        0.0        0.0        0.0        0.0        0.0       0.00       0.00       0.00        0.0        0.0        0.0        0.0        0.0        0.0        0.0        0.0        0.0        0.0        0.0        0.0
9/29/2015         180        350          0          4         16          0          6         16          0          0          0          0         39         63         16        0.0        0.0        0.0       70.0       86.0       55.4      29.90      29.95      29.85       0.00       0.00       0.00       40.8       44.9       33.2      29.90      29.95      29.85          0          0          0          0          0          0        0.0        0.0        0.0       0.00       0.00       0.00          0          0          0          0          0          0        0.0        0.0        0.0       0.00       0.00       0.00       0.00       0.00       0.00       0.00       0.00       0.00       0.00       0.00       0.00      0.000      0.000      0.000        0.0        0.0        0.0        0.0        0.0        0.0       0.00       0.00       0.00        0.0        0.0        0.0        0.0        0.0        0.0        0.0        0.0        0.0        0.0        0.0        0.0
9/30/2015           0        360          0          2          7          0          3          7          0          0          0          0         44         67         21        0.0        0.0        0.0       64.2       78.8       53.6      29.94      29.99      29.91       0.00       0.00       0.00       40.0       44.8       33.9      29.94      29.99      29.91          0          0          0          0          0          0        0.0        0.0        0.0       0.00       0.00       0.00          0          0          0          0          0          0        0.0        0.0        0.0       0.00       0.00       0.00       0.00       0.00       0.00       0.00       0.00       0.00       0.00       0.00       0.00      0.000      0.000      0.000        0.0        0.0        0.0        0.0        0.1        0.1       0.00  -47607.48  -47607.48        0.0        0.4        0.4        0.0       10.1       10.1        0.0        4.5        4.5        0.0       38.3       38.3
10/1/2015           0        360          0          3         11          0          5         11          0          0          0          0         52         72         36        0.0        0.0        0.0       66.0       75.2       59.0      29.97      30.04      29.90       0.00       0.00       0.00       47.4       52.0       39.3      29.97      30.04      29.90          0          0          0          0          0          0        0.0        0.0        0.0       0.00       0.00       0.00          0          0          0          0          0          0        0.0        0.0        0.0       0.00       0.00       0.00       0.00       0.00       0.00       0.00       0.00       0.00       0.00       0.00       0.00      0.000      0.000      0.000        0.0        0.1        0.1        0.0        0.1        0.1       0.00  -48162.36  -48162.36        0.0        0.4        0.4        0.0       10.2       10.2        0.0        4.6        4.6        0.0       38.4       38.4
10/2/2015           0        360          0          5         16          0          7         16          0          0          0          0         47         82         13        0.0        0.0        0.0       73.7       91.4       57.2      29.99      30.07      29.83       0.00       0.00       0.00       45.6       53.6       33.7      29.99      30.07      29.83          0          0          0          0          0          0        0.0        0.0        0.0       0.00       0.00       0.00          0          0          0          0          0          0        0.0        0.0        0.0       0.00       0.00       0.00       0.00       0.00       0.00       0.00       0.00       0.00       0.00       0.00       0.00      0.000      0.000      0.000        0.0        0.0        0.0        0.0        0.1        0.1       0.00  -48731.52  -48731.52        0.0        0.0        0.0        0.0        0.1        0.1        0.0        4.6        4.6        0.0       38.5       38.5
10/3/2015           0        360          0         13         32          0         18         32          0          0          0          0         23         35         14        0.0        0.0        0.0       75.5       82.4       66.2      29.62      29.82      29.49       0.00       0.00       0.00       34.6       39.2       28.5      29.62      29.82      29.49          0          0          0          0          0          0        0.0        0.0        0.0       0.00       0.00       0.00          0          0          0          0          0          0        0.0        0.0        0.0       0.00       0.00       0.00       0.00       0.00       0.00       0.00       0.00       0.00       0.00       0.00       0.00      0.000      0.000      0.000        0.0        0.0        0.0        0.0        0.2        0.2       0.00  -49200.72  -49200.72        0.0        0.0        0.0        0.0        0.2        0.2        0.0        4.6        4.6        0.0       38.6       38.6
10/4/2015           0        360          0         12         28          0         17         28          0          0          0          0         24         43         15        0.0        0.0        0.0       79.6       91.4       69.8      29.61      29.69      29.56       0.00       0.00       0.00       39.0       47.9       35.3      29.61      29.69      29.56          0          0          0          0          0          0        0.0        0.0        0.0       0.00       0.00       0.00          0          0          0          0          0          0        0.0        0.0        0.0       0.00       0.00       0.00       0.00       0.00       0.00       0.00       0.00       0.00       0.00       0.00       0.00      0.000      0.000      0.000        0.0        0.0        0.0        0.0        0.2        0.2       0.00  -49731.12  -49731.12        0.0        0.0        0.0        0.0        0.4        0.4        0.0        4.6        4.6        0.0       38.8       38.8
10/5/2015           0        210          0          3         13          0          4         13          0          0          0          0         46         67         25        0.0        0.0        0.0       70.5       86.0       55.4      29.80      29.87      29.69       0.00       0.00       0.00       47.0       51.8       44.6      29.80      29.87      29.69          0          0          0          0          0          0        0.0        0.0        0.0       0.00       0.00       0.00          0          0          0          0          0          0        0.0        0.0        0.0       0.00       0.00       0.00       0.00       0.00       0.00       0.00       0.00       0.00       0.00       0.00       0.00      0.000      0.000      0.000        0.0        0.0        0.0        0.0        0.0        0.0       0.00       0.00       0.00        0.0        0.0        0.0        0.0        0.0        0.0        0.0        0.0        0.0        0.0        0.0        0.0
10/6/2015         158        210          0          3         13          0          4         13          0          0          0          0         44         67         25        0.0        0.0        0.0       72.9       86.0       55.4      29.88      30.09      29.69       0.00       0.00       0.00       48.5       52.0       44.6      29.88      30.09      29.69          0          0          0          0          0          0        0.0        0.0        0.0       0.00       0.00       0.00          0          0          0          0          0          0        0.0        0.0        0.0       0.00       0.00       0.00       0.00       0.00       0.00       0.00       0.00       0.00       0.00       0.00       0.00      0.000      0.000      0.000        0.0        0.0        0.0        0.0        0.0        0.0       0.00       0.00       0.00        0.0        0.0        0.0        0.0        0.0        0.0        0.0        0.0        0.0        0.0        0.0        0.0
10/7/2015         315        330          0          2          6          0          4          6          0          0          0          0         52         77          0        0.0        0.0        0.0       70.6       84.2       59.0      30.09      30.15      30.04       0.00       0.00       0.00       50.6       55.3        0.0      30.09      30.15      30.04          0          0          0          0          0          0        0.0        0.0        0.0       0.00       0.00       0.00          0          0          0          0          0          0        0.0        0.0        0.0       0.00       0.00       0.00       0.00       0.00       0.00       0.00       0.00       0.00       0.00       0.00       0.00      0.000      0.000      0.000        0.0        0.0        0.0        0.0        0.2        0.2       0.00  -50891.88  -50891.88        0.0        0.1        0.1        0.0        0.9        0.9        0.0        4.6        4.6        0.0       39.3       39.3
10/8/2015           0        360          0          3         10          0          4         10          0          0          0          0         51         72         24        0.0        0.0        0.0       72.7       87.8       60.8      30.07      30.10      30.02       0.00       0.00       0.00       51.1       53.7       46.6      30.07      30.10      30.02          0          0          0          0          0          0        0.0        0.0        0.0       0.00       0.00       0.00          0          0          0          0          0          0        0.0        0.0        0.0       0.00       0.00       0.00       0.00       0.00       0.00       0.00       0.00       0.00       0.00       0.00       0.00      0.000      0.000      0.000        0.0        0.0        0.0        0.0        0.0        0.0       0.00       0.00       0.00        0.0        0.0        0.0        0.0        0.0        0.0        0.0        0.0        0.0        0.0        0.0        0.0
10/9/2015         180        360          0          3         10          0          4         10          0          0          0          0         43         72         19        0.0        0.0        0.0       75.9       91.4       60.8      30.04      30.10      29.94       0.00       0.00       0.00       49.3       53.7       43.3      30.04      30.10      29.94          0          0          0          0          0          0        0.0        0.0        0.0       0.00       0.00       0.00          0          0          0          0          0          0        0.0        0.0        0.0       0.00       0.00       0.00       0.00       0.00       0.00       0.00       0.00       0.00       0.00       0.00       0.00      0.000      0.000      0.000        0.0        0.0        0.0        0.0        0.0        0.0       0.00       0.00       0.00        0.0        0.0        0.0        0.0        0.0        0.0        0.0        0.0        0.0        0.0        0.0        0.0
10/10/2015        180        330          0          5         20          0          7         20          0          0          0          0         42         67         19        0.0        0.0        0.0       73.1       89.6       55.4      29.94      30.00      29.87       0.00       0.00       0.00       46.3       53.4       40.5      29.94      30.00      29.87          0          0          0          0          0          0        0.0        0.0        0.0       0.00       0.00       0.00          0          0          0          0          0          0        0.0        0.0        0.0       0.00       0.00       0.00       0.00       0.00       0.00       0.00       0.00       0.00       0.00       0.00       0.00      0.000      0.000      0.000        0.0        0.0        0.0        0.0        0.3        0.3       0.00  -52048.56  -52048.56        0.0        0.1        0.1        0.0        1.7        1.7        0.0        4.7        4.7        0.0       40.1       40.1
10/11/2015          0        360          0          3         10          0          5         10          0          0          0          0         40         63         17        0.0        0.0        0.0       74.0       91.4       59.0      29.97      30.03      29.90       0.00       0.00       0.00       45.5       48.4       39.1      29.97      30.03      29.90          0          0          0          0          0          0        0.0        0.0        0.0       0.00       0.00       0.00          0          0          0          0          0          0        0.0        0.0        0.0       0.00       0.00       0.00       0.00       0.00       0.00       0.00       0.00       0.00       0.00       0.00       0.00      0.000      0.000      0.000        0.0        0.0        0.0        0.0        0.2        0.2       0.00  -52542.24  -52542.24        0.0        0.1        0.1        0.0        1.9        1.9        0.0        4.7        4.7        0.0       40.2       40.2
10/12/2015        225        360          0          1          5          0          1          5          0          0          0          0         36         67         10        0.0        0.0        0.0       73.2       95.0       55.4      29.97      30.01      29.91       0.00       0.00       0.00       39.7       44.8       30.0      29.97      30.01      29.91          0          0          0          0          0          0        0.0        0.0        0.0       0.00       0.00       0.00          0          0          0          0          0          0        0.0        0.0        0.0       0.00       0.00       0.00       0.00       0.00       0.00       0.00       0.00       0.00       0.00       0.00       0.00      0.000      0.000      0.000        0.0        0.0        0.0        0.0        0.2        0.2       0.00  -53052.24  -53052.24        0.0        0.1        0.1        0.0        2.0        2.0        0.0        4.7        4.7        0.0       40.4       40.4
10/13/2015          0        360          0          1          6          0          2          6          0          0          0          0         35         67         12        0.0        0.0        0.0       73.2       96.8       53.6      29.99      30.05      29.92       0.00       0.00       0.00       39.4       43.0       34.5      29.99      30.05      29.92          0          0          0          0          0          0        0.0        0.0        0.0       0.00       0.00       0.00          0          0          0          0          0          0        0.0        0.0        0.0       0.00       0.00       0.00       0.00       0.00       0.00       0.00       0.00       0.00       0.00       0.00       0.00      0.000      0.000      0.000        0.0        0.0        0.0        0.0        0.2        0.2       0.00  -53580.60  -53580.60        0.0        0.2        0.2        0.0        2.2        2.2        0.0        4.7        4.7        0.0       40.6       40.6
10/14/2015          0        330          0          2          7          0          2          7          0          0          0          0         34         51         11        0.0        0.0        0.0       73.7       95.0       57.2      29.96      30.00      29.86       0.00       0.00       0.00       40.0       43.3       32.3      29.96      30.00      29.86          0          0          0          0          0          0        0.0        0.0        0.0       0.00       0.00       0.00          0          0          0          0          0          0        0.0        0.0        0.0       0.00       0.00       0.00       0.00       0.00       0.00       0.00       0.00       0.00       0.00       0.00       0.00      0.000      0.000      0.000        0.0        0.0        0.0        0.0        0.0        0.0       0.00       0.00       0.00        0.0        0.0        0.0        0.0        0.0        0.0        0.0        0.0        0.0        0.0        0.0        0.0
10/15/2015        135        150          0          2          6          0          3          6          0          0          0          0         33         63         21        0.0        0.0        0.0       75.7       87.8       57.2      29.94      29.95      29.85       0.00       0.00       0.00       41.0       45.1       42.4      29.94      29.95      29.85          0          0          0          0          0          0        0.0        0.0        0.0       0.00       0.00       0.00          0          0          0          0          0          0        0.0        0.0        0.0       0.00       0.00       0.00       0.00       0.00       0.00       0.00       0.00       0.00       0.00       0.00       0.00      0.000      0.000      0.000        0.0        0.0        0.0        0.0        0.1        0.1       0.00       0.00       0.00        0.0        0.2        0.2        0.0        2.6        2.6        0.0        4.8        4.8        0.0       41.0       41.0
10/16/2015        135        360          0          2         11          0          4         11          0          0          0          0         35         63         24        0.0        0.0        0.0       75.4       86.0       59.0      29.92      29.97      29.80       0.00       0.00       0.00       43.0       48.6       45.0      29.92      29.97      29.80          0          0          0          0          0          0        0.0        0.0        0.0       0.00       0.00       0.00          0          0          0          0          0          0        0.0        0.0        0.0       0.00       0.00       0.00       0.00       0.00       0.00       0.00       0.00       0.00       0.00       0.00       0.00      0.000      0.000      0.000        0.0        0.0        0.0        0.0        0.0        0.0       0.00       0.00       0.00        0.0        0.0        0.0        0.0        0.0        0.0        0.0        0.0        0.0        0.0        0.0        0.0
10/17/2015        158        320          0          3         13          0          5         13          0          0          0          0         44         88         36        0.0        0.0        0.0       73.5       75.2       62.6      29.91      29.93      29.87       0.00       0.00       0.00       46.8       62.7       44.9      29.91      29.93      29.87          0          0          0          0          0          0        0.0        0.0        0.0       0.00       0.00       0.00          0          0          0          0          0          0        0.0        0.0        0.0       0.00       0.00       0.00       0.00       0.00       0.00       0.00       0.00       0.00       0.00       0.00       0.00      0.000      0.000      0.000        0.0        0.0        0.0        0.0        0.3        0.3       0.00       0.00       0.00        0.0        0.2        0.2        0.0        2.8        2.8        0.0        4.8        4.8        0.0       41.1       41.1
10/18/2015        315        360          0          3         19          0          6         19          0          0          0          0         69         88         36        0.0        0.0        0.0       64.6       75.2       55.4      29.93      29.97      29.89       0.00       0.00       0.00       53.0       59.0       46.3      29.93      29.97      29.89          0          0          0          0          0          0        0.0        0.0        0.0       0.00       0.00       0.00          0          0          0          0          0          0        0.0        0.0        0.0       0.00       0.00       0.00       0.00       0.00       0.00       0.00       0.00       0.00       0.00       0.00       0.00      0.000      0.000      0.000        0.0        0.0        0.0        0.0        0.4        0.4       0.00  -54714.84  -54714.84        0.0        0.2        0.2        0.0        2.8        2.8        0.0        4.8        4.8        0.0       41.2       41.2
10/19/2015          0        360          0          3         10          0          4         10          0          0          0          0         74         88         43        0.0        0.0        0.0       59.9       71.6       50.0      30.01      30.04      29.98       0.00       0.00       0.00       50.9       59.1       46.3      30.01      30.04      29.98          0          0          0          0          0          0        0.0        0.0        0.0       0.00       0.00       0.00          0          0          0          0          0          0        0.0        0.0        0.0       0.00       0.00       0.00       0.00       0.00       0.00       0.00       0.00       0.00       0.00       0.00       0.00      0.000      0.000      0.000        0.0        0.0        0.0        0.0        0.1        0.1       0.00  -54804.60  -54804.60        0.0        0.2        0.2        0.0        2.9        2.9        0.0        4.8        4.8        0.0       41.3       41.3
10/20/2015          0        360         10         12         30          5         16         30          6          0          0          0         40         63         19        0.0        0.0        0.0       71.7       84.2       60.8      30.01      30.07      29.94       0.00       0.00       0.00       44.1       48.1       37.5      30.01      30.07      29.94          0          0          0          0          0          0        0.0        0.0        0.0       0.00       0.00       0.00          0          0          0          0          0          0        0.0        0.0        0.0       0.00       0.00       0.00       0.00       0.00       0.00       0.00       0.00       0.00       0.00       0.00       0.00      0.000      0.000      0.000        0.0        0.1        0.1        0.0        0.0        0.0       0.00  -54888.24  -54888.24        0.0        0.3        0.3        0.0        2.9        2.9        0.0        4.9        4.9        0.0       41.3       41.3
10/21/2015          0        360          0          7         16          0         10         16          0          0          0          0         30         51         15        0.0        0.0        0.0       73.3       87.8       60.8      29.95      30.02      29.86       0.00       0.00       0.00       38.3       42.6       33.2      29.95      30.02      29.86          0          0          0          0          0          0        0.0        0.0        0.0       0.00       0.00       0.00          0          0          0          0          0          0        0.0        0.0        0.0       0.00       0.00       0.00       0.00       0.00       0.00       0.00       0.00       0.00       0.00       0.00       0.00      0.000      0.000      0.000        0.0        0.0        0.0        0.0        0.1        0.1       0.00  -54982.08  -54982.08        0.0        0.3        0.3        0.0        3.0        3.0        0.0        4.9        4.9        0.0       41.4       41.4
10/22/2015          0          0          0          1          5          0          2          5          0          0          0          0         58         63         55        0.0        0.0        0.0       57.9       59.0       57.2      29.92      29.94      29.90       0.00       0.00       0.00       43.3       44.7       42.9      29.92      29.94      29.90          0          0          0          0          0          0        0.0        0.0        0.0       0.00       0.00       0.00          0          0          0          0          0          0        0.0        0.0        0.0       0.00       0.00       0.00       0.00       0.00       0.00       0.00       0.00       0.00       0.00       0.00       0.00      0.000      0.000      0.000        0.0        0.0        0.0        0.0        0.0        0.0       0.00       0.00       0.00        0.0        0.0        0.0        0.0        0.0        0.0        0.0        0.0        0.0        0.0        0.0        0.0
10/23/2015        135        350          0          3          7          0          4          7          0          0          0          0         44         63         17        0.0        0.0        0.0       66.6       82.4       57.2      29.96      30.01      29.90       0.00       0.00       0.00       41.9       44.8       33.3      29.96      30.01      29.90          0          0          0          0          0          0        0.0        0.0        0.0       0.00       0.00       0.00          0          0          0          0          0          0        0.0        0.0        0.0       0.00       0.00       0.00       0.00       0.00       0.00       0.00       0.00       0.00       0.00       0.00       0.00      0.000      0.000      0.000        0.0        0.0        0.0        0.0        0.0        0.0       0.00       0.00       0.00        0.0        0.0        0.0        0.0        0.0        0.0        0.0        0.0        0.0        0.0        0.0        0.0
10/24/2015        202        350          0          1          5          0          2          5          0          0          0          0         54         71         31        0.0        0.0        0.0       61.5       75.2       53.6      29.98      30.04      29.91       0.00       0.00       0.00       43.8       44.9       41.0      29.98      30.04      29.91          0          0          0          0          0          0        0.0        0.0        0.0       0.00       0.00       0.00          0          0          0          0          0          0        0.0        0.0        0.0       0.00       0.00       0.00       0.00       0.00       0.00       0.00       0.00       0.00       0.00       0.00       0.00      0.000      0.000      0.000        0.0        0.0        0.0        0.0        0.0        0.0       0.00       0.00       0.00        0.0        0.0        0.0        0.0        0.0        0.0        0.0        0.0        0.0        0.0        0.0        0.0
10/25/2015        202        360          0          2          6          0          3          6          0          0          0          0         54         71         31        0.0        0.0        0.0       61.4       75.2       53.6      29.97      30.04      29.91       0.00       0.00       0.00       43.8       46.4       41.0      29.97      30.04      29.91          0          0          0          0          0          0        0.0        0.0        0.0       0.00       0.00       0.00          0          0          0          0          0          0        0.0        0.0        0.0       0.00       0.00       0.00       0.00       0.00       0.00       0.00       0.00       0.00       0.00       0.00       0.00      0.000      0.000      0.000        0.0        0.0        0.0        0.0        0.0        0.0       0.00       0.00       0.00        0.0        0.0        0.0        0.0        0.0        0.0        0.0        0.0        0.0        0.0        0.0        0.0
10/26/2015          0        360          0          2         11          0          4         11          0          0          0          0         48         76         21        0.0        0.0        0.0       63.6       78.8       48.2      29.98      30.03      29.93       0.00       0.00       0.00       41.8       46.4       35.5      29.98      30.03      29.93          0          0          0          0          0          0        0.0        0.0        0.0       0.00       0.00       0.00          0          0          0          0          0          0        0.0        0.0        0.0       0.00       0.00       0.00       0.00       0.00       0.00       0.00       0.00       0.00       0.00       0.00       0.00      0.000      0.000      0.000        0.0        0.1        0.1        0.0        0.0        0.0       0.00  -55235.04  -55235.04        0.0        0.4        0.4        0.0        3.3        3.3        0.0        5.0        5.0        0.0       41.7       41.7
10/27/2015        315        330          0          3          7          0          4          7          0          0          0          0         65         82         45        0.0        0.0        0.0       59.9       64.4       55.4      29.99      30.03      29.96       0.00       0.00       0.00       47.7       55.3       39.3      29.99      30.03      29.96          0          0          0          0          0          0        0.0        0.0        0.0       0.00       0.00       0.00          0          0          0          0          0          0        0.0        0.0        0.0       0.00       0.00       0.00       0.00       0.00       0.00       0.00       0.00       0.00       0.00       0.00       0.00      0.000      0.000      0.000        0.0        0.0        0.0        0.0        0.0        0.0       0.00       0.00       0.00        0.0        0.0        0.0        0.0        0.0        0.0        0.0        0.0        0.0        0.0        0.0        0.0
10/28/2015        315        340          0          3         10          0          5         10          0          0          0          0         75         94         46        0.0        0.0        0.0       62.3       71.6       55.4      30.01      30.05      29.98       0.00       0.00       0.00       53.5       57.2       49.7      30.01      30.05      29.98          0          0          0          0          0          0        0.0        0.0        0.0       0.00       0.00       0.00          0          0          0          0          0          0        0.0        0.0        0.0       0.00       0.00       0.00       0.00       0.00       0.00       0.00       0.00       0.00       0.00       0.00       0.00      0.000      0.000      0.000        0.0        0.0        0.0        0.0        0.0        0.0       0.00  -55390.08  -55390.08        0.0        0.5        0.5        0.0        3.4        3.4        0.0        5.1        5.1        0.0       41.8       41.8
10/29/2015          0        360          0          8         20          0         11         20          0          0          0          0         51         87         23        0.0        0.0        0.0       64.3       78.8       51.8      30.03      30.08      29.99       0.00       0.00       0.00       43.3       50.0       37.9      30.03      30.08      29.99          0          0          0          0          0          0        0.0        0.0        0.0       0.00       0.00       0.00          0          0          0          0          0          0        0.0        0.0        0.0       0.00       0.00       0.00       0.00       0.00       0.00       0.00       0.00       0.00       0.00       0.00       0.00      0.000      0.000      0.000        0.0        0.0        0.0        0.0        0.0        0.0       0.00  -55481.88  -55481.88        0.0        0.6        0.6        0.0        3.4        3.4        0.0        5.2        5.2        0.0       41.8       41.8
10/30/2015          0        360          0          3         10          0          5         10          0          0          0          0         48         66         23        0.0        0.0        0.0       62.3       80.6       50.0      30.03      30.07      29.96       0.00       0.00       0.00       41.5       46.5       37.0      30.03      30.07      29.96          0          0          0          0          0          0        0.0        0.0        0.0       0.00       0.00       0.00          0          0          0          0          0          0        0.0        0.0        0.0       0.00       0.00       0.00       0.00       0.00       0.00       0.00       0.00       0.00       0.00       0.00       0.00      0.000      0.000      0.000        0.0        0.0        0.0        0.0        0.0        0.0       0.00       0.00       0.00        0.0        0.0        0.0        0.0        0.0        0.0        0.0        0.0        0.0        0.0        0.0        0.0
10/31/2015        180        350          0          2         13          0          4         13          0          0          0          0         54         81         28        0.0        0.0        0.0       64.0       78.8       48.2      30.03      30.11      29.97       0.00       0.00       0.00       45.5       48.1       42.7      30.03      30.11      29.97          0          0          0          0          0          0        0.0        0.0        0.0       0.00       0.00       0.00          0          0          0          0          0          0        0.0        0.0        0.0       0.00       0.00       0.00       0.00       0.00       0.00       0.00       0.00       0.00       0.00       0.00       0.00      0.000      0.000      0.000        0.0        0.0        0.0        0.0        0.0        0.0       0.00       0.00       0.00        0.0        0.0        0.0        0.0        0.0        0.0        0.0        0.0        0.0        0.0        0.0        0.0
11/1/2015         180        260          0          3         11          0          5         11          0          0          0          0         73         77         67        0.0        0.0        0.0       58.6       62.6       53.6      30.05      30.10      30.01       0.00       0.00       0.00       49.8       55.3       44.4      30.05      30.10      30.01          0          0          0          0          0          0        0.0        0.0        0.0       0.00       0.00       0.00          0          0          0          0          0          0        0.0        0.0        0.0       0.00       0.00       0.00       0.00       0.00       0.00       0.00       0.00       0.00       0.00       0.00       0.00      0.000      0.000      0.000        0.0        0.0        0.0        0.0        0.0        0.0       0.00       0.00       0.00        0.0        0.0        0.0        0.0        0.0        0.0        0.0        0.0        0.0        0.0        0.0        0.0
11/3/2015         180        330          0          3         11          0          5         11          0          0          0          0         65         77         33        0.0        0.0        0.0       57.2       62.6       50.0      30.04      30.10      29.98       0.00       0.00       0.00       44.8       55.3       28.3      30.04      30.10      29.98          0          0          0          0          0          0        0.0        0.0        0.0       0.00       0.00       0.00          0          0          0          0          0          0        0.0        0.0        0.0       0.00       0.00       0.00       0.00       0.00       0.00       0.00       0.00       0.00       0.00       0.00       0.00      0.000      0.000      0.000        0.0        0.0        0.0        0.0        0.0        0.0       0.00       0.00       0.00        0.0        0.0        0.0        0.0        0.0        0.0        0.0        0.0        0.0        0.0        0.0        0.0
11/4/2015           0        360          0          6         22          0          8         22          0          0          0          0         41         70         18        0.0        0.0        0.0       51.8       66.2       39.2      30.08      30.14      30.02       0.00       0.00       0.00       26.3       30.3       21.5      30.08      30.14      30.02          0          0          0          0          0          0        0.0        0.0        0.0       0.00       0.00       0.00          0          0          0          0          0          0        0.0        0.0        0.0       0.00       0.00       0.00       0.00       0.00       0.00       0.00       0.00       0.00       0.00       0.00       0.00      0.000      0.000      0.000        0.0        0.1        0.1        0.0        0.0        0.0       0.00  -55714.44  -55714.44        0.0        0.1        0.1        0.0        0.0        0.0        0.0        5.4        5.4        0.0       42.0       42.0
11/5/2015           0        360          0          2          5          0          3          5          0          0          0          0         50         70         25        0.0        0.0        0.0       48.4       62.6       37.4      30.23      30.31      30.14       0.00       0.00       0.00       28.7       32.0       26.3      30.23      30.31      30.14          0          0          0          0          0          0        0.0        0.0        0.0       0.00       0.00       0.00          0          0          0          0          0          0        0.0        0.0        0.0       0.00       0.00       0.00       0.00       0.00       0.00       0.00       0.00       0.00       0.00       0.00       0.00      0.000      0.000      0.000        0.0        0.2        0.2        0.0        0.0        0.0       0.00  -55763.40  -55763.40        0.0        0.3        0.3        0.0        0.0        0.0        0.0        5.6        5.6        0.0       42.0       42.0
11/6/2015          22        360          0          4         17          0          7         17          0          0          0          0         49         80         20        0.0        0.0        0.0       53.4       73.4       33.8      30.23      30.30      30.14       0.00       0.00       0.00       31.7       35.8       26.4      30.23      30.30      30.14          0          0          0          0          0          0        0.0        0.0        0.0       0.00       0.00       0.00          0          0          0          0          0          0        0.0        0.0        0.0       0.00       0.00       0.00       0.00       0.00       0.00       0.00       0.00       0.00       0.00       0.00       0.00      0.000      0.000      0.000        0.0        0.2        0.2        0.0        0.0        0.0       0.00  -55812.36  -55812.36        0.0        0.5        0.5        0.0        0.0        0.0        0.0        5.9        5.9        0.0       42.0       42.0
11/7/2015           0        360          0          1          5          0          1          5          0          0          0          0         55        100         30        0.0        0.0        0.0       51.6       68.0       32.0      30.12      30.22      30.00       0.00       0.00       0.00       34.3       35.8       30.2      30.12      30.22      30.00          0          0          0          0          0          0        0.0        0.0        0.0       0.00       0.00       0.00          0          0          0          0          0          0        0.0        0.0        0.0       0.00       0.00       0.00       0.00       0.00       0.00       0.00       0.00       0.00       0.00       0.00       0.00      0.000      0.000      0.000        0.0        0.2        0.2        0.0        0.0        0.0       0.00  -55861.32  -55861.32        0.0        0.7        0.7        0.0        0.0        0.0        0.0        6.1        6.1        0.0       42.0       42.0
11/8/2015         202        340          0          3         11          0          4         11          0          0          0          0         82         93         62        0.0        0.0        0.0       51.0       53.6       46.4      29.94      30.01      29.87       0.00       0.00       0.00       45.5       48.2       37.4      29.94      30.01      29.87          0          0          0          0          0          0        0.0        0.0        0.0       0.00       0.00       0.00          0          0          0          0          0          0        0.0        0.0        0.0       0.00       0.00       0.00       0.00       0.00       0.00       0.00       0.00       0.00       0.00       0.00       0.00      0.000      0.000      0.000        0.0        0.2        0.2        0.0        0.0        0.0       0.00  -55908.24  -55908.24        0.0        0.9        0.9        0.0        0.1        0.1        0.0        6.3        6.3        0.0       42.0       42.0
11/9/2015           0        360          0          3         11          0          5         11          0          0          0          0         85         93         62        0.0        0.0        0.0       48.9       53.6       41.0      29.94      30.04      29.87       0.00       0.00       0.00       44.4       48.2       37.4      29.94      30.04      29.87          0          0          0          0          0          0        0.0        0.0        0.0       0.00       0.00       0.00          0          0          0          0          0          0        0.0        0.0        0.0       0.00       0.00       0.00       0.00       0.00       0.00       0.00       0.00       0.00       0.00       0.00       0.00      0.000      0.000      0.000        0.0        0.2        0.2        0.0        0.0        0.0       0.00  -55908.24  -55908.24        0.0        0.9        0.9        0.0        0.1        0.1        0.0        6.3        6.3        0.0       42.0       42.0
11/10/2015          0        360          0          4         14          0          6         14          0          0          0          0         70         93         34        0.0        0.0        0.0       47.3       62.6       35.6      30.20      30.34      30.06       0.00       0.00       0.00       36.4       44.4       32.1      30.20      30.34      30.06          0          0          0          0          0          0        0.0        0.0        0.0       0.00       0.00       0.00          0          0          0          0          0          0        0.0        0.0        0.0       0.00       0.00       0.00       0.00       0.00       0.00       0.00       0.00       0.00       0.00       0.00       0.00      0.000      0.000      0.000        0.0        0.5        0.5        0.0        0.0        0.0       0.00  -56000.04  -56000.04        0.0        1.4        1.4        0.0        0.1        0.1        0.0        6.7        6.7        0.0       42.0       42.0
11/11/2015          0        360          0          2          5          0          3          5          0          0          0          0         65         87         36        0.0        0.0        0.0       46.6       60.8       33.8      30.35      30.44      30.29       0.00       0.00       0.00       34.2       37.5       28.3      30.35      30.44      30.29          0          0          0          0          0          0        0.0        0.0        0.0       0.00       0.00       0.00          0          0          0          0          0          0        0.0        0.0        0.0       0.00       0.00       0.00       0.00       0.00       0.00       0.00       0.00       0.00       0.00       0.00       0.00      0.000      0.000      0.000        0.0        0.0        0.0        0.0        0.0        0.0       0.00       0.00       0.00        0.0        0.0        0.0        0.0        0.0        0.0        0.0        0.0        0.0        0.0        0.0        0.0
11/12/2015          0        360          0          3         12          0          4         12          0          0          0          0         59         87         27        0.0        0.0        0.0       51.2       71.6       33.8      30.22      30.30      30.12       0.00       0.00       0.00       34.8       41.0       28.3      30.22      30.30      30.12          0          0          0          0          0          0        0.0        0.0        0.0       0.00       0.00       0.00          0          0          0          0          0          0        0.0        0.0        0.0       0.00       0.00       0.00       0.00       0.00       0.00       0.00       0.00       0.00       0.00       0.00       0.00      0.000      0.000      0.000        0.0        0.0        0.0        0.0        0.0        0.0       0.00       0.00       0.00        0.0        0.0        0.0        0.0        0.0        0.0        0.0        0.0        0.0        0.0        0.0        0.0
11/13/2015         22        360          0          1          5          0          2          5          0          0          0          0         60         81         18        0.0        0.0        0.0       52.6       86.0       39.2      30.08      30.16      30.02       0.00       0.00       0.00       37.4       41.2       33.9      30.08      30.16      30.02          0          0          0          0          0          0        0.0        0.0        0.0       0.00       0.00       0.00          0          0          0          0          0          0        0.0        0.0        0.0       0.00       0.00       0.00       0.00       0.00       0.00       0.00       0.00       0.00       0.00       0.00       0.00      0.000      0.000      0.000        0.0        0.2        0.2        0.0        0.0        0.0       0.00  -56140.80  -56140.80        0.0        2.1        2.1        0.0        0.1        0.1        0.0        7.4        7.4        0.0       42.1       42.1
11/14/2015        202        340          0          1          7          0          2          7          0          0          0          0         69         87         45        0.0        0.0        0.0       50.1       64.4       37.4      29.89      30.02      29.76       0.00       0.00       0.00       39.6       43.0       33.9      29.89      30.02      29.76          0          0          0          0          0          0        0.0        0.0        0.0       0.00       0.00       0.00          0          0          0          0          0          0        0.0        0.0        0.0       0.00       0.00       0.00       0.00       0.00       0.00       0.00       0.00       0.00       0.00       0.00       0.00      0.000      0.000      0.000        0.0        0.2        0.2        0.0        0.0        0.0       0.00  -56189.76  -56189.76        0.0        2.3        2.3        0.0        0.1        0.1        0.0        7.6        7.6        0.0       42.1       42.1
11/15/2015        315        360          0          6         14          3          8         14          4          0          0          0         72         87         50        0.0        0.0        0.0       49.9       53.6       42.8      29.81      30.10      29.62       0.00       0.00       0.00       40.8       48.1       30.3      29.81      30.10      29.62          0          0          0          0          0          0        0.0        0.0        0.0       0.00       0.00       0.00          0          0          0          0          0          0        0.0        0.0        0.0       0.00       0.00       0.00       0.00       0.00       0.00       0.00       0.00       0.00       0.00       0.00       0.00      0.000      0.000      0.000        0.0        0.2        0.2        0.0        0.0        0.0       0.00  -56234.64  -56234.64        0.0        2.5        2.5        0.0        0.1        0.1        0.0        7.8        7.8        0.0       42.1       42.1
11/16/2015          0        350          0          4         11          0          6         11          0          0          0          0         56         80         27        0.0        0.0        0.0       46.6       59.0       35.6      30.28      30.33      30.12       0.00       0.00       0.00       29.8       34.0       24.4      30.28      30.33      30.12          0          0          0          0          0          0        0.0        0.0        0.0       0.00       0.00       0.00          0          0          0          0          0          0        0.0        0.0        0.0       0.00       0.00       0.00       0.00       0.00       0.00       0.00       0.00       0.00       0.00       0.00       0.00      0.000      0.000      0.000        0.0        0.2        0.2        0.0        0.0        0.0       0.00  -56281.56  -56281.56        0.0        2.7        2.7        0.0        0.1        0.1        0.0        8.1        8.1        0.0       42.1       42.1
11/17/2015          0        360          0          1          7          0          3          7          0          0          0          0         72         87         42        0.0        0.0        0.0       46.7       60.8       37.4      30.29      30.33      30.25       0.00       0.00       0.00       37.6       42.9       32.1      30.29      30.33      30.25          0          0          0          0          0          0        0.0        0.0        0.0       0.00       0.00       0.00          0          0          0          0          0          0        0.0        0.0        0.0       0.00       0.00       0.00       0.00       0.00       0.00       0.00       0.00       0.00       0.00       0.00       0.00      0.000      0.000      0.000        0.0        0.2        0.2        0.0        0.0        0.0       0.00  -56324.40  -56324.40        0.0        3.0        3.0        0.0        0.1        0.1        0.0        8.3        8.3        0.0       42.1       42.1
11/18/2015          0        360          0          1          6          0          3          6          0          0          0          0         73         87         43        0.0        0.0        0.0       50.0       66.2       39.2      30.21      30.28      30.15       0.00       0.00       0.00       40.7       44.8       35.6      30.21      30.28      30.15          0          0          0          0          0          0        0.0        0.0        0.0       0.00       0.00       0.00          0          0          0          0          0          0        0.0        0.0        0.0       0.00       0.00       0.00       0.00       0.00       0.00       0.00       0.00       0.00       0.00       0.00       0.00      0.000      0.000      0.000        0.0        0.2        0.2        0.0        0.0        0.0       0.00  -56367.24  -56367.24        0.0        3.2        3.2        0.0        0.1        0.1        0.0        8.5        8.5        0.0       42.1       42.1
11/19/2015          0        360          0          2          6          0          3          6          0          0          0          0         74         87         49        0.0        0.0        0.0       50.9       66.2       39.2      30.15      30.20      30.10       0.00       0.00       0.00       42.5       48.1       35.6      30.15      30.20      30.10          0          0          0          0          0          0        0.0        0.0        0.0       0.00       0.00       0.00          0          0          0          0          0          0        0.0        0.0        0.0       0.00       0.00       0.00       0.00       0.00       0.00       0.00       0.00       0.00       0.00       0.00       0.00      0.000      0.000      0.000        0.0        0.2        0.2        0.0        0.0        0.0       0.00  -56410.08  -56410.08        0.0        3.4        3.4        0.0        0.1        0.1        0.0        8.7        8.7        0.0       42.1       42.1
11/20/2015        338        360          0          8         24          0         10         24          0          0          0          0         53         87         31        0.0        0.0        0.0       61.2       75.2       44.6      30.11      30.16      30.06       0.00       0.00       0.00       41.5       48.1       33.9      30.11      30.16      30.06          0          0          0          0          0          0        0.0        0.0        0.0       0.00       0.00       0.00          0          0          0          0          0          0        0.0        0.0        0.0       0.00       0.00       0.00       0.00       0.00       0.00       0.00       0.00       0.00       0.00       0.00       0.00      0.000      0.000      0.000        0.0        0.2        0.2        0.0        0.0        0.0       0.00  -56452.92  -56452.92        0.0        3.6        3.6        0.0        0.1        0.1        0.0        8.9        8.9        0.0       42.1       42.1
11/21/2015          0        360          0          6         16          0          8         16          0          0          0          0         38         76         22        0.0        0.0        0.0       61.0       73.4       44.6      30.09      30.16      30.04       0.00       0.00       0.00       33.5       39.3       29.9      30.09      30.16      30.04          0          0          0          0          0          0        0.0        0.0        0.0       0.00       0.00       0.00          0          0          0          0          0          0        0.0        0.0        0.0       0.00       0.00       0.00       0.00       0.00       0.00       0.00       0.00       0.00       0.00       0.00       0.00      0.000      0.000      0.000        0.0        0.1        0.1        0.0        0.0        0.0       0.00  -56495.76  -56495.76        0.0        3.7        3.7        0.0        0.2        0.2        0.0        9.0        9.0        0.0       42.1       42.1
11/22/2015        180        340          0          0          4          0          1          4          0          0          0          0         65         81         31        0.0        0.0        0.0       51.9       71.6       41.0      29.99      30.07      29.93       0.00       0.00       0.00       39.3       44.7       35.4      29.99      30.07      29.93          0          0          0          0          0          0        0.0        0.0        0.0       0.00       0.00       0.00          0          0          0          0          0          0        0.0        0.0        0.0       0.00       0.00       0.00       0.00       0.00       0.00       0.00       0.00       0.00       0.00       0.00       0.00      0.000      0.000      0.000        0.0        0.1        0.1        0.0        0.0        0.0       0.00  -56540.64  -56540.64        0.0        3.7        3.7        0.0        0.2        0.2        0.0        9.1        9.1        0.0       42.2       42.2
11/23/2015        180        290          0          2          7          0          3          7          0          0          0          0         65         87         37        0.0        0.0        0.0       53.4       69.8       39.2      29.86      29.92      29.82       0.00       0.00       0.00       40.9       46.6       33.9      29.86      29.92      29.82          0          0          0          0          0          0        0.0        0.0        0.0       0.00       0.00       0.00          0          0          0          0          0          0        0.0        0.0        0.0       0.00       0.00       0.00       0.00       0.00       0.00       0.00       0.00       0.00       0.00       0.00       0.00      0.000      0.000      0.000        0.0        0.2        0.2        0.0        0.0        0.0       0.00  -56587.56  -56587.56        0.0        3.9        3.9        0.0        0.2        0.2        0.0        9.3        9.3        0.0       42.2       42.2
11/24/2015        292        360         10         10         23          4         14         23          5          0          0          0         67         87         33        0.0        0.0        0.0       49.5       57.2       37.4      29.78      29.89      29.71       0.00       0.00       0.00       37.8       48.2       26.4      29.78      29.89      29.71          0          0          0          0          0          0        0.0        0.0        0.0       0.00       0.00       0.00          0          0          0          0          0          0        0.0        0.0        0.0       0.00       0.00       0.00       0.00       0.00       0.00       0.00       0.00       0.00       0.00       0.00       0.00      0.000      0.000      0.000        0.0        0.2        0.2        0.0        0.0        0.0       0.00  -56632.44  -56632.44        0.0        4.1        4.1        0.0        0.2        0.2        0.0        9.4        9.4        0.0       42.2       42.2
11/25/2015         22        360          0          5         23          0          7         23          0          0          0          0         61         87         40        0.0        0.0        0.0       42.6       53.6       33.8      29.96      30.09      29.89       0.00       0.00       0.00       29.1       35.7       22.9      29.96      30.09      29.89          0          0          0          0          0          0        0.0        0.0        0.0       0.00       0.00       0.00          0          0          0          0          0          0        0.0        0.0        0.0       0.00       0.00       0.00       0.00       0.00       0.00       0.00       0.00       0.00       0.00       0.00       0.00      0.000      0.000      0.000        0.0        0.2        0.2        0.0        0.0        0.0       0.00  -56673.24  -56673.24        0.0        4.3        4.3        0.0        0.2        0.2        0.0        9.6        9.6        0.0       42.2       42.2
11/26/2015          0        360         20         19         30         14         25         30         17          0          0          0         31         44         26        0.0        0.0        0.0       41.3       44.6       39.2      30.18      30.21      30.08       0.00       0.00       0.00       12.8       21.3        8.8      30.18      30.21      30.08          0          0          0          0          0          0        0.0        0.0        0.0       0.00       0.00       0.00          0          0          0          0          0          0        0.0        0.0        0.0       0.00       0.00       0.00       0.00       0.00       0.00       0.00       0.00       0.00       0.00       0.00       0.00      0.000      0.000      0.000        0.0        0.0        0.0        0.0        0.0        0.0       0.00       0.00       0.00        0.0        0.0        0.0        0.0        0.0        0.0        0.0        0.0        0.0        0.0        0.0        0.0
11/27/2015          0        360         10         20         35         11         26         35         13          0          0          0         27         44         18        0.0        0.0        0.0       45.4       55.4       39.2      30.18      30.25      30.08       0.00       0.00       0.00       13.0       21.3        8.8      30.18      30.25      30.08          0          0          0          0          0          0        0.0        0.0        0.0       0.00       0.00       0.00          0          0          0          0          0          0        0.0        0.0        0.0       0.00       0.00       0.00       0.00       0.00       0.00       0.00       0.00       0.00       0.00       0.00       0.00      0.000      0.000      0.000        0.0        0.0        0.0        0.0        0.0        0.0       0.00       0.00       0.00        0.0        0.0        0.0        0.0        0.0        0.0        0.0        0.0        0.0        0.0        0.0        0.0
11/28/2015          0        360          0          6         13          0          9         13          0          0          0          0         32         69         16        0.0        0.0        0.0       44.0       55.4       30.2      30.18      30.22      30.12       0.00       0.00       0.00       13.8       21.3        9.9      30.18      30.22      30.12          0          0          0          0          0          0        0.0        0.0        0.0       0.00       0.00       0.00          0          0          0          0          0          0        0.0        0.0        0.0       0.00       0.00       0.00       0.00       0.00       0.00       0.00       0.00       0.00       0.00       0.00       0.00      0.000      0.000      0.000        0.0        0.4        0.4        0.0        0.0        0.0       0.00  -56793.60  -56793.60        0.0        5.0        5.0        0.0        0.2        0.2        0.0       10.3       10.3        0.0       42.2       42.2
11/29/2015          0        360          0          1         10          0          3         10          0          0          0          0         54         74         22        0.0        0.0        0.0       38.2       55.4       24.8      30.20      30.24      30.16       0.00       0.00       0.00       20.5       26.8       17.2      30.20      30.24      30.16          0          0          0          0          0          0        0.0        0.0        0.0       0.00       0.00       0.00          0          0          0          0          0          0        0.0        0.0        0.0       0.00       0.00       0.00       0.00       0.00       0.00       0.00       0.00       0.00       0.00       0.00       0.00      0.000      0.000      0.000        0.0        0.3        0.3        0.0        0.0        0.0       0.00  -56838.48  -56838.48        0.0        5.3        5.3        0.0        0.2        0.2        0.0       10.6       10.6        0.0       42.2       42.2
11/30/2015          0        360          0          3         13          0          4         13          0          0          0          0         62         80         43        0.0        0.0        0.0       39.4       51.8       26.6      30.23      30.25      30.21       0.00       0.00       0.00       27.0       32.1       19.4      30.23      30.25      30.21          0          0          0          0          0          0        0.0        0.0        0.0       0.00       0.00       0.00          0          0          0          0          0          0        0.0        0.0        0.0       0.00       0.00       0.00       0.00       0.00       0.00       0.00       0.00       0.00       0.00       0.00       0.00      0.000      0.000      0.000        0.0        0.4        0.4        0.0        0.0        0.0       0.00  -56881.32  -56881.32        0.0        5.7        5.7        0.0        0.2        0.2        0.0       11.0       11.0        0.0       42.2       42.2
12/1/2015          22        200          0          2          6          0          3          6          0          0          0          0         64         86         34        0.0        0.0        0.0       45.1       62.6       28.4      30.21      30.26      30.16       0.00       0.00       0.00       32.3       37.5       24.8      30.21      30.26      30.16          0          0          0          0          0          0        0.0        0.0        0.0       0.00       0.00       0.00          0          0          0          0          0          0        0.0        0.0        0.0       0.00       0.00       0.00       0.00       0.00       0.00       0.00       0.00       0.00       0.00       0.00       0.00      0.000      0.000      0.000        0.0        0.0        0.0        0.0        0.0        0.0       0.00       0.00       0.00        0.0        0.0        0.0        0.0        0.0        0.0        0.0        0.0        0.0        0.0        0.0        0.0
12/2/2015         338        360          0          3         11          0          5         11          0          0          0          0         77         87         62        0.0        0.0        0.0       50.6       55.4       44.6      30.18      30.27      30.05       0.00       0.00       0.00       43.4       46.5       39.1      30.18      30.27      30.05          0          0          0          0          0          0        0.0        0.0        0.0       0.00       0.00       0.00          0          0          0          0          0          0        0.0        0.0        0.0       0.00       0.00       0.00       0.00       0.00       0.00       0.00       0.00       0.00       0.00       0.00       0.00      0.000      0.000      0.000        0.0        0.3        0.3        0.0        0.0        0.0       0.00  -57040.44  -57040.44        0.0        0.3        0.3        0.0        0.0        0.0        0.0       11.7       11.7        0.0       42.2       42.2
12/3/2015         180        340          0          7         25          0         10         25          0          0          0          0         85         87         81        0.0        0.0        0.0       48.6       51.8       46.4      29.92      30.03      29.84       0.00       0.00       0.00       44.4       46.5       42.7      29.92      30.03      29.84          0          0          0          0          0          0        0.0        0.0        0.0       0.00       0.00       0.00          0          0          0          0          0          0        0.0        0.0        0.0       0.00       0.00       0.00       0.00       0.00       0.00       0.00       0.00       0.00       0.00       0.00       0.00      0.000      0.000      0.000        0.0        0.2        0.2        0.0        0.0        0.0       0.00  -57187.32  -57187.32        0.0        0.5        0.5        0.0        0.0        0.0        0.0       11.9       11.9        0.0       42.2       42.2
12/4/2015         180        340          0          6         25          0          9         25          0          0          0          0         82         87         59        0.0        0.0        0.0       49.0       57.2       42.8      30.05      30.30      29.84       0.00       0.00       0.00       43.8       46.6       37.4      30.05      30.30      29.84          0          0          0          0          0          0        0.0        0.0        0.0       0.00       0.00       0.00          0          0          0          0          0          0        0.0        0.0        0.0       0.00       0.00       0.00       0.00       0.00       0.00       0.00       0.00       0.00       0.00       0.00       0.00      0.000      0.000      0.000        0.0        0.2        0.2        0.0        0.0        0.0       0.00  -57187.32  -57187.32        0.0        0.5        0.5        0.0        0.0        0.0        0.0       11.9       11.9        0.0       42.2       42.2
12/5/2015         315        360          0          1          6          0          3          6          0          0          0          0         79         87         62        0.0        0.0        0.0       45.6       51.8       39.2      30.25      30.31      30.19       0.00       0.00       0.00       39.2       42.7       35.7      30.25      30.31      30.19          0          0          0          0          0          0        0.0        0.0        0.0       0.00       0.00       0.00          0          0          0          0          0          0        0.0        0.0        0.0       0.00       0.00       0.00       0.00       0.00       0.00       0.00       0.00       0.00       0.00       0.00       0.00      0.000      0.000      0.000        0.0        0.5        0.5        0.0        0.0        0.0       0.00  -57464.76  -57464.76        0.0        1.0        1.0        0.0        0.0        0.0        0.0       12.4       12.4        0.0       42.2       42.2
12/6/2015          22        360          0          5         19          0          7         19          0          0          0          0         87         93         81        0.0        0.0        0.0       47.4       48.2       44.6      30.28      30.34      30.17       0.00       0.00       0.00       43.6       44.5       41.0      30.28      30.34      30.17          0          0          0          0          0          0        0.0        0.0        0.0       0.00       0.00       0.00          0          0          0          0          0          0        0.0        0.0        0.0       0.00       0.00       0.00       0.00       0.00       0.00       0.00       0.00       0.00       0.00       0.00       0.00      0.000      0.000      0.000        0.0        0.3        0.3        0.0        0.0        0.0       0.00  -57605.52  -57605.52        0.0        1.3        1.3        0.0        0.0        0.0        0.0       12.7       12.7        0.0       42.2       42.2
12/7/2015         292        300          0          1          5          0          3          5          0          0          0          0         88         93         87        0.0        0.0        0.0       50.1       51.8       48.2      30.26      30.31      30.23       0.00       0.00       0.00       46.7       48.1       44.5      30.26      30.31      30.23          0          0          0          0          0          0        0.0        0.0        0.0       0.00       0.00       0.00          0          0          0          0          0          0        0.0        0.0        0.0       0.00       0.00       0.00       0.00       0.00       0.00       0.00       0.00       0.00       0.00       0.00       0.00      0.000      0.000      0.000        0.0        0.3        0.3        0.0        0.0        0.0       0.00  -57748.32  -57748.32        0.0        1.6        1.6        0.0        0.0        0.0        0.0       13.0       13.0        0.0       42.2       42.2
12/8/2015         135        260          0          3         12          0          4         12          0          0          0          0         87         94         82        0.0        0.0        0.0       54.2       59.0       50.0      30.20      30.24      30.16       0.00       0.00       0.00       50.3       53.7       46.3      30.20      30.24      30.16          0          0          0          0          0          0        0.0        0.0        0.0       0.00       0.00       0.00          0          0          0          0          0          0        0.0        0.0        0.0       0.00       0.00       0.00       0.00       0.00       0.00       0.00       0.00       0.00       0.00       0.00       0.00      0.000      0.000      0.000        0.0        0.2        0.2        0.0        0.0        0.0       0.00  -57887.04  -57887.04        0.0        1.8        1.8        0.0        0.0        0.0        0.0       13.2       13.2        0.0       42.2       42.2
12/9/2015         202        360          0          6         17          0          8         17          0          0          0          0         90         94         82        0.0        0.0        0.0       53.5       57.2       51.8      30.02      30.15      29.76       0.00       0.00       0.00       50.7       53.7       48.1      30.02      30.15      29.76          0          0          0          0          0          0        0.0        0.0        0.0       0.00       0.00       0.00          0          0          0          0          0          0        0.0        0.0        0.0       0.00       0.00       0.00       0.00       0.00       0.00       0.00       0.00       0.00       0.00       0.00       0.00      0.000      0.000      0.000        0.0        0.2        0.2        0.0        0.0        0.0       0.00  -58029.84  -58029.84        0.0        2.0        2.0        0.0        0.0        0.0        0.0       13.3       13.3        0.0       42.2       42.2
12/10/2015        180        270          0         12         43          0         18         43          0          0          0          0         74         94         41        0.0        0.0        0.0       53.2       59.0       46.4      29.71      29.80      29.56       0.00       0.00       0.00       44.4       53.7       35.4      29.71      29.80      29.56          0          0          0          0          0          0        0.0        0.0        0.0       0.00       0.00       0.00          0          0          0          0          0          0        0.0        0.0        0.0       0.00       0.00       0.00       0.00       0.00       0.00       0.00       0.00       0.00       0.00       0.00       0.00      0.000      0.000      0.000        0.0        0.2        0.2        0.0        0.0        0.0       0.00  -58174.68  -58174.68        0.0        2.1        2.1        0.0        0.0        0.0        0.0       13.5       13.5        0.0       42.2       42.2
12/11/2015        202        310          0          7         43          0         11         43          0          0          0          0         78         94         41        0.0        0.0        0.0       50.5       59.0       42.8      29.79      30.02      29.56       0.00       0.00       0.00       43.4       53.7       35.4      29.79      30.02      29.56          0          0          0          0          0          0        0.0        0.0        0.0       0.00       0.00       0.00          0          0          0          0          0          0        0.0        0.0        0.0       0.00       0.00       0.00       0.00       0.00       0.00       0.00       0.00       0.00       0.00       0.00       0.00      0.000      0.000      0.000        0.0        0.2        0.2        0.0        0.0        0.0       0.00  -58174.68  -58174.68        0.0        2.1        2.1        0.0        0.0        0.0        0.0       13.5       13.5        0.0       42.2       42.2
12/12/2015          0        320          0          1          6          0          3          6          0          0          0          0         85         87         81        0.0        0.0        0.0       39.6       42.8       35.6      30.05      30.07      30.03       0.00       0.00       0.00       35.3       37.4       32.1      30.05      30.07      30.03          0          0          0          0          0          0        0.0        0.0        0.0       0.00       0.00       0.00          0          0          0          0          0          0        0.0        0.0        0.0       0.00       0.00       0.00       0.00       0.00       0.00       0.00       0.00       0.00       0.00       0.00       0.00      0.000      0.000      0.000        0.0        0.0        0.0        0.0        0.0        0.0       0.00       0.00       0.00        0.0        0.0        0.0        0.0        0.0        0.0        0.0        0.0        0.0        0.0        0.0        0.0
12/13/2015        315        330          0          8         52          0         13         52          0          0          0          0         69         93         41        0.0        0.0        0.0       46.7       55.4       35.6      29.87      30.07      29.61       0.00       0.00       0.00       36.1       46.3       30.0      29.87      30.07      29.61          0          0          0          0          0          0        0.0        0.0        0.0       0.00       0.00       0.00          0          0          0          0          0          0        0.0        0.0        0.0       0.00       0.00       0.00       0.00       0.00       0.00       0.00       0.00       0.00       0.00       0.00       0.00      0.000      0.000      0.000        0.0        0.0        0.0        0.0        0.0        0.0       0.00       0.00       0.00        0.0        0.0        0.0        0.0        0.0        0.0        0.0        0.0        0.0        0.0        0.0        0.0
12/14/2015          0        350          0          3         11          0          5         11          0          0          0          0         64         86         30        0.0        0.0        0.0       42.3       53.6       32.0      30.12      30.19      30.03       0.00       0.00       0.00       29.5       35.4       22.9      30.12      30.19      30.03          0          0          0          0          0          0        0.0        0.0        0.0       0.00       0.00       0.00          0          0          0          0          0          0        0.0        0.0        0.0       0.00       0.00       0.00       0.00       0.00       0.00       0.00       0.00       0.00       0.00       0.00       0.00      0.000      0.000      0.000        0.0        0.3        0.3        0.0        0.0        0.0       0.00  -58607.16  -58607.16        0.0        2.9        2.9        0.0        0.0        0.0        0.0       14.2       14.2        0.0       42.2       42.2
12/15/2015        338        360         10          9         25          3         12         25          4          0          0          0         53         75         30        0.0        0.0        0.0       45.4       55.4       35.6      30.22      30.27      30.19       0.00       0.00       0.00       28.0       30.4       24.5      30.22      30.27      30.19          0          0          0          0          0          0        0.0        0.0        0.0       0.00       0.00       0.00          0          0          0          0          0          0        0.0        0.0        0.0       0.00       0.00       0.00       0.00       0.00       0.00       0.00       0.00       0.00       0.00       0.00       0.00      0.000      0.000      0.000        0.0        0.4        0.4        0.0        0.0        0.0       0.00  -58752.00  -58752.00        0.0        3.2        3.2        0.0        0.0        0.0        0.0       14.6       14.6        0.0       42.2       42.2
12/16/2015         90        340          0          1          6          0          2          6          0          0          0          0         64         80         43        0.0        0.0        0.0       44.1       51.8       33.8      30.23      30.29      30.18       0.00       0.00       0.00       32.1       37.5       28.3      30.23      30.29      30.18          0          0          0          0          0          0        0.0        0.0        0.0       0.00       0.00       0.00          0          0          0          0          0          0        0.0        0.0        0.0       0.00       0.00       0.00       0.00       0.00       0.00       0.00       0.00       0.00       0.00       0.00       0.00      0.000      0.000      0.000        0.0        0.3        0.3        0.0        0.0        0.0       0.00  -58896.84  -58896.84        0.0        3.5        3.5        0.0        0.0        0.0        0.0       14.9       14.9        0.0       42.2       42.2
12/17/2015        338        350          0          1          4          0          1          4          0          0          0          0         73         81         66        0.0        0.0        0.0       45.9       48.2       42.8      30.21      30.26      30.13       0.00       0.00       0.00       37.7       39.3       35.4      30.21      30.26      30.13          0          0          0          0          0          0        0.0        0.0        0.0       0.00       0.00       0.00          0          0          0          0          0          0        0.0        0.0        0.0       0.00       0.00       0.00       0.00       0.00       0.00       0.00       0.00       0.00       0.00       0.00       0.00      0.000      0.000      0.000        0.0        0.3        0.3        0.0        0.0        0.0       0.00  -59037.60  -59037.60        0.0        3.9        3.9        0.0        0.0        0.0        0.0       15.2       15.2        0.0       42.2       42.2
12/18/2015          0        360          0          3         12          0          4         12          0          0          0          0         79         87         66        0.0        0.0        0.0       44.5       48.2       41.0      30.08      30.26      29.93       0.00       0.00       0.00       38.3       41.0       35.4      30.08      30.26      29.93          0          0          0          0          0          0        0.0        0.0        0.0       0.00       0.00       0.00          0          0          0          0          0          0        0.0        0.0        0.0       0.00       0.00       0.00       0.00       0.00       0.00       0.00       0.00       0.00       0.00       0.00       0.00      0.000      0.000      0.000        0.0        0.3        0.3        0.0        0.0        0.0       0.00  -59037.60  -59037.60        0.0        3.9        3.9        0.0        0.0        0.0        0.0       15.2       15.2        0.0       42.2       42.2
12/19/2015          0        360          0          1          5          0          2          5          0          0          0          0         82         93         50        0.0        0.0        0.0       44.3       53.6       35.6      29.98      30.09      29.91       0.00       0.00       0.00       38.9       42.9       32.1      29.98      30.09      29.91          0          0          0          0          0          0        0.0        0.0        0.0       0.00       0.00       0.00          0          0          0          0          0          0        0.0        0.0        0.0       0.00       0.00       0.00       0.00       0.00       0.00       0.00       0.00       0.00       0.00       0.00       0.00      0.000      0.000      0.000        0.0        0.5        0.5        0.0        0.0        0.0       0.00  -59270.16  -59270.16        0.0        4.4        4.4        0.0        0.0        0.0        0.0       15.8       15.8        0.0       42.2       42.2
12/20/2015        202        320          0          5         19          0          7         19          0          0          0          0         86         93         81        0.0        0.0        0.0       42.0       44.6       37.4      30.13      30.17      30.09       0.00       0.00       0.00       38.1       42.7       33.9      30.13      30.17      30.09          0          0          0          0          0          0        0.0        0.0        0.0       0.00       0.00       0.00          0          0          0          0          0          0        0.0        0.0        0.0       0.00       0.00       0.00       0.00       0.00       0.00       0.00       0.00       0.00       0.00       0.00       0.00      0.000      0.000      0.000        0.0        0.3        0.3        0.0        0.0        0.0       0.00  -59408.88  -59408.88        0.0        4.7        4.7        0.0        0.0        0.0        0.0       16.1       16.1        0.0       42.2       42.2
12/21/2015        202        320          0          6         19          0          8         19          0          0          0          0         87         93         81        0.0        0.0        0.0       44.6       50.0       37.4      30.01      30.17      29.71       0.00       0.00       0.00       41.1       46.3       33.9      30.01      30.17      29.71          0          0          0          0          0          0        0.0        0.0        0.0       0.00       0.00       0.00          0          0          0          0          0          0        0.0        0.0        0.0       0.00       0.00       0.00       0.00       0.00       0.00       0.00       0.00       0.00       0.00       0.00       0.00      0.000      0.000      0.000        0.0        0.3        0.3        0.0        0.0        0.0       0.00  -59408.88  -59408.88        0.0        4.7        4.7        0.0        0.0        0.0        0.0       16.1       16.1        0.0       42.2       42.2
12/22/2015        315        360          0          3         13          0          5         13          0          0          0          0         81         93         47        0.0        0.0        0.0       50.8       55.4       48.2      29.68      29.83      29.61       0.00       0.00       0.00       44.8       50.1       31.9      29.68      29.83      29.61          0          0          0          0          0          0        0.0        0.0        0.0       0.00       0.00       0.00          0          0          0          0          0          0        0.0        0.0        0.0       0.00       0.00       0.00       0.00       0.00       0.00       0.00       0.00       0.00       0.00       0.00       0.00      0.000      0.000      0.000        0.0        0.6        0.6        0.0        0.0        0.0       0.00  -59690.40  -59690.40        0.0        5.3        5.3        0.0        0.0        0.0        0.0       16.7       16.7        0.0       42.2       42.2
12/23/2015        180        320          0          5         20          0          7         20          0          0          0          0         65         87         41        0.0        0.0        0.0       45.7       53.6       35.6      29.89      29.98      29.83       0.00       0.00       0.00       33.9       37.5       30.5      29.89      29.98      29.83          0          0          0          0          0          0        0.0        0.0        0.0       0.00       0.00       0.00          0          0          0          0          0          0        0.0        0.0        0.0       0.00       0.00       0.00       0.00       0.00       0.00       0.00       0.00       0.00       0.00       0.00       0.00      0.000      0.000      0.000        0.0        0.2        0.2        0.0        0.0        0.0       0.00  -59835.24  -59835.24        0.0        5.6        5.6        0.0        0.0        0.0        0.0       16.9       16.9        0.0       42.2       42.2
12/24/2015        202        300          0          5         20          0          8         20          0          0          0          0         73         87         54        0.0        0.0        0.0       43.0       51.8       33.8      29.85      29.98      29.78       0.00       0.00       0.00       34.8       37.5       30.1      29.85      29.98      29.78          0          0          0          0          0          0        0.0        0.0        0.0       0.00       0.00       0.00          0          0          0          0          0          0        0.0        0.0        0.0       0.00       0.00       0.00       0.00       0.00       0.00       0.00       0.00       0.00       0.00       0.00       0.00      0.000      0.000      0.000        0.0        0.3        0.3        0.0        0.0        0.0       0.00  -59973.96  -59973.96        0.0        5.9        5.9        0.0        0.0        0.0        0.0       17.2       17.2        0.0       42.2       42.2
12/25/2015        202        340          0          4         20          0          6         20          0          0          0          0         70         87         43        0.0        0.0        0.0       43.0       51.8       33.8      30.04      30.45      29.78       0.00       0.00       0.00       33.3       37.5       28.2      30.04      30.45      29.78          0          0          0          0          0          0        0.0        0.0        0.0       0.00       0.00       0.00          0          0          0          0          0          0        0.0        0.0        0.0       0.00       0.00       0.00       0.00       0.00       0.00       0.00       0.00       0.00       0.00       0.00       0.00      0.000      0.000      0.000        0.0        0.3        0.3        0.0        0.0        0.0       0.00  -59973.96  -59973.96        0.0        5.9        5.9        0.0        0.0        0.0        0.0       17.2       17.2        0.0       42.2       42.2
12/26/2015          0        360          0          7         20          0         11         20          0          0          0          0         45         69         27        0.0        0.0        0.0       43.6       53.6       35.6      30.45      30.52      30.34       0.00       0.00       0.00       22.4       26.7       17.4      30.45      30.52      30.34          0          0          0          0          0          0        0.0        0.0        0.0       0.00       0.00       0.00          0          0          0          0          0          0        0.0        0.0        0.0       0.00       0.00       0.00       0.00       0.00       0.00       0.00       0.00       0.00       0.00       0.00       0.00      0.000      0.000      0.000        0.0        0.0        0.0        0.0        0.0        0.0       0.00       0.00       0.00        0.0        0.0        0.0        0.0        0.0        0.0        0.0        0.0        0.0        0.0        0.0        0.0
12/27/2015          0        360          0          5         20          0          8         20          0          0          0          0         54         81         27        0.0        0.0        0.0       42.9       53.6       35.6      30.34      30.52      30.14       0.00       0.00       0.00       26.3       33.9       17.4      30.34      30.52      30.14          0          0          0          0          0          0        0.0        0.0        0.0       0.00       0.00       0.00          0          0          0          0          0          0        0.0        0.0        0.0       0.00       0.00       0.00       0.00       0.00       0.00       0.00       0.00       0.00       0.00       0.00       0.00      0.000      0.000      0.000        0.0        0.0        0.0        0.0        0.0        0.0       0.00       0.00       0.00        0.0        0.0        0.0        0.0        0.0        0.0        0.0        0.0        0.0        0.0        0.0        0.0
12/28/2015        338        360          0          3         11          0          4         11          0          0          0          0         68         93         43        0.0        0.0        0.0       42.9       51.8       33.8      30.06      30.12      29.98       0.00       0.00       0.00       32.2       35.7       26.6      30.06      30.12      29.98          0          0          0          0          0          0        0.0        0.0        0.0       0.00       0.00       0.00          0          0          0          0          0          0        0.0        0.0        0.0       0.00       0.00       0.00       0.00       0.00       0.00       0.00       0.00       0.00       0.00       0.00       0.00      0.000      0.000      0.000        0.0        0.5        0.5        0.0        0.0        0.0       0.00  -60432.96  -60432.96        0.0        7.0        7.0        0.0        0.0        0.0        0.0       18.4       18.4        0.0       42.2       42.2
12/29/2015          0        360          0          4         11          0          6         11          0          0          0          0         53         75         28        0.0        0.0        0.0       44.3       55.4       37.4      30.10      30.18      30.06       0.00       0.00       0.00       27.4       33.7       22.9      30.10      30.18      30.06          0          0          0          0          0          0        0.0        0.0        0.0       0.00       0.00       0.00          0          0          0          0          0          0        0.0        0.0        0.0       0.00       0.00       0.00       0.00       0.00       0.00       0.00       0.00       0.00       0.00       0.00       0.00      0.000      0.000      0.000        0.0        0.3        0.3        0.0        0.0        0.0       0.00  -60575.76  -60575.76        0.0        7.3        7.3        0.0        0.0        0.0        0.0       18.7       18.7        0.0       42.2       42.2
12/30/2015          0        360          0          3         10          0          5         10          0          0          0          0         79         93         62        0.0        0.0        0.0       41.9       48.2       37.4      30.27      30.33      30.19       0.00       0.00       0.00       35.7       37.5       28.5      30.27      30.33      30.19          0          0          0          0          0          0        0.0        0.0        0.0       0.00       0.00       0.00          0          0          0          0          0          0        0.0        0.0        0.0       0.00       0.00       0.00       0.00       0.00       0.00       0.00       0.00       0.00       0.00       0.00       0.00      0.000      0.000      0.000        0.0        0.3        0.3        0.0        0.0        0.0       0.00  -60722.64  -60722.64        0.0        7.7        7.7        0.0        0.0        0.0        0.0       19.0       19.0        0.0       42.2       42.2
12/31/2015          0        360         10         13         25          6         17         25          7          0          0          0         36         52         26        0.0        0.0        0.0       45.2       51.8       41.0      30.26      30.30      30.21       0.00       0.00       0.00       19.3       26.4       11.8      30.26      30.30      30.21          0          0          0          0          0          0        0.0        0.0        0.0       0.00       0.00       0.00          0          0          0          0          0          0        0.0        0.0        0.0       0.00       0.00       0.00       0.00       0.00       0.00       0.00       0.00       0.00       0.00       0.00       0.00      0.000      0.000      0.000        0.0        0.0        0.0        0.0        0.0        0.0       0.00       0.00       0.00        0.0        0.0        0.0        0.0        0.0        0.0        0.0        0.0        0.0        0.0        0.0        0.0
1/3/2016            0        360          0          8         25          0         11         25          0          0          0          0         46         81         26        0.0        0.0        0.0       46.4       53.6       39.2      30.08      30.30      29.80       0.00       0.00       0.00       25.6       35.8       11.8      30.08      30.30      29.80          0          0          0          0          0          0        0.0        0.0        0.0       0.00       0.00       0.00          0          0          0          0          0          0        0.0        0.0        0.0       0.00       0.00       0.00       0.00       0.00       0.00       0.00       0.00       0.00       0.00       0.00       0.00      0.000      0.000      0.000        0.0        0.0        0.0        0.0        0.0        0.0       0.00       0.00       0.00        0.0        0.0        0.0        0.0        0.0        0.0        0.0        0.0        0.0        0.0        0.0        0.0
1/4/2016            0        360          0          2         10          0          4         10          0          0          0          0         83         93         66        0.0        0.0        0.0       43.5       46.4       39.2      29.75      29.79      29.68       0.00       0.00       0.00       38.5       42.7       33.7      29.75      29.79      29.68          0          0          0          0          0          0        0.0        0.0        0.0       0.00       0.00       0.00          0          0          0          0          0          0        0.0        0.0        0.0       0.00       0.00       0.00       0.00       0.00       0.00       0.00       0.00       0.00       0.00       0.00       0.00      0.000      0.000      0.000        0.0        0.4        0.4        0.0        0.0        0.0       0.00  -61065.36  -61065.36        0.0        8.4        8.4        0.0        0.0        0.0        0.0       19.8       19.8        0.0       42.2       42.2
1/5/2016          180        360          0          5         20          0          7         20          0          0          0          0         89         93         81        0.0        0.0        0.0       47.7       50.0       44.6      29.65      29.75      29.59       0.00       0.00       0.00       44.7       46.3       39.1      29.65      29.75      29.59          0          0          0          0          0          0        0.0        0.0        0.0       0.00       0.00       0.00          0          0          0          0          0          0        0.0        0.0        0.0       0.00       0.00       0.00       0.00       0.00       0.00       0.00       0.00       0.00       0.00       0.00       0.00      0.000      0.000      0.000        0.0        0.3        0.3        0.0        0.0        0.0       0.00  -61212.24  -61212.24        0.0        8.7        8.7        0.0        0.0        0.0        0.0       20.1       20.1        0.0       42.2       42.2
1/6/2016          180        360          0         10         24          0         14         24          0          0          0          0         87         93         81        0.0        0.0        0.0       46.0       48.2       42.8      29.69      29.78      29.63       0.01       0.00       0.00       42.3       44.5       39.1      29.69      29.78      29.63          0          0          0          0          0          0        0.0        0.0        0.0       0.00       0.00       0.00          0          0          0          0          0          0        0.0        0.0        0.0       0.00       0.00       0.00       0.00       0.00       0.00       0.00       0.00       0.00       0.00       0.00       0.00      0.000      0.000      0.000        0.0        0.3        0.3        0.0        0.0        0.0       0.00  -61348.92  -61348.92        0.0        9.0        9.0        0.0        0.0        0.0        0.0       20.4       20.4        0.0       42.2       42.2
1/7/2016            0        350          0          2          5          0          3          5          0          0          0          0         87         93         81        0.0        0.0        0.0       44.3       48.2       42.8      29.89      29.98      29.79       0.00       0.00       0.00       40.6       42.7       39.1      29.89      29.98      29.79          0          0          0          0          0          0        0.0        0.0        0.0       0.00       0.00       0.00          0          0          0          0          0          0        0.0        0.0        0.0       0.00       0.00       0.00       0.00       0.00       0.00       0.00       0.00       0.00       0.00       0.00       0.00      0.000      0.000      0.000        0.0        0.0        0.0        0.0        0.0        0.0       0.00       0.00       0.00        0.0        0.0        0.0        0.0        0.0        0.0        0.0        0.0        0.0        0.0        0.0        0.0
1/8/2016          338        350          0          2          5          0          3          5          0          0          0          0         80         93         54        0.0        0.0        0.0       46.1       53.6       42.8      29.96      30.11      29.79       0.00       0.00       0.00       40.2       42.7       37.4      29.96      30.11      29.79          0          0          0          0          0          0        0.0        0.0        0.0       0.00       0.00       0.00          0          0          0          0          0          0        0.0        0.0        0.0       0.00       0.00       0.00       0.00       0.00       0.00       0.00       0.00       0.00       0.00       0.00       0.00      0.000      0.000      0.000        0.0        0.0        0.0        0.0        0.0        0.0       0.00       0.00       0.00        0.0        0.0        0.0        0.0        0.0        0.0        0.0        0.0        0.0        0.0        0.0        0.0
1/9/2016            0        360          0          4         10          0          6         10          0          0          0          0         90         93         81        0.0        0.0        0.0       44.9       46.4       44.6      30.16      30.20      30.11       0.00       0.00       0.00       42.1       42.7       40.9      30.16      30.20      30.11          0          0          0          0          0          0        0.0        0.0        0.0       0.00       0.00       0.00          0          0          0          0          0          0        0.0        0.0        0.0       0.00       0.00       0.00       0.00       0.00       0.00       0.00       0.00       0.00       0.00       0.00       0.00      0.000      0.000      0.000        0.0        0.3        0.3        0.0        0.0        0.0       0.00  -61632.48  -61632.48        0.0        9.5        9.5        0.0        0.0        0.0        0.0       20.9       20.9        0.0       42.2       42.2
1/10/2016           0        360          0          2          6          0          4          6          0          0          0          0         74         87         44        0.0        0.0        0.0       47.0       59.0       39.2      30.21      30.27      30.18       0.00       0.00       0.00       38.5       41.0       35.7      30.21      30.27      30.18          0          0          0          0          0          0        0.0        0.0        0.0       0.00       0.00       0.00          0          0          0          0          0          0        0.0        0.0        0.0       0.00       0.00       0.00       0.00       0.00       0.00       0.00       0.00       0.00       0.00       0.00       0.00      0.000      0.000      0.000        0.0        0.3        0.3        0.0        0.0        0.0       0.00  -61775.28  -61775.28        0.0        9.8        9.8        0.0        0.0        0.0        0.0       21.2       21.2        0.0       42.2       42.2
1/11/2016         338        360          0          3          7          0          4          7          0          0          0          0         81         87         71        0.0        0.0        0.0       47.1       51.8       41.0      30.33      30.36      30.28       0.00       0.00       0.00       41.3       44.7       37.4      30.33      30.36      30.28          0          0          0          0          0          0        0.0        0.0        0.0       0.00       0.00       0.00          0          0          0          0          0          0        0.0        0.0        0.0       0.00       0.00       0.00       0.00       0.00       0.00       0.00       0.00       0.00       0.00       0.00       0.00      0.000      0.000      0.000        0.0        0.3        0.3        0.0        0.0        0.0       0.00  -61924.20  -61924.20        0.0       10.1       10.1        0.0        0.0        0.0        0.0       21.5       21.5        0.0       42.2       42.2
1/12/2016         315        320          0          1         11          0          3         11          0          0          0          0         80         87         67        0.0        0.0        0.0       49.1       53.6       44.6      30.16      30.30      29.95       0.00       0.00       0.00       43.0       46.3       40.9      30.16      30.30      29.95          0          0          0          0          0          0        0.0        0.0        0.0       0.00       0.00       0.00          0          0          0          0          0          0        0.0        0.0        0.0       0.00       0.00       0.00       0.00       0.00       0.00       0.00       0.00       0.00       0.00       0.00       0.00      0.000      0.000      0.000        0.0        0.3        0.3        0.0        0.0        0.0       0.00  -62069.04  -62069.04        0.0       10.4       10.4        0.0        0.0        0.0        0.0       21.8       21.8        0.0       42.2       42.2
1/13/2016         180        340          0          7         34          0         11         34          0          0          0          0         79         87         41        0.0        0.0        0.0       49.0       57.2       39.2      30.08      30.30      29.86       0.00       0.00       0.00       42.5       48.2       33.7      30.08      30.30      29.86          0          0          0          0          0          0        0.0        0.0        0.0       0.00       0.00       0.00          0          0          0          0          0          0        0.0        0.0        0.0       0.00       0.00       0.00       0.00       0.00       0.00       0.00       0.00       0.00       0.00       0.00       0.00      0.000      0.000      0.000        0.0        0.3        0.3        0.0        0.0        0.0       0.00  -62069.04  -62069.04        0.0       10.4       10.4        0.0        0.0        0.0        0.0       21.8       21.8        0.0       42.2       42.2
1/14/2016           0        360          0          4         19          0          6         19          0          0          0          0         84         87         81        0.0        0.0        0.0       42.7       46.4       37.4      30.05      30.19      29.93       0.01       0.00       0.00       38.2       41.0       33.9      30.05      30.19      29.93          0          0          0          0          0          0        0.0        0.0        0.0       0.00       0.00       0.00          0          0          0          0          0          0        0.0        0.0        0.0       0.00       0.00       0.00       0.00       0.00       0.00       0.00       0.00       0.00       0.00       0.00       0.00      0.000      0.000      0.000        0.0        0.5        0.5        0.0        0.0        0.0       0.00  -62356.68  -62356.68        0.0       10.9       10.9        0.0        0.0        0.0        0.0       22.3       22.3        0.0       42.2       42.2
1/15/2016           0        360          0          3          7          0          4          7          0          0          0          0         77         93         58        0.0        0.0        0.0       46.0       53.6       37.4      30.08      30.18      29.97       0.00       0.00       0.00       38.8       42.7       35.6      30.08      30.18      29.97          0          0          0          0          0          0        0.0        0.0        0.0       0.00       0.00       0.00          0          0          0          0          0          0        0.0        0.0        0.0       0.00       0.00       0.00       0.00       0.00       0.00       0.00       0.00       0.00       0.00       0.00       0.00      0.000      0.000      0.000        0.0        0.0        0.0        0.0        0.0        0.0       0.00       0.00       0.00        0.0        0.0        0.0        0.0        0.0        0.0        0.0        0.0        0.0        0.0        0.0        0.0
1/16/2016         270        360          0          3          7          0          4          7          0          0          0          0         83         94         58        0.0        0.0        0.0       47.4       53.6       37.4      30.12      30.20      29.97       0.00       0.00       0.00       42.1       48.3       35.6      30.12      30.20      29.97          0          0          0          0          0          0        0.0        0.0        0.0       0.00       0.00       0.00          0          0          0          0          0          0        0.0        0.0        0.0       0.00       0.00       0.00       0.00       0.00       0.00       0.00       0.00       0.00       0.00       0.00       0.00      0.000      0.000      0.000        0.0        0.0        0.0        0.0        0.0        0.0       0.00       0.00       0.00        0.0        0.0        0.0        0.0        0.0        0.0        0.0        0.0        0.0        0.0        0.0        0.0
1/17/2016         180        360          0         12         37          0         16         37          0          0          0          0         89         94         82        0.0        0.0        0.0       53.0       57.2       48.2      30.00      30.13      29.88       0.01       0.00       0.00       49.7       51.9       46.3      30.00      30.13      29.88          0          0          0          0          0          0        0.0        0.0        0.0       0.00       0.00       0.00          0          0          0          0          0          0        0.0        0.0        0.0       0.00       0.00       0.00       0.00       0.00       0.00       0.00       0.00       0.00       0.00       0.00       0.00      0.000      0.000      0.000        0.0        0.4        0.4        0.0        0.0        0.0       0.00  -62703.48  -62703.48        0.0       11.6       11.6        0.0        0.0        0.0        0.0       23.0       23.0        0.0       42.2       42.2
1/18/2016         180        300          0          7         25          0         10         25          0          0          0          0         84         94         72        0.0        0.0        0.0       54.9       57.2       51.8      30.08      30.14      30.05       0.00       0.00       0.00       50.2       51.9       46.5      30.08      30.14      30.05          0          0          0          0          0          0        0.0        0.0        0.0       0.00       0.00       0.00          0          0          0          0          0          0        0.0        0.0        0.0       0.00       0.00       0.00       0.00       0.00       0.00       0.00       0.00       0.00       0.00       0.00       0.00      0.000      0.000      0.000        0.0        0.2        0.2        0.0        0.0        0.0       0.00  -62840.16  -62840.16        0.0       11.8       11.8        0.0        0.0        0.0        0.0       23.2       23.2        0.0       42.2       42.2
1/19/2016         180        300          0         12         47          0         17         47          0          0          0          0         84         94         62        0.0        0.0        0.0       55.0       59.0       51.8      30.01      30.14      29.77       0.00       0.00       0.00       50.3       55.5       42.6      30.01      30.14      29.77          0          0          0          0          0          0        0.0        0.0        0.0       0.00       0.00       0.00          0          0          0          0          0          0        0.0        0.0        0.0       0.00       0.00       0.00       0.00       0.00       0.00       0.00       0.00       0.00       0.00       0.00       0.00      0.000      0.000      0.000        0.0        0.0        0.0        0.0        0.0        0.0       0.00       0.00       0.00        0.0        0.0        0.0        0.0        0.0        0.0        0.0        0.0        0.0        0.0        0.0        0.0
1/20/2016           0        350          0          2          5          0          4          5          0          0          0          0         80         87         67        0.0        0.0        0.0       51.4       57.2       46.4      30.23      30.29      30.17       0.00       0.00       0.00       45.2       48.3       40.9      30.23      30.29      30.17          0          0          0          0          0          0        0.0        0.0        0.0       0.00       0.00       0.00          0          0          0          0          0          0        0.0        0.0        0.0       0.00       0.00       0.00       0.00       0.00       0.00       0.00       0.00       0.00       0.00       0.00       0.00      0.000      0.000      0.000        0.0        0.3        0.3        0.0        0.0        0.0       0.00  -63103.32  -63103.32        0.0       12.1       12.1        0.0        0.0        0.0        0.0       23.5       23.5        0.0       42.2       42.2
1/21/2016           0        360          0          2          6          0          3          6          0          0          0          0         84         94         72        0.0        0.0        0.0       52.0       57.2       48.2      30.12      30.23      29.97       0.00       0.00       0.00       47.3       50.1       44.5      30.12      30.23      29.97          0          0          0          0          0          0        0.0        0.0        0.0       0.00       0.00       0.00          0          0          0          0          0          0        0.0        0.0        0.0       0.00       0.00       0.00       0.00       0.00       0.00       0.00       0.00       0.00       0.00       0.00       0.00      0.000      0.000      0.000        0.0        0.2        0.2        0.0        0.0        0.0       0.00  -63244.08  -63244.08        0.0       12.3       12.3        0.0        0.0        0.0        0.0       23.7       23.7        0.0       42.2       42.2
1/22/2016         180        360          0          9         38          0         12         38          0          0          0          0         83         94         72        0.0        0.0        0.0       53.2       57.2       48.2      30.03      30.23      29.78       0.00       0.00       0.00       48.1       51.9       44.5      30.03      30.23      29.78          0          0          0          0          0          0        0.0        0.0        0.0       0.00       0.00       0.00          0          0          0          0          0          0        0.0        0.0        0.0       0.00       0.00       0.00       0.00       0.00       0.00       0.00       0.00       0.00       0.00       0.00       0.00      0.000      0.000      0.000        0.0        0.2        0.2        0.0        0.0        0.0       0.00  -63244.08  -63244.08        0.0       12.3       12.3        0.0        0.0        0.0        0.0       23.7       23.7        0.0       42.2       42.2
1/23/2016         180        300         20         13         40          3         18         40          4          0          0          0         81         93         71        0.0        0.0        0.0       51.9       55.4       44.6      29.91      30.08      29.76       0.00       0.00       0.00       46.2       50.0       39.1      29.91      30.08      29.76          0          0          0          0          0          0        0.0        0.0        0.0       0.00       0.00       0.00          0          0          0          0          0          0        0.0        0.0        0.0       0.00       0.00       0.00       0.00       0.00       0.00       0.00       0.00       0.00       0.00       0.00       0.00      0.000      0.000      0.000        0.0        0.3        0.3        0.0        0.0        0.0       0.00  -63492.96  -63492.96        0.0       12.6       12.6        0.0        0.0        0.0        0.0       24.0       24.0        0.0       42.2       42.2
1/24/2016           0        330          0          1          4          0          3          4          0          0          0          0         87         93         81        0.0        0.0        0.0       42.3       44.6       39.2      30.15      30.22      30.09       0.00       0.00       0.00       38.7       42.7       35.7      30.15      30.22      30.09          0          0          0          0          0          0        0.0        0.0        0.0       0.00       0.00       0.00          0          0          0          0          0          0        0.0        0.0        0.0       0.00       0.00       0.00       0.00       0.00       0.00       0.00       0.00       0.00       0.00       0.00       0.00      0.000      0.000      0.000        0.0        0.0        0.0        0.0        0.0        0.0       0.00       0.00       0.00        0.0        0.0        0.0        0.0        0.0        0.0        0.0        0.0        0.0        0.0        0.0        0.0
1/25/2016           0        330          0          1         10          0          3         10          0          0          0          0         87         93         48        0.0        0.0        0.0       42.3       60.8       39.2      30.15      30.25      30.09       0.00       0.00       0.00       38.7       42.7       35.7      30.15      30.25      30.09          0          0          0          0          0          0        0.0        0.0        0.0       0.00       0.00       0.00          0          0          0          0          0          0        0.0        0.0        0.0       0.00       0.00       0.00       0.00       0.00       0.00       0.00       0.00       0.00       0.00       0.00       0.00      0.000      0.000      0.000        0.0        0.0        0.0        0.0        0.0        0.0       0.00       0.00       0.00        0.0        0.0        0.0        0.0        0.0        0.0        0.0        0.0        0.0        0.0        0.0        0.0
1/26/2016         158        340          0          3         11          0          5         11          0          0          0          0         77         93         48        0.0        0.0        0.0       47.9       60.8       39.2      30.26      30.36      30.09       0.00       0.00       0.00       40.5       44.7       33.9      30.26      30.36      30.09          0          0          0          0          0          0        0.0        0.0        0.0       0.00       0.00       0.00          0          0          0          0          0          0        0.0        0.0        0.0       0.00       0.00       0.00       0.00       0.00       0.00       0.00       0.00       0.00       0.00       0.00       0.00      0.000      0.000      0.000        0.0        0.0        0.0        0.0        0.0        0.0       0.00       0.00       0.00        0.0        0.0        0.0        0.0        0.0        0.0        0.0        0.0        0.0        0.0        0.0        0.0
1/27/2016           0        360          0          2          5          0          3          5          0          0          0          0         67         87         35        0.0        0.0        0.0       51.8       66.2       39.2      30.31      30.36      30.25       0.00       0.00       0.00       39.7       42.9       35.6      30.31      30.36      30.25          0          0          0          0          0          0        0.0        0.0        0.0       0.00       0.00       0.00          0          0          0          0          0          0        0.0        0.0        0.0       0.00       0.00       0.00       0.00       0.00       0.00       0.00       0.00       0.00       0.00       0.00       0.00      0.000      0.000      0.000        0.0        0.3        0.3        0.0        0.0        0.0       0.00  -63825.48  -63825.48        0.0       13.1       13.1        0.0        0.0        0.0        0.0       24.5       24.5        0.0       42.2       42.2
1/28/2016           0        360          0          2          6          0          3          6          0          0          0          0         85         87         76        0.0        0.0        0.0       48.2       51.8       46.4      30.25      30.30      30.22       0.00       0.00       0.00       43.9       46.5       39.3      30.25      30.30      30.22          0          0          0          0          0          0        0.0        0.0        0.0       0.00       0.00       0.00          0          0          0          0          0          0        0.0        0.0        0.0       0.00       0.00       0.00       0.00       0.00       0.00       0.00       0.00       0.00       0.00       0.00       0.00      0.000      0.000      0.000        0.0        0.0        0.0        0.0        0.0        0.0       0.00       0.00       0.00        0.0        0.0        0.0        0.0        0.0        0.0        0.0        0.0        0.0        0.0        0.0        0.0
1/29/2016         292        350          0          3         16          0          5         16          0          0          0          0         85         94         67        0.0        0.0        0.0       51.7       55.4       48.2      30.02      30.19      29.95       0.00       0.00       0.00       47.2       51.9       42.9      30.02      30.19      29.95          0          0          0          0          0          0        0.0        0.0        0.0       0.00       0.00       0.00          0          0          0          0          0          0        0.0        0.0        0.0       0.00       0.00       0.00       0.00       0.00       0.00       0.00       0.00       0.00       0.00       0.00       0.00      0.000      0.000      0.000        0.0        0.2        0.2        0.0        0.0        0.0       0.00  -64070.28  -64070.28        0.0       13.5       13.5        0.0        0.0        0.0        0.0       24.9       24.9        0.0       42.2       42.2
1/30/2016           0        360          0          4         11          0          6         11          0          0          0          0         76         87         62        0.0        0.0        0.0       45.6       51.8       39.2      30.00      30.05      29.96       0.00       0.00       0.00       38.3       44.5       35.4      30.00      30.05      29.96          0          0          0          0          0          0        0.0        0.0        0.0       0.00       0.00       0.00          0          0          0          0          0          0        0.0        0.0        0.0       0.00       0.00       0.00       0.00       0.00       0.00       0.00       0.00       0.00       0.00       0.00       0.00      0.000      0.000      0.000        0.0        0.2        0.2        0.0        0.0        0.0       0.00  -64223.28  -64223.28        0.0       13.7       13.7        0.0        0.0        0.0        0.0       25.1       25.1        0.0       42.2       42.2
1/31/2016           0        360         20         10         24          4         13         24          5          0          0          0         49         87         26        0.0        0.0        0.0       46.3       55.4       37.4      29.90      30.05      29.78       0.00       0.00       0.00       26.3       35.7       19.6      29.90      30.05      29.78          0          0          0          0          0          0        0.0        0.0        0.0       0.00       0.00       0.00          0          0          0          0          0          0        0.0        0.0        0.0       0.00       0.00       0.00       0.00       0.00       0.00       0.00       0.00       0.00       0.00       0.00       0.00      0.000      0.000      0.000        0.0        0.0        0.0        0.0        0.0        0.0       0.00       0.00       0.00        0.0        0.0        0.0        0.0        0.0        0.0        0.0        0.0        0.0        0.0        0.0        0.0
2/1/2016            0        360          0          4         13          0          7         13          0          0          0          0         48         69         26        0.0        0.0        0.0       45.2       55.4       33.8      30.17      30.24      30.06       0.00       0.00       0.00       25.7       30.3       21.1      30.17      30.24      30.06          0          0          0          0          0          0        0.0        0.0        0.0       0.00       0.00       0.00          0          0          0          0          0          0        0.0        0.0        0.0       0.00       0.00       0.00       0.00       0.00       0.00       0.00       0.00       0.00       0.00       0.00       0.00      0.000      0.000      0.000        0.0        0.3        0.3        0.0        0.0        0.0       0.00  -64453.80  -64453.80        0.0       14.2       14.2        0.0        0.0        0.0        0.0       25.5       25.5        0.0       42.2       42.2
2/2/2016            0        360          0          2         11          0          4         11          0          0          0          0         75         87         54        0.0        0.0        0.0       42.0       50.0       35.6      30.26      30.33      30.16       0.00       0.00       0.00       34.5       37.5       30.1      30.26      30.33      30.16          0          0          0          0          0          0        0.0        0.0        0.0       0.00       0.00       0.00          0          0          0          0          0          0        0.0        0.0        0.0       0.00       0.00       0.00       0.00       0.00       0.00       0.00       0.00       0.00       0.00       0.00       0.00      0.000      0.000      0.000        0.0        0.3        0.3        0.0        0.0        0.0       0.00  -64600.68  -64600.68        0.0        0.3        0.3        0.0        0.0        0.0        0.0       25.8       25.8        0.0       42.2       42.2
2/3/2016            0        360          0          2          7          0          3          7          0          0          0          0         80         87         66        0.0        0.0        0.0       42.3       46.4       37.4      30.39      30.50      30.32       0.00       0.00       0.00       36.6       39.2       33.9      30.39      30.50      30.32          0          0          0          0          0          0        0.0        0.0        0.0       0.00       0.00       0.00          0          0          0          0          0          0        0.0        0.0        0.0       0.00       0.00       0.00       0.00       0.00       0.00       0.00       0.00       0.00       0.00       0.00       0.00      0.000      0.000      0.000        0.0        0.4        0.4        0.0        0.0        0.0       0.00  -64739.40  -64739.40        0.0        0.7        0.7        0.0        0.0        0.0        0.0       26.2       26.2        0.0       42.2       42.2
2/4/2016            0        360          0          4         12          0          6         12          0          0          0          0         69         87         42        0.0        0.0        0.0       49.3       60.8       42.8      30.45      30.53      30.37       0.00       0.00       0.00       38.7       39.4       37.1      30.45      30.53      30.37          0          0          0          0          0          0        0.0        0.0        0.0       0.00       0.00       0.00          0          0          0          0          0          0        0.0        0.0        0.0       0.00       0.00       0.00       0.00       0.00       0.00       0.00       0.00       0.00       0.00       0.00       0.00      0.000      0.000      0.000        0.0        0.4        0.4        0.0        0.0        0.0       0.00  -64882.20  -64882.20        0.0        1.1        1.1        0.0        0.0        0.0        0.0       26.6       26.6        0.0       42.2       42.2
2/5/2016          338        330          0          0          5          0          1          5          0          0          0          0         70         87         39        0.0        0.0        0.0       47.1       60.8       35.6      30.41      30.47      30.38       0.00       0.00       0.00       36.7       42.7       30.1      30.41      30.47      30.38          0          0          0          0          0          0        0.0        0.0        0.0       0.00       0.00       0.00          0          0          0          0          0          0        0.0        0.0        0.0       0.00       0.00       0.00       0.00       0.00       0.00       0.00       0.00       0.00       0.00       0.00       0.00      0.000      0.000      0.000        0.0        0.2        0.2        0.0        0.0        0.0       0.00  -65016.84  -65016.84        0.0        1.3        1.3        0.0        0.0        0.0        0.0       26.8       26.8        0.0       42.2       42.2
2/6/2016           22        360          0          1          6          0          3          6          0          0          0          0         64         87         35        0.0        0.0        0.0       52.1       66.2       39.2      30.39      30.44      30.32       0.00       0.00       0.00       38.8       42.7       35.6      30.39      30.44      30.32          0          0          0          0          0          0        0.0        0.0        0.0       0.00       0.00       0.00          0          0          0          0          0          0        0.0        0.0        0.0       0.00       0.00       0.00       0.00       0.00       0.00       0.00       0.00       0.00       0.00       0.00       0.00      0.000      0.000      0.000        0.0        0.3        0.3        0.0        0.0        0.0       0.00  -65157.60  -65157.60        0.0        1.6        1.6        0.0        0.0        0.0        0.0       27.1       27.1        0.0       42.2       42.2
2/7/2016            0        360         10         11         24          3         15         24          4          0          0          0         41         76         23        0.0        0.0        0.0       66.4       80.6       46.4      30.31      30.35      30.25       0.00       0.00       0.00       40.0       42.6       35.4      30.31      30.35      30.25          0          0          0          0          0          0        0.0        0.0        0.0       0.00       0.00       0.00          0          0          0          0          0          0        0.0        0.0        0.0       0.00       0.00       0.00       0.00       0.00       0.00       0.00       0.00       0.00       0.00       0.00       0.00      0.000      0.000      0.000        0.0        0.2        0.2        0.0        0.0        0.0       0.00  -65298.36  -65298.36        0.0        1.8        1.8        0.0        0.0        0.0        0.0       27.3       27.3        0.0       42.2       42.2
2/8/2016            0        360          0          8         19          0         12         19          0          0          0          0         29         58         18        0.0        0.0        0.0       70.2       82.4       53.6      30.25      30.32      30.16       0.00       0.00       0.00       34.9       39.2       33.2      30.25      30.32      30.16          0          0          0          0          0          0        0.0        0.0        0.0       0.00       0.00       0.00          0          0          0          0          0          0        0.0        0.0        0.0       0.00       0.00       0.00       0.00       0.00       0.00       0.00       0.00       0.00       0.00       0.00       0.00      0.000      0.000      0.000        0.0        0.1        0.1        0.0        0.1        0.1       0.00  -65443.20  -65443.20        0.0        1.8        1.8        0.0        0.1        0.1        0.0       27.4       27.4        0.0       42.3       42.3
2/9/2016           22        330          0          1          5          0          2          5          0          0          0          0         61         81         27        0.0        0.0        0.0       56.0       73.4       42.8      30.21      30.28      30.15       0.00       0.00       0.00       41.0       46.4       35.4      30.21      30.28      30.15          0          0          0          0          0          0        0.0        0.0        0.0       0.00       0.00       0.00          0          0          0          0          0          0        0.0        0.0        0.0       0.00       0.00       0.00       0.00       0.00       0.00       0.00       0.00       0.00       0.00       0.00       0.00      0.000      0.000      0.000        0.0        0.0        0.0        0.0        0.1        0.1       0.00  -65581.92  -65581.92        0.0        1.9        1.9        0.0        0.2        0.2        0.0       27.4       27.4        0.0       42.5       42.5
2/10/2016         338        340          0          1          6          0          2          6          0          0          0          0         62         81         31        0.0        0.0        0.0       56.6       73.4       42.8      30.22      30.29      30.15       0.00       0.00       0.00       42.4       46.4       35.4      30.22      30.29      30.15          0          0          0          0          0          0        0.0        0.0        0.0       0.00       0.00       0.00          0          0          0          0          0          0        0.0        0.0        0.0       0.00       0.00       0.00       0.00       0.00       0.00       0.00       0.00       0.00       0.00       0.00       0.00      0.000      0.000      0.000        0.0        0.0        0.0        0.0        0.0        0.0       0.00       0.00       0.00        0.0        0.0        0.0        0.0        0.0        0.0        0.0        0.0        0.0        0.0        0.0        0.0
2/11/2016           0        360          0          1          6          0          2          6          0          0          0          0         64         87         40        0.0        0.0        0.0       57.9       71.6       46.4      30.15      30.20      30.12       0.00       0.00       0.00       45.1       48.4       42.7      30.15      30.20      30.12          0          0          0          0          0          0        0.0        0.0        0.0       0.00       0.00       0.00          0          0          0          0          0          0        0.0        0.0        0.0       0.00       0.00       0.00       0.00       0.00       0.00       0.00       0.00       0.00       0.00       0.00       0.00      0.000      0.000      0.000        0.0        0.1        0.1        0.0        0.0        0.0       0.00  -65865.48  -65865.48        0.0        2.2        2.2        0.0        0.3        0.3        0.0       27.7       27.7        0.0       42.5       42.5
2/12/2016         270        360          0          1          6          0          2          6          0          0          0          0         67         87         40        0.0        0.0        0.0       56.0       69.8       44.6      30.19      30.23      30.14       0.00       0.00       0.00       44.4       48.4       39.1      30.19      30.23      30.14          0          0          0          0          0          0        0.0        0.0        0.0       0.00       0.00       0.00          0          0          0          0          0          0        0.0        0.0        0.0       0.00       0.00       0.00       0.00       0.00       0.00       0.00       0.00       0.00       0.00       0.00       0.00      0.000      0.000      0.000        0.0        0.1        0.1        0.0        0.0        0.0       0.00  -66008.28  -66008.28        0.0        2.3        2.3        0.0        0.3        0.3        0.0       27.8       27.8        0.0       42.5       42.5
2/13/2016         338        360          0          4         12          0          6         12          0          0          0          0         51         87         22        0.0        0.0        0.0       59.6       75.2       44.6      30.24      30.28      30.19       0.00       0.00       0.00       38.2       44.6       28.9      30.24      30.28      30.19          0          0          0          0          0          0        0.0        0.0        0.0       0.00       0.00       0.00          0          0          0          0          0          0        0.0        0.0        0.0       0.00       0.00       0.00       0.00       0.00       0.00       0.00       0.00       0.00       0.00       0.00       0.00      0.000      0.000      0.000        0.0        0.0        0.0        0.0        0.0        0.0       0.00       0.00       0.00        0.0        0.0        0.0        0.0        0.0        0.0        0.0        0.0        0.0        0.0        0.0        0.0
2/14/2016           0        360          0          4         14          0          6         14          0          0          0          0         59         81         34        0.0        0.0        0.0       61.0       77.0       46.4      30.28      30.32      30.24       0.00       0.00       0.00       45.4       48.6       40.9      30.28      30.32      30.24          0          0          0          0          0          0        0.0        0.0        0.0       0.00       0.00       0.00          0          0          0          0          0          0        0.0        0.0        0.0       0.00       0.00       0.00       0.00       0.00       0.00       0.00       0.00       0.00       0.00       0.00       0.00      0.000      0.000      0.000        0.0        0.0        0.0        0.0        0.0        0.0       0.00       0.00       0.00        0.0        0.0        0.0        0.0        0.0        0.0        0.0        0.0        0.0        0.0        0.0        0.0
2/15/2016         338        360          0          6         11          0          8         11          0          0          0          0         51         67         23        0.0        0.0        0.0       65.2       80.6       57.2      30.21      30.29      30.07       0.00       0.00       0.00       45.3       46.7       39.4      30.21      30.29      30.07          0          0          0          0          0          0        0.0        0.0        0.0       0.00       0.00       0.00          0          0          0          0          0          0        0.0        0.0        0.0       0.00       0.00       0.00       0.00       0.00       0.00       0.00       0.00       0.00       0.00       0.00       0.00      0.000      0.000      0.000        0.0        0.0        0.0        0.0        0.0        0.0       0.00       0.00       0.00        0.0        0.0        0.0        0.0        0.0        0.0        0.0        0.0        0.0        0.0        0.0        0.0
2/16/2016           0        360          0          4         11          0          6         11          0          0          0          0         55         87         23        0.0        0.0        0.0       63.8       80.6       46.4      30.03      30.29      29.68       0.00       0.00       0.00       45.9       48.4       39.4      30.03      30.29      29.68          0          0          0          0          0          0        0.0        0.0        0.0       0.00       0.00       0.00          0          0          0          0          0          0        0.0        0.0        0.0       0.00       0.00       0.00       0.00       0.00       0.00       0.00       0.00       0.00       0.00       0.00       0.00      0.000      0.000      0.000        0.0        0.0        0.0        0.0        0.0        0.0       0.00       0.00       0.00        0.0        0.0        0.0        0.0        0.0        0.0        0.0        0.0        0.0        0.0        0.0        0.0
2/17/2016         158        360          0          8         32          0         11         32          0          0          0          0         74         88         55        0.0        0.0        0.0       56.1       62.6       48.2      29.52      29.69      29.34       0.00       0.00       0.00       47.7       53.7       39.2      29.52      29.69      29.34          0          0          0          0          0          0        0.0        0.0        0.0       0.00       0.00       0.00          0          0          0          0          0          0        0.0        0.0        0.0       0.00       0.00       0.00       0.00       0.00       0.00       0.00       0.00       0.00       0.00       0.00       0.00      0.000      0.000      0.000        0.0        0.1        0.1        0.0        0.1        0.1       0.00  -66624.36  -66624.36        0.0        2.7        2.7        0.0        0.5        0.5        0.0       28.2       28.2        0.0       42.7       42.7
2/18/2016         180        200        160         20         40         10         27         40         12          0          0          0         77         87         63        0.0        0.0        0.0       52.0       57.2       48.2      29.78      29.97      29.55       0.00       0.00       0.00       44.8       46.6       42.7      29.78      29.97      29.55          0          0          0          0          0          0        0.0        0.0        0.0       0.00       0.00       0.00          0          0          0          0          0          0        0.0        0.0        0.0       0.00       0.00       0.00       0.00       0.00       0.00       0.00       0.00       0.00       0.00       0.00       0.00      0.000      0.000      0.000        0.0        0.1        0.1        0.0        0.0        0.0       0.00  -66767.16  -66767.16        0.0        2.8        2.8        0.0        0.5        0.5        0.0       28.3       28.3        0.0       42.7       42.7
2/19/2016         180        350          0         14         35          0         19         35          0          0          0          0         76         87         67        0.0        0.0        0.0       51.1       55.4       44.6      30.05      30.25      29.89       0.00       0.00       0.00       43.9       48.3       39.1      30.05      30.25      29.89          0          0          0          0          0          0        0.0        0.0        0.0       0.00       0.00       0.00          0          0          0          0          0          0        0.0        0.0        0.0       0.00       0.00       0.00       0.00       0.00       0.00       0.00       0.00       0.00       0.00       0.00       0.00      0.000      0.000      0.000        0.0        0.2        0.2        0.0        0.0        0.0       0.00  -66909.96  -66909.96        0.0        3.0        3.0        0.0        0.5        0.5        0.0       28.6       28.6        0.0       42.7       42.7
2/20/2016           0        360          0          4         12          0          6         12          0          0          0          0         64         87         36        0.0        0.0        0.0       49.9       64.4       39.2      30.21      30.27      30.13       0.00       0.00       0.00       37.0       39.3       33.9      30.21      30.27      30.13          0          0          0          0          0          0        0.0        0.0        0.0       0.00       0.00       0.00          0          0          0          0          0          0        0.0        0.0        0.0       0.00       0.00       0.00       0.00       0.00       0.00       0.00       0.00       0.00       0.00       0.00       0.00      0.000      0.000      0.000        0.0        0.2        0.2        0.0        0.0        0.0       0.00  -67048.68  -67048.68        0.0        3.2        3.2        0.0        0.5        0.5        0.0       28.8       28.8        0.0       42.7       42.7
2/21/2016         338        360          0          2          6          0          3          6          0          0          0          0         68         87         37        0.0        0.0        0.0       51.0       64.4       37.4      30.24      30.28      30.21       0.00       0.00       0.00       39.8       44.7       33.9      30.24      30.28      30.21          0          0          0          0          0          0        0.0        0.0        0.0       0.00       0.00       0.00          0          0          0          0          0          0        0.0        0.0        0.0       0.00       0.00       0.00       0.00       0.00       0.00       0.00       0.00       0.00       0.00       0.00       0.00      0.000      0.000      0.000        0.0        0.2        0.2        0.0        0.0        0.0       0.00  -67187.40  -67187.40        0.0        3.5        3.5        0.0        0.5        0.5        0.0       29.0       29.0        0.0       42.7       42.7
2/22/2016           0        360          0          6         13          0          8         13          0          0          0          0         46         81         14        0.0        0.0        0.0       56.1       71.6       44.6      30.21      30.29      30.12       0.00       0.00       0.00       32.1       41.0       19.9      30.21      30.29      30.12          0          0          0          0          0          0        0.0        0.0        0.0       0.00       0.00       0.00          0          0          0          0          0          0        0.0        0.0        0.0       0.00       0.00       0.00       0.00       0.00       0.00       0.00       0.00       0.00       0.00       0.00       0.00      0.000      0.000      0.000        0.0        0.2        0.2        0.0        0.0        0.0       0.00  -67328.16  -67328.16        0.0        3.7        3.7        0.0        0.5        0.5        0.0       29.2       29.2        0.0       42.7       42.7
2/23/2016         338        360          0          5         12          0          7         12          0          0          0          0         41         66         21        0.0        0.0        0.0       57.3       69.8       48.2      30.06      30.10      30.02       0.00       0.00       0.00       32.3       42.9       22.9      30.06      30.10      30.02          0          0          0          0          0          0        0.0        0.0        0.0       0.00       0.00       0.00          0          0          0          0          0          0        0.0        0.0        0.0       0.00       0.00       0.00       0.00       0.00       0.00       0.00       0.00       0.00       0.00       0.00       0.00      0.000      0.000      0.000        0.0        0.1        0.1        0.0        0.0        0.0       0.00  -67464.84  -67464.84        0.0        3.8        3.8        0.0        0.6        0.6        0.0       29.4       29.4        0.0       42.8       42.8
2/24/2016         338        340          0          2          6          0          3          6          0          0          0          0         76         81         71        0.0        0.0        0.0       44.9       46.4       42.8      30.13      30.15      30.11       0.00       0.00       0.00       37.7       39.3       37.4      30.13      30.15      30.11          0          0          0          0          0          0        0.0        0.0        0.0       0.00       0.00       0.00          0          0          0          0          0          0        0.0        0.0        0.0       0.00       0.00       0.00       0.00       0.00       0.00       0.00       0.00       0.00       0.00       0.00       0.00      0.000      0.000      0.000        0.0        0.0        0.0        0.0        0.0        0.0       0.00       0.00       0.00        0.0        0.0        0.0        0.0        0.0        0.0        0.0        0.0        0.0        0.0        0.0        0.0
3/3/2016          180        220          0          5         14          0          7         14          0          0          0          0         80         88         72        0.0        0.0        0.0       59.9       62.6       57.2      30.07      30.11      30.04       0.00       0.00       0.00       53.7       55.3       51.8      30.07      30.11      30.04          0          0          0          0          0          0        0.0        0.0        0.0       0.00       0.00       0.00          0          0          0          0          0          0        0.0        0.0        0.0       0.00       0.00       0.00       0.00       0.00       0.00       0.00       0.00       0.00       0.00       0.00       0.00      0.000      0.000      0.000        0.0        0.1        0.1        0.0        0.0        0.0       0.00  -67646.40  -67646.40        0.0        4.0        4.0        0.0        0.6        0.6        0.0       29.6       29.6        0.0       42.8       42.8
3/4/2016          180        360          0          8         23          0         10         23          0          0          0          0         86         94         77        0.0        0.0        0.0       58.1       62.6       55.4      29.94      30.04      29.80       0.00       0.00       0.00       53.9       55.3       51.8      29.94      30.04      29.80          0          0          0          0          0          0        0.0        0.0        0.0       0.00       0.00       0.00          0          0          0          0          0          0        0.0        0.0        0.0       0.00       0.00       0.00       0.00       0.00       0.00       0.00       0.00       0.00       0.00       0.00       0.00      0.000      0.000      0.000        0.0        0.0        0.0        0.0        0.0        0.0       0.00  -67744.32  -67744.32        0.0        0.0        0.0        0.0        0.0        0.0        0.0       29.6       29.6        0.0       42.8       42.8
3/5/2016          180        360          0         17         40          0         22         40          0          0          0          0         87        100         77        0.0        0.0        0.0       58.6       62.6       55.4      29.75      30.04      29.37       0.00       0.00       0.00       54.6       57.2       51.8      29.75      30.04      29.37          0          0          0          0          0          0        0.0        0.0        0.0       0.00       0.00       0.00          0          0          0          0          0          0        0.0        0.0        0.0       0.00       0.00       0.00       0.00       0.00       0.00       0.00       0.00       0.00       0.00       0.00       0.00      0.000      0.000      0.000        0.0        0.0        0.0        0.0        0.0        0.0       0.00  -67744.32  -67744.32        0.0        0.0        0.0        0.0        0.0        0.0        0.0       29.6       29.6        0.0       42.8       42.8
3/6/2016          180        320          0         15         37          3         21         37          4          0          0          0         74        100         51        0.0        0.0        0.0       52.3       57.2       46.4      29.75      29.86      29.57       0.00       0.00       0.00       43.9       53.6       37.5      29.75      29.86      29.57          0          0          0          0          0          0        0.0        0.0        0.0       0.00       0.00       0.00          0          0          0          0          0          0        0.0        0.0        0.0       0.00       0.00       0.00       0.00       0.00       0.00       0.00       0.00       0.00       0.00       0.00       0.00      0.000      0.000      0.000        0.0        0.2        0.2        0.0        0.0        0.0       0.00  -67950.36  -67950.36        0.0        0.2        0.2        0.0        0.0        0.0        0.0       29.8       29.8        0.0       42.8       42.8
3/7/2016            0        360          0          8         22          0         10         22          0          0          0          0         93        100         36        0.0        0.0        0.0       46.9       60.8       42.8      29.77      29.84      29.73       0.00       0.00       0.00       44.8       55.4       33.7      29.77      29.84      29.73          0          0          0          0          0          0        0.0        0.0        0.0       0.00       0.00       0.00          0          0          0          0          0          0        0.0        0.0        0.0       0.00       0.00       0.00       0.00       0.00       0.00       0.00       0.00       0.00       0.00       0.00       0.00      0.000      0.000      0.000        0.0        0.0        0.0        0.0        0.0        0.0       0.00       0.00       0.00        0.0        0.0        0.0        0.0        0.0        0.0        0.0        0.0        0.0        0.0        0.0        0.0
3/8/2016            0        360          0          6         22          0          9         22          0          0          0          0         79        100         36        0.0        0.0        0.0       49.0       60.8       42.8      29.91      30.12      29.73       0.00       0.00       0.00       42.0       55.4       33.7      29.91      30.12      29.73          0          0          0          0          0          0        0.0        0.0        0.0       0.00       0.00       0.00          0          0          0          0          0          0        0.0        0.0        0.0       0.00       0.00       0.00       0.00       0.00       0.00       0.00       0.00       0.00       0.00       0.00       0.00      0.000      0.000      0.000        0.0        0.0        0.0        0.0        0.0        0.0       0.00       0.00       0.00        0.0        0.0        0.0        0.0        0.0        0.0        0.0        0.0        0.0        0.0        0.0        0.0
3/9/2016          202        360          0          5         32          0          8         32          0          0          0          0         87         93         81        0.0        0.0        0.0       50.1       59.0       46.4      30.04      30.09      29.91       0.00       0.00       0.00       46.5       53.5       42.7      30.04      30.09      29.91          0          0          0          0          0          0        0.0        0.0        0.0       0.00       0.00       0.00          0          0          0          0          0          0        0.0        0.0        0.0       0.00       0.00       0.00       0.00       0.00       0.00       0.00       0.00       0.00       0.00       0.00       0.00      0.000      0.000      0.000        0.0        0.3        0.3        0.0        0.0        0.0       0.00  -68225.76  -68225.76        0.0        0.7        0.7        0.0        0.0        0.0        0.0       30.2       30.2        0.0       42.8       42.8
3/10/2016         180        200        160         19         35          6         26         35          7          0          0          0         86        100         77        0.0        0.0        0.0       56.2       60.8       53.6      29.93      29.98      29.87       0.00       0.00       0.00       51.9       55.4       48.3      29.93      29.98      29.87          0          0          0          0          0          0        0.0        0.0        0.0       0.00       0.00       0.00          0          0          0          0          0          0        0.0        0.0        0.0       0.00       0.00       0.00       0.00       0.00       0.00       0.00       0.00       0.00       0.00       0.00       0.00      0.000      0.000      0.000        0.0        0.0        0.0        0.0        0.0        0.0       0.00       0.00       0.00        0.0        0.0        0.0        0.0        0.0        0.0        0.0        0.0        0.0        0.0        0.0        0.0
3/11/2016         180        200        140         16         35          4         22         35          5          0          0          0         83        100         77        0.0        0.0        0.0       54.7       60.8       50.0      29.86      29.98      29.70       0.00       0.00       0.00       49.7       55.4       44.7      29.86      29.98      29.70          0          0          0          0          0          0        0.0        0.0        0.0       0.00       0.00       0.00          0          0          0          0          0          0        0.0        0.0        0.0       0.00       0.00       0.00       0.00       0.00       0.00       0.00       0.00       0.00       0.00       0.00       0.00      0.000      0.000      0.000        0.0        0.0        0.0        0.0        0.0        0.0       0.00       0.00       0.00        0.0        0.0        0.0        0.0        0.0        0.0        0.0        0.0        0.0        0.0        0.0        0.0
3/12/2016         180        280        160         15         35          4         20         35          5          0          0          0         87         94         76        0.0        0.0        0.0       50.4       53.6       48.2      29.95      29.99      29.90       0.00       0.00       0.00       46.6       48.3       42.7      29.95      29.99      29.90          0          0          0          0          0          0        0.0        0.0        0.0       0.00       0.00       0.00          0          0          0          0          0          0        0.0        0.0        0.0       0.00       0.00       0.00       0.00       0.00       0.00       0.00       0.00       0.00       0.00       0.00       0.00      0.000      0.000      0.000        0.0        0.3        0.3        0.0        0.0        0.0       0.00  -68558.28  -68558.28        0.0        1.2        1.2        0.0        0.0        0.0        0.0       30.8       30.8        0.0       42.8       42.8
3/13/2016         180        280        160         17         38          4         22         38          5          0          0          0         87         94         76        0.0        0.0        0.0       51.7       55.4       48.2      29.91      29.99      29.76       0.00       0.00       0.00       47.8       51.9       42.7      29.91      29.99      29.76          0          0          0          0          0          0        0.0        0.0        0.0       0.00       0.00       0.00          0          0          0          0          0          0        0.0        0.0        0.0       0.00       0.00       0.00       0.00       0.00       0.00       0.00       0.00       0.00       0.00       0.00       0.00      0.000      0.000      0.000        0.0        0.0        0.0        0.0        0.0        0.0       0.00       0.00       0.00        0.0        0.0        0.0        0.0        0.0        0.0        0.0        0.0        0.0        0.0        0.0        0.0
3/14/2016         202        310          0          7         19          0         11         19          0          0          0          0         52         82         32        0.0        0.0        0.0       54.5       62.6       46.4      30.11      30.26      29.88       0.00       0.00       0.00       36.5       46.5       32.4      30.11      30.26      29.88          0          0          0          0          0          0        0.0        0.0        0.0       0.00       0.00       0.00          0          0          0          0          0          0        0.0        0.0        0.0       0.00       0.00       0.00       0.00       0.00       0.00       0.00       0.00       0.00       0.00       0.00       0.00      0.000      0.000      0.000        0.0        0.0        0.0        0.0        0.0        0.0       0.00       0.00       0.00        0.0        0.0        0.0        0.0        0.0        0.0        0.0        0.0        0.0        0.0        0.0        0.0
3/15/2016           0        360          0          2          6          0          4          6          0          0          0          0         72         81         42        0.0        0.0        0.0       46.2       60.8       42.8      30.26      30.28      30.25       0.00       0.00       0.00       37.3       37.6       35.4      30.26      30.28      30.25          0          0          0          0          0          0        0.0        0.0        0.0       0.00       0.00       0.00          0          0          0          0          0          0        0.0        0.0        0.0       0.00       0.00       0.00       0.00       0.00       0.00       0.00       0.00       0.00       0.00       0.00       0.00      0.000      0.000      0.000        0.0        0.0        0.0        0.0        0.0        0.0       0.00       0.00       0.00        0.0        0.0        0.0        0.0        0.0        0.0        0.0        0.0        0.0        0.0        0.0        0.0
3/16/2016           0        360          0          7         14          0          9         14          0          0          0          0         49         81         26        0.0        0.0        0.0       60.3       77.0       42.8      30.13      30.28      29.98       0.00       0.00       0.00       38.3       42.5       35.4      30.13      30.28      29.98          0          0          0          0          0          0        0.0        0.0        0.0       0.00       0.00       0.00          0          0          0          0          0          0        0.0        0.0        0.0       0.00       0.00       0.00       0.00       0.00       0.00       0.00       0.00       0.00       0.00       0.00       0.00      0.000      0.000      0.000        0.0        0.0        0.0        0.0        0.0        0.0       0.00       0.00       0.00        0.0        0.0        0.0        0.0        0.0        0.0        0.0        0.0        0.0        0.0        0.0        0.0
3/17/2016           0        360          0          7         19          0         10         19          0          0          0          0         46         81         21        0.0        0.0        0.0       63.4       80.6       42.8      30.04      30.28      29.86       0.00       0.00       0.00       39.7       48.1       35.4      30.04      30.28      29.86          0          0          0          0          0          0        0.0        0.0        0.0       0.00       0.00       0.00          0          0          0          0          0          0        0.0        0.0        0.0       0.00       0.00       0.00       0.00       0.00       0.00       0.00       0.00       0.00       0.00       0.00       0.00      0.000      0.000      0.000        0.0        0.0        0.0        0.0        0.0        0.0       0.00       0.00       0.00        0.0        0.0        0.0        0.0        0.0        0.0        0.0        0.0        0.0        0.0        0.0        0.0
3/18/2016         338        350          0          3         12          0          5         12          0          0          0          0         63         82         40        0.0        0.0        0.0       61.0       75.2       46.4      29.94      29.97      29.90       0.00       0.00       0.00       47.5       53.6       40.9      29.94      29.97      29.90          0          0          0          0          0          0        0.0        0.0        0.0       0.00       0.00       0.00          0          0          0          0          0          0        0.0        0.0        0.0       0.00       0.00       0.00       0.00       0.00       0.00       0.00       0.00       0.00       0.00       0.00       0.00      0.000      0.000      0.000        0.0        0.2        0.2        0.0        0.2        0.2       0.00  -69188.64  -69188.64        0.0        1.9        1.9        0.0        0.2        0.2        0.0       31.5       31.5        0.0       43.0       43.0
3/19/2016         225        320          0          3         13          0          5         13          0          0          0          0         68         88         43        0.0        0.0        0.0       63.5       71.6       53.6      29.97      30.03      29.93       0.00       0.00       0.00       52.2       55.3       47.9      29.97      30.03      29.93          0          0          0          0          0          0        0.0        0.0        0.0       0.00       0.00       0.00          0          0          0          0          0          0        0.0        0.0        0.0       0.00       0.00       0.00       0.00       0.00       0.00       0.00       0.00       0.00       0.00       0.00       0.00      0.000      0.000      0.000        0.0        0.0        0.0        0.0        0.0        0.0       0.00       0.00       0.00        0.0        0.0        0.0        0.0        0.0        0.0        0.0        0.0        0.0        0.0        0.0        0.0
3/20/2016         180        290          0          9         17          0         12         17          0          0          0          0         80         88         67        0.0        0.0        0.0       58.8       62.6       53.6      29.95      29.99      29.90       0.00       0.00       0.00       52.7       55.5       48.1      29.95      29.99      29.90          0          0          0          0          0          0        0.0        0.0        0.0       0.00       0.00       0.00          0          0          0          0          0          0        0.0        0.0        0.0       0.00       0.00       0.00       0.00       0.00       0.00       0.00       0.00       0.00       0.00       0.00       0.00      0.000      0.000      0.000        0.0        0.0        0.0        0.0        0.0        0.0       0.00  -69459.96  -69459.96        0.0        2.1        2.1        0.0        0.3        0.3        0.0       31.6       31.6        0.0       43.1       43.1
3/21/2016         225        330          0         10         31          0         14         31          0          0          0          0         75        100         47        0.0        0.0        0.0       53.0       59.0       46.4      29.94      30.01      29.88       0.00       0.00       0.00       44.6       55.4       37.2      29.94      30.01      29.88          0          0          0          0          0          0        0.0        0.0        0.0       0.00       0.00       0.00          0          0          0          0          0          0        0.0        0.0        0.0       0.00       0.00       0.00       0.00       0.00       0.00       0.00       0.00       0.00       0.00       0.00       0.00      0.000      0.000      0.000        0.0        0.1        0.1        0.0        0.0        0.0       0.00  -69604.80  -69604.80        0.0        2.2        2.2        0.0        0.3        0.3        0.0       31.7       31.7        0.0       43.1       43.1
3/22/2016           0        360          0          3         10          0          5         10          0          0          0          0         66         87         42        0.0        0.0        0.0       51.9       62.6       42.8      30.17      30.27      30.03       0.00       0.00       0.00       39.9       43.0       35.5      30.17      30.27      30.03          0          0          0          0          0          0        0.0        0.0        0.0       0.00       0.00       0.00          0          0          0          0          0          0        0.0        0.0        0.0       0.00       0.00       0.00       0.00       0.00       0.00       0.00       0.00       0.00       0.00       0.00       0.00      0.000      0.000      0.000        0.0        0.2        0.2        0.0        0.0        0.0       0.00  -69749.64  -69749.64        0.0        2.3        2.3        0.0        0.3        0.3        0.0       31.9       31.9        0.0       43.1       43.1
3/23/2016           0        360          0          3         13          0          6         13          0          0          0          0         57         87         28        0.0        0.0        0.0       56.0       69.8       42.8      30.27      30.32      30.23       0.00       0.00       0.00       39.2       44.5       33.7      30.27      30.32      30.23          0          0          0          0          0          0        0.0        0.0        0.0       0.00       0.00       0.00          0          0          0          0          0          0        0.0        0.0        0.0       0.00       0.00       0.00       0.00       0.00       0.00       0.00       0.00       0.00       0.00       0.00       0.00      0.000      0.000      0.000        0.0        0.2        0.2        0.0        0.0        0.0       0.00  -69894.48  -69894.48        0.0        2.5        2.5        0.0        0.3        0.3        0.0       32.1       32.1        0.0       43.1       43.1
3/24/2016         315        360          0          1          6          0          2          6          0          0          0          0         74         87         49        0.0        0.0        0.0       53.3       66.2       46.4      30.20      30.26      30.09       0.00       0.00       0.00       44.9       48.3       40.9      30.20      30.26      30.09          0          0          0          0          0          0        0.0        0.0        0.0       0.00       0.00       0.00          0          0          0          0          0          0        0.0        0.0        0.0       0.00       0.00       0.00       0.00       0.00       0.00       0.00       0.00       0.00       0.00       0.00       0.00      0.000      0.000      0.000        0.0        0.0        0.0        0.0        0.0        0.0       0.00       0.00       0.00        0.0        0.0        0.0        0.0        0.0        0.0        0.0        0.0        0.0        0.0        0.0        0.0
3/25/2016           0        360          0          4         13          0          7         13          0          0          0          0         47         87         20        0.0        0.0        0.0       61.2       73.4       44.6      30.03      30.12      29.93       0.00       0.00       0.00       36.7       46.6       29.9      30.03      30.12      29.93          0          0          0          0          0          0        0.0        0.0        0.0       0.00       0.00       0.00          0          0          0          0          0          0        0.0        0.0        0.0       0.00       0.00       0.00       0.00       0.00       0.00       0.00       0.00       0.00       0.00       0.00       0.00      0.000      0.000      0.000        0.0        0.1        0.1        0.0        0.0        0.0       0.00  -70125.00  -70125.00        0.0        2.8        2.8        0.0        0.3        0.3        0.0       32.4       32.4        0.0       43.1       43.1
3/26/2016         338        360          0          6         13          0          8         13          0          0          0          0         38         72         20        0.0        0.0        0.0       62.8       73.4       53.6      29.96      30.02      29.89       0.00       0.00       0.00       35.0       46.5       26.8      29.96      30.02      29.89          0          0          0          0          0          0        0.0        0.0        0.0       0.00       0.00       0.00          0          0          0          0          0          0        0.0        0.0        0.0       0.00       0.00       0.00       0.00       0.00       0.00       0.00       0.00       0.00       0.00       0.00       0.00      0.000      0.000      0.000        0.0        0.1        0.1        0.0        0.1        0.1       0.00  -70267.80  -70267.80        0.0        2.9        2.9        0.0        0.3        0.3        0.0       32.4       32.4        0.0       43.1       43.1
3/27/2016         292        330          0          4         13          0          6         13          0          0          0          0         54         87         19        0.0        0.0        0.0       58.6       71.6       44.6      29.98      30.05      29.92       0.00       0.00       0.00       39.3       46.6       26.3      29.98      30.05      29.92          0          0          0          0          0          0        0.0        0.0        0.0       0.00       0.00       0.00          0          0          0          0          0          0        0.0        0.0        0.0       0.00       0.00       0.00       0.00       0.00       0.00       0.00       0.00       0.00       0.00       0.00       0.00      0.000      0.000      0.000        0.0        0.1        0.1        0.0        0.1        0.1       0.00  -70408.56  -70408.56        0.0        3.0        3.0        0.0        0.4        0.4        0.0       32.5       32.5        0.0       43.2       43.2
3/28/2016           0        360        310         12         23          3         16         23          4          0          0          0         31         50         19        0.0        0.0        0.0       56.1       64.4       48.2      29.92      29.97      29.86       0.00       0.00       0.00       25.1       30.5       21.0      29.92      29.97      29.86          0          0          0          0          0          0        0.0        0.0        0.0       0.00       0.00       0.00          0          0          0          0          0          0        0.0        0.0        0.0       0.00       0.00       0.00       0.00       0.00       0.00       0.00       0.00       0.00       0.00       0.00       0.00      0.000      0.000      0.000        0.0        0.1        0.1        0.0        0.0        0.0       0.00  -70553.40  -70553.40        0.0        3.1        3.1        0.0        0.4        0.4        0.0       32.6       32.6        0.0       43.2       43.2
3/29/2016           0        360          0          5         16          0          8         16          0          0          0          0         37         58         24        0.0        0.0        0.0       57.6       66.2       46.4      29.86      29.93      29.79       0.00       0.00       0.00       30.3       39.3       26.4      29.86      29.93      29.79          0          0          0          0          0          0        0.0        0.0        0.0       0.00       0.00       0.00          0          0          0          0          0          0        0.0        0.0        0.0       0.00       0.00       0.00       0.00       0.00       0.00       0.00       0.00       0.00       0.00       0.00       0.00      0.000      0.000      0.000        0.0        0.1        0.1        0.0        0.0        0.0       0.00  -70698.24  -70698.24        0.0        3.2        3.2        0.0        0.4        0.4        0.0       32.7       32.7        0.0       43.2       43.2
3/30/2016           0        360          0          4         11          0          6         11          0          0          0          0         50         76         22        0.0        0.0        0.0       59.5       75.2       44.6      29.94      30.02      29.88       0.00       0.00       0.00       38.4       43.1       33.8      29.94      30.02      29.88          0          0          0          0          0          0        0.0        0.0        0.0       0.00       0.00       0.00          0          0          0          0          0          0        0.0        0.0        0.0       0.00       0.00       0.00       0.00       0.00       0.00       0.00       0.00       0.00       0.00       0.00       0.00      0.000      0.000      0.000        0.0        0.1        0.1        0.0        0.0        0.0       0.00  -70841.04  -70841.04        0.0        3.3        3.3        0.0        0.4        0.4        0.0       32.8       32.8        0.0       43.2       43.2
3/31/2016         180        360          0          3         10          0          4         10          0          0          0          0         62         81         36        0.0        0.0        0.0       59.3       75.2       44.6      30.04      30.09      29.96       0.00       0.00       0.00       45.0       50.2       39.1      30.04      30.09      29.96          0          0          0          0          0          0        0.0        0.0        0.0       0.00       0.00       0.00          0          0          0          0          0          0        0.0        0.0        0.0       0.00       0.00       0.00       0.00       0.00       0.00       0.00       0.00       0.00       0.00       0.00       0.00      0.000      0.000      0.000        0.0        0.1        0.1        0.0        0.1        0.1       0.00  -70979.76  -70979.76        0.0        3.4        3.4        0.0        0.5        0.5        0.0       33.0       33.0        0.0       43.3       43.3
4/1/2016          180        320          0          4         14          0          6         14          0          0          0          0         67         87         41        0.0        0.0        0.0       62.5       75.2       50.0      30.09      30.14      30.05       0.00       0.00       0.00       50.4       55.3       44.7      30.09      30.14      30.05          0          0          0          0          0          0        0.0        0.0        0.0       0.00       0.00       0.00          0          0          0          0          0          0        0.0        0.0        0.0       0.00       0.00       0.00       0.00       0.00       0.00       0.00       0.00       0.00       0.00       0.00       0.00      0.000      0.000      0.000        0.0        0.1        0.1        0.0        0.0        0.0       0.00  -71120.52  -71120.52        0.0        3.5        3.5        0.0        0.5        0.5        0.0       33.1       33.1        0.0       43.3       43.3
4/2/2016            0        300          0          2         11          0          4         11          0          0          0          0         68         88         41        0.0        0.0        0.0       63.7       77.0       50.0      30.12      30.19      30.04       0.00       0.00       0.00       52.1       55.6       46.3      30.12      30.19      30.04          0          0          0          0          0          0        0.0        0.0        0.0       0.00       0.00       0.00          0          0          0          0          0          0        0.0        0.0        0.0       0.00       0.00       0.00       0.00       0.00       0.00       0.00       0.00       0.00       0.00       0.00       0.00      0.000      0.000      0.000        0.0        0.1        0.1        0.0        0.1        0.1       0.00  -71263.32  -71263.32        0.0        0.1        0.1        0.0        0.1        0.1        0.0       33.2       33.2        0.0       43.4       43.4
4/3/2016            0        360          0          3         13          0          5         13          0          0          0          0         61         82         32        0.0        0.0        0.0       66.8       78.8       53.6      30.05      30.09      29.98       0.00       0.00       0.00       51.6       53.7       46.5      30.05      30.09      29.98          0          0          0          0          0          0        0.0        0.0        0.0       0.00       0.00       0.00          0          0          0          0          0          0        0.0        0.0        0.0       0.00       0.00       0.00       0.00       0.00       0.00       0.00       0.00       0.00       0.00       0.00       0.00      0.000      0.000      0.000        0.0        0.1        0.1        0.0        0.1        0.1       0.00  -71402.04  -71402.04        0.0        0.1        0.1        0.0        0.1        0.1        0.0       33.2       33.2        0.0       43.4       43.4
4/4/2016            0        350          0          4         16          0          5         16          0          0          0          0         41         82         19        0.0        0.0        0.0       66.0       75.2       51.8      30.17      30.23      30.08       0.00       0.00       0.00       38.6       52.0       30.1      30.17      30.23      30.08          0          0          0          0          0          0        0.0        0.0        0.0       0.00       0.00       0.00          0          0          0          0          0          0        0.0        0.0        0.0       0.00       0.00       0.00       0.00       0.00       0.00       0.00       0.00       0.00       0.00       0.00       0.00      0.000      0.000      0.000        0.0        0.0        0.0        0.0        0.1        0.1       0.00  -71544.84  -71544.84        0.0        0.2        0.2        0.0        0.2        0.2        0.0       33.3       33.3        0.0       43.5       43.5
4/5/2016            0        360         10         13         24          6         18         24          7          0          0          0         25         33         18        0.0        0.0        0.0       71.2       84.2       59.0      30.23      30.32      30.13       0.00       0.00       0.00       33.1       37.9       28.4      30.23      30.32      30.13          0          0          0          0          0          0        0.0        0.0        0.0       0.00       0.00       0.00          0          0          0          0          0          0        0.0        0.0        0.0       0.00       0.00       0.00       0.00       0.00       0.00       0.00       0.00       0.00       0.00       0.00       0.00      0.000      0.000      0.000        0.0        0.0        0.0        0.0        0.1        0.1       0.00  -71687.64  -71687.64        0.0        0.2        0.2        0.0        0.3        0.3        0.0       33.3       33.3        0.0       43.6       43.6
4/6/2016            0        360          0          6         13          0          9         13          0          0          0          0         29         72         14        0.0        0.0        0.0       77.7       91.4       60.8      30.10      30.20      29.95       0.00       0.00       0.00       40.0       53.7       33.4      30.10      30.20      29.95          0          0          0          0          0          0        0.0        0.0        0.0       0.00       0.00       0.00          0          0          0          0          0          0        0.0        0.0        0.0       0.00       0.00       0.00       0.00       0.00       0.00       0.00       0.00       0.00       0.00       0.00       0.00      0.000      0.000      0.000        0.0        0.0        0.0        0.0        0.1        0.1       0.00  -71828.40  -71828.40        0.0        0.2        0.2        0.0        0.5        0.5        0.0       33.3       33.3        0.0       43.8       43.8
4/7/2016          180        360          0          6         25          0          8         25          0          0          0          0         50         82         19        0.0        0.0        0.0       71.6       91.4       51.8      29.86      29.97      29.72       0.00       0.00       0.00       48.5       55.2       42.8      29.86      29.97      29.72          0          0          0          0          0          0        0.0        0.0        0.0       0.00       0.00       0.00          0          0          0          0          0          0        0.0        0.0        0.0       0.00       0.00       0.00       0.00       0.00       0.00       0.00       0.00       0.00       0.00       0.00       0.00      0.000      0.000      0.000        0.0        0.0        0.0        0.0        0.2        0.2       0.00  -71967.12  -71967.12        0.0        0.2        0.2        0.0        0.7        0.7        0.0       33.3       33.3        0.0       44.0       44.0
4/8/2016          135        280          0          3         11          0          5         11          0          0          0          0         56         82         30        0.0        0.0        0.0       67.6       80.6       53.6      29.83      29.90      29.74       0.00       0.00       0.00       49.7       53.7       44.8      29.83      29.90      29.74          0          0          0          0          0          0        0.0        0.0        0.0       0.00       0.00       0.00          0          0          0          0          0          0        0.0        0.0        0.0       0.00       0.00       0.00       0.00       0.00       0.00       0.00       0.00       0.00       0.00       0.00       0.00      0.000      0.000      0.000        0.0        0.0        0.0        0.0        0.2        0.2       0.00  -72105.84  -72105.84        0.0        0.3        0.3        0.0        0.9        0.9        0.0       33.3       33.3        0.0       44.2       44.2
4/9/2016          180        220          0          7         16          0          9         16          0          0          0          0         77         88         64        0.0        0.0        0.0       62.5       68.0       59.0      29.85      29.88      29.82       0.00       0.00       0.00       55.2       55.6       53.5      29.85      29.88      29.82          0          0          0          0          0          0        0.0        0.0        0.0       0.00       0.00       0.00          0          0          0          0          0          0        0.0        0.0        0.0       0.00       0.00       0.00       0.00       0.00       0.00       0.00       0.00       0.00       0.00       0.00       0.00      0.000      0.000      0.000        0.0        0.0        0.0        0.0        0.1        0.1       0.00  -72250.68  -72250.68        0.0        0.3        0.3        0.0        1.0        1.0        0.0       33.4       33.4        0.0       44.3       44.3
4/10/2016         202        210          0          3          7          0          5          7          0          0          0          0         83         94         64        0.0        0.0        0.0       60.9       66.2       57.2      29.87      29.96      29.84       0.00       0.00       0.00       55.4       57.2       53.7      29.87      29.96      29.84          0          0          0          0          0          0        0.0        0.0        0.0       0.00       0.00       0.00          0          0          0          0          0          0        0.0        0.0        0.0       0.00       0.00       0.00       0.00       0.00       0.00       0.00       0.00       0.00       0.00       0.00       0.00      0.000      0.000      0.000        0.0        0.0        0.0        0.0        0.0        0.0       0.00  -72389.40  -72389.40        0.0        0.3        0.3        0.0        1.0        1.0        0.0       33.4       33.4        0.0       44.3       44.3
4/11/2016         180        210          0          3         11          0          4         11          0          0          0          0         74         88         57        0.0        0.0        0.0       64.8       71.6       59.0      30.04      30.08      29.97       0.00       0.00       0.00       55.8       59.1       53.5      30.04      30.08      29.97          0          0          0          0          0          0        0.0        0.0        0.0       0.00       0.00       0.00          0          0          0          0          0          0        0.0        0.0        0.0       0.00       0.00       0.00       0.00       0.00       0.00       0.00       0.00       0.00       0.00       0.00       0.00      0.000      0.000      0.000        0.0        0.1        0.1        0.0        0.0        0.0       0.00  -72532.20  -72532.20        0.0        0.4        0.4        0.0        1.0        1.0        0.0       33.5       33.5        0.0       44.3       44.3
4/12/2016         180        340          0          5         13          0          7         13          0          0          0          0         71         82         56        0.0        0.0        0.0       62.8       69.8       55.4      30.11      30.16      30.08       0.00       0.00       0.00       53.0       55.6       44.6      30.11      30.16      30.08          0          0          0          0          0          0        0.0        0.0        0.0       0.00       0.00       0.00          0          0          0          0          0          0        0.0        0.0        0.0       0.00       0.00       0.00       0.00       0.00       0.00       0.00       0.00       0.00       0.00       0.00       0.00      0.000      0.000      0.000        0.0        0.0        0.0        0.0        0.0        0.0       0.00  -72675.00  -72675.00        0.0        0.4        0.4        0.0        1.1        1.1        0.0       33.5       33.5        0.0       44.4       44.4
4/13/2016         180        330          0          8         24          0         11         24          0          0          0          0         59         87         21        0.0        0.0        0.0       59.1       69.8       48.2      30.04      30.16      29.84       0.00       0.00       0.00       43.0       46.6       25.1      30.04      30.16      29.84          0          0          0          0          0          0        0.0        0.0        0.0       0.00       0.00       0.00          0          0          0          0          0          0        0.0        0.0        0.0       0.00       0.00       0.00       0.00       0.00       0.00       0.00       0.00       0.00       0.00       0.00       0.00      0.000      0.000      0.000        0.0        0.0        0.0        0.0        0.0        0.0       0.00  -72813.72  -72813.72        0.0        0.4        0.4        0.0        1.1        1.1        0.0       33.5       33.5        0.0       44.4       44.4
4/14/2016         202        320          0          5         14          0          7         14          0          0          0          0         68         87         36        0.0        0.0        0.0       52.1       64.4       42.8      30.05      30.12      29.98       0.00       0.00       0.00       41.2       48.2       33.7      30.05      30.12      29.98          0          0          0          0          0          0        0.0        0.0        0.0       0.00       0.00       0.00          0          0          0          0          0          0        0.0        0.0        0.0       0.00       0.00       0.00       0.00       0.00       0.00       0.00       0.00       0.00       0.00       0.00       0.00      0.000      0.000      0.000        0.0        0.1        0.1        0.0        0.0        0.0       0.00  -72956.52  -72956.52        0.0        0.5        0.5        0.0        1.1        1.1        0.0       33.6       33.6        0.0       44.4       44.4
4/15/2016           0        360          0          7         16          0         10         16          0          0          0          0         47         81         21        0.0        0.0        0.0       59.0       75.2       42.8      30.16      30.21      30.11       0.00       0.00       0.00       35.8       42.6       32.3      30.16      30.21      30.11          0          0          0          0          0          0        0.0        0.0        0.0       0.00       0.00       0.00          0          0          0          0          0          0        0.0        0.0        0.0       0.00       0.00       0.00       0.00       0.00       0.00       0.00       0.00       0.00       0.00       0.00       0.00      0.000      0.000      0.000        0.0        0.2        0.2        0.0        0.0        0.0       0.00  -73085.04  -73085.04        0.0        0.7        0.7        0.0        1.1        1.1        0.0       33.8       33.8        0.0       44.4       44.4
4/16/2016         338        360          0          4         10          0          5         10          0          0          0          0         60         71         48        0.0        0.0        0.0       53.3       59.0       50.0      30.17      30.18      30.16       0.00       0.00       0.00       39.5       41.0       39.1      30.17      30.18      30.16          0          0          0          0          0          0        0.0        0.0        0.0       0.00       0.00       0.00          0          0          0          0          0          0        0.0        0.0        0.0       0.00       0.00       0.00       0.00       0.00       0.00       0.00       0.00       0.00       0.00       0.00       0.00      0.000      0.000      0.000        0.0        0.0        0.0        0.0        0.0        0.0       0.00       0.00       0.00        0.0        0.0        0.0        0.0        0.0        0.0        0.0        0.0        0.0        0.0        0.0        0.0
4/18/2016         338        360          0          3         10          0          5         10          0          0          0          0         47         72         19        0.0        0.0        0.0       69.2       87.8       50.0      30.06      30.18      29.97       0.00       0.00       0.00       45.3       53.6       39.0      30.06      30.18      29.97          0          0          0          0          0          0        0.0        0.0        0.0       0.00       0.00       0.00          0          0          0          0          0          0        0.0        0.0        0.0       0.00       0.00       0.00       0.00       0.00       0.00       0.00       0.00       0.00       0.00       0.00       0.00      0.000      0.000      0.000        0.0        0.0        0.0        0.0        0.0        0.0       0.00       0.00       0.00        0.0        0.0        0.0        0.0        0.0        0.0        0.0        0.0        0.0        0.0        0.0        0.0
4/19/2016           0        360          0          3         12          0          5         12          0          0          0          0         49         77         22        0.0        0.0        0.0       71.8       87.8       55.4      29.92      30.02      29.83       0.00       0.00       0.00       49.5       55.3       44.3      29.92      30.02      29.83          0          0          0          0          0          0        0.0        0.0        0.0       0.00       0.00       0.00          0          0          0          0          0          0        0.0        0.0        0.0       0.00       0.00       0.00       0.00       0.00       0.00       0.00       0.00       0.00       0.00       0.00       0.00      0.000      0.000      0.000        0.0        0.1        0.1        0.0        0.2        0.2       0.00  -73384.92  -73384.92        0.0        0.9        0.9        0.0        1.3        1.3        0.0       34.0       34.0        0.0       44.6       44.6
4/20/2016         180        340          0          5         17          0          7         17          0          0          0          0         45         88         15        0.0        0.0        0.0       68.6       82.4       55.4      29.87      29.93      29.83       0.00       0.00       0.00       41.4       52.0       28.7      29.87      29.93      29.83          0          0          0          0          0          0        0.0        0.0        0.0       0.00       0.00       0.00          0          0          0          0          0          0        0.0        0.0        0.0       0.00       0.00       0.00       0.00       0.00       0.00       0.00       0.00       0.00       0.00       0.00       0.00      0.000      0.000      0.000        0.0        0.0        0.0        0.0        0.2        0.2       0.00  -73523.64  -73523.64        0.0        0.9        0.9        0.0        1.5        1.5        0.0       34.0       34.0        0.0       44.8       44.8
4/21/2016         180        360          0          8         28          0         12         28          0          0          0          0         54         82         36        0.0        0.0        0.0       64.0       77.0       50.0      29.81      29.89      29.72       0.00       0.00       0.00       46.2       50.2       39.3      29.81      29.89      29.72          0          0          0          0          0          0        0.0        0.0        0.0       0.00       0.00       0.00          0          0          0          0          0          0        0.0        0.0        0.0       0.00       0.00       0.00       0.00       0.00       0.00       0.00       0.00       0.00       0.00       0.00       0.00      0.000      0.000      0.000        0.0        0.0        0.0        0.0        0.1        0.1       0.00  -73666.44  -73666.44        0.0        1.0        1.0        0.0        1.6        1.6        0.0       34.0       34.0        0.0       44.9       44.9
4/22/2016         158        340          0          8         28          0         12         28          0          0          0          0         83         94         55        0.0        0.0        0.0       54.3       62.6       51.8      29.78      30.02      29.69       0.01       0.00       0.00       49.1       53.7       46.2      29.78      30.02      29.69          0          0          0          0          0          0        0.0        0.0        0.0       0.00       0.00       0.00          0          0          0          0          0          0        0.0        0.0        0.0       0.00       0.00       0.00       0.00       0.00       0.00       0.00       0.00       0.00       0.00       0.00       0.00      0.000      0.000      0.000        0.0        0.1        0.1        0.0        0.1        0.1       0.00  -73803.12  -73803.12        0.0        1.0        1.0        0.0        1.6        1.6        0.0       34.1       34.1        0.0       45.0       45.0
4/23/2016           0        310          0          2          6          0          3          6          0          0          0          0         76         93         46        0.0        0.0        0.0       55.2       66.2       46.4      30.13      30.20      30.05       0.00       0.00       0.00       46.9       53.6       44.5      30.13      30.20      30.05          0          0          0          0          0          0        0.0        0.0        0.0       0.00       0.00       0.00          0          0          0          0          0          0        0.0        0.0        0.0       0.00       0.00       0.00       0.00       0.00       0.00       0.00       0.00       0.00       0.00       0.00       0.00      0.000      0.000      0.000        0.0        0.2        0.2        0.0        0.0        0.0       0.00  -73931.64  -73931.64        0.0        1.2        1.2        0.0        1.6        1.6        0.0       34.3       34.3        0.0       45.0       45.0
4/24/2016         315        360          0          7         17          0         10         17          0          0          0          0         51         94         25        0.0        0.0        0.0       60.8       71.6       50.0      29.99      30.07      29.89       0.00       0.00       0.00       39.9       51.9       32.1      29.99      30.07      29.89          0          0          0          0          0          0        0.0        0.0        0.0       0.00       0.00       0.00          0          0          0          0          0          0        0.0        0.0        0.0       0.00       0.00       0.00       0.00       0.00       0.00       0.00       0.00       0.00       0.00       0.00       0.00      0.000      0.000      0.000        0.0        0.2        0.2        0.0        0.0        0.0       0.00  -74078.52  -74078.52        0.0        1.4        1.4        0.0        1.7        1.7        0.0       34.5       34.5        0.0       45.0       45.0
4/25/2016           0        360         10         10         22          5         14         22          6          0          0          0         33         57         13        0.0        0.0        0.0       58.9       71.6       44.6      30.01      30.05      29.95       0.00       0.00       0.00       27.2       34.0       18.2      30.01      30.05      29.95          0          0          0          0          0          0        0.0        0.0        0.0       0.00       0.00       0.00          0          0          0          0          0          0        0.0        0.0        0.0       0.00       0.00       0.00       0.00       0.00       0.00       0.00       0.00       0.00       0.00       0.00       0.00      0.000      0.000      0.000        0.0        0.1        0.1        0.0        0.0        0.0       0.00  -74219.28  -74219.28        0.0        1.5        1.5        0.0        1.7        1.7        0.0       34.6       34.6        0.0       45.0       45.0
4/26/2016         338        350          0          6         16          0          9         16          0          0          0          0         32         51         17        0.0        0.0        0.0       61.9       71.6       51.8      29.99      30.05      29.93       0.00       0.00       0.00       30.6       42.6       21.6      29.99      30.05      29.93          0          0          0          0          0          0        0.0        0.0        0.0       0.00       0.00       0.00          0          0          0          0          0          0        0.0        0.0        0.0       0.00       0.00       0.00       0.00       0.00       0.00       0.00       0.00       0.00       0.00       0.00       0.00      0.000      0.000      0.000        0.0        0.1        0.1        0.0        0.0        0.0       0.00  -74362.08  -74362.08        0.0        1.6        1.6        0.0        1.7        1.7        0.0       34.7       34.7        0.0       45.0       45.0
4/27/2016         292        350          0          3         11          0          5         11          0          0          0          0         61         82         38        0.0        0.0        0.0       58.5       69.8       50.0      29.89      29.94      29.81       0.00       0.00       0.00       44.4       48.3       39.3      29.89      29.94      29.81          0          0          0          0          0          0        0.0        0.0        0.0       0.00       0.00       0.00          0          0          0          0          0          0        0.0        0.0        0.0       0.00       0.00       0.00       0.00       0.00       0.00       0.00       0.00       0.00       0.00       0.00       0.00      0.000      0.000      0.000        0.0        0.1        0.1        0.0        0.0        0.0       0.00  -74500.80  -74500.80        0.0        1.6        1.6        0.0        1.8        1.8        0.0       34.7       34.7        0.0       45.1       45.1
4/28/2016         338        360          0          7         19          0         10         19          0          0          0          0         44         62         16        0.0        0.0        0.0       63.8       80.6       55.4      29.90      29.94      29.84       0.00       0.00       0.00       39.6       43.0       30.3      29.90      29.94      29.84          0          0          0          0          0          0        0.0        0.0        0.0       0.00       0.00       0.00          0          0          0          0          0          0        0.0        0.0        0.0       0.00       0.00       0.00       0.00       0.00       0.00       0.00       0.00       0.00       0.00       0.00       0.00      0.000      0.000      0.000        0.0        0.0        0.0        0.0        0.0        0.0       0.00       0.00       0.00        0.0        0.0        0.0        0.0        0.0        0.0        0.0        0.0        0.0        0.0        0.0        0.0
4/29/2016           0        360          0          9         23          0         12         23          0          0          0          0         31         45         20        0.0        0.0        0.0       68.2       80.6       59.0      29.93      30.03      29.83       0.00       0.00       0.00       35.9       39.4       30.3      29.93      30.03      29.83          0          0          0          0          0          0        0.0        0.0        0.0       0.00       0.00       0.00          0          0          0          0          0          0        0.0        0.0        0.0       0.00       0.00       0.00       0.00       0.00       0.00       0.00       0.00       0.00       0.00       0.00       0.00      0.000      0.000      0.000        0.0        0.0        0.0        0.0        0.0        0.0       0.00  -74753.76  -74753.76        0.0        1.8        1.8        0.0        1.8        1.8        0.0       34.9       34.9        0.0       45.1       45.1
4/30/2016           0        360          0         13         31          3         17         31          4          0          0          0         32         44         21        0.0        0.0        0.0       67.9       80.6       57.2      30.00      30.08      29.91       0.00       0.00       0.00       36.4       39.2       33.7      30.00      30.08      29.91          0          0          0          0          0          0        0.0        0.0        0.0       0.00       0.00       0.00          0          0          0          0          0          0        0.0        0.0        0.0       0.00       0.00       0.00       0.00       0.00       0.00       0.00       0.00       0.00       0.00       0.00       0.00      0.000      0.000      0.000        0.0        0.0        0.0        0.0        0.1        0.1       0.00  -74892.48  -74892.48        0.0        1.8        1.8        0.0        1.9        1.9        0.0       34.9       34.9        0.0       45.2       45.2
5/1/2016            0        360          0          7         19          0         10         19          0          0          0          0         33         60         19        0.0        0.0        0.0       72.5       84.2       59.0      29.87      29.95      29.80       0.00       0.00       0.00       40.1       50.2       35.4      29.87      29.95      29.80          0          0          0          0          0          0        0.0        0.0        0.0       0.00       0.00       0.00          0          0          0          0          0          0        0.0        0.0        0.0       0.00       0.00       0.00       0.00       0.00       0.00       0.00       0.00       0.00       0.00       0.00       0.00      0.000      0.000      0.000        0.0        0.0        0.0        0.0        0.1        0.1       0.00  -75031.20  -75031.20        0.0        1.8        1.8        0.0        2.0        2.0        0.0       34.9       34.9        0.0       45.3       45.3
5/2/2016           22        340          0          4         13          0          6         13          0          0          0          0         49         82         21        0.0        0.0        0.0       68.4       82.4       53.6      29.98      30.03      29.92       0.00       0.00       0.00       46.4       51.8       37.1      29.98      30.03      29.92          0          0          0          0          0          0        0.0        0.0        0.0       0.00       0.00       0.00          0          0          0          0          0          0        0.0        0.0        0.0       0.00       0.00       0.00       0.00       0.00       0.00       0.00       0.00       0.00       0.00       0.00       0.00      0.000      0.000      0.000        0.0        0.0        0.0        0.0        0.2        0.2       0.00  -75174.00  -75174.00        0.0        0.0        0.0        0.0        0.2        0.2        0.0       34.9       34.9        0.0       45.5       45.5
5/3/2016          338        360          0          3          6          0          5          6          0          0          0          0         51         77         27        0.0        0.0        0.0       69.3       82.4       55.4      29.94      29.99      29.86       0.00       0.00       0.00       49.3       53.7       44.5      29.94      29.99      29.86          0          0          0          0          0          0        0.0        0.0        0.0       0.00       0.00       0.00          0          0          0          0          0          0        0.0        0.0        0.0       0.00       0.00       0.00       0.00       0.00       0.00       0.00       0.00       0.00       0.00       0.00       0.00      0.000      0.000      0.000        0.0        0.0        0.0        0.0        0.1        0.1       0.00  -75320.88  -75320.88        0.0        0.0        0.0        0.0        0.3        0.3        0.0       34.9       34.9        0.0       45.6       45.6
5/4/2016            0        360          0          4         12          0          7         12          0          0          0          0         64         83         34        0.0        0.0        0.0       67.0       78.8       60.8      29.82      29.90      29.75       0.00       0.00       0.00       53.7       57.4       48.1      29.82      29.90      29.75          0          0          0          0          0          0        0.0        0.0        0.0       0.00       0.00       0.00          0          0          0          0          0          0        0.0        0.0        0.0       0.00       0.00       0.00       0.00       0.00       0.00       0.00       0.00       0.00       0.00       0.00       0.00      0.000      0.000      0.000        0.0        0.0        0.0        0.0        0.1        0.1       0.00  -75463.68  -75463.68        0.0        0.1        0.1        0.0        0.4        0.4        0.0       35.0       35.0        0.0       45.7       45.7
5/5/2016          180        330          0          6         25          0          9         25          0          0          0          0         74         88         50        0.0        0.0        0.0       63.2       75.2       57.2      29.81      29.88      29.75       0.00       0.00       0.00       54.1       55.6       51.8      29.81      29.88      29.75          0          0          0          0          0          0        0.0        0.0        0.0       0.00       0.00       0.00          0          0          0          0          0          0        0.0        0.0        0.0       0.00       0.00       0.00       0.00       0.00       0.00       0.00       0.00       0.00       0.00       0.00       0.00      0.000      0.000      0.000        0.0        0.0        0.0        0.0        0.1        0.1       0.00  -75600.36  -75600.36        0.0        0.1        0.1        0.0        0.5        0.5        0.0       35.0       35.0        0.0       45.8       45.8
5/6/2016          180        360          0          3         13          0          6         13          0          0          0          0         85         94         68        0.0        0.0        0.0       60.0       66.2       53.6      29.82      29.89      29.79       0.00       0.00       0.00       55.3       59.1       51.9      29.82      29.89      29.79          0          0          0          0          0          0        0.0        0.0        0.0       0.00       0.00       0.00          0          0          0          0          0          0        0.0        0.0        0.0       0.00       0.00       0.00       0.00       0.00       0.00       0.00       0.00       0.00       0.00       0.00       0.00      0.000      0.000      0.000        0.0        0.0        0.0        0.0        0.0        0.0       0.00  -75732.96  -75732.96        0.0        0.1        0.1        0.0        0.5        0.5        0.0       35.0       35.0        0.0       45.8       45.8
5/7/2016          180        360          0          4         13          0          6         13          0          0          0          0         85         94         68        0.0        0.0        0.0       60.1       66.2       53.6      29.87      29.97      29.79       0.00       0.00       0.00       55.6       59.1       51.9      29.87      29.97      29.79          0          0          0          0          0          0        0.0        0.0        0.0       0.00       0.00       0.00          0          0          0          0          0          0        0.0        0.0        0.0       0.00       0.00       0.00       0.00       0.00       0.00       0.00       0.00       0.00       0.00       0.00       0.00      0.000      0.000      0.000        0.0        0.0        0.0        0.0        0.0        0.0       0.00  -75732.96  -75732.96        0.0        0.1        0.1        0.0        0.5        0.5        0.0       35.0       35.0        0.0       45.8       45.8
5/8/2016          202        310          0          3         11          0          4         11          0          0          0          0         73         88         53        0.0        0.0        0.0       64.5       73.4       57.2      29.92      29.97      29.86       0.00       0.00       0.00       54.9       57.3       53.4      29.92      29.97      29.86          0          0          0          0          0          0        0.0        0.0        0.0       0.00       0.00       0.00          0          0          0          0          0          0        0.0        0.0        0.0       0.00       0.00       0.00       0.00       0.00       0.00       0.00       0.00       0.00       0.00       0.00       0.00      0.000      0.000      0.000        0.0        0.1        0.1        0.0        0.0        0.0       0.00  -76014.48  -76014.48        0.0        0.3        0.3        0.0        0.5        0.5        0.0       35.2       35.2        0.0       45.9       45.9
5/9/2016          180        340          0          3         11          0          5         11          0          0          0          0         64         83         37        0.0        0.0        0.0       70.6       80.6       64.4      29.90      29.94      29.85       0.00       0.00       0.00       56.6       59.1       51.8      29.90      29.94      29.85          0          0          0          0          0          0        0.0        0.0        0.0       0.00       0.00       0.00          0          0          0          0          0          0        0.0        0.0        0.0       0.00       0.00       0.00       0.00       0.00       0.00       0.00       0.00       0.00       0.00       0.00       0.00      0.000      0.000      0.000        0.0        0.0        0.0        0.0        0.1        0.1       0.00  -76161.36  -76161.36        0.0        0.3        0.3        0.0        0.6        0.6        0.0       35.2       35.2        0.0       45.9       45.9
5/10/2016           0        360         10          9         24          3         12         24          4          0          0          0         34         82         12        0.0        0.0        0.0       74.1       87.8       60.8      29.94      29.98      29.89       0.00       0.00       0.00       38.9       55.3       28.1      29.94      29.98      29.89          0          0          0          0          0          0        0.0        0.0        0.0       0.00       0.00       0.00          0          0          0          0          0          0        0.0        0.0        0.0       0.00       0.00       0.00       0.00       0.00       0.00       0.00       0.00       0.00       0.00       0.00       0.00      0.000      0.000      0.000        0.0        0.0        0.0        0.0        0.1        0.1       0.00  -76306.20  -76306.20        0.0        0.3        0.3        0.0        0.7        0.7        0.0       35.2       35.2        0.0       46.0       46.0
5/11/2016           0        360          0          4         12          0          6         12          0          0          0          0         34         71         12        0.0        0.0        0.0       74.2       89.6       53.6      29.97      30.01      29.91       0.00       0.00       0.00       39.7       53.7       28.9      29.97      30.01      29.91          0          0          0          0          0          0        0.0        0.0        0.0       0.00       0.00       0.00          0          0          0          0          0          0        0.0        0.0        0.0       0.00       0.00       0.00       0.00       0.00       0.00       0.00       0.00       0.00       0.00       0.00       0.00      0.000      0.000      0.000        0.0        0.0        0.0        0.0        0.2        0.2       0.00  -76449.00  -76449.00        0.0        0.3        0.3        0.0        0.9        0.9        0.0       35.2       35.2        0.0       46.2       46.2
5/12/2016         338        350          0          3          7          0          4          7          0          0          0          0         46         77         23        0.0        0.0        0.0       73.9       89.6       53.6      29.96      30.02      29.88       0.00       0.00       0.00       49.3       60.9       44.4      29.96      30.02      29.88          0          0          0          0          0          0        0.0        0.0        0.0       0.00       0.00       0.00          0          0          0          0          0          0        0.0        0.0        0.0       0.00       0.00       0.00       0.00       0.00       0.00       0.00       0.00       0.00       0.00       0.00       0.00      0.000      0.000      0.000        0.0        0.0        0.0        0.0        0.2        0.2       0.00  -76595.88  -76595.88        0.0        0.3        0.3        0.0        1.1        1.1        0.0       35.2       35.2        0.0       46.4       46.4
5/13/2016         180        350          0          7         19          0          9         19          0          0          0          0         46         77         17        0.0        0.0        0.0       76.2       89.6       60.8      29.87      29.93      29.79       0.00       0.00       0.00       51.7       55.7       39.1      29.87      29.93      29.79          0          0          0          0          0          0        0.0        0.0        0.0       0.00       0.00       0.00          0          0          0          0          0          0        0.0        0.0        0.0       0.00       0.00       0.00       0.00       0.00       0.00       0.00       0.00       0.00       0.00       0.00       0.00      0.000      0.000      0.000        0.0        0.0        0.0        0.0        0.2        0.2       0.00  -76742.76  -76742.76        0.0        0.4        0.4        0.0        1.3        1.3        0.0       35.2       35.2        0.0       46.6       46.6
5/14/2016         180        360          0          7         17          0         11         17          0          0          0          0         53         72         36        0.0        0.0        0.0       66.4       75.2       55.4      29.94      30.01      29.88       0.00       0.00       0.00       47.8       53.7       46.2      29.94      30.01      29.88          0          0          0          0          0          0        0.0        0.0        0.0       0.00       0.00       0.00          0          0          0          0          0          0        0.0        0.0        0.0       0.00       0.00       0.00       0.00       0.00       0.00       0.00       0.00       0.00       0.00       0.00       0.00      0.000      0.000      0.000        0.0        0.0        0.0        0.0        0.0        0.0       0.00       0.00       0.00        0.0        0.0        0.0        0.0        0.0        0.0        0.0        0.0        0.0        0.0        0.0        0.0
5/15/2016           0        360          0          4         13          0          7         13          0          0          0          0         47         82         23        0.0        0.0        0.0       71.1       84.2       53.6      29.91      29.96      29.85       0.00       0.00       0.00       46.6       53.5       40.9      29.91      29.96      29.85          0          0          0          0          0          0        0.0        0.0        0.0       0.00       0.00       0.00          0          0          0          0          0          0        0.0        0.0        0.0       0.00       0.00       0.00       0.00       0.00       0.00       0.00       0.00       0.00       0.00       0.00       0.00      0.000      0.000      0.000        0.0        0.0        0.0        0.0        0.1        0.1       0.00  -77022.24  -77022.24        0.0        0.4        0.4        0.0        1.6        1.6        0.0       35.3       35.3        0.0       46.9       46.9
5/16/2016           0        360         10         12         23          3         16         23          4          0          0          0         34         52         21        0.0        0.0        0.0       75.0       86.0       62.6      29.95      30.00      29.88       0.00       0.00       0.00       43.7       46.3       41.3      29.95      30.00      29.88          0          0          0          0          0          0        0.0        0.0        0.0       0.00       0.00       0.00          0          0          0          0          0          0        0.0        0.0        0.0       0.00       0.00       0.00       0.00       0.00       0.00       0.00       0.00       0.00       0.00       0.00       0.00      0.000      0.000      0.000        0.0        0.0        0.0        0.0        0.2        0.2       0.00  -77167.08  -77167.08        0.0        0.4        0.4        0.0        1.8        1.8        0.0       35.3       35.3        0.0       47.1       47.1
5/17/2016           0        360          0         11         28          0         15         28          0          0          0          0         32         53         18        0.0        0.0        0.0       79.5       91.4       68.0      29.96      30.03      29.87       0.00       0.00       0.00       45.2       53.6       40.5      29.96      30.03      29.87          0          0          0          0          0          0        0.0        0.0        0.0       0.00       0.00       0.00          0          0          0          0          0          0        0.0        0.0        0.0       0.00       0.00       0.00       0.00       0.00       0.00       0.00       0.00       0.00       0.00       0.00       0.00      0.000      0.000      0.000        0.0        0.0        0.0        0.0        0.2        0.2       0.00  -77313.96  -77313.96        0.0        0.4        0.4        0.0        2.0        2.0        0.0       35.3       35.3        0.0       47.3       47.3
5/18/2016           0        360          0          4         12          0          7         12          0          0          0          0         34         68         17        0.0        0.0        0.0       81.5       96.8       62.6      29.88      29.97      29.75       0.00       0.00       0.00       47.7       53.7       41.6      29.88      29.97      29.75          0          0          0          0          0          0        0.0        0.0        0.0       0.00       0.00       0.00          0          0          0          0          0          0        0.0        0.0        0.0       0.00       0.00       0.00       0.00       0.00       0.00       0.00       0.00       0.00       0.00       0.00       0.00      0.000      0.000      0.000        0.0        0.0        0.0        0.0        0.3        0.3       0.00  -77456.76  -77456.76        0.0        0.4        0.4        0.0        2.2        2.2        0.0       35.3       35.3        0.0       47.5       47.5
5/19/2016         292        360          0          8         19          0         10         19          0          0          0          0         26         42         14        0.0        0.0        0.0       72.8       82.4       60.8      29.73      29.82      29.63       0.00       0.00       0.00       34.7       41.4       25.6      29.73      29.82      29.63          0          0          0          0          0          0        0.0        0.0        0.0       0.00       0.00       0.00          0          0          0          0          0          0        0.0        0.0        0.0       0.00       0.00       0.00       0.00       0.00       0.00       0.00       0.00       0.00       0.00       0.00       0.00      0.000      0.000      0.000        0.0        0.0        0.0        0.0        0.3        0.3       0.00  -77601.60  -77601.60        0.0        0.4        0.4        0.0        2.5        2.5        0.0       35.3       35.3        0.0       47.9       47.9
5/20/2016         158        360          0          7         19          0         10         19          0          0          0          0         63         82         39        0.0        0.0        0.0       56.1       60.8       51.8      29.73      29.85      29.65       0.00       0.00       0.00       42.7       48.3       33.9      29.73      29.85      29.65          0          0          0          0          0          0        0.0        0.0        0.0       0.00       0.00       0.00          0          0          0          0          0          0        0.0        0.0        0.0       0.00       0.00       0.00       0.00       0.00       0.00       0.00       0.00       0.00       0.00       0.00       0.00      0.000      0.000      0.000        0.0        0.0        0.0        0.0        0.2        0.2       0.00  -77721.96  -77721.96        0.0        0.4        0.4        0.0        2.7        2.7        0.0       35.3       35.3        0.0       48.0       48.0
5/21/2016         180        280          0          8         24          0         11         24          0          0          0          0         69         82         52        0.0        0.0        0.0       58.3       64.4       51.8      29.94      30.03      29.86       0.00       0.00       0.00       47.8       51.8       46.2      29.94      30.03      29.86          0          0          0          0          0          0        0.0        0.0        0.0       0.00       0.00       0.00          0          0          0          0          0          0        0.0        0.0        0.0       0.00       0.00       0.00       0.00       0.00       0.00       0.00       0.00       0.00       0.00       0.00       0.00      0.000      0.000      0.000        0.0        0.0        0.0        0.0        0.0        0.0       0.00       0.00       0.00        0.0        0.0        0.0        0.0        0.0        0.0        0.0        0.0        0.0        0.0        0.0        0.0
5/22/2016           0        330          0          4         13          0          6         13          0          0          0          0         66         88         46        0.0        0.0        0.0       60.6       68.0       55.4      30.01      30.07      29.96       0.00       0.00       0.00       48.6       51.9       46.2      30.01      30.07      29.96          0          0          0          0          0          0        0.0        0.0        0.0       0.00       0.00       0.00          0          0          0          0          0          0        0.0        0.0        0.0       0.00       0.00       0.00       0.00       0.00       0.00       0.00       0.00       0.00       0.00       0.00       0.00      0.000      0.000      0.000        0.0        0.1        0.1        0.0        0.0        0.0       0.00  -78003.48  -78003.48        0.0        0.6        0.6        0.0        2.7        2.7        0.0       35.5       35.5        0.0       48.0       48.0
5/23/2016           0        310          0          3         12          0          6         12          0          0          0          0         59         88         31        0.0        0.0        0.0       64.7       75.2       55.4      29.89      29.96      29.80       0.00       0.00       0.00       48.0       51.9       41.0      29.89      29.96      29.80          0          0          0          0          0          0        0.0        0.0        0.0       0.00       0.00       0.00          0          0          0          0          0          0        0.0        0.0        0.0       0.00       0.00       0.00       0.00       0.00       0.00       0.00       0.00       0.00       0.00       0.00       0.00      0.000      0.000      0.000        0.0        0.1        0.1        0.0        0.0        0.0       0.00  -78148.32  -78148.32        0.0        0.7        0.7        0.0        2.7        2.7        0.0       35.6       35.6        0.0       48.0       48.0
5/24/2016         270        350          0          5         17          0          7         17          0          0          0          0         64         88         34        0.0        0.0        0.0       66.4       78.8       59.0      29.89      30.01      29.84       0.00       0.00       0.00       52.7       55.6       46.5      29.89      30.01      29.84          0          0          0          0          0          0        0.0        0.0        0.0       0.00       0.00       0.00          0          0          0          0          0          0        0.0        0.0        0.0       0.00       0.00       0.00       0.00       0.00       0.00       0.00       0.00       0.00       0.00       0.00       0.00      0.000      0.000      0.000        0.0        0.0        0.0        0.0        0.1        0.1       0.00  -78287.04  -78287.04        0.0        0.7        0.7        0.0        2.8        2.8        0.0       35.6       35.6        0.0       48.1       48.1
5/25/2016           0        360          0          4         11          0          6         11          0          0          0          0         59         94         25        0.0        0.0        0.0       68.9       82.4       53.6      30.00      30.06      29.94       0.00       0.00       0.00       51.3       55.6       43.1      30.00      30.06      29.94          0          0          0          0          0          0        0.0        0.0        0.0       0.00       0.00       0.00          0          0          0          0          0          0        0.0        0.0        0.0       0.00       0.00       0.00       0.00       0.00       0.00       0.00       0.00       0.00       0.00       0.00       0.00      0.000      0.000      0.000        0.0        0.0        0.0        0.0        0.1        0.1       0.00  -78433.92  -78433.92        0.0        0.7        0.7        0.0        2.8        2.8        0.0       35.6       35.6        0.0       48.2       48.2
5/26/2016           0        360          0          3         11          0          4         11          0          0          0          0         48         88         14        0.0        0.0        0.0       71.1       86.0       55.4      29.98      30.06      29.88       0.00       0.00       0.00       45.1       53.7       29.9      29.98      30.06      29.88          0          0          0          0          0          0        0.0        0.0        0.0       0.00       0.00       0.00          0          0          0          0          0          0        0.0        0.0        0.0       0.00       0.00       0.00       0.00       0.00       0.00       0.00       0.00       0.00       0.00       0.00       0.00      0.000      0.000      0.000        0.0        0.0        0.0        0.0        0.1        0.1       0.00  -78578.76  -78578.76        0.0        0.8        0.8        0.0        3.0        3.0        0.0       35.7       35.7        0.0       48.3       48.3
5/27/2016           0        360         10          9         24          3         11         24          4          0          0          0         31         63         14        0.0        0.0        0.0       74.3       86.0       59.0      29.90      29.97      29.80       0.00       0.00       0.00       38.2       48.1       30.2      29.90      29.97      29.80          0          0          0          0          0          0        0.0        0.0        0.0       0.00       0.00       0.00          0          0          0          0          0          0        0.0        0.0        0.0       0.00       0.00       0.00       0.00       0.00       0.00       0.00       0.00       0.00       0.00       0.00       0.00      0.000      0.000      0.000        0.0        0.0        0.0        0.0        0.2        0.2       0.00  -78719.52  -78719.52        0.0        0.8        0.8        0.0        3.1        3.1        0.0       35.7       35.7        0.0       48.5       48.5
5/28/2016         338        360          0          9         19          0         12         19          0          0          0          0         27         68         14        0.0        0.0        0.0       76.2       89.6       62.6      29.84      29.90      29.76       0.00       0.00       0.00       38.1       51.9       33.4      29.84      29.90      29.76          0          0          0          0          0          0        0.0        0.0        0.0       0.00       0.00       0.00          0          0          0          0          0          0        0.0        0.0        0.0       0.00       0.00       0.00       0.00       0.00       0.00       0.00       0.00       0.00       0.00       0.00       0.00      0.000      0.000      0.000        0.0        0.0        0.0        0.0        0.2        0.2       0.00  -78860.28  -78860.28        0.0        0.8        0.8        0.0        3.3        3.3        0.0       35.7       35.7        0.0       48.7       48.7
5/29/2016           0        360          0          4         13          0          7         13          0          0          0          0         36         67         13        0.0        0.0        0.0       77.7       93.2       59.0      29.88      29.93      29.83       0.00       0.00       0.00       45.0       53.8       35.1      29.88      29.93      29.83          0          0          0          0          0          0        0.0        0.0        0.0       0.00       0.00       0.00          0          0          0          0          0          0        0.0        0.0        0.0       0.00       0.00       0.00       0.00       0.00       0.00       0.00       0.00       0.00       0.00       0.00       0.00      0.000      0.000      0.000        0.0        0.0        0.0        0.0        0.2        0.2       0.00  -79007.16  -79007.16        0.0        0.8        0.8        0.0        3.5        3.5        0.0       35.7       35.7        0.0       48.9       48.9
5/30/2016           0        360          0          6         13          0          8         13          0          0          0          0         28         46         11        0.0        0.0        0.0       82.0       96.8       68.0      29.91      29.97      29.83       0.00       0.00       0.00       43.1       49.7       33.7      29.91      29.97      29.83          0          0          0          0          0          0        0.0        0.0        0.0       0.00       0.00       0.00          0          0          0          0          0          0        0.0        0.0        0.0       0.00       0.00       0.00       0.00       0.00       0.00       0.00       0.00       0.00       0.00       0.00       0.00      0.000      0.000      0.000        0.0        0.0        0.0        0.0        0.2        0.2       0.00  -79147.92  -79147.92        0.0        0.8        0.8        0.0        3.8        3.8        0.0       35.7       35.7        0.0       49.1       49.1
5/31/2016           0        360          0          6         16          0          8         16          0          0          0          0         36         77         10        0.0        0.0        0.0       81.9      100.4       59.0      29.83      29.87      29.72       0.00       0.00       0.00       45.7       53.7       34.0      29.83      29.87      29.72          0          0          0          0          0          0        0.0        0.0        0.0       0.00       0.00       0.00          0          0          0          0          0          0        0.0        0.0        0.0       0.00       0.00       0.00       0.00       0.00       0.00       0.00       0.00       0.00       0.00       0.00       0.00      0.000      0.000      0.000        0.0        0.0        0.0        0.0        0.0        0.0       0.00       0.00       0.00        0.0        0.0        0.0        0.0        0.0        0.0        0.0        0.0        0.0        0.0        0.0        0.0
6/1/2016            0        360          0          6         16          0          8         16          0          0          0          0         29         77          9        0.0        0.0        0.0       86.6      100.4       59.0      29.82      29.87      29.72       0.00       0.00       0.00       45.5       54.1       29.9      29.82      29.87      29.72          0          0          0          0          0          0        0.0        0.0        0.0       0.00       0.00       0.00          0          0          0          0          0          0        0.0        0.0        0.0       0.00       0.00       0.00       0.00       0.00       0.00       0.00       0.00       0.00       0.00       0.00       0.00      0.000      0.000      0.000        0.0        0.0        0.0        0.0        0.0        0.0       0.00       0.00       0.00        0.0        0.0        0.0        0.0        0.0        0.0        0.0        0.0        0.0        0.0        0.0        0.0
6/2/2016            0        360          0          3          7          0          5          7          0          0          0          0         31         64          8        0.0        0.0        0.0       81.7       98.6       64.4      29.93      29.98      29.87       0.00       0.00       0.00       42.9       53.7       25.9      29.93      29.98      29.87          0          0          0          0          0          0        0.0        0.0        0.0       0.00       0.00       0.00          0          0          0          0          0          0        0.0        0.0        0.0       0.00       0.00       0.00       0.00       0.00       0.00       0.00       0.00       0.00       0.00       0.00       0.00      0.000      0.000      0.000        0.0        0.0        0.0        0.0        0.5        0.5       0.00  -79482.48  -79482.48        0.0        0.8        0.8        0.0        4.6        4.6        0.0       35.7       35.7        0.0       50.0       50.0
6/3/2016            0        360          0          5         13          0          8         13          0          0          0          0         29         53          7        0.0        0.0        0.0       86.3      105.8       68.0      29.94      30.01      29.85       0.00       0.00       0.00       46.3       53.4       29.2      29.94      30.01      29.85          0          0          0          0          0          0        0.0        0.0        0.0       0.00       0.00       0.00          0          0          0          0          0          0        0.0        0.0        0.0       0.00       0.00       0.00       0.00       0.00       0.00       0.00       0.00       0.00       0.00       0.00       0.00      0.000      0.000      0.000        0.0        0.0        0.0        0.0        0.3        0.3       0.00  -79621.20  -79621.20        0.0        0.8        0.8        0.0        4.9        4.9        0.0       35.7       35.7        0.0       50.3       50.3
6/4/2016            0        330          0          2         12          0          4         12          0          0          0          0         38         56         16        0.0        0.0        0.0       83.2       96.8       68.0      29.86      29.90      29.81       0.00       0.00       0.00       52.2       60.8       43.3      29.86      29.90      29.81          0          0          0          0          0          0        0.0        0.0        0.0       0.00       0.00       0.00          0          0          0          0          0          0        0.0        0.0        0.0       0.00       0.00       0.00       0.00       0.00       0.00       0.00       0.00       0.00       0.00       0.00       0.00      0.000      0.000      0.000        0.0        0.0        0.0        0.0        0.4        0.4       0.00  -79766.04  -79766.04        0.0        0.8        0.8        0.0        5.3        5.3        0.0       35.7       35.7        0.0       50.7       50.7
6/5/2016            0        350          0          5         16          0          8         16          0          0          0          0         34         54         14        0.0        0.0        0.0       87.4      102.2       75.2      29.80      29.86      29.70       0.00       0.00       0.00       53.0       60.8       44.0      29.80      29.86      29.70          0          0          0          0          0          0        0.0        0.0        0.0       0.00       0.00       0.00          0          0          0          0          0          0        0.0        0.0        0.0       0.00       0.00       0.00       0.00       0.00       0.00       0.00       0.00       0.00       0.00       0.00       0.00      0.000      0.000      0.000        0.0        0.0        0.0        0.0        0.3        0.3       0.00  -79910.88  -79910.88        0.0        0.8        0.8        0.0        5.7        5.7        0.0       35.7       35.7        0.0       51.0       51.0
6/6/2016            0        360          0          6         17          0          9         17          0          0          0          0         33         53         14        0.0        0.0        0.0       89.9      105.8       73.4      29.70      29.75      29.60       0.00       0.00       0.00       55.1       60.9       45.4      29.70      29.75      29.60          0          0          0          0          0          0        0.0        0.0        0.0       0.00       0.00       0.00          0          0          0          0          0          0        0.0        0.0        0.0       0.00       0.00       0.00       0.00       0.00       0.00       0.00       0.00       0.00       0.00       0.00       0.00      0.000      0.000      0.000        0.0        0.0        0.0        0.0        0.4        0.4       0.00  -80055.72  -80055.72        0.0        0.8        0.8        0.0        6.1        6.1        0.0       35.7       35.7        0.0       51.4       51.4
6/7/2016          180        220          0          4         10          0          5         10          0          0          0          0         48         61         25        0.0        0.0        0.0       81.0       95.0       73.4      29.80      29.84      29.75       0.00       0.00       0.00       58.4       62.8       53.7      29.80      29.84      29.75          0          0          0          0          0          0        0.0        0.0        0.0       0.00       0.00       0.00          0          0          0          0          0          0        0.0        0.0        0.0       0.00       0.00       0.00       0.00       0.00       0.00       0.00       0.00       0.00       0.00       0.00       0.00      0.000      0.000      0.000        0.0        0.0        0.0        0.0        0.4        0.4       0.00  -80198.52  -80198.52        0.0        0.8        0.8        0.0        6.5        6.5        0.0       35.7       35.7        0.0       51.8       51.8
6/8/2016          180        250          0          6         17          0          8         17          0          0          0          0         43         61         24        0.0        0.0        0.0       80.8       95.0       71.6      29.80      29.85      29.75       0.00       0.00       0.00       54.8       62.8       46.1      29.80      29.85      29.75          0          0          0          0          0          0        0.0        0.0        0.0       0.00       0.00       0.00          0          0          0          0          0          0        0.0        0.0        0.0       0.00       0.00       0.00       0.00       0.00       0.00       0.00       0.00       0.00       0.00       0.00       0.00      0.000      0.000      0.000        0.0        0.0        0.0        0.0        0.4        0.4       0.00  -80198.52  -80198.52        0.0        0.8        0.8        0.0        6.5        6.5        0.0       35.7       35.7        0.0       51.8       51.8
6/9/2016          180        300          0          6         17          0         10         17          0          0          0          0         43         64         19        0.0        0.0        0.0       75.4       86.0       64.4      29.83      29.90      29.76       0.00       0.00       0.00       49.3       59.1       39.0      29.83      29.90      29.76          0          0          0          0          0          0        0.0        0.0        0.0       0.00       0.00       0.00          0          0          0          0          0          0        0.0        0.0        0.0       0.00       0.00       0.00       0.00       0.00       0.00       0.00       0.00       0.00       0.00       0.00       0.00      0.000      0.000      0.000        0.0        0.0        0.0        0.0        0.4        0.4       0.00  -80371.92  -80371.92        0.0        0.8        0.8        0.0        6.9        6.9        0.0       35.7       35.7        0.0       52.2       52.2
6/10/2016           0        350          0          6         14          0          9         14          0          0          0          0         35         60         20        0.0        0.0        0.0       74.0       82.4       66.2      29.87      29.94      29.81       0.00       0.00       0.00       43.2       51.9       32.3      29.87      29.94      29.81          0          0          0          0          0          0        0.0        0.0        0.0       0.00       0.00       0.00          0          0          0          0          0          0        0.0        0.0        0.0       0.00       0.00       0.00       0.00       0.00       0.00       0.00       0.00       0.00       0.00       0.00       0.00      0.000      0.000      0.000        0.0        0.0        0.0        0.0        0.2        0.2       0.00  -80518.80  -80518.80        0.0        0.8        0.8        0.0        7.1        7.1        0.0       35.7       35.7        0.0       52.4       52.4
6/11/2016           0        360         10         14         23          8         17         23         10          0          0          0         20         32          9        0.0        0.0        0.0       77.6       89.6       64.4      29.93      29.99      29.85       0.00       0.00       0.00       30.9       35.5       22.0      29.93      29.99      29.85          0          0          0          0          0          0        0.0        0.0        0.0       0.00       0.00       0.00          0          0          0          0          0          0        0.0        0.0        0.0       0.00       0.00       0.00       0.00       0.00       0.00       0.00       0.00       0.00       0.00       0.00       0.00      0.000      0.000      0.000        0.0        0.0        0.0        0.0        0.2        0.2       0.00  -80659.56  -80659.56        0.0        0.8        0.8        0.0        7.3        7.3        0.0       35.7       35.7        0.0       52.6       52.6
6/12/2016           0        360          0         10         23          3         14         23          4          0          0          0         20         47          6        0.0        0.0        0.0       83.2       96.8       73.4      29.92      29.96      29.89       0.00       0.00       0.00       34.5       52.0       19.1      29.92      29.96      29.89          0          0          0          0          0          0        0.0        0.0        0.0       0.00       0.00       0.00          0          0          0          0          0          0        0.0        0.0        0.0       0.00       0.00       0.00       0.00       0.00       0.00       0.00       0.00       0.00       0.00       0.00       0.00      0.000      0.000      0.000        0.0        0.0        0.0        0.0        0.3        0.3       0.00  -80798.28  -80798.28        0.0        0.8        0.8        0.0        7.5        7.5        0.0       35.7       35.7        0.0       52.9       52.9
6/13/2016         180        340          0          6         22          0          9         22          0          0          0          0         40         68         16        0.0        0.0        0.0       76.0       87.8       62.6      29.93      30.01      29.84       0.00       0.00       0.00       47.2       53.7       26.0      29.93      30.01      29.84          0          0          0          0          0          0        0.0        0.0        0.0       0.00       0.00       0.00          0          0          0          0          0          0        0.0        0.0        0.0       0.00       0.00       0.00       0.00       0.00       0.00       0.00       0.00       0.00       0.00       0.00       0.00      0.000      0.000      0.000        0.0        0.0        0.0        0.0        0.3        0.3       0.00  -80945.16  -80945.16        0.0        0.8        0.8        0.0        7.9        7.9        0.0       35.7       35.7        0.0       53.2       53.2
6/14/2016         270        330          0          5         12          0          8         12          0          0          0          0         27         41         16        0.0        0.0        0.0       68.0       78.8       57.2      29.90      29.99      29.83       0.00       0.00       0.00       32.2       35.9       26.6      29.90      29.99      29.83          0          0          0          0          0          0        0.0        0.0        0.0       0.00       0.00       0.00          0          0          0          0          0          0        0.0        0.0        0.0       0.00       0.00       0.00       0.00       0.00       0.00       0.00       0.00       0.00       0.00       0.00       0.00      0.000      0.000      0.000        0.0        0.0        0.0        0.0        0.0        0.0       0.00       0.00       0.00        0.0        0.0        0.0        0.0        0.0        0.0        0.0        0.0        0.0        0.0        0.0        0.0
6/15/2016         202        350          0          8         24          0         11         24          0          0          0          0         60         82         45        0.0        0.0        0.0       59.6       66.2       53.6      29.91      29.99      29.83       0.00       0.00       0.00       45.4       48.3       39.3      29.91      29.99      29.83          0          0          0          0          0          0        0.0        0.0        0.0       0.00       0.00       0.00          0          0          0          0          0          0        0.0        0.0        0.0       0.00       0.00       0.00       0.00       0.00       0.00       0.00       0.00       0.00       0.00       0.00       0.00      0.000      0.000      0.000        0.0        0.0        0.0        0.0        0.1        0.1       0.00  -81234.84  -81234.84        0.0        0.8        0.8        0.0        8.2        8.2        0.0       35.7       35.7        0.0       53.5       53.5
6/16/2016           0        360          0          5         16          0          8         16          0          0          0          0         60         88         29        0.0        0.0        0.0       62.2       73.4       53.6      30.04      30.10      29.99       0.00       0.00       0.00       46.4       51.9       39.2      30.04      30.10      29.99          0          0          0          0          0          0        0.0        0.0        0.0       0.00       0.00       0.00          0          0          0          0          0          0        0.0        0.0        0.0       0.00       0.00       0.00       0.00       0.00       0.00       0.00       0.00       0.00       0.00       0.00       0.00      0.000      0.000      0.000        0.0        0.1        0.1        0.0        0.0        0.0       0.00  -81369.48  -81369.48        0.0        0.9        0.9        0.0        8.2        8.2        0.0       35.8       35.8        0.0       53.5       53.5
6/17/2016          22        360          0          5         16          0          7         16          0          0          0          0         79         94         56        0.0        0.0        0.0       62.0       69.8       57.2      30.04      30.07      30.01       0.00       0.00       0.00       55.2       59.1       53.4      30.04      30.07      30.01          0          0          0          0          0          0        0.0        0.0        0.0       0.00       0.00       0.00          0          0          0          0          0          0        0.0        0.0        0.0       0.00       0.00       0.00       0.00       0.00       0.00       0.00       0.00       0.00       0.00       0.00       0.00      0.000      0.000      0.000        0.0        0.1        0.1        0.0        0.0        0.0       0.00  -81510.24  -81510.24        0.0        1.0        1.0        0.0        8.2        8.2        0.0       35.9       35.9        0.0       53.5       53.5
6/18/2016           0        350          0          5         12          0          7         12          0          0          0          0         57         94         26        0.0        0.0        0.0       67.1       78.8       55.4      30.14      30.23      30.07       0.00       0.00       0.00       48.2       55.5       41.1      30.14      30.23      30.07          0          0          0          0          0          0        0.0        0.0        0.0       0.00       0.00       0.00          0          0          0          0          0          0        0.0        0.0        0.0       0.00       0.00       0.00       0.00       0.00       0.00       0.00       0.00       0.00       0.00       0.00       0.00      0.000      0.000      0.000        0.0        0.0        0.0        0.0        0.0        0.0       0.00       0.00       0.00        0.0        0.0        0.0        0.0        0.0        0.0        0.0        0.0        0.0        0.0        0.0        0.0
6/19/2016           0        360          0          6         16          0          9         16          0          0          0          0         35         68         10        0.0        0.0        0.0       74.8       89.6       60.8      30.04      30.12      29.96       0.00       0.00       0.00       41.3       51.9       25.9      30.04      30.12      29.96          0          0          0          0          0          0        0.0        0.0        0.0       0.00       0.00       0.00          0          0          0          0          0          0        0.0        0.0        0.0       0.00       0.00       0.00       0.00       0.00       0.00       0.00       0.00       0.00       0.00       0.00       0.00      0.000      0.000      0.000        0.0        0.0        0.0        0.0        0.1        0.1       0.00  -81777.48  -81777.48        0.0        1.1        1.1        0.0        8.3        8.3        0.0       35.9       35.9        0.0       53.6       53.6
6/20/2016           0        360          0          4         10          0          5         10          0          0          0          0         36         68         13        0.0        0.0        0.0       77.6       93.2       60.8      30.01      30.05      29.96       0.00       0.00       0.00       44.5       51.9       33.7      30.01      30.05      29.96          0          0          0          0          0          0        0.0        0.0        0.0       0.00       0.00       0.00          0          0          0          0          0          0        0.0        0.0        0.0       0.00       0.00       0.00       0.00       0.00       0.00       0.00       0.00       0.00       0.00       0.00       0.00      0.000      0.000      0.000        0.0        0.0        0.0        0.0        0.2        0.2       0.00  -81920.28  -81920.28        0.0        1.1        1.1        0.0        8.5        8.5        0.0       36.0       36.0        0.0       53.8       53.8
6/21/2016           0        360          0          4         13          0          6         13          0          0          0          0         37         68         16        0.0        0.0        0.0       82.5       96.8       64.4      29.96      30.04      29.86       0.00       0.00       0.00       50.1       60.8       43.3      29.96      30.04      29.86          0          0          0          0          0          0        0.0        0.0        0.0       0.00       0.00       0.00          0          0          0          0          0          0        0.0        0.0        0.0       0.00       0.00       0.00       0.00       0.00       0.00       0.00       0.00       0.00       0.00       0.00       0.00      0.000      0.000      0.000        0.0        0.0        0.0        0.0        0.2        0.2       0.00  -82059.00  -82059.00        0.0        1.1        1.1        0.0        8.8        8.8        0.0       36.0       36.0        0.0       54.1       54.1
6/22/2016         158        360          0          4         16          0          6         16          0          0          0          0         37         78         15        0.0        0.0        0.0       82.5       96.8       66.2      29.87      29.91      29.81       0.00       0.00       0.00       50.0       59.1       37.1      29.87      29.91      29.81          0          0          0          0          0          0        0.0        0.0        0.0       0.00       0.00       0.00          0          0          0          0          0          0        0.0        0.0        0.0       0.00       0.00       0.00       0.00       0.00       0.00       0.00       0.00       0.00       0.00       0.00       0.00      0.000      0.000      0.000        0.0        0.0        0.0        0.0        0.3        0.3       0.00  -82201.80  -82201.80        0.0        1.1        1.1        0.0        9.1        9.1        0.0       36.0       36.0        0.0       54.4       54.4
6/23/2016         180        310          0          5         16          0          7         16          0          0          0          0         36         68         20        0.0        0.0        0.0       77.6       91.4       60.8      29.94      30.00      29.89       0.00       0.00       0.00       46.4       55.7       39.0      29.94      30.00      29.89          0          0          0          0          0          0        0.0        0.0        0.0       0.00       0.00       0.00          0          0          0          0          0          0        0.0        0.0        0.0       0.00       0.00       0.00       0.00       0.00       0.00       0.00       0.00       0.00       0.00       0.00       0.00      0.000      0.000      0.000        0.0        0.0        0.0        0.0        0.0        0.0       0.00       0.00       0.00        0.0        0.0        0.0        0.0        0.0        0.0        0.0        0.0        0.0        0.0        0.0        0.0
6/24/2016           0        360          0          6         12          0          9         12          0          0          0          0         29         55         12        0.0        0.0        0.0       79.0       93.2       62.6      30.00      30.07      29.94       0.00       0.00       0.00       41.4       46.5       30.3      30.00      30.07      29.94          0          0          0          0          0          0        0.0        0.0        0.0       0.00       0.00       0.00          0          0          0          0          0          0        0.0        0.0        0.0       0.00       0.00       0.00       0.00       0.00       0.00       0.00       0.00       0.00       0.00       0.00       0.00      0.000      0.000      0.000        0.0        0.0        0.0        0.0        0.2        0.2       0.00  -82487.40  -82487.40        0.0        1.1        1.1        0.0        9.6        9.6        0.0       36.0       36.0        0.0       55.0       55.0
6/25/2016           0        360          0          6         17          0          9         17          0          0          0          0         24         47          5        0.0        0.0        0.0       84.4      100.4       69.8      29.92      29.98      29.83       0.00       0.00       0.00       38.7       52.0       17.4      29.92      29.98      29.83          0          0          0          0          0          0        0.0        0.0        0.0       0.00       0.00       0.00          0          0          0          0          0          0        0.0        0.0        0.0       0.00       0.00       0.00       0.00       0.00       0.00       0.00       0.00       0.00       0.00       0.00       0.00      0.000      0.000      0.000        0.0        0.0        0.0        0.0        0.3        0.3       0.00  -82617.96  -82617.96        0.0        1.1        1.1        0.0        9.9        9.9        0.0       36.0       36.0        0.0       55.2       55.2
6/26/2016           0        360          0          3         11          0          5         11          0          0          0          0         33         68         10        0.0        0.0        0.0       85.2      102.2       64.4      29.91      29.95      29.87       0.00       0.00       0.00       47.9       55.3       32.7      29.91      29.95      29.87          0          0          0          0          0          0        0.0        0.0        0.0       0.00       0.00       0.00          0          0          0          0          0          0        0.0        0.0        0.0       0.00       0.00       0.00       0.00       0.00       0.00       0.00       0.00       0.00       0.00       0.00       0.00      0.000      0.000      0.000        0.0        0.0        0.0        0.0        0.4        0.4       0.00  -82754.64  -82754.64        0.0        1.1        1.1        0.0       10.3       10.3        0.0       36.0       36.0        0.0       55.6       55.6
6/27/2016           0        360          0          3         14          0          5         14          0          0          0          0         31         68          9        0.0        0.0        0.0       87.6      105.8       66.2      29.93      29.99      29.87       0.00       0.00       0.00       47.2       57.5       35.4      29.93      29.99      29.87          0          0          0          0          0          0        0.0        0.0        0.0       0.00       0.00       0.00          0          0          0          0          0          0        0.0        0.0        0.0       0.00       0.00       0.00       0.00       0.00       0.00       0.00       0.00       0.00       0.00       0.00       0.00      0.000      0.000      0.000        0.0        0.0        0.0        0.0        0.4        0.4       0.00  -82897.44  -82897.44        0.0        1.1        1.1        0.0       10.6       10.6        0.0       36.0       36.0        0.0       55.9       55.9
6/28/2016           0        360          0          3         14          0          5         14          0          0          0          0         32         73          9        0.0        0.0        0.0       88.1      105.8       64.4      29.91      29.99      29.82       0.00       0.00       0.00       49.0       57.5       35.4      29.91      29.99      29.82          0          0          0          0          0          0        0.0        0.0        0.0       0.00       0.00       0.00          0          0          0          0          0          0        0.0        0.0        0.0       0.00       0.00       0.00       0.00       0.00       0.00       0.00       0.00       0.00       0.00       0.00       0.00      0.000      0.000      0.000        0.0        0.0        0.0        0.0        0.4        0.4       0.00  -82897.44  -82897.44        0.0        1.1        1.1        0.0       10.6       10.6        0.0       36.0       36.0        0.0       55.9       55.9
6/29/2016           0        360          0          5         12          3          7         12          4          0          0          0         31         54          9        0.0        0.0        0.0       90.2      105.8       73.4      29.84      29.89      29.78       0.00       0.00       0.00       50.9       57.5       34.1      29.84      29.89      29.78          0          0          0          0          0          0        0.0        0.0        0.0       0.00       0.00       0.00          0          0          0          0          0          0        0.0        0.0        0.0       0.00       0.00       0.00       0.00       0.00       0.00       0.00       0.00       0.00       0.00       0.00       0.00      0.000      0.000      0.000        0.0        0.0        0.0        0.0        0.8        0.8       0.00  -83162.64  -83162.64        0.0        1.1        1.1        0.0       11.5       11.5        0.0       36.0       36.0        0.0       56.8       56.8
6/30/2016           0        360          0          8         19          0         11         19          0          0          0          0         25         53          9        0.0        0.0        0.0       91.2      107.6       73.4      29.79      29.86      29.69       0.00       0.00       0.00       47.9       55.2       36.8      29.79      29.86      29.69          0          0          0          0          0          0        0.0        0.0        0.0       0.00       0.00       0.00          0          0          0          0          0          0        0.0        0.0        0.0       0.00       0.00       0.00       0.00       0.00       0.00       0.00       0.00       0.00       0.00       0.00       0.00      0.000      0.000      0.000        0.0        0.0        0.0        0.0        0.5        0.5       0.00  -83301.36  -83301.36        0.0        1.1        1.1        0.0       11.9       11.9        0.0       36.0       36.0        0.0       57.2       57.2
7/1/2016            0        360          0          8         16          0         11         16          0          0          0          0         25         54         15        0.0        0.0        0.0       90.9      102.2       78.8      29.77      29.80      29.73       0.00       0.00       0.00       48.2       60.8       43.0      29.77      29.80      29.73          0          0          0          0          0          0        0.0        0.0        0.0       0.00       0.00       0.00          0          0          0          0          0          0        0.0        0.0        0.0       0.00       0.00       0.00       0.00       0.00       0.00       0.00       0.00       0.00       0.00       0.00       0.00      0.000      0.000      0.000        0.0        0.0        0.0        0.0        0.5        0.5       0.00  -83442.12  -83442.12        0.0        1.1        1.1        0.0       12.4       12.4        0.0       36.0       36.0        0.0       57.7       57.7
7/2/2016          158        360          0          4         14          0          6         14          0          0          0          0         40         65         16        0.0        0.0        0.0       86.3      100.4       71.6      29.84      29.87      29.80       0.00       0.00       0.00       56.5       64.7       46.1      29.84      29.87      29.80          0          0          0          0          0          0        0.0        0.0        0.0       0.00       0.00       0.00          0          0          0          0          0          0        0.0        0.0        0.0       0.00       0.00       0.00       0.00       0.00       0.00       0.00       0.00       0.00       0.00       0.00       0.00      0.000      0.000      0.000        0.0        0.0        0.0        0.0        0.5        0.5       0.00  -83578.80  -83578.80        0.0        0.0        0.0        0.0        0.5        0.5        0.0       36.0       36.0        0.0       58.1       58.1
7/3/2016          158        280          0          5         17          0          7         17          0          0          0          0         40         69          0        0.0        0.0        0.0       85.7       98.6       71.6      29.90      29.95      29.85       0.00       0.00       0.00       55.0       62.8        0.0      29.90      29.95      29.85          0          0          0          0          0          0        0.0        0.0        0.0       0.00       0.00       0.00          0          0          0          0          0          0        0.0        0.0        0.0       0.00       0.00       0.00       0.00       0.00       0.00       0.00       0.00       0.00       0.00       0.00       0.00      0.000      0.000      0.000        0.0        0.0        0.0        0.0        0.4        0.4       0.00  -83719.56  -83719.56        0.0        0.0        0.0        0.0        0.9        0.9        0.0       36.0       36.0        0.0       58.5       58.5
7/4/2016          158        320          0          5         14          0          6         14          0          0          0          0         42         73         16        0.0        0.0        0.0       82.8       96.8       69.8      29.90      29.95      29.84       0.00       0.00       0.00       53.9       60.9       40.4      29.90      29.95      29.84          0          0          0          0          0          0        0.0        0.0        0.0       0.00       0.00       0.00          0          0          0          0          0          0        0.0        0.0        0.0       0.00       0.00       0.00       0.00       0.00       0.00       0.00       0.00       0.00       0.00       0.00       0.00      0.000      0.000      0.000        0.0        0.0        0.0        0.0        0.5        0.5       0.00  -83858.28  -83858.28        0.0        0.0        0.0        0.0        1.4        1.4        0.0       36.0       36.0        0.0       59.1       59.1
7/5/2016            0        360          0          4         13          0          6         13          0          0          0          0         42         68         19        0.0        0.0        0.0       80.8       93.2       66.2      29.87      29.93      29.79       0.00       0.00       0.00       53.7       60.8       44.9      29.87      29.93      29.79          0          0          0          0          0          0        0.0        0.0        0.0       0.00       0.00       0.00          0          0          0          0          0          0        0.0        0.0        0.0       0.00       0.00       0.00       0.00       0.00       0.00       0.00       0.00       0.00       0.00       0.00       0.00      0.000      0.000      0.000        0.0        0.0        0.0        0.0        0.3        0.3       0.00  -84001.08  -84001.08        0.0        0.0        0.0        0.0        1.7        1.7        0.0       36.0       36.0        0.0       59.4       59.4
7/6/2016          158        200          0          5         17          0          7         17          0          0          0          0         41         68         18        0.0        0.0        0.0       80.4       93.2       66.2      29.87      29.92      29.80       0.00       0.00       0.00       52.0       60.8       43.4      29.87      29.92      29.80          0          0          0          0          0          0        0.0        0.0        0.0       0.00       0.00       0.00          0          0          0          0          0          0        0.0        0.0        0.0       0.00       0.00       0.00       0.00       0.00       0.00       0.00       0.00       0.00       0.00       0.00       0.00      0.000      0.000      0.000        0.0        0.0        0.0        0.0        0.3        0.3       0.00  -84131.64  -84131.64        0.0        0.0        0.0        0.0        2.0        2.0        0.0       36.0       36.0        0.0       59.7       59.7
7/7/2016          180        220          0          6         16          0          8         16          0          0          0          0         45         68         26        0.0        0.0        0.0       80.0       91.4       66.2      29.87      29.92      29.80       0.00       0.00       0.00       55.3       60.8       51.7      29.87      29.92      29.80          0          0          0          0          0          0        0.0        0.0        0.0       0.00       0.00       0.00          0          0          0          0          0          0        0.0        0.0        0.0       0.00       0.00       0.00       0.00       0.00       0.00       0.00       0.00       0.00       0.00       0.00       0.00      0.000      0.000      0.000        0.0        0.0        0.0        0.0        0.3        0.3       0.00  -84270.36  -84270.36        0.0        0.0        0.0        0.0        2.3        2.3        0.0       36.0       36.0        0.0       60.0       60.0
7/8/2016          180        360          0          5         11          0          7         11          0          0          0          0         47         64         35        0.0        0.0        0.0       76.5       84.2       66.2      29.91      29.97      29.87       0.00       0.00       0.00       54.1       59.1       52.0      29.91      29.97      29.87          0          0          0          0          0          0        0.0        0.0        0.0       0.00       0.00       0.00          0          0          0          0          0          0        0.0        0.0        0.0       0.00       0.00       0.00       0.00       0.00       0.00       0.00       0.00       0.00       0.00       0.00       0.00      0.000      0.000      0.000        0.0        0.0        0.0        0.0        0.3        0.3       0.00  -84413.16  -84413.16        0.0        0.0        0.0        0.0        2.6        2.6        0.0       36.0       36.0        0.0       60.3       60.3
7/9/2016          180        330          0          8         28          0         11         28          0          0          0          0         45         61         33        0.0        0.0        0.0       78.3       87.8       71.6      29.94      29.99      29.89       0.00       0.00       0.00       54.8       59.2       50.2      29.94      29.99      29.89          0          0          0          0          0          0        0.0        0.0        0.0       0.00       0.00       0.00          0          0          0          0          0          0        0.0        0.0        0.0       0.00       0.00       0.00       0.00       0.00       0.00       0.00       0.00       0.00       0.00       0.00       0.00      0.000      0.000      0.000        0.0        0.0        0.0        0.0        0.0        0.0       0.00       0.00       0.00        0.0        0.0        0.0        0.0        0.0        0.0        0.0        0.0        0.0        0.0        0.0        0.0
7/10/2016           0        360          0          6         11          0         10         11          0          0          0          0         30         41         19        0.0        0.0        0.0       77.6       84.2       71.6      29.96      29.99      29.95       0.00       0.00       0.00       43.1       46.7       37.5      29.96      29.99      29.95          0          0          0          0          0          0        0.0        0.0        0.0       0.00       0.00       0.00          0          0          0          0          0          0        0.0        0.0        0.0       0.00       0.00       0.00       0.00       0.00       0.00       0.00       0.00       0.00       0.00       0.00       0.00      0.000      0.000      0.000        0.0        0.0        0.0        0.0        0.2        0.2       0.00  -84664.08  -84664.08        0.0        0.0        0.0        0.0        3.0        3.0        0.0       36.0       36.0        0.0       60.7       60.7
7/11/2016         338        350          0          7         19          0         10         19          0          0          0          0         28         43         10        0.0        0.0        0.0       78.5       91.4       66.2      29.89      29.99      29.78       0.00       0.00       0.00       39.6       46.7       27.2      29.89      29.99      29.78          0          0          0          0          0          0        0.0        0.0        0.0       0.00       0.00       0.00          0          0          0          0          0          0        0.0        0.0        0.0       0.00       0.00       0.00       0.00       0.00       0.00       0.00       0.00       0.00       0.00       0.00       0.00      0.000      0.000      0.000        0.0        0.0        0.0        0.0        0.1        0.1       0.00  -84698.76  -84698.76        0.0        0.0        0.0        0.0        3.1        3.1        0.0       36.0       36.0        0.0       60.8       60.8
7/12/2016           0        360          0          4         12          0          6         12          0          0          0          0         33         63         16        0.0        0.0        0.0       78.3       93.2       60.8      29.88      29.92      29.82       0.00       0.00       0.00       44.3       48.1       40.4      29.88      29.92      29.82          0          0          0          0          0          0        0.0        0.0        0.0       0.00       0.00       0.00          0          0          0          0          0          0        0.0        0.0        0.0       0.00       0.00       0.00       0.00       0.00       0.00       0.00       0.00       0.00       0.00       0.00       0.00      0.000      0.000      0.000        0.0        0.0        0.0        0.0        0.3        0.3       0.00  -84841.56  -84841.56        0.0        0.0        0.0        0.0        3.3        3.3        0.0       36.0       36.0        0.0       61.0       61.0
7/13/2016         338        360          0          4         11          0          6         11          0          0          0          0         25         53          7        0.0        0.0        0.0       86.5      100.4       68.0      29.90      29.95      29.85       0.00       0.00       0.00       41.2       50.3       25.3      29.90      29.95      29.85          0          0          0          0          0          0        0.0        0.0        0.0       0.00       0.00       0.00          0          0          0          0          0          0        0.0        0.0        0.0       0.00       0.00       0.00       0.00       0.00       0.00       0.00       0.00       0.00       0.00       0.00       0.00      0.000      0.000      0.000        0.0        0.0        0.0        0.0        0.3        0.3       0.00  -84976.20  -84976.20        0.0        0.0        0.0        0.0        3.6        3.6        0.0       36.0       36.0        0.0       61.3       61.3
7/14/2016           0        360          0          4         13          0          7         13          0          0          0          0         30         60          8        0.0        0.0        0.0       86.6      104.0       64.4      29.90      29.96      29.81       0.00       0.00       0.00       46.9       53.6       31.2      29.90      29.96      29.81          0          0          0          0          0          0        0.0        0.0        0.0       0.00       0.00       0.00          0          0          0          0          0          0        0.0        0.0        0.0       0.00       0.00       0.00       0.00       0.00       0.00       0.00       0.00       0.00       0.00       0.00       0.00      0.000      0.000      0.000        0.0        0.0        0.0        0.0        0.3        0.3       0.00  -85096.56  -85096.56        0.0        0.0        0.0        0.0        3.9        3.9        0.0       36.0       36.0        0.0       61.6       61.6
7/15/2016         180        330          0          6         20          0          9         20          0          0          0          0         30         57         16        0.0        0.0        0.0       88.0      102.2       69.8      29.82      29.89      29.72       0.00       0.00       0.00       49.6       57.5       37.1      29.82      29.89      29.72          0          0          0          0          0          0        0.0        0.0        0.0       0.00       0.00       0.00          0          0          0          0          0          0        0.0        0.0        0.0       0.00       0.00       0.00       0.00       0.00       0.00       0.00       0.00       0.00       0.00       0.00       0.00      0.000      0.000      0.000        0.0        0.0        0.0        0.0        0.4        0.4       0.00  -85237.32  -85237.32        0.0        0.0        0.0        0.0        4.3        4.3        0.0       36.0       36.0        0.0       62.0       62.0
7/16/2016         338        350         10          6         11          3          9         11          4          0          0          0         28         39         23        0.0        0.0        0.0       77.5       78.8       75.2      29.80      29.82      29.79       0.00       0.00       0.00       41.7       48.6       37.9      29.80      29.82      29.79          0          0          0          0          0          0        0.0        0.0        0.0       0.00       0.00       0.00          0          0          0          0          0          0        0.0        0.0        0.0       0.00       0.00       0.00       0.00       0.00       0.00       0.00       0.00       0.00       0.00       0.00       0.00      0.000      0.000      0.000        0.0        0.0        0.0        0.0        0.0        0.0       0.00       0.00       0.00        0.0        0.0        0.0        0.0        0.0        0.0        0.0        0.0        0.0        0.0        0.0        0.0
7/17/2016         158        350          0         10         23          3         13         23          4          0          0          0         33         53         23        0.0        0.0        0.0       82.0       91.4       73.4      29.80      29.84      29.77       0.00       0.00       0.00       48.9       55.9       37.9      29.80      29.84      29.77          0          0          0          0          0          0        0.0        0.0        0.0       0.00       0.00       0.00          0          0          0          0          0          0        0.0        0.0        0.0       0.00       0.00       0.00       0.00       0.00       0.00       0.00       0.00       0.00       0.00       0.00       0.00      0.000      0.000      0.000        0.0        0.0        0.0        0.0        0.0        0.0       0.00       0.00       0.00        0.0        0.0        0.0        0.0        0.0        0.0        0.0        0.0        0.0        0.0        0.0        0.0
7/18/2016         180        210          0          9         17          0         13         17          0          0          0          0         43         64         25        0.0        0.0        0.0       75.9       86.0       64.4      29.95      30.00      29.84       0.00       0.00       0.00       50.9       55.7       44.6      29.95      30.00      29.84          0          0          0          0          0          0        0.0        0.0        0.0       0.00       0.00       0.00          0          0          0          0          0          0        0.0        0.0        0.0       0.00       0.00       0.00       0.00       0.00       0.00       0.00       0.00       0.00       0.00       0.00       0.00      0.000      0.000      0.000        0.0        0.0        0.0        0.0        0.3        0.3       0.00  -85516.80  -85516.80        0.0        0.0        0.0        0.0        5.0        5.0        0.0       36.0       36.0        0.0       62.7       62.7
7/19/2016         202        260          0          5         13          0          6         13          0          0          0          0         40         68         16        0.0        0.0        0.0       77.2       89.6       64.4      29.98      30.05      29.91       0.00       0.00       0.00       48.1       53.7       37.5      29.98      30.05      29.91          0          0          0          0          0          0        0.0        0.0        0.0       0.00       0.00       0.00          0          0          0          0          0          0        0.0        0.0        0.0       0.00       0.00       0.00       0.00       0.00       0.00       0.00       0.00       0.00       0.00       0.00       0.00      0.000      0.000      0.000        0.0        0.0        0.0        0.0        0.2        0.2       0.00  -85657.56  -85657.56        0.0        0.0        0.0        0.0        5.2        5.2        0.0       36.0       36.0        0.0       62.9       62.9
7/20/2016           0        360          0          5         13          0          7         13          0          0          0          0         30         68         12        0.0        0.0        0.0       80.4       93.2       62.6      29.96      30.02      29.90       0.00       0.00       0.00       42.0       51.9       33.1      29.96      30.02      29.90          0          0          0          0          0          0        0.0        0.0        0.0       0.00       0.00       0.00          0          0          0          0          0          0        0.0        0.0        0.0       0.00       0.00       0.00       0.00       0.00       0.00       0.00       0.00       0.00       0.00       0.00       0.00      0.000      0.000      0.000        0.0        0.0        0.0        0.0        0.2        0.2       0.00  -85802.40  -85802.40        0.0        0.0        0.0        0.0        5.5        5.5        0.0       36.0       36.0        0.0       63.1       63.1
7/21/2016         180        350          0          5         17          0          7         17          0          0          0          0         31         60          9        0.0        0.0        0.0       79.4       95.0       62.6      29.98      30.02      29.94       0.00       0.00       0.00       42.7       50.2       27.4      29.98      30.02      29.94          0          0          0          0          0          0        0.0        0.0        0.0       0.00       0.00       0.00          0          0          0          0          0          0        0.0        0.0        0.0       0.00       0.00       0.00       0.00       0.00       0.00       0.00       0.00       0.00       0.00       0.00       0.00      0.000      0.000      0.000        0.0        0.0        0.0        0.0        0.0        0.0       0.00       0.00       0.00        0.0        0.0        0.0        0.0        0.0        0.0        0.0        0.0        0.0        0.0        0.0        0.0
7/22/2016           0        340          0          4         10          0          5         10          0          0          0          0         30         55          8        0.0        0.0        0.0       79.8       98.6       60.8      30.03      30.10      29.96       0.00       0.00       0.00       41.1       46.7       25.9      30.03      30.10      29.96          0          0          0          0          0          0        0.0        0.0        0.0       0.00       0.00       0.00          0          0          0          0          0          0        0.0        0.0        0.0       0.00       0.00       0.00       0.00       0.00       0.00       0.00       0.00       0.00       0.00       0.00       0.00      0.000      0.000      0.000        0.0        0.0        0.0        0.0        0.0        0.0       0.00       0.00       0.00        0.0        0.0        0.0        0.0        0.0        0.0        0.0        0.0        0.0        0.0        0.0        0.0
7/23/2016         338        360          0          7         17          0          9         17          0          0          0          0         19         41          7        0.0        0.0        0.0       92.3      105.8       71.6      29.87      30.00      29.78       0.00       0.00       0.00       40.2       48.1       29.2      29.87      30.00      29.78          0          0          0          0          0          0        0.0        0.0        0.0       0.00       0.00       0.00          0          0          0          0          0          0        0.0        0.0        0.0       0.00       0.00       0.00       0.00       0.00       0.00       0.00       0.00       0.00       0.00       0.00       0.00      0.000      0.000      0.000        0.0        0.0        0.0        0.0        0.0        0.0       0.00       0.00       0.00        0.0        0.0        0.0        0.0        0.0        0.0        0.0        0.0        0.0        0.0        0.0        0.0
7/24/2016           0        350          0          6         14          0          9         14          0          0          0          0         24         40         13        0.0        0.0        0.0       89.9      102.2       75.2      29.79      29.82      29.75       0.00       0.00       0.00       46.3       57.5       42.1      29.79      29.82      29.75          0          0          0          0          0          0        0.0        0.0        0.0       0.00       0.00       0.00          0          0          0          0          0          0        0.0        0.0        0.0       0.00       0.00       0.00       0.00       0.00       0.00       0.00       0.00       0.00       0.00       0.00       0.00      0.000      0.000      0.000        0.0        0.0        0.0        0.0        0.4        0.4       0.00  -86300.16  -86300.16        0.0        0.0        0.0        0.0        6.6        6.6        0.0       36.0       36.0        0.0       64.3       64.3
7/25/2016         338        360          0          4         14          0          6         14          0          0          0          0         29         60         10        0.0        0.0        0.0       88.2      105.8       69.8      29.86      29.91      29.80       0.00       0.00       0.00       48.1       55.3       38.1      29.86      29.91      29.80          0          0          0          0          0          0        0.0        0.0        0.0       0.00       0.00       0.00          0          0          0          0          0          0        0.0        0.0        0.0       0.00       0.00       0.00       0.00       0.00       0.00       0.00       0.00       0.00       0.00       0.00       0.00      0.000      0.000      0.000        0.0        0.0        0.0        0.0        0.4        0.4       0.00  -86440.92  -86440.92        0.0        0.0        0.0        0.0        7.0        7.0        0.0       36.0       36.0        0.0       64.7       64.7
7/26/2016           0        350          0          4         14          0          6         14          0          0          0          0         30         56         11        0.0        0.0        0.0       89.8      107.6       69.8      29.84      29.91      29.75       0.00       0.00       0.00       50.6       55.6       41.9      29.84      29.91      29.75          0          0          0          0          0          0        0.0        0.0        0.0       0.00       0.00       0.00          0          0          0          0          0          0        0.0        0.0        0.0       0.00       0.00       0.00       0.00       0.00       0.00       0.00       0.00       0.00       0.00       0.00       0.00      0.000      0.000      0.000        0.0        0.0        0.0        0.0        0.4        0.4       0.00  -86587.80  -86587.80        0.0        0.0        0.0        0.0        7.5        7.5        0.0       36.0       36.0        0.0       65.1       65.1
7/27/2016           0        360          0          4         12          0          6         12          0          0          0          0         29         60          9        0.0        0.0        0.0       90.7      107.6       69.8      29.83      29.88      29.76       0.00       0.00       0.00       49.7       55.7       36.8      29.83      29.88      29.76          0          0          0          0          0          0        0.0        0.0        0.0       0.00       0.00       0.00          0          0          0          0          0          0        0.0        0.0        0.0       0.00       0.00       0.00       0.00       0.00       0.00       0.00       0.00       0.00       0.00       0.00       0.00      0.000      0.000      0.000        0.0        0.0        0.0        0.0        0.4        0.4       0.00  -86732.64  -86732.64        0.0        0.0        0.0        0.0        7.9        7.9        0.0       36.0       36.0        0.0       65.6       65.6
7/28/2016           0        360          0          4         11          0          6         11          0          0          0          0         29         53          7        0.0        0.0        0.0       92.1      111.2       73.4      29.81      29.87      29.72       0.00       0.00       0.00       50.9       55.9       33.1      29.81      29.87      29.72          0          0          0          0          0          0        0.0        0.0        0.0       0.00       0.00       0.00          0          0          0          0          0          0        0.0        0.0        0.0       0.00       0.00       0.00       0.00       0.00       0.00       0.00       0.00       0.00       0.00       0.00       0.00      0.000      0.000      0.000        0.0        0.0        0.0        0.0        0.5        0.5       0.00  -86873.40  -86873.40        0.0        0.0        0.0        0.0        8.4        8.4        0.0       36.0       36.0        0.0       66.1       66.1
7/29/2016           0        350          0          5         14          0          7         14          0          0          0          0         30         54         12        0.0        0.0        0.0       92.3      109.4       75.2      29.75      29.81      29.66       0.00       0.00       0.00       52.6       57.6       45.6      29.75      29.81      29.66          0          0          0          0          0          0        0.0        0.0        0.0       0.00       0.00       0.00          0          0          0          0          0          0        0.0        0.0        0.0       0.00       0.00       0.00       0.00       0.00       0.00       0.00       0.00       0.00       0.00       0.00       0.00      0.000      0.000      0.000        0.0        0.0        0.0        0.0        0.5        0.5       0.00  -87018.24  -87018.24        0.0        0.0        0.0        0.0        8.9        8.9        0.0       36.0       36.0        0.0       66.5       66.5
7/30/2016         158        340          0          6         20          0          9         20          0          0          0          0         29         57          8        0.0        0.0        0.0       91.2      107.6       73.4      29.72      29.76      29.66       0.00       0.00       0.00       50.7       57.5       32.5      29.72      29.76      29.66          0          0          0          0          0          0        0.0        0.0        0.0       0.00       0.00       0.00          0          0          0          0          0          0        0.0        0.0        0.0       0.00       0.00       0.00       0.00       0.00       0.00       0.00       0.00       0.00       0.00       0.00       0.00      0.000      0.000      0.000        0.0        0.0        0.0        0.0        0.5        0.5       0.00  -87156.96  -87156.96        0.0        0.0        0.0        0.0        9.3        9.3        0.0       36.0       36.0        0.0       67.0       67.0
7/31/2016         180        360          0          5         20          0          7         20          0          0          0          0         32         56         11        0.0        0.0        0.0       82.9       96.8       66.2      29.81      29.85      29.75       0.00       0.00       0.00       47.3       53.5       33.7      29.81      29.85      29.75          0          0          0          0          0          0        0.0        0.0        0.0       0.00       0.00       0.00          0          0          0          0          0          0        0.0        0.0        0.0       0.00       0.00       0.00       0.00       0.00       0.00       0.00       0.00       0.00       0.00       0.00       0.00      0.000      0.000      0.000        0.0        0.0        0.0        0.0        0.5        0.5       0.00  -87301.80  -87301.80        0.0        0.0        0.0        0.0        9.8        9.8        0.0       36.0       36.0        0.0       67.5       67.5
8/1/2016          202        340          0          4         16          0          7         16          0          0          0          0         31         60         11        0.0        0.0        0.0       82.8      100.4       64.4      29.87      29.91      29.82       0.00       0.00       0.00       44.4       52.0       35.1      29.87      29.91      29.82          0          0          0          0          0          0        0.0        0.0        0.0       0.00       0.00       0.00          0          0          0          0          0          0        0.0        0.0        0.0       0.00       0.00       0.00       0.00       0.00       0.00       0.00       0.00       0.00       0.00       0.00       0.00      0.000      0.000      0.000        0.0        0.0        0.0        0.0        0.3        0.3       0.00  -87438.48  -87438.48        0.0        0.0        0.0        0.0       10.1       10.1        0.0       36.0       36.0        0.0       67.8       67.8
8/2/2016          158        360          0          3         13          0          5         13          0          0          0          0         30         52         11        0.0        0.0        0.0       82.8      100.4       64.4      29.91      29.97      29.84       0.00       0.00       0.00       44.7       48.7       36.4      29.91      29.97      29.84          0          0          0          0          0          0        0.0        0.0        0.0       0.00       0.00       0.00          0          0          0          0          0          0        0.0        0.0        0.0       0.00       0.00       0.00       0.00       0.00       0.00       0.00       0.00       0.00       0.00       0.00       0.00      0.000      0.000      0.000        0.0        0.0        0.0        0.0        0.3        0.3       0.00  -87581.28  -87581.28        0.0        0.0        0.0        0.0        0.3        0.3        0.0       36.0       36.0        0.0       68.1       68.1
8/3/2016            0        350          0          4         14          0          7         14          0          0          0          0         25         52          7        0.0        0.0        0.0       86.6      104.0       64.4      29.87      29.96      29.76       0.00       0.00       0.00       41.5       53.8       27.9      29.87      29.96      29.76          0          0          0          0          0          0        0.0        0.0        0.0       0.00       0.00       0.00          0          0          0          0          0          0        0.0        0.0        0.0       0.00       0.00       0.00       0.00       0.00       0.00       0.00       0.00       0.00       0.00       0.00       0.00      0.000      0.000      0.000        0.0        0.0        0.0        0.0        0.3        0.3       0.00  -87717.96  -87717.96        0.0        0.0        0.0        0.0        0.7        0.7        0.0       36.0       36.0        0.0       68.5       68.5
8/4/2016          180        340          0          6         14          0          8         14          0          0          0          0         36         54         11        0.0        0.0        0.0       82.9       98.6       68.0      29.81      29.88      29.73       0.00       0.00       0.00       50.3       60.8       33.7      29.81      29.88      29.73          0          0          0          0          0          0        0.0        0.0        0.0       0.00       0.00       0.00          0          0          0          0          0          0        0.0        0.0        0.0       0.00       0.00       0.00       0.00       0.00       0.00       0.00       0.00       0.00       0.00       0.00       0.00      0.000      0.000      0.000        0.0        0.0        0.0        0.0        0.4        0.4       0.00  -87864.84  -87864.84        0.0        0.0        0.0        0.0        1.0        1.0        0.0       36.0       36.0        0.0       68.9       68.9
8/5/2016          180        340          0          5         14          0          8         14          0          0          0          0         38         68         11        0.0        0.0        0.0       80.4       98.6       62.6      29.81      29.88      29.73       0.00       0.00       0.00       49.5       60.8       33.7      29.81      29.88      29.73          0          0          0          0          0          0        0.0        0.0        0.0       0.00       0.00       0.00          0          0          0          0          0          0        0.0        0.0        0.0       0.00       0.00       0.00       0.00       0.00       0.00       0.00       0.00       0.00       0.00       0.00       0.00      0.000      0.000      0.000        0.0        0.0        0.0        0.0        0.4        0.4       0.00  -87864.84  -87864.84        0.0        0.0        0.0        0.0        1.0        1.0        0.0       36.0       36.0        0.0       68.9       68.9
8/6/2016            0        360          0          4         14          0          6         14          0          0          0          0         37         59         19        0.0        0.0        0.0       79.0       93.2       62.6      29.79      29.84      29.70       0.00       0.00       0.00       48.2       55.4       44.7      29.79      29.84      29.70          0          0          0          0          0          0        0.0        0.0        0.0       0.00       0.00       0.00          0          0          0          0          0          0        0.0        0.0        0.0       0.00       0.00       0.00       0.00       0.00       0.00       0.00       0.00       0.00       0.00       0.00       0.00      0.000      0.000      0.000        0.0        0.0        0.0        0.0        0.6        0.6       0.00  -88158.60  -88158.60        0.0        0.0        0.0        0.0        1.6        1.6        0.0       36.0       36.0        0.0       69.4       69.4
8/7/2016          180        200          0          3         16          0          5         16          0          0          0          0         37         68         15        0.0        0.0        0.0       79.2       93.2       62.6      29.80      29.87      29.74       0.00       0.00       0.00       47.7       52.0       38.7      29.80      29.87      29.74          0          0          0          0          0          0        0.0        0.0        0.0       0.00       0.00       0.00          0          0          0          0          0          0        0.0        0.0        0.0       0.00       0.00       0.00       0.00       0.00       0.00       0.00       0.00       0.00       0.00       0.00       0.00      0.000      0.000      0.000        0.0        0.0        0.0        0.0        0.3        0.3       0.00  -88303.44  -88303.44        0.0        0.0        0.0        0.0        1.9        1.9        0.0       36.0       36.0        0.0       69.7       69.7
8/8/2016            0        360          0          4         16          0          6         16          0          0          0          0         30         56         16        0.0        0.0        0.0       81.2       95.0       64.4      29.76      29.81      29.68       0.00       0.00       0.00       45.0       48.5       39.0      29.76      29.81      29.68          0          0          0          0          0          0        0.0        0.0        0.0       0.00       0.00       0.00          0          0          0          0          0          0        0.0        0.0        0.0       0.00       0.00       0.00       0.00       0.00       0.00       0.00       0.00       0.00       0.00       0.00       0.00      0.000      0.000      0.000        0.0        0.0        0.0        0.0        0.3        0.3       0.00  -88444.20  -88444.20        0.0        0.0        0.0        0.0        2.1        2.1        0.0       36.0       36.0        0.0       69.9       69.9
8/9/2016            0        360          0          8         17          3         10         17          4          0          0          0         26         41         10        0.0        0.0        0.0       84.5       96.8       73.4      29.77      29.83      29.70       0.00       0.00       0.00       42.6       48.6       31.3      29.77      29.83      29.70          0          0          0          0          0          0        0.0        0.0        0.0       0.00       0.00       0.00          0          0          0          0          0          0        0.0        0.0        0.0       0.00       0.00       0.00       0.00       0.00       0.00       0.00       0.00       0.00       0.00       0.00       0.00      0.000      0.000      0.000        0.0        0.0        0.0        0.0        0.0        0.0       0.00       0.00       0.00        0.0        0.0        0.0        0.0        0.0        0.0        0.0        0.0        0.0        0.0        0.0        0.0
8/10/2016         180        350          0          5         14          0          7         14          0          0          0          0         27         47         17        0.0        0.0        0.0       87.6       96.8       75.2      29.81      29.87      29.77       0.00       0.00       0.00       47.8       53.6       44.8      29.81      29.87      29.77          0          0          0          0          0          0        0.0        0.0        0.0       0.00       0.00       0.00          0          0          0          0          0          0        0.0        0.0        0.0       0.00       0.00       0.00       0.00       0.00       0.00       0.00       0.00       0.00       0.00       0.00       0.00      0.000      0.000      0.000        0.0        0.0        0.0        0.0        0.0        0.0       0.00       0.00       0.00        0.0        0.0        0.0        0.0        0.0        0.0        0.0        0.0        0.0        0.0        0.0        0.0
8/11/2016         338        340          0          5         17          0          7         17          0          0          0          0         33         56         12        0.0        0.0        0.0       85.9      102.2       69.8      29.90      29.95      29.84       0.00       0.00       0.00       50.5       57.5       40.0      29.90      29.95      29.84          0          0          0          0          0          0        0.0        0.0        0.0       0.00       0.00       0.00          0          0          0          0          0          0        0.0        0.0        0.0       0.00       0.00       0.00       0.00       0.00       0.00       0.00       0.00       0.00       0.00       0.00       0.00      0.000      0.000      0.000        0.0        0.0        0.0        0.0        0.3        0.3       0.00  -88823.64  -88823.64        0.0        0.0        0.0        0.0        3.1        3.1        0.0       36.0       36.0        0.0       70.9       70.9
8/12/2016         158        360          0          4         14          0          6         14          0          0          0          0         38         64         18        0.0        0.0        0.0       85.2      100.4       69.8      29.94      29.99      29.87       0.00       0.00       0.00       54.0       57.5       47.8      29.94      29.99      29.87          0          0          0          0          0          0        0.0        0.0        0.0       0.00       0.00       0.00          0          0          0          0          0          0        0.0        0.0        0.0       0.00       0.00       0.00       0.00       0.00       0.00       0.00       0.00       0.00       0.00       0.00       0.00      0.000      0.000      0.000        0.0        0.0        0.0        0.0        0.4        0.4       0.00  -88964.40  -88964.40        0.0        0.0        0.0        0.0        3.5        3.5        0.0       36.0       36.0        0.0       71.3       71.3
8/13/2016         180        350          0          4         12          0          6         12          0          0          0          0         32         64         14        0.0        0.0        0.0       86.4      102.2       68.0      29.89      29.95      29.80       0.00       0.00       0.00       49.7       55.6       44.0      29.89      29.95      29.80          0          0          0          0          0          0        0.0        0.0        0.0       0.00       0.00       0.00          0          0          0          0          0          0        0.0        0.0        0.0       0.00       0.00       0.00       0.00       0.00       0.00       0.00       0.00       0.00       0.00       0.00       0.00      0.000      0.000      0.000        0.0        0.0        0.0        0.0        0.4        0.4       0.00  -89105.16  -89105.16        0.0        0.0        0.0        0.0        3.8        3.8        0.0       36.0       36.0        0.0       71.6       71.6
8/14/2016         158        360          0          4         16          0          6         16          0          0          0          0         31         60          9        0.0        0.0        0.0       85.8      100.4       68.0      29.83      29.87      29.77       0.00       0.00       0.00       47.6       53.6       31.4      29.83      29.87      29.77          0          0          0          0          0          0        0.0        0.0        0.0       0.00       0.00       0.00          0          0          0          0          0          0        0.0        0.0        0.0       0.00       0.00       0.00       0.00       0.00       0.00       0.00       0.00       0.00       0.00       0.00       0.00      0.000      0.000      0.000        0.0        0.0        0.0        0.0        0.4        0.4       0.00  -89250.00  -89250.00        0.0        0.0        0.0        0.0        4.2        4.2        0.0       36.0       36.0        0.0       72.0       72.0
8/15/2016         338        350          0          6         17          0          8         17          0          0          0          0         29         56         10        0.0        0.0        0.0       87.2      105.8       66.2      29.84      29.88      29.79       0.00       0.00       0.00       46.8       57.3       36.8      29.84      29.88      29.79          0          0          0          0          0          0        0.0        0.0        0.0       0.00       0.00       0.00          0          0          0          0          0          0        0.0        0.0        0.0       0.00       0.00       0.00       0.00       0.00       0.00       0.00       0.00       0.00       0.00       0.00       0.00      0.000      0.000      0.000        0.0        0.0        0.0        0.0        0.4        0.4       0.00  -89394.84  -89394.84        0.0        0.0        0.0        0.0        4.6        4.6        0.0       36.0       36.0        0.0       72.4       72.4
8/16/2016           0        330          0          4         10          0          5         10          0          0          0          0         42         60         17        0.0        0.0        0.0       78.7      100.4       66.2      29.84      29.87      29.79       0.00       0.00       0.00       51.6       57.4       47.7      29.84      29.87      29.79          0          0          0          0          0          0        0.0        0.0        0.0       0.00       0.00       0.00          0          0          0          0          0          0        0.0        0.0        0.0       0.00       0.00       0.00       0.00       0.00       0.00       0.00       0.00       0.00       0.00       0.00       0.00      0.000      0.000      0.000        0.0        0.0        0.0        0.0        0.4        0.4       0.00  -89541.72  -89541.72        0.0        0.0        0.0        0.0        5.0        5.0        0.0       36.0       36.0        0.0       72.8       72.8
8/15/2016           0        330          0          4         17          0          5         17          0          0          0          0         42         60         10        0.0        0.0        0.0       78.7      105.8       66.2      29.84      29.87      29.79       0.00       0.00       0.00       51.6       57.4       38.1      29.84      29.87      29.79          0          0          0          0          0          0        0.0        0.0        0.0       0.00       0.00       0.00          0          0          0          0          0          0        0.0        0.0        0.0       0.00       0.00       0.00       0.00       0.00       0.00       0.00       0.00       0.00       0.00       0.00       0.00      0.000      0.000      0.000        0.0        0.0        0.0        0.0        0.4        0.4       0.00  -89541.72  -89541.72        0.0        0.0        0.0        0.0        5.0        5.0        0.0       36.0       36.0        0.0       72.8       72.8
8/16/2016           0        330          0          5         19          0          8         19          0          0          0          0         40         60         10        0.0        0.0        0.0       83.5      105.8       66.2      29.81      29.87      29.71       0.00       0.00       0.00       54.1       61.2       38.1      29.81      29.87      29.71          0          0          0          0          0          0        0.0        0.0        0.0       0.00       0.00       0.00          0          0          0          0          0          0        0.0        0.0        0.0       0.00       0.00       0.00       0.00       0.00       0.00       0.00       0.00       0.00       0.00       0.00       0.00      0.000      0.000      0.000        0.0        0.0        0.0        0.0        0.4        0.4       0.00  -89541.72  -89541.72        0.0        0.0        0.0        0.0        5.0        5.0        0.0       36.0       36.0        0.0       72.8       72.8
8/17/2016           0        350          0          6         24          0          9         24          0          0          0          0         38         65         13        0.0        0.0        0.0       87.5      107.6       69.8      29.76      29.84      29.68       0.00       0.00       0.00       54.8       60.8       44.9      29.76      29.84      29.68          0          0          0          0          0          0        0.0        0.0        0.0       0.00       0.00       0.00          0          0          0          0          0          0        0.0        0.0        0.0       0.00       0.00       0.00       0.00       0.00       0.00       0.00       0.00       0.00       0.00       0.00       0.00      0.000      0.000      0.000        0.0        0.0        0.0        0.0        0.3        0.3       0.00  -89682.48  -89682.48        0.0        0.0        0.0        0.0        5.3        5.3        0.0       36.0       36.0        0.0       73.1       73.1
8/18/2016         180        330          0          5         17          0          7         17          0          0          0          0         37         61         17        0.0        0.0        0.0       87.6      105.8       69.8      29.77      29.81      29.69       0.00       0.00       0.00       55.8       59.0       52.1      29.77      29.81      29.69          0          0          0          0          0          0        0.0        0.0        0.0       0.00       0.00       0.00          0          0          0          0          0          0        0.0        0.0        0.0       0.00       0.00       0.00       0.00       0.00       0.00       0.00       0.00       0.00       0.00       0.00       0.00      0.000      0.000      0.000        0.0        0.0        0.0        0.0        0.4        0.4       0.00  -89825.28  -89825.28        0.0        0.0        0.0        0.0        5.7        5.7        0.0       36.0       36.0        0.0       73.5       73.5
8/19/2016         158        360          0          4         16          0          7         16          0          0          0          0         41         64         21        0.0        0.0        0.0       85.1      100.4       69.8      29.81      29.86      29.74       0.00       0.00       0.00       57.0       62.4       53.4      29.81      29.86      29.74          0          0          0          0          0          0        0.0        0.0        0.0       0.00       0.00       0.00          0          0          0          0          0          0        0.0        0.0        0.0       0.00       0.00       0.00       0.00       0.00       0.00       0.00       0.00       0.00       0.00       0.00       0.00      0.000      0.000      0.000        0.0        0.0        0.0        0.0        0.4        0.4       0.00  -89970.12  -89970.12        0.0        0.0        0.0        0.0        6.1        6.1        0.0       36.0       36.0        0.0       73.9       73.9
8/20/2016         180        200          0          3         13          0          5         13          0          0          0          0         45         73         20        0.0        0.0        0.0       84.7      100.4       69.8      29.83      29.91      29.73       0.00       0.00       0.00       57.9       62.5       52.1      29.83      29.91      29.73          0          0          0          0          0          0        0.0        0.0        0.0       0.00       0.00       0.00          0          0          0          0          0          0        0.0        0.0        0.0       0.00       0.00       0.00       0.00       0.00       0.00       0.00       0.00       0.00       0.00       0.00       0.00      0.000      0.000      0.000        0.0        0.0        0.0        0.0        0.4        0.4       0.00  -90117.00  -90117.00        0.0        0.0        0.0        0.0        6.5        6.5        0.0       36.0       36.0        0.0       74.3       74.3
8/21/2016          22        340          0          5         17          0          7         17          0          0          0          0         45         69         18        0.0        0.0        0.0       82.6       98.6       68.0      29.81      29.88      29.73       0.00       0.00       0.00       56.1       62.8       47.8      29.81      29.88      29.73          0          0          0          0          0          0        0.0        0.0        0.0       0.00       0.00       0.00          0          0          0          0          0          0        0.0        0.0        0.0       0.00       0.00       0.00       0.00       0.00       0.00       0.00       0.00       0.00       0.00       0.00       0.00      0.000      0.000      0.000        0.0        0.0        0.0        0.0        0.0        0.0       0.00       0.00       0.00        0.0        0.0        0.0        0.0        0.0        0.0        0.0        0.0        0.0        0.0        0.0        0.0
8/22/2016         158        190          0          4         16          0          6         16          0          0          0          0         42         68         18        0.0        0.0        0.0       82.8       98.6       66.2      29.84      29.90      29.75       0.00       0.00       0.00       54.6       60.6       47.8      29.84      29.90      29.75          0          0          0          0          0          0        0.0        0.0        0.0       0.00       0.00       0.00          0          0          0          0          0          0        0.0        0.0        0.0       0.00       0.00       0.00       0.00       0.00       0.00       0.00       0.00       0.00       0.00       0.00       0.00      0.000      0.000      0.000        0.0        0.0        0.0        0.0        0.2        0.2       0.00  -90359.76  -90359.76        0.0        0.0        0.0        0.0        7.1        7.1        0.0       36.0       36.0        0.0       74.9       74.9
8/23/2016          22        190          0          3         10          0          5         10          0          0          0          0         55         72         42        0.0        0.0        0.0       70.1       78.8       62.6      29.94      29.98      29.91       0.00       0.00       0.00       52.6       53.8       51.8      29.94      29.98      29.91          0          0          0          0          0          0        0.0        0.0        0.0       0.00       0.00       0.00          0          0          0          0          0          0        0.0        0.0        0.0       0.00       0.00       0.00       0.00       0.00       0.00       0.00       0.00       0.00       0.00       0.00       0.00      0.000      0.000      0.000        0.0        0.0        0.0        0.0        0.0        0.0       0.00       0.00       0.00        0.0        0.0        0.0        0.0        0.0        0.0        0.0        0.0        0.0        0.0        0.0        0.0
8/25/2016          22        350          0          6         16          0          9         16          0          0          0          0         30         72          9        0.0        0.0        0.0       84.6      100.4       62.6      29.84      29.98      29.73       0.00       0.00       0.00       43.5       53.8       30.1      29.84      29.98      29.73          0          0          0          0          0          0        0.0        0.0        0.0       0.00       0.00       0.00          0          0          0          0          0          0        0.0        0.0        0.0       0.00       0.00       0.00       0.00       0.00       0.00       0.00       0.00       0.00       0.00       0.00       0.00      0.000      0.000      0.000        0.0        0.0        0.0        0.0        0.0        0.0       0.00       0.00       0.00        0.0        0.0        0.0        0.0        0.0        0.0        0.0        0.0        0.0        0.0        0.0        0.0
8/26/2016         180        320          0          5         19          0          7         19          0          0          0          0         36         60         13        0.0        0.0        0.0       79.7       96.8       62.6      29.84      29.89      29.78       0.00       0.00       0.00       47.8       53.8       37.9      29.84      29.89      29.78          0          0          0          0          0          0        0.0        0.0        0.0       0.00       0.00       0.00          0          0          0          0          0          0        0.0        0.0        0.0       0.00       0.00       0.00       0.00       0.00       0.00       0.00       0.00       0.00       0.00       0.00       0.00      0.000      0.000      0.000        0.0        0.0        0.0        0.0        0.0        0.0       0.00       0.00       0.00        0.0        0.0        0.0        0.0        0.0        0.0        0.0        0.0        0.0        0.0        0.0        0.0
8/27/2016         180        270          0          3         17          0          5         17          0          0          0          0         42         63         18        0.0        0.0        0.0       76.8       93.2       60.8      29.91      29.96      29.84       0.00       0.00       0.00       49.5       55.7       40.5      29.91      29.96      29.84          0          0          0          0          0          0        0.0        0.0        0.0       0.00       0.00       0.00          0          0          0          0          0          0        0.0        0.0        0.0       0.00       0.00       0.00       0.00       0.00       0.00       0.00       0.00       0.00       0.00       0.00       0.00      0.000      0.000      0.000        0.0        0.0        0.0        0.0        0.3        0.3       0.00  -90771.84  -90771.84        0.0        0.0        0.0        0.0        8.0        8.0        0.0       36.0       36.0        0.0       75.8       75.8
8/28/2016           0        360          0          4         13          0          6         13          0          0          0          0         39         68         13        0.0        0.0        0.0       77.2       93.2       62.6      30.00      30.06      29.94       0.00       0.00       0.00       46.6       53.7       33.7      30.00      30.06      29.94          0          0          0          0          0          0        0.0        0.0        0.0       0.00       0.00       0.00          0          0          0          0          0          0        0.0        0.0        0.0       0.00       0.00       0.00       0.00       0.00       0.00       0.00       0.00       0.00       0.00       0.00       0.00      0.000      0.000      0.000        0.0        0.0        0.0        0.0        0.0        0.0       0.00       0.00       0.00        0.0        0.0        0.0        0.0        0.0        0.0        0.0        0.0        0.0        0.0        0.0        0.0
8/29/2016           0        350          0          3         11          0          5         11          0          0          0          0         34         56         14        0.0        0.0        0.0       76.8       91.4       62.6      29.98      30.05      29.90       0.00       0.00       0.00       43.9       48.4       35.6      29.98      30.05      29.90          0          0          0          0          0          0        0.0        0.0        0.0       0.00       0.00       0.00          0          0          0          0          0          0        0.0        0.0        0.0       0.00       0.00       0.00       0.00       0.00       0.00       0.00       0.00       0.00       0.00       0.00       0.00      0.000      0.000      0.000        0.0        0.0        0.0        0.0        0.2        0.2       0.00  -91057.44  -91057.44        0.0        0.0        0.0        0.0        8.5        8.5        0.0       36.0       36.0        0.0       76.3       76.3
8/30/2016         158        280          0          3         11          0          5         11          0          0          0          0         34         53         12        0.0        0.0        0.0       77.1       93.2       64.4      29.90      29.98      29.81       0.00       0.00       0.00       43.4       50.3       33.1      29.90      29.98      29.81          0          0          0          0          0          0        0.0        0.0        0.0       0.00       0.00       0.00          0          0          0          0          0          0        0.0        0.0        0.0       0.00       0.00       0.00       0.00       0.00       0.00       0.00       0.00       0.00       0.00       0.00       0.00      0.000      0.000      0.000        0.0        0.0        0.0        0.0        0.2        0.2       0.00  -91202.28  -91202.28        0.0        0.0        0.0        0.0        8.7        8.7        0.0       36.0       36.0        0.0       76.5       76.5
8/31/2016         158        340          0          3         16          0          5         16          0          0          0          0         33         55          9        0.0        0.0        0.0       76.2       91.4       60.8      29.85      29.89      29.80       0.00       0.00       0.00       42.7       46.9       24.7      29.85      29.89      29.80          0          0          0          0          0          0        0.0        0.0        0.0       0.00       0.00       0.00          0          0          0          0          0          0        0.0        0.0        0.0       0.00       0.00       0.00       0.00       0.00       0.00       0.00       0.00       0.00       0.00       0.00       0.00      0.000      0.000      0.000        0.0        0.0        0.0        0.0        0.2        0.2       0.00  -91343.04  -91343.04        0.0        0.0        0.0        0.0        8.9        8.9        0.0       36.0       36.0        0.0       76.7       76.7
9/1/2016          180        350          0          5         13          0          7         13          0          0          0          0         36         52         20        0.0        0.0        0.0       76.7       91.4       62.6      29.87      29.92      29.81       0.00       0.00       0.00       46.3       52.0       39.4      29.87      29.92      29.81          0          0          0          0          0          0        0.0        0.0        0.0       0.00       0.00       0.00          0          0          0          0          0          0        0.0        0.0        0.0       0.00       0.00       0.00       0.00       0.00       0.00       0.00       0.00       0.00       0.00       0.00       0.00      0.000      0.000      0.000        0.0        0.0        0.0        0.0        0.2        0.2       0.00  -91487.88  -91487.88        0.0        0.0        0.0        0.0        9.1        9.1        0.0       36.0       36.0        0.0       76.9       76.9
9/2/2016            0        360          0          4         12          0          6         12          0          0          0          0         34         63         13        0.0        0.0        0.0       77.5       91.4       62.6      29.84      29.92      29.75       0.00       0.00       0.00       42.1       52.0       28.9      29.84      29.92      29.75          0          0          0          0          0          0        0.0        0.0        0.0       0.00       0.00       0.00          0          0          0          0          0          0        0.0        0.0        0.0       0.00       0.00       0.00       0.00       0.00       0.00       0.00       0.00       0.00       0.00       0.00       0.00      0.000      0.000      0.000        0.0        0.0        0.0        0.0        0.2        0.2       0.00  -91628.64  -91628.64        0.0        0.0        0.0        0.0        0.2        0.2        0.0       36.0       36.0        0.0       77.2       77.2
9/3/2016          338        360          0          8         16          3         11         16          4          0          0          0         28         47         17        0.0        0.0        0.0       78.3       89.6       69.8      29.74      29.80      29.66       0.00       0.00       0.00       41.6       52.0       37.5      29.74      29.80      29.66          0          0          0          0          0          0        0.0        0.0        0.0       0.00       0.00       0.00          0          0          0          0          0          0        0.0        0.0        0.0       0.00       0.00       0.00       0.00       0.00       0.00       0.00       0.00       0.00       0.00       0.00       0.00      0.000      0.000      0.000        0.0        0.0        0.0        0.0        0.2        0.2       0.00  -91769.40  -91769.40        0.0        0.0        0.0        0.0        0.5        0.5        0.0       36.0       36.0        0.0       77.4       77.4
9/4/2016           22        360          0          4         12          0          6         12          0          0          0          0         33         68         11        0.0        0.0        0.0       72.9       86.0       57.2      29.77      29.83      29.73       0.00       0.00       0.00       37.4       50.2       24.1      29.77      29.83      29.73          0          0          0          0          0          0        0.0        0.0        0.0       0.00       0.00       0.00          0          0          0          0          0          0        0.0        0.0        0.0       0.00       0.00       0.00       0.00       0.00       0.00       0.00       0.00       0.00       0.00       0.00       0.00      0.000      0.000      0.000        0.0        0.0        0.0        0.0        0.3        0.3       0.00  -91912.20  -91912.20        0.0        0.0        0.0        0.0        0.7        0.7        0.0       36.0       36.0        0.0       77.7       77.7
9/5/2016            0        360         10          8         16          3         10         16          4          0          0          0         23         35          9        0.0        0.0        0.0       76.8       91.4       64.4      29.79      29.83      29.73       0.00       0.00       0.00       34.0       37.9       24.7      29.79      29.83      29.73          0          0          0          0          0          0        0.0        0.0        0.0       0.00       0.00       0.00          0          0          0          0          0          0        0.0        0.0        0.0       0.00       0.00       0.00       0.00       0.00       0.00       0.00       0.00       0.00       0.00       0.00       0.00      0.000      0.000      0.000        0.0        0.0        0.0        0.0        0.0        0.0       0.00       0.00       0.00        0.0        0.0        0.0        0.0        0.0        0.0        0.0        0.0        0.0        0.0        0.0        0.0
9/6/2016            0        360          0          5         13          0          7         13          0          0          0          0         22         34         14        0.0        0.0        0.0       80.4       95.0       64.4      29.82      29.87      29.77       0.00       0.00       0.00       37.3       44.8       32.3      29.82      29.87      29.77          0          0          0          0          0          0        0.0        0.0        0.0       0.00       0.00       0.00          0          0          0          0          0          0        0.0        0.0        0.0       0.00       0.00       0.00       0.00       0.00       0.00       0.00       0.00       0.00       0.00       0.00       0.00      0.000      0.000      0.000        0.0        0.0        0.0        0.0        0.2        0.2       0.00  -92191.68  -92191.68        0.0        0.0        0.0        0.0        1.1        1.1        0.0       36.0       36.0        0.0       78.0       78.0
9/7/2016            0        360          0          7         17          0         10         17          0          0          0          0         28         38         11        0.0        0.0        0.0       82.5       98.6       71.6      29.90      29.95      29.85       0.00       0.00       0.00       43.7       46.5       35.1      29.90      29.95      29.85          0          0          0          0          0          0        0.0        0.0        0.0       0.00       0.00       0.00          0          0          0          0          0          0        0.0        0.0        0.0       0.00       0.00       0.00       0.00       0.00       0.00       0.00       0.00       0.00       0.00       0.00       0.00      0.000      0.000      0.000        0.0        0.0        0.0        0.0        0.3        0.3       0.00  -92338.56  -92338.56        0.0        0.0        0.0        0.0        1.4        1.4        0.0       36.0       36.0        0.0       78.3       78.3
9/8/2016          158        360          0          2          6          0          3          6          0          0          0          0         42         55         21        0.0        0.0        0.0       71.8       89.6       62.6      30.00      30.03      29.96       0.00       0.00       0.00       45.9       46.5       43.0      30.00      30.03      29.96          0          0          0          0          0          0        0.0        0.0        0.0       0.00       0.00       0.00          0          0          0          0          0          0        0.0        0.0        0.0       0.00       0.00       0.00       0.00       0.00       0.00       0.00       0.00       0.00       0.00       0.00       0.00      0.000      0.000      0.000        0.0        0.0        0.0        0.0        0.0        0.0       0.00       0.00       0.00        0.0        0.0        0.0        0.0        0.0        0.0        0.0        0.0        0.0        0.0        0.0        0.0
9/9/2016          158        360          0          5         17          0          7         17          0          0          0          0         29         55          8        0.0        0.0        0.0       82.3      104.0       62.6      29.95      30.03      29.85       0.00       0.00       0.00       40.2       55.3       27.2      29.95      30.03      29.85          0          0          0          0          0          0        0.0        0.0        0.0       0.00       0.00       0.00          0          0          0          0          0          0        0.0        0.0        0.0       0.00       0.00       0.00       0.00       0.00       0.00       0.00       0.00       0.00       0.00       0.00       0.00      0.000      0.000      0.000        0.0        0.0        0.0        0.0        0.0        0.0       0.00       0.00       0.00        0.0        0.0        0.0        0.0        0.0        0.0        0.0        0.0        0.0        0.0        0.0        0.0
9/10/2016         180        180          0          3         17          0          4         17          0          0          0          0         37         59         11        0.0        0.0        0.0       80.2      100.4       60.8      29.95      30.00      29.87       0.00       0.00       0.00       47.8       57.4       36.4      29.95      30.00      29.87          0          0          0          0          0          0        0.0        0.0        0.0       0.00       0.00       0.00          0          0          0          0          0          0        0.0        0.0        0.0       0.00       0.00       0.00       0.00       0.00       0.00       0.00       0.00       0.00       0.00       0.00       0.00      0.000      0.000      0.000        0.0        0.0        0.0        0.0        0.4        0.4       0.00  -92650.68  -92650.68        0.0        0.0        0.0        0.0        2.1        2.1        0.0       36.0       36.0        0.0       79.1       79.1
9/11/2016         180        360          0          4         19          0          6         19          0          0          0          0         48         72         21        0.0        0.0        0.0       76.5       91.4       62.6      29.91      30.00      29.80       0.00       0.00       0.00       53.6       58.9       46.0      29.91      30.00      29.80          0          0          0          0          0          0        0.0        0.0        0.0       0.00       0.00       0.00          0          0          0          0          0          0        0.0        0.0        0.0       0.00       0.00       0.00       0.00       0.00       0.00       0.00       0.00       0.00       0.00       0.00       0.00      0.000      0.000      0.000        0.0        0.0        0.0        0.0        0.3        0.3       0.00  -92795.52  -92795.52        0.0        0.0        0.0        0.0        2.4        2.4        0.0       36.0       36.0        0.0       79.3       79.3
9/12/2016         158        280          0          4         20          0          7         20          0          0          0          0         49         77         16        0.0        0.0        0.0       71.5       87.8       57.2      29.79      29.85      29.68       0.00       0.00       0.00       48.2       53.7       36.1      29.79      29.85      29.68          0          0          0          0          0          0        0.0        0.0        0.0       0.00       0.00       0.00          0          0          0          0          0          0        0.0        0.0        0.0       0.00       0.00       0.00       0.00       0.00       0.00       0.00       0.00       0.00       0.00       0.00       0.00      0.000      0.000      0.000        0.0        0.0        0.0        0.0        0.2        0.2       0.00  -92936.28  -92936.28        0.0        0.0        0.0        0.0        2.6        2.6        0.0       36.0       36.0        0.0       79.6       79.6
9/13/2016         158        330          0          7         16          0         10         16          0          0          0          0         51         68         36        0.0        0.0        0.0       68.5       75.2       60.8      29.89      30.00      29.79       0.00       0.00       0.00       48.8       51.9       46.3      29.89      30.00      29.79          0          0          0          0          0          0        0.0        0.0        0.0       0.00       0.00       0.00          0          0          0          0          0          0        0.0        0.0        0.0       0.00       0.00       0.00       0.00       0.00       0.00       0.00       0.00       0.00       0.00       0.00       0.00      0.000      0.000      0.000        0.0        0.0        0.0        0.0        0.0        0.0       0.00       0.00       0.00        0.0        0.0        0.0        0.0        0.0        0.0        0.0        0.0        0.0        0.0        0.0        0.0
9/14/2016           0        360          0          3         10          0          5         10          0          0          0          0         50         77         25        0.0        0.0        0.0       67.3       82.4       53.6      30.04      30.10      29.99       0.00       0.00       0.00       46.0       48.3       43.1      30.04      30.10      29.99          0          0          0          0          0          0        0.0        0.0        0.0       0.00       0.00       0.00          0          0          0          0          0          0        0.0        0.0        0.0       0.00       0.00       0.00       0.00       0.00       0.00       0.00       0.00       0.00       0.00       0.00       0.00      0.000      0.000      0.000        0.0        0.0        0.0        0.0        0.1        0.1       0.00  -93170.88  -93170.88        0.0        0.0        0.0        0.0        2.8        2.8        0.0       36.0       36.0        0.0       79.8       79.8
9/15/2016           0        360          0          3         12          0          6         12          0          0          0          0         37         71          7        0.0        0.0        0.0       73.5       93.2       53.6      29.97      30.03      29.88       0.00       0.00       0.00       38.5       48.1       20.1      29.97      30.03      29.88          0          0          0          0          0          0        0.0        0.0        0.0       0.00       0.00       0.00          0          0          0          0          0          0        0.0        0.0        0.0       0.00       0.00       0.00       0.00       0.00       0.00       0.00       0.00       0.00       0.00       0.00       0.00      0.000      0.000      0.000        0.0        0.0        0.0        0.0        0.1        0.1       0.00  -93311.64  -93311.64        0.0        0.1        0.1        0.0        3.0        3.0        0.0       36.1       36.1        0.0       79.9       79.9
9/16/2016           0        360          0          3         13          0          5         13          0          0          0          0         31         67          6        0.0        0.0        0.0       77.0       98.6       53.6      29.91      29.97      29.84       0.00       0.00       0.00       35.7       48.3       20.3      29.91      29.97      29.84          0          0          0          0          0          0        0.0        0.0        0.0       0.00       0.00       0.00          0          0          0          0          0          0        0.0        0.0        0.0       0.00       0.00       0.00       0.00       0.00       0.00       0.00       0.00       0.00       0.00       0.00       0.00      0.000      0.000      0.000        0.0        0.0        0.0        0.0        0.2        0.2       0.00  -93448.32  -93448.32        0.0        0.1        0.1        0.0        3.2        3.2        0.0       36.1       36.1        0.0       80.1       80.1
9/17/2016           0        360          0          4         12          0          6         12          0          0          0          0         31         55         10        0.0        0.0        0.0       77.8       96.8       57.2      29.94      30.00      29.88       0.00       0.00       0.00       40.5       48.3       31.3      29.94      30.00      29.88          0          0          0          0          0          0        0.0        0.0        0.0       0.00       0.00       0.00          0          0          0          0          0          0        0.0        0.0        0.0       0.00       0.00       0.00       0.00       0.00       0.00       0.00       0.00       0.00       0.00       0.00       0.00      0.000      0.000      0.000        0.0        0.0        0.0        0.0        0.3        0.3       0.00  -93591.12  -93591.12        0.0        0.1        0.1        0.0        3.4        3.4        0.0       36.1       36.1        0.0       80.4       80.4
9/18/2016         180        360          0          3         16          0          5         16          0          0          0          0         36         59         18        0.0        0.0        0.0       80.4       98.6       60.8      29.91      29.97      29.84       0.00       0.00       0.00       48.8       55.4       44.5      29.91      29.97      29.84          0          0          0          0          0          0        0.0        0.0        0.0       0.00       0.00       0.00          0          0          0          0          0          0        0.0        0.0        0.0       0.00       0.00       0.00       0.00       0.00       0.00       0.00       0.00       0.00       0.00       0.00       0.00      0.000      0.000      0.000        0.0        0.0        0.0        0.0        0.3        0.3       0.00  -93731.88  -93731.88        0.0        0.2        0.2        0.0        3.7        3.7        0.0       36.1       36.1        0.0       80.6       80.6
9/19/2016           0        360          0          4         11          0          6         11          0          0          0          0         40         68         20        0.0        0.0        0.0       81.2       95.0       64.4      29.88      29.94      29.81       0.00       0.00       0.00       52.5       55.7       47.7      29.88      29.94      29.81          0          0          0          0          0          0        0.0        0.0        0.0       0.00       0.00       0.00          0          0          0          0          0          0        0.0        0.0        0.0       0.00       0.00       0.00       0.00       0.00       0.00       0.00       0.00       0.00       0.00       0.00       0.00      0.000      0.000      0.000        0.0        0.0        0.0        0.0        0.3        0.3       0.00  -93876.72  -93876.72        0.0        0.2        0.2        0.0        4.0        4.0        0.0       36.1       36.1        0.0       80.9       80.9
9/20/2016         180        270          0          5         14          0          7         14          0          0          0          0         36         64         12        0.0        0.0        0.0       77.6       91.4       66.2      29.85      29.93      29.77       0.00       0.00       0.00       45.3       55.6       30.3      29.85      29.93      29.77          0          0          0          0          0          0        0.0        0.0        0.0       0.00       0.00       0.00          0          0          0          0          0          0        0.0        0.0        0.0       0.00       0.00       0.00       0.00       0.00       0.00       0.00       0.00       0.00       0.00       0.00       0.00      0.000      0.000      0.000        0.0        0.0        0.0        0.0        0.3        0.3       0.00  -94017.48  -94017.48        0.0        0.2        0.2        0.0        4.3        4.3        0.0       36.1       36.1        0.0       81.2       81.2
9/21/2016         292        350          0          6         19          0          9         19          0          0          0          0         29         51          9        0.0        0.0        0.0       71.0       82.4       60.8      29.81      29.85      29.76       0.00       0.00       0.00       34.6       43.1       16.6      29.81      29.85      29.76          0          0          0          0          0          0        0.0        0.0        0.0       0.00       0.00       0.00          0          0          0          0          0          0        0.0        0.0        0.0       0.00       0.00       0.00       0.00       0.00       0.00       0.00       0.00       0.00       0.00       0.00       0.00      0.000      0.000      0.000        0.0        0.0        0.0        0.0        0.2        0.2       0.00  -94162.32  -94162.32        0.0        0.2        0.2        0.0        4.5        4.5        0.0       36.1       36.1        0.0       81.4       81.4
9/22/2016         315        360          0          9         22          0         12         22          0          0          0          0         32         45         17        0.0        0.0        0.0       67.3       77.0       59.0      29.97      30.07      29.86       0.00       0.00       0.00       35.2       39.3       28.4      29.97      30.07      29.86          0          0          0          0          0          0        0.0        0.0        0.0       0.00       0.00       0.00          0          0          0          0          0          0        0.0        0.0        0.0       0.00       0.00       0.00       0.00       0.00       0.00       0.00       0.00       0.00       0.00       0.00       0.00      0.000      0.000      0.000        0.0        0.0        0.0        0.0        0.1        0.1       0.00  -94307.16  -94307.16        0.0        0.2        0.2        0.0        4.6        4.6        0.0       36.1       36.1        0.0       81.6       81.6
9/23/2016           0        360          0          4          7          0          5          7          0          0          0          0         38         62         16        0.0        0.0        0.0       67.9       80.6       51.8      30.09      30.13      30.05       0.00       0.00       0.00       39.0       52.0       26.0      30.09      30.13      30.05          0          0          0          0          0          0        0.0        0.0        0.0       0.00       0.00       0.00          0          0          0          0          0          0        0.0        0.0        0.0       0.00       0.00       0.00       0.00       0.00       0.00       0.00       0.00       0.00       0.00       0.00       0.00      0.000      0.000      0.000        0.0        0.0        0.0        0.0        0.1        0.1       0.00  -94447.92  -94447.92        0.0        0.2        0.2        0.0        4.7        4.7        0.0       36.2       36.2        0.0       81.7       81.7
9/24/2016         338        360        300          9         16          4         12         16          5          0          0          0         32         60         10        0.0        0.0        0.0       78.5       96.8       64.4      30.10      30.15      30.04       0.00       0.00       0.00       41.9       51.9       30.0      30.10      30.15      30.04          0          0          0          0          0          0        0.0        0.0        0.0       0.00       0.00       0.00          0          0          0          0          0          0        0.0        0.0        0.0       0.00       0.00       0.00       0.00       0.00       0.00       0.00       0.00       0.00       0.00       0.00       0.00      0.000      0.000      0.000        0.0        0.0        0.0        0.0        0.1        0.1       0.00  -94592.76  -94592.76        0.0        0.2        0.2        0.0        4.8        4.8        0.0       36.2       36.2        0.0       81.8       81.8
9/25/2016           0        360          0          9         17          0         12         17          0          0          0          0         15         26          8        0.0        0.0        0.0       88.0      102.2       75.2      30.06      30.14      29.95       0.00       0.00       0.00       32.0       41.1       25.9      30.06      30.14      29.95          0          0          0          0          0          0        0.0        0.0        0.0       0.00       0.00       0.00          0          0          0          0          0          0        0.0        0.0        0.0       0.00       0.00       0.00       0.00       0.00       0.00       0.00       0.00       0.00       0.00       0.00       0.00      0.000      0.000      0.000        0.0        0.0        0.0        0.0        0.3        0.3       0.00  -94733.52  -94733.52        0.0        0.2        0.2        0.0        5.1        5.1        0.0       36.2       36.2        0.0       82.0       82.0
9/26/2016         158        170          0          2         10          0          3         10          0          0          0          0         28         45         11        0.0        0.0        0.0       78.7       98.6       60.8      29.96      30.03      29.89       0.00       0.00       0.00       39.4       43.2       33.1      29.96      30.03      29.89          0          0          0          0          0          0        0.0        0.0        0.0       0.00       0.00       0.00          0          0          0          0          0          0        0.0        0.0        0.0       0.00       0.00       0.00       0.00       0.00       0.00       0.00       0.00       0.00       0.00       0.00       0.00      0.000      0.000      0.000        0.0        0.0        0.0        0.0        0.4        0.4       0.00  -94878.36  -94878.36        0.0        0.2        0.2        0.0        5.5        5.5        0.0       36.2       36.2        0.0       82.5       82.5
9/27/2016         158        340          0          3         16          0          5         16          0          0          0          0         36         55         15        0.0        0.0        0.0       78.3       98.6       59.0      29.85      29.94      29.75       0.00       0.00       0.00       46.1       50.4       42.6      29.85      29.94      29.75          0          0          0          0          0          0        0.0        0.0        0.0       0.00       0.00       0.00          0          0          0          0          0          0        0.0        0.0        0.0       0.00       0.00       0.00       0.00       0.00       0.00       0.00       0.00       0.00       0.00       0.00       0.00      0.000      0.000      0.000        0.0        0.0        0.0        0.0        0.0        0.0       0.00       0.00       0.00        0.0        0.0        0.0        0.0        0.0        0.0        0.0        0.0        0.0        0.0        0.0        0.0
9/28/2016         158        160          0          2         12          0          4         12          0          0          0          0         39         68         14        0.0        0.0        0.0       77.2       96.8       60.8      29.83      29.88      29.77       0.00       0.00       0.00       47.0       50.4       39.8      29.83      29.88      29.77          0          0          0          0          0          0        0.0        0.0        0.0       0.00       0.00       0.00          0          0          0          0          0          0        0.0        0.0        0.0       0.00       0.00       0.00       0.00       0.00       0.00       0.00       0.00       0.00       0.00       0.00       0.00      0.000      0.000      0.000        0.0        0.0        0.0        0.0        0.3        0.3       0.00  -95170.08  -95170.08        0.0        0.2        0.2        0.0        6.0        6.0        0.0       36.2       36.2        0.0       83.0       83.0
9/29/2016         180        330          0          4         14          0          6         14          0          0          0          0         46         67         25        0.0        0.0        0.0       71.8       84.2       59.0      29.95      30.00      29.88       0.00       0.00       0.00       48.2       52.0       44.6      29.95      30.00      29.88          0          0          0          0          0          0        0.0        0.0        0.0       0.00       0.00       0.00          0          0          0          0          0          0        0.0        0.0        0.0       0.00       0.00       0.00       0.00       0.00       0.00       0.00       0.00       0.00       0.00       0.00       0.00      0.000      0.000      0.000        0.0        0.0        0.0        0.0        0.0        0.0       0.00       0.00       0.00        0.0        0.0        0.0        0.0        0.0        0.0        0.0        0.0        0.0        0.0        0.0        0.0
9/30/2016         180        300          0          4         16          0          7         16          0          0          0          0         40         67         15        0.0        0.0        0.0       66.6       77.0       57.2      29.97      30.02      29.91       0.00       0.00       0.00       39.5       48.4       21.5      29.97      30.02      29.91          0          0          0          0          0          0        0.0        0.0        0.0       0.00       0.00       0.00          0          0          0          0          0          0        0.0        0.0        0.0       0.00       0.00       0.00       0.00       0.00       0.00       0.00       0.00       0.00       0.00       0.00       0.00      0.000      0.000      0.000        0.0        0.0        0.0        0.0        0.0        0.0       0.00       0.00       0.00        0.0        0.0        0.0        0.0        0.0        0.0        0.0        0.0        0.0        0.0        0.0        0.0
10/1/2016           0        330          0          3          7          0          4          7          0          0          0          0         41         76         22        0.0        0.0        0.0       62.2       75.2       44.6      30.04      30.14      29.96       0.00       0.00       0.00       36.1       39.2       33.4      30.04      30.14      29.96          0          0          0          0          0          0        0.0        0.0        0.0       0.00       0.00       0.00          0          0          0          0          0          0        0.0        0.0        0.0       0.00       0.00       0.00       0.00       0.00       0.00       0.00       0.00       0.00       0.00       0.00       0.00      0.000      0.000      0.000        0.0        0.0        0.0        0.0        0.1        0.1       0.00  -95580.12  -95580.12        0.0        0.3        0.3        0.0        6.5        6.5        0.0       36.3       36.3        0.0       83.4       83.4
10/2/2016         135        320          0          4         11          0          6         11          0          0          0          0         72         88         50        0.0        0.0        0.0       52.5       59.0       46.4      29.98      30.02      29.94       0.00       0.00       0.00       43.6       51.9       35.4      29.98      30.02      29.94          0          0          0          0          0          0        0.0        0.0        0.0       0.00       0.00       0.00          0          0          0          0          0          0        0.0        0.0        0.0       0.00       0.00       0.00       0.00       0.00       0.00       0.00       0.00       0.00       0.00       0.00       0.00      0.000      0.000      0.000        0.0        0.1        0.1        0.0        0.1        0.1       0.00  -95718.84  -95718.84        0.0        0.1        0.1        0.0        0.1        0.1        0.0       36.3       36.3        0.0       83.5       83.5
10/3/2016           0        360          0          4         11          0          5         11          0          0          0          0         84         93         77        0.0        0.0        0.0       54.0      129.2       46.4      30.07      30.11      30.02       0.00       0.00       0.00       49.2      120.1       42.7      30.07      30.11      30.02          0          0          0          0          0          0        0.0        0.0        0.0       0.00       0.00       0.00          0          0          0          0          0          0        0.0        0.0        0.0       0.00       0.00       0.00       0.00       0.00       0.00       0.00       0.00       0.00       0.00       0.00       0.00      0.000      0.000      0.000        0.0        0.2        0.2        0.0        0.0        0.0       0.00  -95831.04  -95831.04        0.0        0.2        0.2        0.0        0.1        0.1        0.0       36.5       36.5        0.0       83.5       83.5
10/4/2016           0        360          0          4         10          0          5         10          0          0          0          0         59         87         29        0.0        0.0        0.0       60.5       71.6       51.8      29.99      30.05      29.93       0.00       0.00       0.00       44.1       48.2       37.7      29.99      30.05      29.93          0          0          0          0          0          0        0.0        0.0        0.0       0.00       0.00       0.00          0          0          0          0          0          0        0.0        0.0        0.0       0.00       0.00       0.00       0.00       0.00       0.00       0.00       0.00       0.00       0.00       0.00       0.00      0.000      0.000      0.000        0.0        0.2        0.2        0.0        0.0        0.0       0.00  -95969.76  -95969.76        0.0        0.5        0.5        0.0        0.1        0.1        0.0       36.7       36.7        0.0       83.5       83.5
10/5/2016          22        330          0          3         11          0          5         11          0          0          0          0         54         81         29        0.0        0.0        0.0       59.8       73.4       44.6      30.04      30.09      30.00       0.00       0.00       0.00       40.7       44.7       37.8      30.04      30.09      30.00          0          0          0          0          0          0        0.0        0.0        0.0       0.00       0.00       0.00          0          0          0          0          0          0        0.0        0.0        0.0       0.00       0.00       0.00       0.00       0.00       0.00       0.00       0.00       0.00       0.00       0.00       0.00      0.000      0.000      0.000        0.0        0.1        0.1        0.0        0.0        0.0       0.00  -96104.40  -96104.40        0.0        0.5        0.5        0.0        0.1        0.1        0.0       36.8       36.8        0.0       83.6       83.6
10/6/2016         338        360          0          7         14          0          9         14          0          0          0          0         36         58         12        0.0        0.0        0.0       66.1       80.6       55.4      30.04      30.10      29.97       0.00       0.00       0.00       36.1       41.2       23.3      30.04      30.10      29.97          0          0          0          0          0          0        0.0        0.0        0.0       0.00       0.00       0.00          0          0          0          0          0          0        0.0        0.0        0.0       0.00       0.00       0.00       0.00       0.00       0.00       0.00       0.00       0.00       0.00       0.00       0.00      0.000      0.000      0.000        0.0        0.1        0.1        0.0        0.1        0.1       0.00  -96245.16  -96245.16        0.0        0.7        0.7        0.0        0.2        0.2        0.0       36.9       36.9        0.0       83.6       83.6
10/7/2016          22        350          0          3         10          0          5         10          0          0          0          0         44         76         16        0.0        0.0        0.0       68.5       89.6       50.0      29.97      30.05      29.88       0.00       0.00       0.00       41.5       46.7       33.2      29.97      30.05      29.88          0          0          0          0          0          0        0.0        0.0        0.0       0.00       0.00       0.00          0          0          0          0          0          0        0.0        0.0        0.0       0.00       0.00       0.00       0.00       0.00       0.00       0.00       0.00       0.00       0.00       0.00       0.00      0.000      0.000      0.000        0.0        0.0        0.0        0.0        0.1        0.1       0.00  -96385.92  -96385.92        0.0        0.7        0.7        0.0        0.3        0.3        0.0       36.9       36.9        0.0       83.7       83.7
10/8/2016           0        360          0          1          7          0          2          7          0          0          0          0         45         76         18        0.0        0.0        0.0       69.0       87.8       51.8      29.92      29.97      29.86       0.00       0.00       0.00       43.7       48.1       39.0      29.92      29.97      29.86          0          0          0          0          0          0        0.0        0.0        0.0       0.00       0.00       0.00          0          0          0          0          0          0        0.0        0.0        0.0       0.00       0.00       0.00       0.00       0.00       0.00       0.00       0.00       0.00       0.00       0.00       0.00      0.000      0.000      0.000        0.0        0.1        0.1        0.0        0.2        0.2       0.00  -96526.68  -96526.68        0.0        0.8        0.8        0.0        0.4        0.4        0.0       37.0       37.0        0.0       83.9       83.9
10/9/2016           0        310          0          1          7          0          3          7          0          0          0          0         47         77         22        0.0        0.0        0.0       68.4       86.0       51.8      29.93      29.98      29.87       0.00       0.00       0.00       44.4       46.7       39.0      29.93      29.98      29.87          0          0          0          0          0          0        0.0        0.0        0.0       0.00       0.00       0.00          0          0          0          0          0          0        0.0        0.0        0.0       0.00       0.00       0.00       0.00       0.00       0.00       0.00       0.00       0.00       0.00       0.00       0.00      0.000      0.000      0.000        0.0        0.0        0.0        0.0        0.1        0.1       0.00  -96669.48  -96669.48        0.0        0.8        0.8        0.0        0.6        0.6        0.0       37.1       37.1        0.0       84.0       84.0
10/10/2016        158        290          0          2         13          0          4         13          0          0          0          0         42         72         18        0.0        0.0        0.0       68.2       82.4       55.4      29.90      29.95      29.85       0.00       0.00       0.00       41.2       48.1       33.2      29.90      29.95      29.85          0          0          0          0          0          0        0.0        0.0        0.0       0.00       0.00       0.00          0          0          0          0          0          0        0.0        0.0        0.0       0.00       0.00       0.00       0.00       0.00       0.00       0.00       0.00       0.00       0.00       0.00       0.00      0.000      0.000      0.000        0.0        0.1        0.1        0.0        0.1        0.1       0.00  -96814.32  -96814.32        0.0        0.9        0.9        0.0        0.7        0.7        0.0       37.1       37.1        0.0       84.1       84.1
10/11/2016          0        360          0          2         13          0          4         13          0          0          0          0         44         76         18        0.0        0.0        0.0       66.8       82.4       48.2      29.94      30.04      29.85       0.00       0.00       0.00       41.2       48.1       33.2      29.94      30.04      29.85          0          0          0          0          0          0        0.0        0.0        0.0       0.00       0.00       0.00          0          0          0          0          0          0        0.0        0.0        0.0       0.00       0.00       0.00       0.00       0.00       0.00       0.00       0.00       0.00       0.00       0.00       0.00      0.000      0.000      0.000        0.0        0.0        0.0        0.0        0.0        0.0       0.00       0.00       0.00        0.0        0.0        0.0        0.0        0.0        0.0        0.0        0.0        0.0        0.0        0.0        0.0
10/12/2016          0        360          0          2         13          0          4         13          0          0          0          0         45         76         18        0.0        0.0        0.0       66.8       82.4       48.2      29.95      30.08      29.85       0.00       0.00       0.00       41.8       48.1       33.2      29.95      30.08      29.85          0          0          0          0          0          0        0.0        0.0        0.0       0.00       0.00       0.00          0          0          0          0          0          0        0.0        0.0        0.0       0.00       0.00       0.00       0.00       0.00       0.00       0.00       0.00       0.00       0.00       0.00       0.00      0.000      0.000      0.000        0.0        0.0        0.0        0.0        0.0        0.0       0.00       0.00       0.00        0.0        0.0        0.0        0.0        0.0        0.0        0.0        0.0        0.0        0.0        0.0        0.0
10/13/2016        180        170        170          3         43         28          5         43         34          0          0          0         45         53         46        0.0        0.0        0.0       66.9       69.8       68.0      29.95      29.77      29.75       0.00       0.00       0.00       42.1       50.3       48.1      29.95      29.77      29.75          0          0          0          0          0          0        0.0        0.0        0.0       0.00       0.00       0.00          0          0          0          0          0          0        0.0        0.0        0.0       0.00       0.00       0.00       0.00       0.00       0.00       0.00       0.00       0.00       0.00       0.00       0.00      0.000      0.000      0.000        0.0        0.0        0.0        0.0        0.0        0.0       0.00       0.00       0.00        0.0        0.0        0.0        0.0        0.0        0.0        0.0        0.0        0.0        0.0        0.0        0.0
10/14/2016        180        220        150          5         43          6          8         43          7          0          0          0         51         94         46        0.0        0.0        0.0       65.2       69.8       53.6      29.88      29.77      29.47       0.00       0.00       0.00       43.7       55.3       48.1      29.88      29.77      29.47          0          0          0          0          0          0        0.0        0.0        0.0       0.00       0.00       0.00          0          0          0          0          0          0        0.0        0.0        0.0       0.00       0.00       0.00       0.00       0.00       0.00       0.00       0.00       0.00       0.00       0.00       0.00      0.000      0.000      0.000        0.0        0.0        0.0        0.0        0.0        0.0       0.00       0.00       0.00        0.0        0.0        0.0        0.0        0.0        0.0        0.0        0.0        0.0        0.0        0.0        0.0
10/15/2016        180        220         90         15         41          3         20         41          4          0          0          0         84         94         68        0.0        0.0        0.0       57.4       62.6       53.6      29.33      29.57      29.06       0.00       0.00       0.00       52.5       53.7       50.1      29.33      29.57      29.06          0          0          0          0          0          0        0.0        0.0        0.0       0.00       0.00       0.00          0          0          0          0          0          0        0.0        0.0        0.0       0.00       0.00       0.00       0.00       0.00       0.00       0.00       0.00       0.00       0.00       0.00       0.00      0.000      0.000      0.000        0.0        0.2        0.2        0.0        0.3        0.3       0.00  -97208.04  -97208.04        0.0        1.0        1.0        0.0        1.0        1.0        0.0       37.3       37.3        0.0       84.4       84.4
10/16/2016        180        260         90         13         41          3         18         41          4          0          0          0         84         94         68        0.0        0.0        0.0       56.2       62.6       51.8      29.34      29.57      29.06       0.00       0.00       0.00       51.4       53.7       48.1      29.34      29.57      29.06          0          0          0          0          0          0        0.0        0.0        0.0       0.00       0.00       0.00          0          0          0          0          0          0        0.0        0.0        0.0       0.00       0.00       0.00       0.00       0.00       0.00       0.00       0.00       0.00       0.00       0.00       0.00      0.000      0.000      0.000        0.0        0.2        0.2        0.0        0.3        0.3       0.00  -97208.04  -97208.04        0.0        1.0        1.0        0.0        1.0        1.0        0.0       37.3       37.3        0.0       84.4       84.4
10/17/2016        225        240        130         10         17          3         13         17          4          0          0          0         83         88         68        0.0        0.0        0.0       57.1       62.6       53.6      29.66      29.85      29.38       0.00       0.00       0.00       52.0       53.7       48.3      29.66      29.85      29.38          0          0          0          0          0          0        0.0        0.0        0.0       0.00       0.00       0.00          0          0          0          0          0          0        0.0        0.0        0.0       0.00       0.00       0.00       0.00       0.00       0.00       0.00       0.00       0.00       0.00       0.00       0.00      0.000      0.000      0.000        0.0        0.3        0.3        0.0        0.0        0.0       0.00  -97771.08  -97771.08        0.0        1.3        1.3        0.0        1.0        1.0        0.0       37.6       37.6        0.0       84.4       84.4
10/18/2016        180        230          0          7         17          0          9         17          0          0          0          0         82         93         72        0.0        0.0        0.0       55.3       60.8       48.2      30.07      30.27      29.87       0.00       0.00       0.00       49.7       51.9       44.5      30.07      30.27      29.87          0          0          0          0          0          0        0.0        0.0        0.0       0.00       0.00       0.00          0          0          0          0          0          0        0.0        0.0        0.0       0.00       0.00       0.00       0.00       0.00       0.00       0.00       0.00       0.00       0.00       0.00       0.00      0.000      0.000      0.000        0.0        0.1        0.1        0.0        0.0        0.0       0.00  -98054.64  -98054.64        0.0        1.5        1.5        0.0        1.0        1.0        0.0       37.7       37.7        0.0       84.4       84.4
10/19/2016        112        150          0          6         12          0          8         12          0          0          0          0         83         94         67        0.0        0.0        0.0       52.5       57.2       46.4      30.20      30.28      30.08       0.00       0.00       0.00       47.4       51.9       42.7      30.20      30.28      30.08          0          0          0          0          0          0        0.0        0.0        0.0       0.00       0.00       0.00          0          0          0          0          0          0        0.0        0.0        0.0       0.00       0.00       0.00       0.00       0.00       0.00       0.00       0.00       0.00       0.00       0.00       0.00      0.000      0.000      0.000        0.0        0.0        0.0        0.0        0.0        0.0       0.00       0.00       0.00        0.0        0.0        0.0        0.0        0.0        0.0        0.0        0.0        0.0        0.0        0.0        0.0
10/20/2016        180        320          0          7         28          0         10         28          0          0          0          0         85         94         72        0.0        0.0        0.0       58.1       62.6       48.2      30.07      30.12      29.96       0.01       0.00       0.00       53.4       57.4       46.3      30.07      30.12      29.96          0          0          0          0          0          0        0.0        0.0        0.0       0.00       0.00       0.00          0          0          0          0          0          0        0.0        0.0        0.0       0.00       0.00       0.00       0.00       0.00       0.00       0.00       0.00       0.00       0.00       0.00       0.00      0.000      0.000      0.000        0.0        0.2        0.2        0.0        0.0        0.0       0.00  -98627.88  -98627.88        0.0        1.8        1.8        0.0        1.0        1.0        0.0       38.0       38.0        0.0       84.4       84.4
10/21/2016          0        300          0          4         16          0          6         16          0          0          0          0         88         94         72        0.0        0.0        0.0       53.5       60.8       48.2      30.00      30.08      29.94       0.00       0.00       0.00       49.8       53.7       46.3      30.00      30.08      29.94          0          0          0          0          0          0        0.0        0.0        0.0       0.00       0.00       0.00          0          0          0          0          0          0        0.0        0.0        0.0       0.00       0.00       0.00       0.00       0.00       0.00       0.00       0.00       0.00       0.00       0.00       0.00      0.000      0.000      0.000        0.0        0.0        0.0        0.0        0.0        0.0       0.00       0.00       0.00        0.0        0.0        0.0        0.0        0.0        0.0        0.0        0.0        0.0        0.0        0.0        0.0
10/22/2016        112        300          0          5         16          0          8         16          0          0          0          0         82         94         56        0.0        0.0        0.0       54.8       64.4       46.4      29.93      30.08      29.76       0.00       0.00       0.00       49.1       53.7       44.5      29.93      30.08      29.76          0          0          0          0          0          0        0.0        0.0        0.0       0.00       0.00       0.00          0          0          0          0          0          0        0.0        0.0        0.0       0.00       0.00       0.00       0.00       0.00       0.00       0.00       0.00       0.00       0.00       0.00       0.00      0.000      0.000      0.000        0.0        0.0        0.0        0.0        0.0        0.0       0.00       0.00       0.00        0.0        0.0        0.0        0.0        0.0        0.0        0.0        0.0        0.0        0.0        0.0        0.0
10/23/2016         90        150          0          5         12          0          7         12          0          0          0          0         78         94         63        0.0        0.0        0.0       57.0       62.6       51.8      29.78      29.86      29.65       0.00       0.00       0.00       50.0       51.9       48.1      29.78      29.86      29.65          0          0          0          0          0          0        0.0        0.0        0.0       0.00       0.00       0.00          0          0          0          0          0          0        0.0        0.0        0.0       0.00       0.00       0.00       0.00       0.00       0.00       0.00       0.00       0.00       0.00       0.00       0.00      0.000      0.000      0.000        0.0        0.3        0.3        0.0        0.0        0.0       0.00  -99345.96  -99345.96        0.0        2.2        2.2        0.0        1.0        1.0        0.0       38.4       38.4        0.0       84.4       84.4
10/24/2016        158        200         80         11         20          3         14         20          4          0          0          0         64         77         51        0.0        0.0        0.0       58.1       62.6       53.6      29.60      29.70      29.50       0.00       0.00       0.00       45.8       48.3       42.6      29.60      29.70      29.50          0          0          0          0          0          0        0.0        0.0        0.0       0.00       0.00       0.00          0          0          0          0          0          0        0.0        0.0        0.0       0.00       0.00       0.00       0.00       0.00       0.00       0.00       0.00       0.00       0.00       0.00       0.00      0.000      0.000      0.000        0.0        0.0        0.0        0.0        0.0        0.0       0.00       0.00       0.00        0.0        0.0        0.0        0.0        0.0        0.0        0.0        0.0        0.0        0.0        0.0        0.0
10/25/2016        158        350         80          9         22          3         12         22          4          0          0          0         70         88         56        0.0        0.0        0.0       58.5       64.4       53.6      29.87      29.96      29.71       0.00       0.00       0.00       48.4       51.9       44.7      29.87      29.96      29.71          0          0          0          0          0          0        0.0        0.0        0.0       0.00       0.00       0.00          0          0          0          0          0          0        0.0        0.0        0.0       0.00       0.00       0.00       0.00       0.00       0.00       0.00       0.00       0.00       0.00       0.00       0.00      0.000      0.000      0.000        0.0        0.1        0.1        0.0        0.0        0.0       0.00  -99921.24  -99921.24        0.0        2.4        2.4        0.0        1.0        1.0        0.0       38.6       38.6        0.0       84.4       84.4
10/26/2016        180        200         80         12         30          4         17         30          5          0          0          0         78         94         67        0.0        0.0        0.0       59.4       64.4       55.4      29.76      29.85      29.70       0.00       0.00       0.00       52.2       57.4       48.1      29.76      29.85      29.70          0          0          0          0          0          0        0.0        0.0        0.0       0.00       0.00       0.00          0          0          0          0          0          0        0.0        0.0        0.0       0.00       0.00       0.00       0.00       0.00       0.00       0.00       0.00       0.00       0.00       0.00       0.00      0.000      0.000      0.000        0.0        0.1        0.1        0.0        0.0        0.0       0.00 -100206.84 -100206.84        0.0        2.5        2.5        0.0        1.0        1.0        0.0       38.7       38.7        0.0       84.4       84.4
10/27/2016        180        200          0          6         14          0          9         14          0          0          0          0         79         88         67        0.0        0.0        0.0       56.7       60.8       53.6      29.83      29.86      29.81       0.00       0.00       0.00       50.0       51.8       48.1      29.83      29.86      29.81          0          0          0          0          0          0        0.0        0.0        0.0       0.00       0.00       0.00          0          0          0          0          0          0        0.0        0.0        0.0       0.00       0.00       0.00       0.00       0.00       0.00       0.00       0.00       0.00       0.00       0.00       0.00      0.000      0.000      0.000        0.0        0.0        0.0        0.0        0.0        0.0       0.00       0.00       0.00        0.0        0.0        0.0        0.0        0.0        0.0        0.0        0.0        0.0        0.0        0.0        0.0
10/28/2016          0        360          0          5         12          0          7         12          0          0          0          0         81         94         64        0.0        0.0        0.0       57.0       64.4       51.8      29.85      29.89      29.80       0.00       0.00       0.00       50.8       52.0       48.1      29.85      29.89      29.80          0          0          0          0          0          0        0.0        0.0        0.0       0.00       0.00       0.00          0          0          0          0          0          0        0.0        0.0        0.0       0.00       0.00       0.00       0.00       0.00       0.00       0.00       0.00       0.00       0.00       0.00       0.00      0.000      0.000      0.000        0.0        0.0        0.0        0.0        0.0        0.0       0.00       0.00       0.00        0.0        0.0        0.0        0.0        0.0        0.0        0.0        0.0        0.0        0.0        0.0        0.0
10/29/2016        112        360          0          5         17          0          8         17          0          0          0          0         79         94         59        0.0        0.0        0.0       56.5       64.4       46.4      29.87      29.91      29.80       0.00       0.00       0.00       49.8       52.0       44.5      29.87      29.91      29.80          0          0          0          0          0          0        0.0        0.0        0.0       0.00       0.00       0.00          0          0          0          0          0          0        0.0        0.0        0.0       0.00       0.00       0.00       0.00       0.00       0.00       0.00       0.00       0.00       0.00       0.00       0.00      0.000      0.000      0.000        0.0        0.0        0.0        0.0        0.0        0.0       0.00       0.00       0.00        0.0        0.0        0.0        0.0        0.0        0.0        0.0        0.0        0.0        0.0        0.0        0.0
10/30/2016         90        160          0          5         11          3          6         11          4          0          0          0         88         94         77        0.0        0.0        0.0       53.3       55.4       50.0      29.61      29.84      29.51       0.00       0.00       0.00       49.8       51.9       46.3      29.61      29.84      29.51          0          0          0          0          0          0        0.0        0.0        0.0       0.00       0.00       0.00          0          0          0          0          0          0        0.0        0.0        0.0       0.00       0.00       0.00       0.00       0.00       0.00       0.00       0.00       0.00       0.00       0.00       0.00      0.000      0.000      0.000        0.0        0.2        0.2        0.0        0.0        0.0       0.00 -101202.36 -101202.36        0.0        2.9        2.9        0.0        1.0        1.0        0.0       39.1       39.1        0.0       84.4       84.4
10/31/2016        180        250          0          9         25          3         13         25          4          0          0          0         87         94         82        0.0        0.0        0.0       55.8       57.2       53.6      29.74      29.85      29.54       0.01       0.00       0.00       52.0       53.7       50.0      29.74      29.85      29.54          0          0          0          0          0          0        0.0        0.0        0.0       0.00       0.00       0.00          0          0          0          0          0          0        0.0        0.0        0.0       0.00       0.00       0.00       0.00       0.12       0.12       0.00       0.00       0.00       0.00       0.00       0.00      0.000      0.000      0.000        0.0        0.2        0.2        0.0        0.0        0.0       0.00 -101473.68 -101473.68        0.0        3.0        3.0        0.0        1.0        1.0        0.0       39.3       39.3        0.0       84.4       84.4
11/1/2016         180        250          0          9         25          0         12         25          0          0          0          0         85         94         63        0.0        0.0        0.0       55.9       59.0       53.6      29.82      30.01      29.54       0.00       0.00       0.00       51.1       53.7       44.7      29.82      30.01      29.54          0          0          0          0          0          0        0.0        0.0        0.0       0.00       0.00       0.00          0          0          0          0          0          0        0.0        0.0        0.0       0.00       0.00       0.00       0.00       0.12       0.12       0.00       0.00       0.00       0.00       0.00       0.00      0.000      0.000      0.000        0.0        0.2        0.2        0.0        0.0        0.0       0.00 -101473.68 -101473.68        0.0        3.0        3.0        0.0        1.0        1.0        0.0       39.3       39.3        0.0       84.4       84.4
11/2/2016          90        220          0          8         30          0         12         30          0          0          0          0         72         94         49        0.0        0.0        0.0       58.5       64.4       53.6      29.99      30.12      29.93       0.00       0.00       0.00       49.0       53.7       44.5      29.99      30.12      29.93          0          0          0          0          0          0        0.0        0.0        0.0       0.00       0.00       0.00          0          0          0          0          0          0        0.0        0.0        0.0       0.00       0.00       0.00       0.00       0.00       0.00       0.00       0.00       0.00       0.00       0.00       0.00      0.000      0.000      0.000        0.0        0.3        0.3        0.0        0.0        0.0       0.00 -102032.64 -102032.64        0.0        3.3        3.3        0.0        1.0        1.0        0.0       39.6       39.6        0.0       84.4       84.4
11/3/2016          90        250          0          3         10          0          4         10          0          0          0          0         85         94         64        0.0        0.0        0.0       52.8       64.4       44.6      30.18      30.26      29.91       0.00       0.00       0.00       48.1       52.0       42.7      30.18      30.26      29.91          0          0          0          0          0          0        0.0        0.0        0.0       0.00       0.00       0.00          0          0          0          0          0          0        0.0        0.0        0.0       0.00       0.00       0.00       0.00       0.00       0.00       0.00       0.00       0.00       0.00       0.00       0.00      0.000      0.000      0.000        0.0        0.1        0.1        0.0        0.0        0.0       0.00 -102308.04 -102308.04        0.0        3.4        3.4        0.0        1.0        1.0        0.0       39.7       39.7        0.0       84.4       84.4
11/4/2016          90        360          0          5         22          0          7         22          0          0          0          0         78         93         56        0.0        0.0        0.0       55.4       64.4       42.8      29.98      30.03      29.93       0.00       0.00       0.00       48.2       53.6       40.9      29.98      30.03      29.93          0          0          0          0          0          0        0.0        0.0        0.0       0.00       0.00       0.00          0          0          0          0          0          0        0.0        0.0        0.0       0.00       0.00       0.00       0.00       0.00       0.00       0.00       0.00       0.00       0.00       0.00       0.00      0.000      0.000      0.000        0.0        0.2        0.2        0.0        0.0        0.0       0.00 -102605.88 -102605.88        0.0        3.6        3.6        0.0        1.0        1.0        0.0       39.9       39.9        0.0       84.4       84.4
11/5/2016         180        260          0          8         23          0         12         23          0          0          0          0         88         94         72        0.0        0.0        0.0       57.6       62.6       53.6      29.87      29.91      29.83       0.00       0.00       0.00       54.1       57.4       50.1      29.87      29.91      29.83          0          0          0          0          0          0        0.0        0.0        0.0       0.00       0.00       0.00          0          0          0          0          0          0        0.0        0.0        0.0       0.00       0.00       0.00       0.00       0.00       0.00       0.00       0.00       0.00       0.00       0.00       0.00      0.000      0.000      0.000        0.0        0.1        0.1        0.0        0.0        0.0       0.00 -102891.48 -102891.48        0.0        3.8        3.8        0.0        1.0        1.0        0.0       40.0       40.0        0.0       84.4       84.4
11/6/2016         180        260          0          7         23          0         10         23          0          0          0          0         85         94         68        0.0        0.0        0.0       57.2       62.6       53.6      29.92      30.01      29.83       0.00       0.00       0.00       52.6       57.4       48.3      29.92      30.01      29.83          0          0          0          0          0          0        0.0        0.0        0.0       0.00       0.00       0.00          0          0          0          0          0          0        0.0        0.0        0.0       0.00       0.00       0.00       0.00       0.00       0.00       0.00       0.00       0.00       0.00       0.00       0.00      0.000      0.000      0.000        0.0        0.1        0.1        0.0        0.0        0.0       0.00 -102891.48 -102891.48        0.0        3.8        3.8        0.0        1.0        1.0        0.0       40.0       40.0        0.0       84.4       84.4
11/7/2016         112        320          0          5         12          0          8         12          0          0          0          0         71         88         52        0.0        0.0        0.0       59.8       66.2       53.6      30.04      30.07      30.01       0.00       0.00       0.00       50.0       53.6       48.1      30.04      30.07      30.01          0          0          0          0          0          0        0.0        0.0        0.0       0.00       0.00       0.00          0          0          0          0          0          0        0.0        0.0        0.0       0.00       0.00       0.00       0.00       0.00       0.00       0.00       0.00       0.00       0.00       0.00       0.00      0.000      0.000      0.000        0.0        0.3        0.3        0.0        0.0        0.0       0.00 -103460.64 -103460.64        0.0        4.0        4.0        0.0        1.0        1.0        0.0       40.3       40.3        0.0       84.4       84.4
11/8/2016         180        210          0          8         19          0         10         19          0          0          0          0         70         88         53        0.0        0.0        0.0       62.5       69.8       53.6      30.04      30.06      30.02       0.00       0.00       0.00       52.5       59.1       48.2      30.04      30.06      30.02          0          0          0          0          0          0        0.0        0.0        0.0       0.00       0.00       0.00          0          0          0          0          0          0        0.0        0.0        0.0       0.00       0.00       0.00       0.00       0.00       0.00       0.00       0.00       0.00       0.00       0.00       0.00      0.000      0.000      0.000        0.0        0.0        0.0        0.0        0.0        0.0       0.00       0.00       0.00        0.0        0.0        0.0        0.0        0.0        0.0        0.0        0.0        0.0        0.0        0.0        0.0
11/9/2016         180        300          0          6         19          0         10         19          0          0          0          0         76         94         53        0.0        0.0        0.0       60.6       69.8       53.6      30.05      30.12      30.02       0.00       0.00       0.00       52.6       59.1       48.2      30.05      30.12      30.02          0          0          0          0          0          0        0.0        0.0        0.0       0.00       0.00       0.00          0          0          0          0          0          0        0.0        0.0        0.0       0.00       0.00       0.00       0.00       0.00       0.00       0.00       0.00       0.00       0.00       0.00       0.00      0.000      0.000      0.000        0.0        0.0        0.0        0.0        0.0        0.0       0.00       0.00       0.00        0.0        0.0        0.0        0.0        0.0        0.0        0.0        0.0        0.0        0.0        0.0        0.0
11/10/2016        225        360          0          3         12          0          5         12          0          0          0          0         88         94         77        0.0        0.0        0.0       55.8       60.8       48.2      30.04      30.08      30.02       0.00       0.00       0.00       52.4       55.5       46.3      30.04      30.08      30.02          0          0          0          0          0          0        0.0        0.0        0.0       0.00       0.00       0.00          0          0          0          0          0          0        0.0        0.0        0.0       0.00       0.00       0.00       0.00       0.00       0.00       0.00       0.00       0.00       0.00       0.00       0.00      0.000      0.000      0.000        0.0        0.1        0.1        0.0        0.0        0.0       0.00 -104099.16 -104099.16        0.0        4.2        4.2        0.0        1.0        1.0        0.0       40.4       40.4        0.0       84.4       84.4
11/11/2016         90        190          0          4         22          0          6         22          0          0          0          0         85         94         49        0.0        0.0        0.0       58.4       66.2       55.4      29.90      30.02      29.78       0.00       0.00       0.00       53.5       55.5       46.4      29.90      30.02      29.78          0          0          0          0          0          0        0.0        0.0        0.0       0.00       0.00       0.00          0          0          0          0          0          0        0.0        0.0        0.0       0.00       0.00       0.00       0.00       0.00       0.00       0.00       0.00       0.00       0.00       0.00       0.00      0.000      0.000      0.000        0.0        0.2        0.2        0.0        0.0        0.0       0.00 -104370.48 -104370.48        0.0        4.3        4.3        0.0        1.0        1.0        0.0       40.6       40.6        0.0       84.4       84.4
11/12/2016        248        260        100         11         31          4         15         31          5          0          0          0         79         93         67        0.0        0.0        0.0       56.8       60.8       46.4      30.02      30.18      29.78       0.00       0.00       0.00       50.2       55.5       44.5      30.02      30.18      29.78          0          0          0          0          0          0        0.0        0.0        0.0       0.00       0.00       0.00          0          0          0          0          0          0        0.0        0.0        0.0       0.00       0.00       0.00       0.00       0.00       0.00       0.00       0.00       0.00       0.00       0.00       0.00      0.000      0.000      0.000        0.0        0.1        0.1        0.0        0.0        0.0       0.00 -104662.20 -104662.20        0.0        4.4        4.4        0.0        1.0        1.0        0.0       40.7       40.7        0.0       84.4       84.4
11/13/2016        180        310          0          8         24          0         11         24          0          0          0          0         84         94         72        0.0        0.0        0.0       54.9       59.0       48.2      30.05      30.13      29.95       0.00       0.00       0.00       49.9       55.5       46.3      30.05      30.13      29.95          0          0          0          0          0          0        0.0        0.0        0.0       0.00       0.00       0.00          0          0          0          0          0          0        0.0        0.0        0.0       0.00       0.00       0.00       0.00       0.00       0.00       0.00       0.00       0.00       0.00       0.00       0.00      0.000      0.000      0.000        0.0        0.1        0.1        0.0        0.0        0.0       0.00 -104949.84 -104949.84        0.0        4.6        4.6        0.0        1.0        1.0        0.0       40.8       40.8        0.0       84.4       84.4
11/14/2016         90        310          0          5         16          0          8         16          0          0          0          0         90        100         77        0.0        0.0        0.0       55.8       59.0       51.8      29.96      30.07      29.76       0.00       0.00       0.00       52.9       55.5       50.1      29.96      30.07      29.76          0          0          0          0          0          0        0.0        0.0        0.0       0.00       0.00       0.00          0          0          0          0          0          0        0.0        0.0        0.0       0.00       0.00       0.00       0.00       0.00       0.00       0.00       0.00       0.00       0.00       0.00       0.00      0.000      0.000      0.000        0.0        0.1        0.1        0.0        0.0        0.0       0.00 -105225.24 -105225.24        0.0        4.7        4.7        0.0        1.0        1.0        0.0       41.0       41.0        0.0       84.4       84.4
11/15/2016        248        310          0          8         22          0         12         22          0          0          0          0         82         94         66        0.0        0.0        0.0       53.2       59.0       48.2      29.85      29.97      29.70       0.00       0.00       0.00       47.6       55.5       40.8      29.85      29.97      29.70          0          0          0          0          0          0        0.0        0.0        0.0       0.00       0.00       0.00          0          0          0          0          0          0        0.0        0.0        0.0       0.00       0.00       0.00       0.00       0.00       0.00       0.00       0.00       0.00       0.00       0.00       0.00      0.000      0.000      0.000        0.0        0.2        0.2        0.0        0.0        0.0       0.00 -105512.88 -105512.88        0.0        4.9        4.9        0.0        1.0        1.0        0.0       41.2       41.2        0.0       84.4       84.4
11/16/2016        180        340          0          4         12          0          7         12          0          0          0          0         85         93         71        0.0        0.0        0.0       46.9       51.8       42.8      30.04      30.10      29.98       0.00       0.00       0.00       42.4       44.7       39.1      30.04      30.10      29.98          0          0          0          0          0          0        0.0        0.0        0.0       0.00       0.00       0.00          0          0          0          0          0          0        0.0        0.0        0.0       0.00       0.00       0.00       0.00       0.00       0.00       0.00       0.00       0.00       0.00       0.00       0.00      0.000      0.000      0.000        0.0        0.2        0.2        0.0        0.0        0.0       0.00 -105814.80 -105814.80        0.0        5.1        5.1        0.0        1.0        1.0        0.0       41.4       41.4        0.0       84.4       84.4
11/17/2016         90        150          0          4         10          0          6         10          0          0          0          0         81         93         67        0.0        0.0        0.0       46.5       53.6       41.0      30.12      30.16      30.09       0.00       0.00       0.00       40.8       44.5       39.1      30.12      30.16      30.09          0          0          0          0          0          0        0.0        0.0        0.0       0.00       0.00       0.00          0          0          0          0          0          0        0.0        0.0        0.0       0.00       0.00       0.00       0.00       0.00       0.00       0.00       0.00       0.00       0.00       0.00       0.00      0.000      0.000      0.000        0.0        0.3        0.3        0.0        0.0        0.0       0.00 -106102.44 -106102.44        0.0        5.4        5.4        0.0        1.0        1.0        0.0       41.7       41.7        0.0       84.4       84.4
11/18/2016        112        190          0          8         28          0         12         28          0          0          0          0         62         81         44        0.0        0.0        0.0       49.5       53.6       44.6      29.82      30.07      29.61       0.00       0.00       0.00       36.6       41.0       32.2      29.82      30.07      29.61          0          0          0          0          0          0        0.0        0.0        0.0       0.00       0.00       0.00          0          0          0          0          0          0        0.0        0.0        0.0       0.00       0.00       0.00       0.00       0.00       0.00       0.00       0.00       0.00       0.00       0.00       0.00      0.000      0.000      0.000        0.0        0.3        0.3        0.0        0.0        0.0       0.00 -106386.00 -106386.00        0.0        5.7        5.7        0.0        1.0        1.0        0.0       42.0       42.0        0.0       84.4       84.4
11/19/2016        112        200          0         10         20          0         14         20          0          0          0          0         76         87         63        0.0        0.0        0.0       52.8       57.2       48.2      29.61      29.64      29.57       0.00       0.00       0.00       45.3       48.3       39.1      29.61      29.64      29.57          0          0          0          0          0          0        0.0        0.0        0.0       0.00       0.00       0.00          0          0          0          0          0          0        0.0        0.0        0.0       0.00       0.00       0.00       0.00       0.00       0.00       0.00       0.00       0.00       0.00       0.00       0.00      0.000      0.000      0.000        0.0        0.2        0.2        0.0        0.0        0.0       0.00 -106671.60 -106671.60        0.0        5.9        5.9        0.0        1.0        1.0        0.0       42.2       42.2        0.0       84.4       84.4
11/20/2016        180        230          0          6         16          0          9         16          0          0          0          0         84         94         77        0.0        0.0        0.0       52.4       55.4       48.2      29.72      29.84      29.63       0.00       0.00       0.00       47.9       50.1       46.3      29.72      29.84      29.63          0          0          0          0          0          0        0.0        0.0        0.0       0.00       0.00       0.00          0          0          0          0          0          0        0.0        0.0        0.0       0.00       0.00       0.00       0.00       0.00       0.00       0.00       0.00       0.00       0.00       0.00       0.00      0.000      0.000      0.000        0.0        0.0        0.0        0.0        0.0        0.0       0.00       0.00       0.00        0.0        0.0        0.0        0.0        0.0        0.0        0.0        0.0        0.0        0.0        0.0        0.0
11/21/2016        135        330          0          4         13          0          7         13          0          0          0          0         85         94         62        0.0        0.0        0.0       50.0       55.4       46.4      29.96      30.02      29.86       0.00       0.00       0.00       45.5       50.1       40.9      29.96      30.02      29.86          0          0          0          0          0          0        0.0        0.0        0.0       0.00       0.00       0.00          0          0          0          0          0          0        0.0        0.0        0.0       0.00       0.00       0.00       0.00       0.00       0.00       0.00       0.00       0.00       0.00       0.00       0.00      0.000      0.000      0.000        0.0        0.2        0.2        0.0        0.0        0.0       0.00 -107234.64 -107234.64        0.0        6.3        6.3        0.0        1.0        1.0        0.0       42.6       42.6        0.0       84.4       84.4
11/22/2016        112        300          0          7         19          0         10         19          0          0          0          0         82         93         67        0.0        0.0        0.0       50.4       55.4       46.4      29.87      29.99      29.78       0.02       0.00       0.00       44.9       48.2       42.7      29.87      29.99      29.78          0          0          0          0          0          0        0.0        0.0        0.0       0.00       0.00       0.00          0          0          0          0          0          0        0.0        0.0        0.0       0.00       0.00       0.00       0.00       0.00       0.00       0.00       0.00       0.00       0.00       0.00       0.00      0.000      0.000      0.000        0.0        0.3        0.3        0.0        0.0        0.0       0.00 -107538.60 -107538.60        0.0        6.6        6.6        0.0        1.0        1.0        0.0       42.8       42.8        0.0       84.4       84.4
11/23/2016        180        210          0          8         17          0         11         17          0          0          0          0         79         87         62        0.0        0.0        0.0       48.9       53.6       46.4      29.96      30.04      29.86       0.00       0.00       0.00       42.6       44.5       39.3      29.96      30.04      29.86          0          0          0          0          0          0        0.0        0.0        0.0       0.00       0.00       0.00          0          0          0          0          0          0        0.0        0.0        0.0       0.00       0.00       0.00       0.00       0.00       0.00       0.00       0.00       0.00       0.00       0.00       0.00      0.000      0.000      0.000        0.0        0.2        0.2        0.0        0.0        0.0       0.00 -107811.96 -107811.96        0.0        6.8        6.8        0.0        1.0        1.0        0.0       43.1       43.1        0.0       84.4       84.4
11/24/2016        180        220          0         11         23          0         14         23          0          0          0          0         79         87         58        0.0        0.0        0.0       50.3       53.6       46.4      29.86      30.04      29.61       0.02       0.00       0.00       43.8       48.2       37.5      29.86      30.04      29.61          0          0          0          0          0          0        0.0        0.0        0.0       0.00       0.00       0.00          0          0          0          0          0          0        0.0        0.0        0.0       0.00       0.00       0.00       0.00       0.00       0.00       0.00       0.00       0.00       0.00       0.00       0.00      0.000      0.000      0.000        0.0        0.2        0.2        0.0        0.0        0.0       0.00 -107811.96 -107811.96        0.0        6.8        6.8        0.0        1.0        1.0        0.0       43.1       43.1        0.0       84.4       84.4
11/25/2016         90        240         70          6         14          3          9         14          4          0          0          0         73         81         58        0.0        0.0        0.0       49.3       53.6       44.6      29.85      29.88      29.80       0.00       0.00       0.00       41.1       44.5       37.5      29.85      29.88      29.80          0          0          0          0          0          0        0.0        0.0        0.0       0.00       0.00       0.00          0          0          0          0          0          0        0.0        0.0        0.0       0.00       0.00       0.00       0.00       0.00       0.00       0.00       0.00       0.00       0.00       0.00       0.00      0.000      0.000      0.000        0.0        0.0        0.0        0.0        0.0        0.0       0.00       0.00       0.00        0.0        0.0        0.0        0.0        0.0        0.0        0.0        0.0        0.0        0.0        0.0        0.0
11/26/2016         90        340          0          5         14          0          8         14          0          0          0          0         79         87         58        0.0        0.0        0.0       48.5       53.6       44.6      29.65      29.88      29.45       0.00       0.00       0.00       42.2       46.6       37.5      29.65      29.88      29.45          0          0          0          0          0          0        0.0        0.0        0.0       0.00       0.00       0.00          0          0          0          0          0          0        0.0        0.0        0.0       0.00       0.00       0.00       0.00       0.00       0.00       0.00       0.00       0.00       0.00       0.00       0.00      0.000      0.000      0.000        0.0        0.0        0.0        0.0        0.0        0.0       0.00       0.00       0.00        0.0        0.0        0.0        0.0        0.0        0.0        0.0        0.0        0.0        0.0        0.0        0.0
11/27/2016        135        300         80         13         29          3         16         29          4          0          0          0         76         87         58        0.0        0.0        0.0       49.4       53.6       42.8      29.71      29.85      29.56       0.00       0.00       0.00       42.1       48.2       37.5      29.71      29.85      29.56          0          0          0          0          0          0        0.0        0.0        0.0       0.00       0.00       0.00          0          0          0          0          0          0        0.0        0.0        0.0       0.00       0.00       0.00       0.00       0.00       0.00       0.00       0.00       0.00       0.00       0.00       0.00      0.000      0.000      0.000        0.0        0.4        0.4        0.0        0.0        0.0       0.00 -108791.16 -108791.16        0.0        7.8        7.8        0.0        1.0        1.0        0.0       44.1       44.1        0.0       84.4       84.4
11/28/2016        292        320          0          9         24          0         13         24          0          0          0          0         74         87         62        0.0        0.0        0.0       50.0       53.6       46.4      30.00      30.16      29.76       0.00       0.00       0.00       42.0       44.4       39.1      30.00      30.16      29.76          0          0          0          0          0          0        0.0        0.0        0.0       0.00       0.00       0.00          0          0          0          0          0          0        0.0        0.0        0.0       0.00       0.00       0.00       0.00       0.00       0.00       0.00       0.00       0.00       0.00       0.00       0.00      0.000      0.000      0.000        0.0        0.3        0.3        0.0        0.0        0.0       0.00 -109029.84 -109029.84        0.0        8.1        8.1        0.0        1.0        1.0        0.0       44.3       44.3        0.0       84.4       84.4
11/29/2016        158        250          0          7         20          0          9         20          0          0          0          0         76         87         58        0.0        0.0        0.0       49.1       53.6       46.4      30.05      30.18      29.87       0.00       0.00       0.00       41.7       44.7       37.4      30.05      30.18      29.87          0          0          0          0          0          0        0.0        0.0        0.0       0.00       0.00       0.00          0          0          0          0          0          0        0.0        0.0        0.0       0.00       0.00       0.00       0.00       0.00       0.00       0.00       0.00       0.00       0.00       0.00       0.00      0.000      0.000      0.000        0.0        0.3        0.3        0.0        0.0        0.0       0.00 -109297.08 -109297.08        0.0        8.4        8.4        0.0        1.0        1.0        0.0       44.6       44.6        0.0       84.4       84.4
11/30/2016        270        320          0         10         23          0         14         23          0          0          0          0         66         81         54        0.0        0.0        0.0       49.9       53.6       42.8      30.08      30.21      29.91       0.01       0.00       0.00       38.8       42.7       35.8      30.08      30.21      29.91          0          0          0          0          0          0        0.0        0.0        0.0       0.00       0.00       0.00          0          0          0          0          0          0        0.0        0.0        0.0       0.00       0.00       0.00       0.00       0.00       0.00       0.00       0.00       0.00       0.00       0.00       0.00      0.000      0.000      0.000        0.0        0.3        0.3        0.0        0.0        0.0       0.00 -109568.40 -109568.40        0.0        8.6        8.6        0.0        1.0        1.0        0.0       44.9       44.9        0.0       84.4       84.4
12/1/2016         270        320          0          7         23          0          9         23          0          0          0          0         74         87         54        0.0        0.0        0.0       48.2       53.6       42.8      30.20      30.33      29.91       0.00       0.00       0.00       40.2       44.7       35.8      30.20      30.33      29.91          0          0          0          0          0          0        0.0        0.0        0.0       0.00       0.00       0.00          0          0          0          0          0          0        0.0        0.0        0.0       0.00       0.00       0.00       0.00       0.00       0.00       0.00       0.00       0.00       0.00       0.00       0.00      0.000      0.000      0.000        0.0        0.0        0.0        0.0        0.0        0.0       0.00       0.00       0.00        0.0        0.0        0.0        0.0        0.0        0.0        0.0        0.0        0.0        0.0        0.0        0.0
12/2/2016         270        280          0          7         24          0          9         24          0          0          0          0         81         87         71        0.0        0.0        0.0       49.8       53.6       46.4      30.24      30.34      30.15       0.01       0.00       0.00       44.3       48.2       42.7      30.24      30.34      30.15          0          0          0          0          0          0        0.0        0.0        0.0       0.00       0.00       0.00          0          0          0          0          0          0        0.0        0.0        0.0       0.00       0.00       0.00       0.00       0.00       0.00       0.00       0.00       0.00       0.00       0.00       0.00      0.000      0.000      0.000        0.0        0.5        0.5        0.0        0.0        0.0       0.00 -110086.56 -110086.56        0.0        9.1        9.1        0.0        1.0        1.0        0.0       45.4       45.4        0.0       84.4       84.4
12/3/2016         248        290          0          7         20          0         11         20          0          0          0          0         76         87         62        0.0        0.0        0.0       49.5       53.6       44.6      30.28      30.36      30.13       0.00       0.00       0.00       42.1       44.7       39.1      30.28      30.36      30.13          0          0          0          0          0          0        0.0        0.0        0.0       0.00       0.00       0.00          0          0          0          0          0          0        0.0        0.0        0.0       0.00       0.00       0.00       0.00       0.00       0.00       0.00       0.00       0.00       0.00       0.00       0.00      0.000      0.000      0.000        0.0        0.3        0.3        0.0        0.0        0.0       0.00 -110372.16 -110372.16        0.0        9.4        9.4        0.0        1.0        1.0        0.0       45.7       45.7        0.0       84.4       84.4
12/4/2016         315        340          0          8         25          0         13         25          0          0          0          0         73         87         50        0.0        0.0        0.0       44.7       48.2       37.4      30.14      30.22      30.07       0.00       0.00       0.00       36.2       44.5       30.3      30.14      30.22      30.07          0          0          0          0          0          0        0.0        0.0        0.0       0.00       0.00       0.00          0          0          0          0          0          0        0.0        0.0        0.0       0.00       0.00       0.00       0.00       0.00       0.00       0.00       0.00       0.00       0.00       0.00       0.00      0.000      0.000      0.000        0.0        0.0        0.0        0.0        0.0        0.0       0.00       0.00       0.00        0.0        0.0        0.0        0.0        0.0        0.0        0.0        0.0        0.0        0.0        0.0        0.0
12/5/2016         112        270          0          7         17          0         10         17          0          0          0          0         82         87         75        0.0        0.0        0.0       39.1       42.8       33.8      30.06      30.21      29.99       0.00       0.00       0.00       34.1       37.4       30.1      30.06      30.21      29.99          0          0          0          0          0          0        0.0        0.0        0.0       0.00       0.00       0.00          0          0          0          0          0          0        0.0        0.0        0.0       0.00       0.00       0.00       0.00       0.01       0.01       0.00       0.00       0.00       0.00       0.00       0.00      0.000      0.000      0.000        0.0        0.4        0.4        0.0        0.0        0.0       0.00 -110888.28 -110888.28        0.0       10.0       10.0        0.0        1.0        1.0        0.0       46.3       46.3        0.0       84.4       84.4
12/6/2016          90        170          0          4         11          0          6         11          0          0          0          0         76         87         57        0.0        0.0        0.0       37.3       44.6       30.2      30.14      30.33      29.99       0.00       0.00       0.00       30.3       33.9       26.5      30.14      30.33      29.99          0          0          0          0          0          0        0.0        0.0        0.0       0.00       0.00       0.00          0          0          0          0          0          0        0.0        0.0        0.0       0.00       0.00       0.00       0.00       0.00       0.00       0.00       0.00       0.00       0.00       0.00       0.00      0.000      0.000      0.000        0.0        0.6        0.6        0.0        0.0        0.0       0.00 -111159.60 -111159.60        0.0       10.6       10.6        0.0        1.0        1.0        0.0       46.9       46.9        0.0       84.4       84.4
12/7/2016          90        140         70         14         30          3         18         30          4          0          0          0         66         86         51        0.0        0.0        0.0       35.8       41.0       30.2      30.26      30.35      30.10       0.00       0.00       0.00       25.1       26.7       19.3      30.26      30.35      30.10          0          0          0          0          0          0        0.0        0.0        0.0       0.00       0.00       0.00          0          0          0          0          0          0        0.0        0.0        0.0       0.00       0.00       0.00       0.00       0.00       0.00       0.00       0.00       0.00       0.00       0.00       0.00      0.000      0.000      0.000        0.0        0.5        0.5        0.0        0.0        0.0       0.00 -111424.80 -111424.80        0.0       11.1       11.1        0.0        1.0        1.0        0.0       47.4       47.4        0.0       84.4       84.4
12/8/2016          90        100         40         12         23          4         15         23          5          0          0          0         66         87         41        0.0        0.0        0.0       36.5       39.2       33.8      29.88      30.07      29.77       0.00       0.00       0.00       25.5       35.7       15.9      29.88      30.07      29.77          0          0          0          0          0          0        0.0        0.0        0.0       0.00       0.00       0.00          0          0          0          0          0          0        0.0        0.0        0.0       0.00       0.00       0.00       0.00       0.00       0.00       0.00       0.00       0.00       0.00       0.00       0.00      0.000      0.000      0.000        0.0        0.5        0.5        0.0        0.0        0.0       0.00 -111690.00 -111690.00        0.0       11.6       11.6        0.0        1.0        1.0        0.0       47.9       47.9        0.0       84.4       84.4
12/9/2016          90        310          0          7         16          0         10         16          0          0          0          0         83         87         76        0.0        0.0        0.0       42.5       46.4       39.2      29.93      29.97      29.84       0.01       0.00       0.00       37.6       39.3       35.6      29.93      29.97      29.84          0          0          0          0          0          0        0.0        0.0        0.0       0.00       0.00       0.00          0          0          0          0          0          0        0.0        0.0        0.0       0.00       0.00       0.00       0.00       0.00       0.00       0.00       0.00       0.00       0.00       0.00       0.00      0.000      0.000      0.000        0.0        0.0        0.0        0.0        0.0        0.0       0.00       0.00       0.00        0.0        0.0        0.0        0.0        0.0        0.0        0.0        0.0        0.0        0.0        0.0        0.0
12/10/2016        248        270          0          9         35          0         14         35          0          0          0          0         76         87         62        0.0        0.0        0.0       45.0       51.8       37.4      29.88      29.95      29.85       0.00       0.00       0.00       37.6       42.7       33.9      29.88      29.95      29.85          0          0          0          0          0          0        0.0        0.0        0.0       0.00       0.00       0.00          0          0          0          0          0          0        0.0        0.0        0.0       0.00       0.00       0.00       0.00       0.00       0.00       0.00       0.00       0.00       0.00       0.00       0.00      0.000      0.000      0.000        0.0        0.4        0.4        0.0        0.0        0.0       0.00 -112144.92 -112144.92        0.0       12.5       12.5        0.0        1.0        1.0        0.0       48.8       48.8        0.0       84.4       84.4
12/11/2016        270        280          0          9         20          0         14         20          0          0          0          0         70         81         57        0.0        0.0        0.0       46.4       48.2       44.6      29.95      29.98      29.92       0.00       0.00       0.00       37.2       39.3       33.7      29.95      29.98      29.92          0          0          0          0          0          0        0.0        0.0        0.0       0.00       0.00       0.00          0          0          0          0          0          0        0.0        0.0        0.0       0.00       0.00       0.00       0.00       0.00       0.00       0.00       0.00       0.00       0.00       0.00       0.00      0.000      0.000      0.000        0.0        0.0        0.0        0.0        0.0        0.0       0.00       0.00       0.00        0.0        0.0        0.0        0.0        0.0        0.0        0.0        0.0        0.0        0.0        0.0        0.0
12/12/2016        112        280          0          7         20          0         10         20          0          0          0          0         76         87         57        0.0        0.0        0.0       44.7       48.2       39.2      30.09      30.23      29.92       0.00       0.00       0.00       37.5       42.7       33.7      30.09      30.23      29.92          0          0          0          0          0          0        0.0        0.0        0.0       0.00       0.00       0.00          0          0          0          0          0          0        0.0        0.0        0.0       0.00       0.00       0.00       0.00       0.00       0.00       0.00       0.00       0.00       0.00       0.00       0.00      0.000      0.000      0.000        0.0        0.0        0.0        0.0        0.0        0.0       0.00       0.00       0.00        0.0        0.0        0.0        0.0        0.0        0.0        0.0        0.0        0.0        0.0        0.0        0.0
12/13/2016          0        140          0          8         19          0         10         19          0          0          0          0         81         93         70        0.0        0.0        0.0       39.7       44.6       37.4      30.20      30.23      30.15       0.00       0.00       0.00       34.1       35.7       30.3      30.20      30.23      30.15          0          0          0          0          0          0        0.0        0.0        0.0       0.00       0.00       0.00          0          0          0          0          0          0        0.0        0.0        0.0       0.00       0.00       0.00       0.00       0.00       0.00       0.00       0.00       0.00       0.00       0.00       0.00      0.000      0.000      0.000        0.0        0.0        0.0        0.0        0.0        0.0       0.00       0.00       0.00        0.0        0.0        0.0        0.0        0.0        0.0        0.0        0.0        0.0        0.0        0.0        0.0
12/14/2016         68        140          0         11         25          0         15         25          0          0          0          0         73         93         52        0.0        0.0        0.0       38.5       44.6       35.6      30.04      30.23      29.78       0.00       0.00       0.00       30.3       35.7       23.1      30.04      30.23      29.78          0          0          0          0          0          0        0.0        0.0        0.0       0.00       0.00       0.00          0          0          0          0          0          0        0.0        0.0        0.0       0.00       0.00       0.00       0.00       0.00       0.00       0.00       0.00       0.00       0.00       0.00       0.00      0.000      0.000      0.000        0.0        0.0        0.0        0.0        0.0        0.0       0.00       0.00       0.00        0.0        0.0        0.0        0.0        0.0        0.0        0.0        0.0        0.0        0.0        0.0        0.0
12/15/2016         68        140          0          9         25          0         12         25          0          0          0          0         71         93         52        0.0        0.0        0.0       37.2       44.6       30.2      29.97      30.23      29.78       0.00       0.00       0.00       28.6       35.7       23.1      29.97      30.23      29.78          0          0          0          0          0          0        0.0        0.0        0.0       0.00       0.00       0.00          0          0          0          0          0          0        0.0        0.0        0.0       0.00       0.00       0.00       0.00       0.00       0.00       0.00       0.00       0.00       0.00       0.00       0.00      0.000      0.000      0.000        0.0        0.0        0.0        0.0        0.0        0.0       0.00       0.00       0.00        0.0        0.0        0.0        0.0        0.0        0.0        0.0        0.0        0.0        0.0        0.0        0.0
12/16/2016         90        170          0          5         13          0          7         13          0          0          0          0         66         86         41        0.0        0.0        0.0       33.0       41.0       28.4      30.09      30.29      29.88       0.00       0.00       0.00       22.4       28.5       17.5      30.09      30.29      29.88          0          0          0          0          0          0        0.0        0.0        0.0       0.00       0.00       0.00          0          0          0          0          0          0        0.0        0.0        0.0       0.00       0.00       0.00       0.00       0.00       0.00       0.00       0.00       0.00       0.00       0.00       0.00      0.000      0.000      0.000        0.0        1.1        1.1        0.0        0.0        0.0       0.00 -113456.64 -113456.64        0.0       14.4       14.4        0.0        1.0        1.0        0.0       50.7       50.7        0.0       84.4       84.4
12/17/2016         90        150         50          5         11          3          7         11          4          0          0          0         75         80         65        0.0        0.0        0.0       33.9       39.2       28.4      30.39      30.53      30.29       0.00       0.00       0.00       26.9       30.2       21.2      30.39      30.53      30.29          0          0          0          0          0          0        0.0        0.0        0.0       0.00       0.00       0.00          0          0          0          0          0          0        0.0        0.0        0.0       0.00       0.00       0.00       0.00       0.00       0.00       0.00       0.00       0.00       0.00       0.00       0.00      0.000      0.000      0.000        0.0        0.5        0.5        0.0        0.0        0.0       0.00 -113715.72 -113715.72        0.0       14.9       14.9        0.0        1.0        1.0        0.0       51.2       51.2        0.0       84.4       84.4
12/18/2016         90        150         70          4         10          3          6         10          4          0          0          0         78         86         65        0.0        0.0        0.0       35.5       42.8       30.2      30.45      30.53      30.27       0.00       0.00       0.00       29.1       32.1       26.5      30.45      30.53      30.27          0          0          0          0          0          0        0.0        0.0        0.0       0.00       0.00       0.00          0          0          0          0          0          0        0.0        0.0        0.0       0.00       0.00       0.00       0.00       0.00       0.00       0.00       0.00       0.00       0.00       0.00       0.00      0.000      0.000      0.000        0.0        0.5        0.5        0.0        0.0        0.0       0.00 -113991.12 -113991.12        0.0       15.4       15.4        0.0        1.0        1.0        0.0       51.7       51.7        0.0       84.4       84.4
12/19/2016         90        250          0         12         32          3         16         32          4          0          0          0         82         87         76        0.0        0.0        0.0       47.3       53.6       39.2      30.15      30.24      29.93       0.01       0.00       0.00       42.1       48.2       33.9      30.15      30.24      29.93          0          0          0          0          0          0        0.0        0.0        0.0       0.00       0.00       0.00          0          0          0          0          0          0        0.0        0.0        0.0       0.00       0.00       0.00       0.00       0.00       0.00       0.00       0.00       0.00       0.00       0.00       0.00      0.000      0.000      0.000        0.0        0.5        0.5        0.0        0.0        0.0       0.00 -114268.56 -114268.56        0.0       15.9       15.9        0.0        1.0        1.0        0.0       52.2       52.2        0.0       84.4       84.4
12/20/2016        270        290         90         11         32          3         16         32          4          0          0          0         72         88         50        0.0        0.0        0.0       49.0       55.4       35.6      30.27      30.51      29.94       0.00       0.00       0.00       39.8       51.9       30.1      30.27      30.51      29.94          0          0          0          0          0          0        0.0        0.0        0.0       0.00       0.00       0.00          0          0          0          0          0          0        0.0        0.0        0.0       0.00       0.00       0.00       0.00       0.00       0.00       0.00       0.00       0.00       0.00       0.00       0.00      0.000      0.000      0.000        0.0        0.3        0.3        0.0        0.0        0.0       0.00 -114529.68 -114529.68        0.0       16.2       16.2        0.0        1.0        1.0        0.0       52.5       52.5        0.0       84.4       84.4
12/21/2016         90        120          0          5         13          0          7         13          0          0          0          0         80         87         66        0.0        0.0        0.0       38.2       46.4       33.8      30.32      30.50      30.04       0.00       0.00       0.00       32.3       37.5       28.3      30.32      30.50      30.04          0          0          0          0          0          0        0.0        0.0        0.0       0.00       0.00       0.00          0          0          0          0          0          0        0.0        0.0        0.0       0.00       0.00       0.00       0.00       0.00       0.00       0.00       0.00       0.00       0.00       0.00       0.00      0.000      0.000      0.000        0.0        0.3        0.3        0.0        0.0        0.0       0.00 -114809.16 -114809.16        0.0       16.5       16.5        0.0        1.0        1.0        0.0       52.8       52.8        0.0       84.4       84.4
12/22/2016         90        130          0          4         14          0          6         14          0          0          0          0         78         87         61        0.0        0.0        0.0       39.2       42.8       32.0      29.84      29.99      29.60       0.00       0.00       0.00       32.9       37.4       26.5      29.84      29.99      29.60          0          0          0          0          0          0        0.0        0.0        0.0       0.00       0.00       0.00          0          0          0          0          0          0        0.0        0.0        0.0       0.00       0.00       0.00       0.00       0.00       0.00       0.00       0.00       0.00       0.00       0.00       0.00      0.000      0.000      0.000        0.0        0.5        0.5        0.0        0.0        0.0       0.00 -115080.48 -115080.48        0.0       17.0       17.0        0.0        1.0        1.0        0.0       53.3       53.3        0.0       84.4       84.4
12/23/2016        180        350          0          5         16          0          8         16          0          0          0          0         80         87         71        0.0        0.0        0.0       42.0       46.4       37.4      29.63      29.81      29.48       0.00       0.00       0.00       36.2       37.5       32.1      29.63      29.81      29.48          0          0          0          0          0          0        0.0        0.0        0.0       0.00       0.00       0.00          0          0          0          0          0          0        0.0        0.0        0.0       0.00       0.00       0.00       0.00       0.00       0.00       0.00       0.00       0.00       0.00       0.00       0.00      0.000      0.000      0.000        0.0        0.4        0.4        0.0        0.0        0.0       0.00 -115357.92 -115357.92        0.0       17.5       17.5        0.0        1.0        1.0        0.0       53.7       53.7        0.0       84.4       84.4
12/24/2016         90        280          0          3         10          0          5         10          0          0          0          0         83         87         76        0.0        0.0        0.0       37.0       44.6       32.0      29.93      30.00      29.83       0.00       0.00       0.00       32.2       37.5       28.3      29.93      30.00      29.83          0          0          0          0          0          0        0.0        0.0        0.0       0.00       0.00       0.00          0          0          0          0          0          0        0.0        0.0        0.0       0.00       0.00       0.00       0.00       0.00       0.00       0.00       0.00       0.00       0.00       0.00       0.00      0.000      0.000      0.000        0.0        0.5        0.5        0.0        0.0        0.0       0.00 -115639.44 -115639.44        0.0       17.9       17.9        0.0        1.0        1.0        0.0       54.2       54.2        0.0       84.4       84.4
12/25/2016         90        130          0          5         11          0          7         11          0          0          0          0         78         87         66        0.0        0.0        0.0       37.8       44.6       33.8      30.08      30.20      29.99       0.00       0.00       0.00       31.6       34.0       28.3      30.08      30.20      29.99          0          0          0          0          0          0        0.0        0.0        0.0       0.00       0.00       0.00          0          0          0          0          0          0        0.0        0.0        0.0       0.00       0.00       0.00       0.00       0.00       0.00       0.00       0.00       0.00       0.00       0.00       0.00      0.000      0.000      0.000        0.0        0.5        0.5        0.0        0.0        0.0       0.00 -115918.92 -115918.92        0.0       18.5       18.5        0.0        1.0        1.0        0.0       54.7       54.7        0.0       84.4       84.4
12/26/2016         90        280         80          8         25          3         11         25          4          0          0          0         79         87         66        0.0        0.0        0.0       43.3       50.0       35.6      30.12      30.23      29.97       0.01       0.00       0.00       37.2       44.7       30.1      30.12      30.23      29.97          0          0          0          0          0          0        0.0        0.0        0.0       0.00       0.00       0.00          0          0          0          0          0          0        0.0        0.0        0.0       0.00       0.00       0.00       0.00       0.00       0.00       0.00       0.00       0.00       0.00       0.00       0.00      0.000      0.000      0.000        0.0        0.0        0.0        0.0        0.0        0.0       0.00       0.00       0.00        0.0        0.0        0.0        0.0        0.0        0.0        0.0        0.0        0.0        0.0        0.0        0.0
12/27/2016        270        350          0         10         25          0         14         25          0          0          0          0         70         87         57        0.0        0.0        0.0       46.1       50.0       42.8      30.12      30.35      30.00       0.00       0.00       0.00       36.6       41.0       33.7      30.12      30.35      30.00          0          0          0          0          0          0        0.0        0.0        0.0       0.00       0.00       0.00          0          0          0          0          0          0        0.0        0.0        0.0       0.00       0.00       0.00       0.00       0.00       0.00       0.00       0.00       0.00       0.00       0.00       0.00      0.000      0.000      0.000        0.0        0.4        0.4        0.0        0.0        0.0       0.00 -116484.00 -116484.00        0.0       19.3       19.3        0.0        1.0        1.0        0.0       55.6       55.6        0.0       84.4       84.4
12/28/2016         90        240          0          5         11          0          8         11          0          0          0          0         77         87         66        0.0        0.0        0.0       41.6       46.4       35.6      30.39      30.46      30.26       0.00       0.00       0.00       35.0       37.5       30.1      30.39      30.46      30.26          0          0          0          0          0          0        0.0        0.0        0.0       0.00       0.00       0.00          0          0          0          0          0          0        0.0        0.0        0.0       0.00       0.00       0.00       0.00       0.00       0.00       0.00       0.00       0.00       0.00       0.00       0.00      0.000      0.000      0.000        0.0        0.3        0.3        0.0        0.0        0.0       0.00 -116763.48 -116763.48        0.0       19.7       19.7        0.0        1.0        1.0        0.0       55.9       55.9        0.0       84.4       84.4
12/29/2016        202        310          0          6         29          0          9         29          0          0          0          0         79         87         70        0.0        0.0        0.0       45.4       51.8       37.4      30.20      30.25      30.16       0.00       0.00       0.00       39.2       44.7       33.7      30.20      30.25      30.16          0          0          0          0          0          0        0.0        0.0        0.0       0.00       0.00       0.00          0          0          0          0          0          0        0.0        0.0        0.0       0.00       0.00       0.00       0.00       0.00       0.00       0.00       0.00       0.00       0.00       0.00       0.00      0.000      0.000      0.000        0.0        0.4        0.4        0.0        0.0        0.0       0.00 -117008.28 -117008.28        0.0       20.0       20.0        0.0        1.0        1.0        0.0       56.3       56.3        0.0       84.4       84.4
12/30/2016        315        340          0          3         13          0          6         13          0          0          0          0         76         93         57        0.0        0.0        0.0       40.9       48.2       32.0      30.28      30.30      30.24       0.00       0.00       0.00       33.6       37.5       28.3      30.28      30.30      30.24          0          0          0          0          0          0        0.0        0.0        0.0       0.00       0.00       0.00          0          0          0          0          0          0        0.0        0.0        0.0       0.00       0.00       0.00       0.00       0.00       0.00       0.00       0.00       0.00       0.00       0.00       0.00      0.000      0.000      0.000        0.0        0.4        0.4        0.0        0.0        0.0       0.00 -117269.40 -117269.40        0.0       20.4       20.4        0.0        1.0        1.0        0.0       56.6       56.6        0.0       84.4       84.4
12/31/2016        270        360          0          5         25          0          6         25          0          0          0          0         82         93         61        0.0        0.0        0.0       36.4       44.6       28.4      30.09      30.27      29.80       0.00       0.00       0.00       31.3       39.2       24.8      30.09      30.27      29.80          0          0          0          0          0          0        0.0        0.0        0.0       0.00       0.00       0.00          0          0          0          0          0          0        0.0        0.0        0.0       0.00       0.00       0.00       0.00       0.00       0.00       0.00       0.00       0.00       0.00       0.00       0.00      0.000      0.000      0.000        0.0        0.4        0.4        0.0        0.0        0.0       0.00 -117528.48 -117528.48        0.0       20.8       20.8        0.0        1.0        1.0        0.0       57.0       57.0        0.0       84.4       84.4
1/1/2017           45        320          0          7         30          0         10         30          0          0          0          0         75         93         61        0.0        0.0        0.0       38.6       44.6       33.8      29.70      29.79      29.66       0.00       0.00       0.00       31.3       35.6       26.7      29.70      29.79      29.66          0          0          0          0          0          0        0.0        0.0        0.0       0.00       0.00       0.00          0          0          0          0          0          0        0.0        0.0        0.0       0.00       0.00       0.00       0.00       0.00       0.00       0.00       0.00       0.00       0.00       0.00       0.00      0.000      0.000      0.000        0.0        0.6        0.6        0.0        0.0        0.0       0.00 -117801.84 -117801.84        0.0       21.4       21.4        0.0        1.0        1.0        0.0       57.7       57.7        0.0       84.4       84.4
1/2/2017           68         80         60         15         24         10         19         24         12          0          0          0         63         75         51        0.0        0.0        0.0       35.9       37.4       33.8      29.88      30.08      29.73       0.00       0.00       0.00       24.3       28.5       17.6      29.88      30.08      29.73          0          0          0          0          0          0        0.0        0.0        0.0       0.00       0.00       0.00          0          0          0          0          0          0        0.0        0.0        0.0       0.00       0.00       0.00       0.00       0.00       0.00       0.00       0.00       0.00       0.00       0.00       0.00      0.000      0.000      0.000        0.0        0.5        0.5        0.0        0.0        0.0       0.00 -118067.04 -118067.04        0.0        0.5        0.5        0.0        0.0        0.0        0.0        0.5        0.5        0.0        0.0        0.0
1/3/2017           68         80         60         19         31         14         24         31         17          0          0          0         53         59         44        0.0        0.0        0.0       33.4       37.4       30.2      30.13      30.19      30.06       0.00       0.00       0.00       18.1       19.5       16.0      30.13      30.19      30.06          0          0          0          0          0          0        0.0        0.0        0.0       0.00       0.00       0.00          0          0          0          0          0          0        0.0        0.0        0.0       0.00       0.00       0.00       0.00       0.00       0.00       0.00       0.00       0.00       0.00       0.00       0.00      0.000      0.000      0.000        0.0        0.5        0.5        0.0        0.0        0.0       0.00 -118328.16 -118328.16        0.0        1.0        1.0        0.0        0.0        0.0        0.0        1.0        1.0        0.0        0.0        0.0
1/4/2017           90        120         80         10         22          5         13         22          6          0          0          0         43         59         30        0.0        0.0        0.0       31.4       37.4       26.6      30.19      30.30      30.02       0.00       0.00       0.00       11.2       15.9        8.7      30.19      30.30      30.02          0          0          0          0          0          0        0.0        0.0        0.0       0.00       0.00       0.00          0          0          0          0          0          0        0.0        0.0        0.0       0.00       0.00       0.00       0.00       0.00       0.00       0.00       0.00       0.00       0.00       0.00       0.00      0.000      0.000      0.000        0.0        0.5        0.5        0.0        0.0        0.0       0.00 -118597.44 -118597.44        0.0        1.5        1.5        0.0        0.0        0.0        0.0        1.5        1.5        0.0        0.0        0.0
1/5/2017           90        140          0          4         12          0          6         12          0          0          0          0         54         73         38        0.0        0.0        0.0       29.9       39.2       23.0      30.25      30.31      30.15       0.00       0.00       0.00       14.8       17.5       10.5      30.25      30.31      30.15          0          0          0          0          0          0        0.0        0.0        0.0       0.00       0.00       0.00          0          0          0          0          0          0        0.0        0.0        0.0       0.00       0.00       0.00       0.00       0.00       0.00       0.00       0.00       0.00       0.00       0.00       0.00      0.000      0.000      0.000        0.0        0.3        0.3        0.0        0.0        0.0       0.00 -118728.00 -118728.00        0.0        1.8        1.8        0.0        0.0        0.0        0.0        1.8        1.8        0.0        0.0        0.0
1/6/2017           90        120          0          6         14          0          8         14          0          0          0          0         57         73         38        0.0        0.0        0.0       31.8       39.2       23.0      30.04      30.15      29.95       0.00       0.00       0.00       17.6       21.0       15.7      30.04      30.15      29.95          0          0          0          0          0          0        0.0        0.0        0.0       0.00       0.00       0.00          0          0          0          0          0          0        0.0        0.0        0.0       0.00       0.00       0.00       0.00       0.00       0.00       0.00       0.00       0.00       0.00       0.00       0.00      0.000      0.000      0.000        0.0        0.6        0.6        0.0        0.0        0.0       0.00 -118972.80 -118972.80        0.0        2.4        2.4        0.0        0.0        0.0        0.0        2.4        2.4        0.0        0.0        0.0
1/7/2017           90        110         60         12         22          8         16         22         10          0          0          0         54         75         35        0.0        0.0        0.0       35.9       37.4       33.8      29.81      29.92      29.71       0.00       0.00       0.00       20.4       30.2       11.9      29.81      29.92      29.71          0          0          0          0          0          0        0.0        0.0        0.0       0.00       0.00       0.00          0          0          0          0          0          0        0.0        0.0        0.0       0.00       0.00       0.00       0.00       0.00       0.00       0.00       0.00       0.00       0.00       0.00       0.00      0.000      0.000      0.000        0.0        0.5        0.5        0.0        0.0        0.0       0.00 -119225.76 -119225.76        0.0        2.9        2.9        0.0        0.0        0.0        0.0        2.9        2.9        0.0        0.0        0.0
1/8/2017           90        240         20         11         20          3         15         20          4          0          0          0         78         87         66        0.0        0.0        0.0       42.0       50.0       37.4      29.55      29.83      29.37       0.00       0.00       0.00       35.6       44.7       30.2      29.55      29.83      29.37          0          0          0          0          0          0        0.0        0.0        0.0       0.00       0.00       0.00          0          0          0          0          0          0        0.0        0.0        0.0       0.00       0.00       0.00       0.00       0.00       0.00       0.00       0.00       0.00       0.00       0.00       0.00      0.000      0.000      0.000        0.0        0.5        0.5        0.0        0.0        0.0       0.00 -119466.48 -119466.48        0.0        3.4        3.4        0.0        0.0        0.0        0.0        3.4        3.4        0.0        0.0        0.0
1/9/2017           90        220         20          7         16          3          9         16          4          0          0          0         79         87         66        0.0        0.0        0.0       41.2       46.4       37.4      29.63      29.66      29.59       0.00       0.00       0.00       35.1       37.5       33.7      29.63      29.66      29.59          0          0          0          0          0          0        0.0        0.0        0.0       0.00       0.00       0.00          0          0          0          0          0          0        0.0        0.0        0.0       0.00       0.00       0.00       0.00       0.00       0.00       0.00       0.00       0.00       0.00       0.00       0.00      0.000      0.000      0.000        0.0        0.4        0.4        0.0        0.0        0.0       0.00 -119735.76 -119735.76        0.0        3.8        3.8        0.0        0.0        0.0        0.0        3.8        3.8        0.0        0.0        0.0
1/10/2017          90        100         20         10         22          4         13         22          5          0          0          0         81         87         75        0.0        0.0        0.0       39.5       42.8       35.6      29.49      29.59      29.42       0.00       0.00       0.00       34.3       37.4       30.1      29.49      29.59      29.42          0          0          0          0          0          0        0.0        0.0        0.0       0.00       0.00       0.00          0          0          0          0          0          0        0.0        0.0        0.0       0.00       0.00       0.00       0.00       0.00       0.00       0.00       0.00       0.00       0.00       0.00       0.00      0.000      0.000      0.000        0.0        0.4        0.4        0.0        0.0        0.0       0.00 -120011.16 -120011.16        0.0        4.2        4.2        0.0        0.0        0.0        0.0        4.2        4.2        0.0        0.0        0.0
1/11/2017          90         90         60         10         16          6         13         16          7          0          0          0         76         80         75        0.0        0.0        0.0       35.2       37.4       33.8      29.72      30.00      29.46       0.00       0.00       0.00       28.5       30.2       26.7      29.72      30.00      29.46          0          0          0          0          0          0        0.0        0.0        0.0       0.00       0.00       0.00          0          0          0          0          0          0        0.0        0.0        0.0       0.00       0.00       0.00       0.00       0.00       0.00       0.00       0.00       0.00       0.00       0.00       0.00      0.000      0.000      0.000        0.0        0.0        0.0        0.0        0.0        0.0       0.00       0.00       0.00        0.0        0.0        0.0        0.0        0.0        0.0        0.0        0.0        0.0        0.0        0.0        0.0
1/12/2017          90        100          0          6         13          0          9         13          0          0          0          0         73         86         60        0.0        0.0        0.0       34.1       41.0       30.2      30.19      30.32      30.02       0.00       0.00       0.00       26.3       28.6       22.9      30.19      30.32      30.02          0          0          0          0          0          0        0.0        0.0        0.0       0.00       0.00       0.00          0          0          0          0          0          0        0.0        0.0        0.0       0.00       0.00       0.00       0.00       0.00       0.00       0.00       0.00       0.00       0.00       0.00       0.00      0.000      0.000      0.000        0.0        0.4        0.4        0.0        0.0        0.0       0.00 -120494.64 -120494.64        0.0        5.1        5.1        0.0        0.0        0.0        0.0        5.1        5.1        0.0        0.0        0.0
1/13/2017          68        100          0          7         13          0         10         13          0          0          0          0         75         86         65        0.0        0.0        0.0       32.9       37.4       28.4      30.37      30.39      30.31       0.00       0.00       0.00       25.8       28.5       24.7      30.37      30.39      30.31          0          0          0          0          0          0        0.0        0.0        0.0       0.00       0.00       0.00          0          0          0          0          0          0        0.0        0.0        0.0       0.00       0.00       0.00       0.00       0.00       0.00       0.00       0.00       0.00       0.00       0.00       0.00      0.000      0.000      0.000        0.0        0.5        0.5        0.0        0.0        0.0       0.00 -120763.92 -120763.92        0.0        5.6        5.6        0.0        0.0        0.0        0.0        5.6        5.6        0.0        0.0        0.0
1/14/2017          90        100          0          6         12          0          9         12          0          0          0          0         63         74         45        0.0        0.0        0.0       35.4       44.6       26.6      30.28      30.36      30.21       0.00       0.00       0.00       23.9       26.6       19.4      30.28      30.36      30.21          0          0          0          0          0          0        0.0        0.0        0.0       0.00       0.00       0.00          0          0          0          0          0          0        0.0        0.0        0.0       0.00       0.00       0.00       0.00       0.00       0.00       0.00       0.00       0.00       0.00       0.00       0.00      0.000      0.000      0.000        0.0        0.5        0.5        0.0        0.0        0.0       0.00 -121000.56 -121000.56        0.0        6.1        6.1        0.0        0.0        0.0        0.0        6.1        6.1        0.0        0.0        0.0
1/15/2017          68        120          0          5         14          0          8         14          0          0          0          0         64         80         42        0.0        0.0        0.0       35.9       46.4       30.2      30.26      30.29      30.22       0.00       0.00       0.00       24.5       28.5       21.0      30.26      30.29      30.22          0          0          0          0          0          0        0.0        0.0        0.0       0.00       0.00       0.00          0          0          0          0          0          0        0.0        0.0        0.0       0.00       0.00       0.00       0.00       0.00       0.00       0.00       0.00       0.00       0.00       0.00       0.00      0.000      0.000      0.000        0.0        0.5        0.5        0.0        0.0        0.0       0.00 -121275.96 -121275.96        0.0        6.6        6.6        0.0        0.0        0.0        0.0        6.6        6.6        0.0        0.0        0.0
1/16/2017          90        120          0          5         13          0          8         13          0          0          0          0         58         69         46        0.0        0.0        0.0       40.2       48.2       33.8      30.09      30.23      29.92       0.00       0.00       0.00       26.5       28.5       24.6      30.09      30.23      29.92          0          0          0          0          0          0        0.0        0.0        0.0       0.00       0.00       0.00          0          0          0          0          0          0        0.0        0.0        0.0       0.00       0.00       0.00       0.00       0.00       0.00       0.00       0.00       0.00       0.00       0.00       0.00      0.000      0.000      0.000        0.0        0.0        0.0        0.0        0.0        0.0       0.00       0.00       0.00        0.0        0.0        0.0        0.0        0.0        0.0        0.0        0.0        0.0        0.0        0.0        0.0
1/17/2017         180        250          0         14         37          0         19         37          0          0          0          0         72         82         52        0.0        0.0        0.0       49.4       57.2       39.2      29.66      29.92      29.48       0.02       0.00       0.00       40.7       48.3       26.4      29.66      29.92      29.48          0          0          0          0          0          0        0.0        0.0        0.0       0.00       0.00       0.00          0          0          0          0          0          0        0.0        0.0        0.0       0.00       0.00       0.00       0.00       0.00       0.00       0.00       0.00       0.00       0.00       0.00       0.00      0.000      0.000      0.000        0.0        0.4        0.4        0.0        0.0        0.0       0.00 -121794.12 -121794.12        0.0        7.4        7.4        0.0        0.0        0.0        0.0        7.4        7.4        0.0        0.0        0.0
1/18/2017         180        240         10         18         38          6         24         38          7          0          0          0         79         87         72        0.0        0.0        0.0       53.9       57.2       48.2      29.31      29.46      29.21       0.01       0.00       0.00       47.6       50.0       44.5      29.31      29.46      29.21          0          0          0          0          0          0        0.0        0.0        0.0       0.00       0.00       0.00          0          0          0          0          0          0        0.0        0.0        0.0       0.00       0.00       0.00       0.00       0.00       0.00       0.00       0.00       0.00       0.00       0.00       0.00      0.000      0.000      0.000        0.0        0.3        0.3        0.0        0.0        0.0       0.00 -122053.20 -122053.20        0.0        7.7        7.7        0.0        0.0        0.0        0.0        7.7        7.7        0.0        0.0        0.0
1/19/2017         180        200         90         12         24          4         17         24          5          0          0          0         77         82         71        0.0        0.0        0.0       49.5       51.8       44.6      29.47      29.53      29.34       0.00       0.00       0.00       42.5       44.7       39.1      29.47      29.53      29.34          0          0          0          0          0          0        0.0        0.0        0.0       0.00       0.00       0.00          0          0          0          0          0          0        0.0        0.0        0.0       0.00       0.00       0.00       0.00       0.00       0.00       0.00       0.00       0.00       0.00       0.00       0.00      0.000      0.000      0.000        0.0        0.2        0.2        0.0        0.0        0.0       0.00 -122330.64 -122330.64        0.0        7.9        7.9        0.0        0.0        0.0        0.0        7.9        7.9        0.0        0.0        0.0
1/20/2017          90        140         50          7         16          4         10         16          5          0          0          0         72         81         62        0.0        0.0        0.0       46.3       50.0       42.8      29.11      29.30      29.04       0.00       0.00       0.00       37.5       39.3       35.4      29.11      29.30      29.04          0          0          0          0          0          0        0.0        0.0        0.0       0.00       0.00       0.00          0          0          0          0          0          0        0.0        0.0        0.0       0.00       0.00       0.00       0.00       0.00       0.00       0.00       0.00       0.00       0.00       0.00       0.00      0.000      0.000      0.000        0.0        0.3        0.3        0.0        0.0        0.0       0.00 -122534.64 -122534.64        0.0        8.3        8.3        0.0        0.0        0.0        0.0        8.3        8.3        0.0        0.0        0.0
1/21/2017          90        150          0          5         11          0          7         11          0          0          0          0         80         87         71        0.0        0.0        0.0       45.5       48.2       39.2      29.38      29.54      29.18       0.00       0.00       0.00       39.5       42.7       35.4      29.38      29.54      29.18          0          0          0          0          0          0        0.0        0.0        0.0       0.00       0.00       0.00          0          0          0          0          0          0        0.0        0.0        0.0       0.00       0.00       0.00       0.00       0.00       0.00       0.00       0.00       0.00       0.00       0.00       0.00      0.000      0.000      0.000        0.0        0.3        0.3        0.0        0.0        0.0       0.00 -122724.36 -122724.36        0.0        8.5        8.5        0.0        0.0        0.0        0.0        8.5        8.5        0.0        0.0        0.0
1/22/2017         135        190         90          8         23          3         12         23          4          0          0          0         69         81         54        0.0        0.0        0.0       45.8       50.0       42.8      29.45      29.55      29.33       0.00       0.00       0.00       36.0       37.5       33.7      29.45      29.55      29.33          0          0          0          0          0          0        0.0        0.0        0.0       0.00       0.00       0.00          0          0          0          0          0          0        0.0        0.0        0.0       0.00       0.00       0.00       0.00       0.00       0.00       0.00       0.00       0.00       0.00       0.00       0.00      0.000      0.000      0.000        0.0        0.4        0.4        0.0        0.0        0.0       0.00 -122995.68 -122995.68        0.0        8.9        8.9        0.0        0.0        0.0        0.0        8.9        8.9        0.0        0.0        0.0
1/23/2017          90        320          0          4         11          0          6         11          0          0          0          0         68         80         50        0.0        0.0        0.0       42.6       53.6       33.8      29.78      30.01      29.56       0.00       0.00       0.00       32.7       35.8       28.3      29.78      30.01      29.56          0          0          0          0          0          0        0.0        0.0        0.0       0.00       0.00       0.00          0          0          0          0          0          0        0.0        0.0        0.0       0.00       0.00       0.00       0.00       0.00       0.00       0.00       0.00       0.00       0.00       0.00       0.00      0.000      0.000      0.000        0.0        0.3        0.3        0.0        0.0        0.0       0.00 -123277.20 -123277.20        0.0        9.2        9.2        0.0        0.0        0.0        0.0        9.2        9.2        0.0        0.0        0.0
1/24/2017           0        360          0          2          6          0          3          6          0          0          0          0         84         93         75        0.0        0.0        0.0       37.0       42.8       28.4      30.13      30.19      30.02       0.00       0.00       0.00       32.7       37.4       24.8      30.13      30.19      30.02          0          0          0          0          0          0        0.0        0.0        0.0       0.00       0.00       0.00          0          0          0          0          0          0        0.0        0.0        0.0       0.00       0.00       0.00       0.00       0.00       0.00       0.00       0.00       0.00       0.00       0.00       0.00      0.000      0.000      0.000        0.0        0.3        0.3        0.0        0.0        0.0       0.00 -123548.52 -123548.52        0.0        9.6        9.6        0.0        0.0        0.0        0.0        9.6        9.6        0.0        0.0        0.0
1/25/2017          90        360          0          2          7          0          3          7          0          0          0          0         87         93         71        0.0        0.0        0.0       40.8       48.2       37.4      30.26      30.35      30.20       0.00       0.00       0.00       37.2       39.3       35.6      30.26      30.35      30.20          0          0          0          0          0          0        0.0        0.0        0.0       0.00       0.00       0.00          0          0          0          0          0          0        0.0        0.0        0.0       0.00       0.00       0.00       0.00       0.00       0.00       0.00       0.00       0.00       0.00       0.00       0.00      0.000      0.000      0.000        0.0        0.5        0.5        0.0        0.0        0.0       0.00 -123807.60 -123807.60        0.0       10.0       10.0        0.0        0.0        0.0        0.0       10.0       10.0        0.0        0.0        0.0
1/26/2017          90        110          0          3         10          0          5         10          0          0          0          0         86         93         71        0.0        0.0        0.0       42.9       48.2       35.6      30.49      30.57      30.35       0.00       0.00       0.00       38.9       42.7       33.8      30.49      30.57      30.35          0          0          0          0          0          0        0.0        0.0        0.0       0.00       0.00       0.00          0          0          0          0          0          0        0.0        0.0        0.0       0.00       0.00       0.00       0.00       0.00       0.00       0.00       0.00       0.00       0.00       0.00       0.00      0.000      0.000      0.000        0.0        0.4        0.4        0.0        0.0        0.0       0.00 -124070.76 -124070.76        0.0       10.5       10.5        0.0        0.0        0.0        0.0       10.5       10.5        0.0        0.0        0.0
1/27/2017          90        320          0          4         10          0          6         10          0          0          0          0         81         93         62        0.0        0.0        0.0       41.7       51.8       33.8      30.58      30.62      30.55       0.00       0.00       0.00       36.1       39.3       32.0      30.58      30.62      30.55          0          0          0          0          0          0        0.0        0.0        0.0       0.00       0.00       0.00          0          0          0          0          0          0        0.0        0.0        0.0       0.00       0.00       0.00       0.00       0.00       0.00       0.00       0.00       0.00       0.00       0.00       0.00      0.000      0.000      0.000        0.0        0.4        0.4        0.0        0.0        0.0       0.00 -124362.48 -124362.48        0.0       10.9       10.9        0.0        0.0        0.0        0.0       10.9       10.9        0.0        0.0        0.0
1/28/2017          90        240          0          3          7          0          4          7          0          0          0          0         77         93         62        0.0        0.0        0.0       41.6       48.2       35.6      30.54      30.59      30.47       0.00       0.00       0.00       34.7       35.8       32.1      30.54      30.59      30.47          0          0          0          0          0          0        0.0        0.0        0.0       0.00       0.00       0.00          0          0          0          0          0          0        0.0        0.0        0.0       0.00       0.00       0.00       0.00       0.00       0.00       0.00       0.00       0.00       0.00       0.00       0.00      0.000      0.000      0.000        0.0        0.4        0.4        0.0        0.0        0.0       0.00 -124637.88 -124637.88        0.0       11.3       11.3        0.0        0.0        0.0        0.0       11.3       11.3        0.0        0.0        0.0
1/29/2017          90        150          0          1          7          0          3          7          0          0          0          0         87         93         75        0.0        0.0        0.0       40.5       42.8       35.6      30.45      30.47      30.42       0.00       0.00       0.00       36.9       39.2       32.1      30.45      30.47      30.42          0          0          0          0          0          0        0.0        0.0        0.0       0.00       0.00       0.00          0          0          0          0          0          0        0.0        0.0        0.0       0.00       0.00       0.00       0.00       0.00       0.00       0.00       0.00       0.00       0.00       0.00       0.00      0.000      0.000      0.000        0.0        0.4        0.4        0.0        0.0        0.0       0.00 -124925.52 -124925.52        0.0       11.6       11.6        0.0        0.0        0.0        0.0       11.6       11.6        0.0        0.0        0.0
1/30/2017          45        360          0          3         10          0          4         10          0          0          0          0         87        100         81        0.0        0.0        0.0       41.7       46.4       35.6      30.32      30.44      30.21       0.00       0.00       0.00       38.1       40.9       33.8      30.32      30.44      30.21          0          0          0          0          0          0        0.0        0.0        0.0       0.00       0.00       0.00          0          0          0          0          0          0        0.0        0.0        0.0       0.00       0.00       0.00       0.00       0.00       0.00       0.00       0.00       0.00       0.00       0.00       0.00      0.000      0.000      0.000        0.0        0.5        0.5        0.0        0.0        0.0       0.00 -125192.76 -125192.76        0.0       12.1       12.1        0.0        0.0        0.0        0.0       12.1       12.1        0.0        0.0        0.0
1/31/2017          90        360          0          6         17          0          8         17          0          0          0          0         74         93         49        0.0        0.0        0.0       40.1       46.4       33.8      30.22      30.25      30.20       0.00       0.00       0.00       31.8       37.4       24.6      30.22      30.25      30.20          0          0          0          0          0          0        0.0        0.0        0.0       0.00       0.00       0.00          0          0          0          0          0          0        0.0        0.0        0.0       0.00       0.00       0.00       0.00       0.00       0.00       0.00       0.00       0.00       0.00       0.00       0.00      0.000      0.000      0.000        0.0        0.5        0.5        0.0        0.0        0.0       0.00 -125492.64 -125492.64        0.0       12.6       12.6        0.0        0.0        0.0        0.0       12.6       12.6        0.0        0.0        0.0
2/1/2017           90         90         60         19         35          9         25         35         11          0          0          0         44         64         28        0.0        0.0        0.0       38.4       42.8       33.8      30.09      30.21      30.02       0.00       0.00       0.00       17.6       24.6       12.0      30.09      30.21      30.02          0          0          0          0          0          0        0.0        0.0        0.0       0.00       0.00       0.00          0          0          0          0          0          0        0.0        0.0        0.0       0.00       0.00       0.00       0.00       0.00       0.00       0.00       0.00       0.00       0.00       0.00       0.00      0.000      0.000      0.000        0.0        0.4        0.4        0.0        0.0        0.0       0.00 -125763.96 -125763.96        0.0       13.0       13.0        0.0        0.0        0.0        0.0       13.0       13.0        0.0        0.0        0.0
2/2/2017           90        120         70         16         31          5         21         31          6          0          0          0         47         80         26        0.0        0.0        0.0       38.6       44.6       33.8      29.95      30.03      29.78       0.00       0.00       0.00       18.6       28.5       10.3      29.95      30.03      29.78          0          0          0          0          0          0        0.0        0.0        0.0       0.00       0.00       0.00          0          0          0          0          0          0        0.0        0.0        0.0       0.00       0.00       0.00       0.00       0.00       0.00       0.00       0.00       0.00       0.00       0.00       0.00      0.000      0.000      0.000        0.0        0.4        0.4        0.0        0.0        0.0       0.00 -126047.52 -126047.52        0.0        0.4        0.4        0.0        0.0        0.0        0.0       13.4       13.4        0.0        0.0        0.0
2/3/2017           90        220          0         10         20          0         13         20          0          0          0          0         82        100         70        0.0        0.0        0.0       41.1       48.2       35.6      29.47      29.76      29.36       0.00       0.00       0.00       35.8       44.5       28.5      29.47      29.76      29.36          0          0          0          0          0          0        0.0        0.0        0.0       0.00       0.00       0.00          0          0          0          0          0          0        0.0        0.0        0.0       0.00       0.00       0.00       0.00       0.00       0.00       0.00       0.00       0.00       0.00       0.00       0.00      0.000      0.000      0.000        0.0        0.4        0.4        0.0        0.0        0.0       0.00 -126322.92 -126322.92        0.0        0.8        0.8        0.0        0.0        0.0        0.0       13.8       13.8        0.0        0.0        0.0
2/4/2017          225        270          0         10         22          4         13         22          5          0          0          0         87         93         71        0.0        0.0        0.0       46.6       48.2       44.6      29.64      29.69      29.49       0.00       0.00       0.00       43.0       46.3       37.5      29.64      29.69      29.49          0          0          0          0          0          0        0.0        0.0        0.0       0.00       0.00       0.00          0          0          0          0          0          0        0.0        0.0        0.0       0.00       0.00       0.00       0.00       0.00       0.00       0.00       0.00       0.00       0.00       0.00       0.00      0.000      0.000      0.000        0.0        0.5        0.5        0.0        0.0        0.0       0.00 -126596.28 -126596.28        0.0        1.3        1.3        0.0        0.0        0.0        0.0       14.3       14.3        0.0        0.0        0.0
2/5/2017          270        350          0          5         20          0          8         20          0          0          0          0         86         93         70        0.0        0.0        0.0       35.6       42.8       32.0      29.50      29.70      29.26       0.01       0.00       0.00       31.6       35.7       30.1      29.50      29.70      29.26          0          0          0          0          0          0        0.0        0.0        0.0       0.00       0.00       0.00          0          0          0          0          0          0        0.0        0.0        0.0       0.00       0.00       0.00       0.00       0.00       0.00       0.00       0.00       0.00       0.00       0.00       0.00      0.000      0.000      0.000        0.0        0.4        0.4        0.0        0.0        0.0       0.00 -126888.00 -126888.00        0.0        1.7        1.7        0.0        0.0        0.0        0.0       14.7       14.7        0.0        0.0        0.0
2/6/2017          270        280          0          7         19          0         10         19          0          0          0          0         82         93         52        0.0        0.0        0.0       36.9       42.8       33.8      29.54      29.74      29.33       0.00       0.00       0.00       31.6       33.9       26.4      29.54      29.74      29.33          0          0          0          0          0          0        0.0        0.0        0.0       0.00       0.00       0.00          0          0          0          0          0          0        0.0        0.0        0.0       0.00       0.00       0.00       0.00       0.00       0.00       0.00       0.00       0.00       0.00       0.00       0.00      0.000      0.000      0.000        0.0        0.7        0.7        0.0        0.0        0.0       0.00 -127173.60 -127173.60        0.0        2.4        2.4        0.0        0.0        0.0        0.0       15.4       15.4        0.0        0.0        0.0
2/7/2017           90        350          0          6         14          0          8         14          0          0          0          0         82         93         70        0.0        0.0        0.0       37.5       42.8       33.8      29.71      29.93      29.52       0.00       0.00       0.00       32.3       35.6       30.1      29.71      29.93      29.52          0          0          0          0          0          0        0.0        0.0        0.0       0.00       0.00       0.00          0          0          0          0          0          0        0.0        0.0        0.0       0.00       0.00       0.00       0.00       0.00       0.00       0.00       0.00       0.00       0.00       0.00       0.00      0.000      0.000      0.000        0.0        0.5        0.5        0.0        0.0        0.0       0.00 -127471.44 -127471.44        0.0        2.9        2.9        0.0        0.0        0.0        0.0       15.9       15.9        0.0        0.0        0.0
2/8/2017           90        190          0          7         34          3         10         34          4          0          0          0         91         93         82        0.0        0.0        0.0       42.5       57.2       37.4      29.68      29.92      29.42       0.01       0.00       0.00       40.2       51.8       33.9      29.68      29.92      29.42          0          0          0          0          0          0        0.0        0.0        0.0       0.00       0.00       0.00          0          0          0          0          0          0        0.0        0.0        0.0       0.00       0.00       0.00       0.00       0.00       0.00       0.00       0.00       0.00       0.00       0.00       0.00      0.000      0.000      0.000        0.0        0.0        0.0        0.0        0.0        0.0       0.00       0.00       0.00        0.0        0.0        0.0        0.0        0.0        0.0        0.0        0.0        0.0        0.0        0.0        0.0
2/9/2017          202        220          0         14         34          3         19         34          4          0          0          0         89         94         71        0.0        0.0        0.0       47.7       57.2       37.4      29.54      29.92      29.25       0.00       0.00       0.00       44.5       51.9       33.9      29.54      29.92      29.25          0          0          0          0          0          0        0.0        0.0        0.0       0.00       0.00       0.00          0          0          0          0          0          0        0.0        0.0        0.0       0.00       0.00       0.00       0.00       0.00       0.00       0.00       0.00       0.00       0.00       0.00       0.00      0.000      0.000      0.000        0.0        0.0        0.0        0.0        0.0        0.0       0.00       0.00       0.00        0.0        0.0        0.0        0.0        0.0        0.0        0.0        0.0        0.0        0.0        0.0        0.0
2/10/2017         202        280          0         12         25          0         16         25          0          0          0          0         74         81         62        0.0        0.0        0.0       45.0       48.2       39.2      29.92      30.26      29.64       0.00       0.00       0.00       37.1       39.3       33.9      29.92      30.26      29.64          0          0          0          0          0          0        0.0        0.0        0.0       0.00       0.00       0.00          0          0          0          0          0          0        0.0        0.0        0.0       0.00       0.00       0.00       0.00       0.00       0.00       0.00       0.00       0.00       0.00       0.00       0.00      0.000      0.000      0.000        0.0        0.8        0.8        0.0        0.0        0.0       0.00 -128320.08 -128320.08        0.0        4.2        4.2        0.0        0.0        0.0        0.0       17.1       17.1        0.0        0.0        0.0
2/11/2017          90        360          0          3         10          0          4         10          0          0          0          0         87         93         66        0.0        0.0        0.0       39.3       48.2       33.8      30.46      30.52      30.28       0.00       0.00       0.00       35.7       40.9       32.0      30.46      30.52      30.28          0          0          0          0          0          0        0.0        0.0        0.0       0.00       0.00       0.00          0          0          0          0          0          0        0.0        0.0        0.0       0.00       0.00       0.00       0.00       0.00       0.00       0.00       0.00       0.00       0.00       0.00       0.00      0.000      0.000      0.000        0.0        0.3        0.3        0.0        0.0        0.0       0.00 -128605.68 -128605.68        0.0        4.5        4.5        0.0        0.0        0.0        0.0       17.5       17.5        0.0        0.0        0.0
2/12/2017          90        340          0          4         12          0          6         12          0          0          0          0         81         93         54        0.0        0.0        0.0       39.8       50.0       33.8      30.37      30.48      30.28       0.00       0.00       0.00       34.1       37.4       30.1      30.37      30.48      30.28          0          0          0          0          0          0        0.0        0.0        0.0       0.00       0.00       0.00          0          0          0          0          0          0        0.0        0.0        0.0       0.00       0.00       0.00       0.00       0.00       0.00       0.00       0.00       0.00       0.00       0.00       0.00      0.000      0.000      0.000        0.0        0.5        0.5        0.0        0.0        0.0       0.00 -128868.84 -128868.84        0.0        4.9        4.9        0.0        0.0        0.0        0.0       17.9       17.9        0.0        0.0        0.0
2/13/2017         112        250          0          7         23          0         11         23          0          0          0          0         68         93         24        0.0        0.0        0.0       45.1       64.4       35.6      30.15      30.27      30.08       0.00       0.00       0.00       33.2       39.2       26.6      30.15      30.27      30.08          0          0          0          0          0          0        0.0        0.0        0.0       0.00       0.00       0.00          0          0          0          0          0          0        0.0        0.0        0.0       0.00       0.00       0.00       0.00       0.00       0.00       0.00       0.00       0.00       0.00       0.00       0.00      0.000      0.000      0.000        0.0        0.4        0.4        0.0        0.0        0.0       0.00 -129146.28 -129146.28        0.0        5.3        5.3        0.0        0.0        0.0        0.0       18.3       18.3        0.0        0.0        0.0
2/14/2017          90        300          0          6         16          0          8         16          0          0          0          0         60         87         31        0.0        0.0        0.0       47.9       59.0       33.8      29.96      30.10      29.77       0.00       0.00       0.00       33.1       44.5       26.4      29.96      30.10      29.77          0          0          0          0          0          0        0.0        0.0        0.0       0.00       0.00       0.00          0          0          0          0          0          0        0.0        0.0        0.0       0.00       0.00       0.00       0.00       0.00       0.00       0.00       0.00       0.00       0.00       0.00       0.00      0.000      0.000      0.000        0.0        0.3        0.3        0.0        0.0        0.0       0.00 -129429.84 -129429.84        0.0        5.6        5.6        0.0        0.0        0.0        0.0       18.6       18.6        0.0        0.0        0.0
2/15/2017         180        350          0         18         38          3         24         38          4          0          0          0         84         94         71        0.0        0.0        0.0       53.8       57.2       48.2      29.59      29.75      29.42       0.01       0.00       0.00       49.0       51.9       44.4      29.59      29.75      29.42          0          0          0          0          0          0        0.0        0.0        0.0       0.00       0.00       0.00          0          0          0          0          0          0        0.0        0.0        0.0       0.00       0.00       0.00       0.00       0.00       0.00       0.00       0.00       0.00       0.00       0.00       0.00      0.000      0.000      0.000        0.0        0.3        0.3        0.0        0.0        0.0       0.00 -129713.40 -129713.40        0.0        5.9        5.9        0.0        0.0        0.0        0.0       18.9       18.9        0.0        0.0        0.0
2/16/2017         202        340          0          8         29          0         11         29          0          0          0          0         86         93         81        0.0        0.0        0.0       49.0       53.6       44.6      29.54      29.76      29.41       0.00       0.00       0.00       44.9       48.2       41.0      29.54      29.76      29.41          0          0          0          0          0          0        0.0        0.0        0.0       0.00       0.00       0.00          0          0          0          0          0          0        0.0        0.0        0.0       0.00       0.00       0.00       0.00       0.00       0.00       0.00       0.00       0.00       0.00       0.00       0.00      0.000      0.000      0.000        0.0        0.2        0.2        0.0        0.0        0.0       0.00 -129990.84 -129990.84        0.0        6.1        6.1        0.0        0.0        0.0        0.0       19.1       19.1        0.0        0.0        0.0
2/17/2017          22        360          0          5         13          0          7         13          0          0          0          0         81         93         66        0.0        0.0        0.0       45.6       51.8       39.2      29.60      29.75      29.42       0.00       0.00       0.00       40.0       42.7       37.4      29.60      29.75      29.42          0          0          0          0          0          0        0.0        0.0        0.0       0.00       0.00       0.00          0          0          0          0          0          0        0.0        0.0        0.0       0.00       0.00       0.00       0.00       0.00       0.00       0.00       0.00       0.00       0.00       0.00       0.00      0.000      0.000      0.000        0.0        0.3        0.3        0.0        0.0        0.0       0.00 -130264.20 -130264.20        0.0        6.4        6.4        0.0        0.0        0.0        0.0       19.4       19.4        0.0        0.0        0.0
2/18/2017         248        270          0          4         11          0          7         11          0          0          0          0         83         87         76        0.0        0.0        0.0       44.4       50.0       41.0      29.43      29.45      29.40       0.00       0.00       0.00       39.5       42.7       37.4      29.43      29.45      29.40          0          0          0          0          0          0        0.0        0.0        0.0       0.00       0.00       0.00          0          0          0          0          0          0        0.0        0.0        0.0       0.00       0.00       0.00       0.00       0.00       0.00       0.00       0.00       0.00       0.00       0.00       0.00      0.000      0.000      0.000        0.0        0.3        0.3        0.0        0.0        0.0       0.00 -130527.36 -130527.36        0.0        6.7        6.7        0.0        0.0        0.0        0.0       19.7       19.7        0.0        0.0        0.0
2/19/2017         180        190        110          9         19          4         12         19          5          0          0          0         85         93         76        0.0        0.0        0.0       43.2       46.4       39.2      29.47      29.59      29.35       0.00       0.00       0.00       39.0       41.0       35.7      29.47      29.59      29.35          0          0          0          0          0          0        0.0        0.0        0.0       0.00       0.00       0.00          0          0          0          0          0          0        0.0        0.0        0.0       0.00       0.00       0.00       0.00       0.00       0.00       0.00       0.00       0.00       0.00       0.00       0.00      0.000      0.000      0.000        0.0        0.3        0.3        0.0        0.0        0.0       0.00 -130727.28 -130727.28        0.0        7.0        7.0        0.0        0.0        0.0        0.0       20.0       20.0        0.0        0.0        0.0
2/20/2017          90        280          0          5         12          0          7         12          0          0          0          0         89         93         81        0.0        0.0        0.0       44.6       46.4       42.8      29.60      29.69      29.42       0.00       0.00       0.00       41.5       44.5       39.1      29.60      29.69      29.42          0          0          0          0          0          0        0.0        0.0        0.0       0.00       0.00       0.00          0          0          0          0          0          0        0.0        0.0        0.0       0.00       0.00       0.00       0.00       0.00       0.00       0.00       0.00       0.00       0.00       0.00       0.00      0.000      0.000      0.000        0.0        0.4        0.4        0.0        0.0        0.0       0.00 -130976.16 -130976.16        0.0        7.4        7.4        0.0        0.0        0.0        0.0       20.4       20.4        0.0        0.0        0.0
2/21/2017         315        330          0          6         17          0          8         17          0          0          0          0         79         93         61        0.0        0.0        0.0       44.5       48.2       39.2      29.90      30.18      29.68       0.00       0.00       0.00       38.2       42.7       33.7      29.90      30.18      29.68          0          0          0          0          0          0        0.0        0.0        0.0       0.00       0.00       0.00          0          0          0          0          0          0        0.0        0.0        0.0       0.00       0.00       0.00       0.00       0.00       0.00       0.00       0.00       0.00       0.00       0.00       0.00      0.000      0.000      0.000        0.0        0.0        0.0        0.0        0.0        0.0       0.00       0.00       0.00        0.0        0.0        0.0        0.0        0.0        0.0        0.0        0.0        0.0        0.0        0.0        0.0
2/22/2017         315        330          0          5         17          0          7         17          0          0          0          0         83        100         61        0.0        0.0        0.0       40.8       48.2       30.2      30.03      30.24      29.68       0.00       0.00       0.00       35.8       42.7       28.3      30.03      30.24      29.68          0          0          0          0          0          0        0.0        0.0        0.0       0.00       0.00       0.00          0          0          0          0          0          0        0.0        0.0        0.0       0.00       0.00       0.00       0.00       0.00       0.00       0.00       0.00       0.00       0.00       0.00       0.00      0.000      0.000      0.000        0.0        0.0        0.0        0.0        0.0        0.0       0.00       0.00       0.00        0.0        0.0        0.0        0.0        0.0        0.0        0.0        0.0        0.0        0.0        0.0        0.0
2/23/2017         270        320          0          3         14          0          5         14          0          0          0          0         82         93         53        0.0        0.0        0.0       35.7       46.4       30.2      30.24      30.28      30.21       0.00       0.00       0.00       30.3       35.7       26.5      30.24      30.28      30.21          0          0          0          0          0          0        0.0        0.0        0.0       0.00       0.00       0.00          0          0          0          0          0          0        0.0        0.0        0.0       0.00       0.00       0.00       0.00       0.00       0.00       0.00       0.00       0.00       0.00       0.00       0.00      0.000      0.000      0.000        0.0        0.6        0.6        0.0        0.0        0.0       0.00 -131651.31 -131651.31        0.0        8.5        8.5        0.0        0.0        0.0        0.0       21.4       21.4        0.0        0.0        0.0
2/24/2017          90        250          0          5         13          0          7         13          0          0          0          0         85         93         70        0.0        0.0        0.0       36.6       42.8       33.8      30.15      30.22      30.12       0.00       0.00       0.00       32.5       35.7       30.1      30.15      30.22      30.12          0          0          0          0          0          0        0.0        0.0        0.0       0.00       0.00       0.00          0          0          0          0          0          0        0.0        0.0        0.0       0.00       0.00       0.00       0.00       0.00       0.00       0.00       0.00       0.00       0.00       0.00       0.00      0.000      0.000      0.000        0.0        0.5        0.5        0.0        0.0        0.0       0.00 -131933.78 -131933.78        0.0        9.0        9.0        0.0        0.0        0.0        0.0       22.0       22.0        0.0        0.0        0.0
2/25/2017           0        350          0          4         11          0          5         11          0          0          0          0         82        100         57        0.0        0.0        0.0       37.1       46.4       30.2      30.17      30.26      29.95       0.00       0.00       0.00       31.7       35.7       26.5      30.17      30.26      29.95          0          0          0          0          0          0        0.0        0.0        0.0       0.00       0.00       0.00          0          0          0          0          0          0        0.0        0.0        0.0       0.00       0.00       0.00       0.00       0.00       0.00       0.00       0.00       0.00       0.00       0.00       0.00      0.000      0.000      0.000        0.0        0.5        0.5        0.0        0.0        0.0       0.00 -132208.06 -132208.06        0.0        9.5        9.5        0.0        0.0        0.0        0.0       22.5       22.5        0.0        0.0        0.0
2/26/2017         135        310          0          6         17          0          9         17          0          0          0          0         83         93         70        0.0        0.0        0.0       38.9       44.6       32.0      29.72      29.90      29.66       0.00       0.00       0.00       34.2       37.4       30.1      29.72      29.90      29.66          0          0          0          0          0          0        0.0        0.0        0.0       0.00       0.00       0.00          0          0          0          0          0          0        0.0        0.0        0.0       0.00       0.00       0.00       0.00       0.00       0.00       0.00       0.00       0.00       0.00       0.00       0.00      0.000      0.000      0.000        0.0        0.5        0.5        0.0        0.0        0.0       0.00 -132474.16 -132474.16        0.0       10.0       10.0        0.0        0.0        0.0        0.0       23.0       23.0        0.0        0.0        0.0
2/27/2017         248        300          0          6         17          0          8         17          0          0          0          0         84         93         57        0.0        0.0        0.0       38.6       44.6       32.0      29.78      29.84      29.76       0.00       0.00       0.00       33.8       37.4       28.3      29.78      29.84      29.76          0          0          0          0          0          0        0.0        0.0        0.0       0.00       0.00       0.00          0          0          0          0          0          0        0.0        0.0        0.0       0.00       0.00       0.00       0.00       0.00       0.00       0.00       0.00       0.00       0.00       0.00       0.00      0.000      0.000      0.000        0.0        0.5        0.5        0.0        0.0        0.0       0.00 -132744.34 -132744.34        0.0       10.6       10.6        0.0        0.0        0.0        0.0       23.6       23.6        0.0        0.0        0.0
2/28/2017         248        320          0          7         17          0         10         17          0          0          0          0         80         93         57        0.0        0.0        0.0       40.6       46.4       32.0      29.93      30.30      29.76       0.00       0.00       0.00       34.7       39.1       28.3      29.93      30.30      29.76          0          0          0          0          0          0        0.0        0.0        0.0       0.00       0.00       0.00          0          0          0          0          0          0        0.0        0.0        0.0       0.00       0.00       0.00       0.00       0.00       0.00       0.00       0.00       0.00       0.00       0.00       0.00      0.000      0.000      0.000        0.0        0.5        0.5        0.0        0.0        0.0       0.00 -132744.34 -132744.34        0.0       10.6       10.6        0.0        0.0        0.0        0.0       23.6       23.6        0.0        0.0        0.0
3/1/2017          248        270        150          8         19          3         11         19          4          0          0          0         78         87         66        0.0        0.0        0.0       45.2       48.2       42.8      30.42      30.48      30.31       0.00       0.00       0.00       38.7       41.0       35.4      30.42      30.48      30.31          0          0          0          0          0          0        0.0        0.0        0.0       0.00       0.00       0.00          0          0          0          0          0          0        0.0        0.0        0.0       0.00       0.00       0.00       0.00       0.00       0.00       0.00       0.00       0.00       0.00       0.00       0.00      0.000      0.000      0.000        0.0        0.8        0.8        0.0        0.0        0.0       0.00 -133274.48 -133274.48        0.0       11.4       11.4        0.0        0.0        0.0        0.0       24.4       24.4        0.0        0.0        0.0
3/2/2017          180        210          0         10         23          3         13         23          4          0          0          0         87         93         81        0.0        0.0        0.0       45.7       48.2       42.8      30.30      30.42      30.15       0.00       0.00       0.00       41.9       44.5       39.2      30.30      30.42      30.15          0          0          0          0          0          0        0.0        0.0        0.0       0.00       0.00       0.00          0          0          0          0          0          0        0.0        0.0        0.0       0.00       0.00       0.00       0.00       0.00       0.00       0.00       0.00       0.00       0.00       0.00       0.00      0.000      0.000      0.000        0.0        0.3        0.3        0.0        0.0        0.0       0.00 -133544.67 -133544.67        0.0        0.3        0.3        0.0        0.0        0.0        0.0       24.7       24.7        0.0        0.0        0.0
3/3/2017          180        290        180         16         29          8         21         29         10          0          0          0         83         93         65        0.0        0.0        0.0       46.6       50.0       41.0      29.89      30.13      29.73       0.00       0.00       0.00       41.8       46.3       30.2      29.89      30.13      29.73          0          0          0          0          0          0        0.0        0.0        0.0       0.00       0.00       0.00          0          0          0          0          0          0        0.0        0.0        0.0       0.00       0.00       0.00       0.00       0.00       0.00       0.00       0.00       0.00       0.00       0.00       0.00      0.000      0.000      0.000        0.0        0.4        0.4        0.0        0.0        0.0       0.00 -133831.23 -133831.23        0.0        0.7        0.7        0.0        0.0        0.0        0.0       25.2       25.2        0.0        0.0        0.0
3/4/2017          135        270          0          6         12          0          9         12          0          0          0          0         82         93         65        0.0        0.0        0.0       39.0       44.6       35.6      29.63      29.82      29.49       0.01       0.00       0.00       33.7       35.7       30.2      29.63      29.82      29.49          0          0          0          0          0          0        0.0        0.0        0.0       0.00       0.00       0.00          0          0          0          0          0          0        0.0        0.0        0.0       0.00       0.00       0.00       0.00       0.00       0.00       0.00       0.00       0.00       0.00       0.00       0.00      0.000      0.000      0.000        0.0        0.4        0.4        0.0        0.0        0.0       0.00 -134093.23 -134093.23        0.0        1.1        1.1        0.0        0.0        0.0        0.0       25.5       25.5        0.0        0.0        0.0
3/5/2017          270        280          0          9         28          4         13         28          5          0          0          0         80         93         61        0.0        0.0        0.0       37.8       42.8       33.8      29.54      29.73      29.47       0.00       0.00       0.00       32.2       35.7       28.6      29.54      29.73      29.47          0          0          0          0          0          0        0.0        0.0        0.0       0.00       0.00       0.00          0          0          0          0          0          0        0.0        0.0        0.0       0.00       0.00       0.00       0.00       0.00       0.00       0.00       0.00       0.00       0.00       0.00       0.00      0.000      0.000      0.000        0.0        0.0        0.0        0.0        0.0        0.0       0.00       0.00       0.00        0.0        0.0        0.0        0.0        0.0        0.0        0.0        0.0        0.0        0.0        0.0        0.0
3/6/2017          180        290          0          8         16          0         11         16          0          0          0          0         78         93         61        0.0        0.0        0.0       38.5       44.6       33.8      29.89      30.03      29.73       0.00       0.00       0.00       32.1       35.7       30.1      29.89      30.03      29.73          0          0          0          0          0          0        0.0        0.0        0.0       0.00       0.00       0.00          0          0          0          0          0          0        0.0        0.0        0.0       0.00       0.00       0.00       0.00       0.00       0.00       0.00       0.00       0.00       0.00       0.00       0.00      0.000      0.000      0.000        0.0        0.0        0.0        0.0        0.0        0.0       0.00       0.00       0.00        0.0        0.0        0.0        0.0        0.0        0.0        0.0        0.0        0.0        0.0        0.0        0.0
3/7/2017          202        290          0          9         30          0         13         30          0          0          0          0         86         94         76        0.0        0.0        0.0       43.7       50.0       39.2      29.94      30.09      29.76       0.01       0.00       0.00       39.6       48.3       35.6      29.94      30.09      29.76          0          0          0          0          0          0        0.0        0.0        0.0       0.00       0.00       0.00          0          0          0          0          0          0        0.0        0.0        0.0       0.00       0.00       0.00       0.00       0.00       0.00       0.00       0.00       0.00       0.00       0.00       0.00      0.000      0.000      0.000        0.0        0.0        0.0        0.0        0.0        0.0       0.00       0.00       0.00        0.0        0.0        0.0        0.0        0.0        0.0        0.0        0.0        0.0        0.0        0.0        0.0
3/8/2017           90        310          0          4         12          0          6         12          0          0          0          0         87         93         66        0.0        0.0        0.0       42.7       44.6       41.0      30.13      30.19      30.08       0.00       0.00       0.00       38.9       40.9       33.7      30.13      30.19      30.08          0          0          0          0          0          0        0.0        0.0        0.0       0.00       0.00       0.00          0          0          0          0          0          0        0.0        0.0        0.0       0.00       0.00       0.00       0.00       0.00       0.00       0.00       0.00       0.00       0.00       0.00       0.00      0.000      0.000      0.000        0.0        0.5        0.5        0.0        0.0        0.0       0.00 -135196.50 -135196.50        0.0        3.1        3.1        0.0        0.0        0.0        0.0       27.5       27.5        0.0        0.0        0.0
3/9/2017          202        260          0         10         31          0         13         31          0          0          0          0         90        100         82        0.0        0.0        0.0       47.0       53.6       42.8      30.01      30.12      29.88       0.00       0.00       0.00       44.1       50.1       39.2      30.01      30.12      29.88          0          0          0          0          0          0        0.0        0.0        0.0       0.00       0.00       0.00          0          0          0          0          0          0        0.0        0.0        0.0       0.00       0.00       0.00       0.00       0.00       0.00       0.00       0.00       0.00       0.00       0.00       0.00      0.000      0.000      0.000        0.0        0.5        0.5        0.0        0.0        0.0       0.00 -135474.88 -135474.88        0.0        3.6        3.6        0.0        0.0        0.0        0.0       28.1       28.1        0.0        0.0        0.0
3/10/2017         248        270          0         12         32          0         16         32          0          0          0          0         85         93         76        0.0        0.0        0.0       47.4       50.0       42.8      30.17      30.29      29.94       0.00       0.00       0.00       43.1       46.3       39.1      30.17      30.29      29.94          0          0          0          0          0          0        0.0        0.0        0.0       0.00       0.00       0.00          0          0          0          0          0          0        0.0        0.0        0.0       0.00       0.00       0.00       0.00       0.00       0.00       0.00       0.00       0.00       0.00       0.00       0.00      0.000      0.000      0.000        0.0        0.4        0.4        0.0        0.0        0.0       0.00 -135761.44 -135761.44        0.0        4.0        4.0        0.0        0.0        0.0        0.0       28.4       28.4        0.0        0.0        0.0
3/11/2017          90        240          0         10         25          0         13         25          0          0          0          0         87         93         81        0.0        0.0        0.0       48.4       51.8       42.8      30.06      30.23      29.92       0.00       0.00       0.00       44.8       48.1       39.1      30.06      30.23      29.92          0          0          0          0          0          0        0.0        0.0        0.0       0.00       0.00       0.00          0          0          0          0          0          0        0.0        0.0        0.0       0.00       0.00       0.00       0.00       0.00       0.00       0.00       0.00       0.00       0.00       0.00       0.00      0.000      0.000      0.000        0.0        0.4        0.4        0.0        0.0        0.0       0.00 -136054.14 -136054.14        0.0        4.4        4.4        0.0        0.0        0.0        0.0       28.8       28.8        0.0        0.0        0.0
3/12/2017         158        300          0          4         12          0          6         12          0          0          0          0         83         93         63        0.0        0.0        0.0       50.1       57.2       44.6      30.23      30.28      30.14       0.00       0.00       0.00       44.8       46.5       42.7      30.23      30.28      30.14          0          0          0          0          0          0        0.0        0.0        0.0       0.00       0.00       0.00          0          0          0          0          0          0        0.0        0.0        0.0       0.00       0.00       0.00       0.00       0.00       0.00       0.00       0.00       0.00       0.00       0.00       0.00      0.000      0.000      0.000        0.0        0.3        0.3        0.0        0.0        0.0       0.00 -136326.38 -136326.38        0.0        4.7        4.7        0.0        0.0        0.0        0.0       29.2       29.2        0.0        0.0        0.0
3/13/2017         202        310          0          7         17          0          9         17          0          0          0          0         88         94         71        0.0        0.0        0.0       52.5       55.4       46.4      30.06      30.14      29.98       0.00       0.00       0.00       48.9       51.9       44.4      30.06      30.14      29.98          0          0          0          0          0          0        0.0        0.0        0.0       0.00       0.00       0.00          0          0          0          0          0          0        0.0        0.0        0.0       0.00       0.00       0.00       0.00       0.00       0.00       0.00       0.00       0.00       0.00       0.00       0.00      0.000      0.000      0.000        0.0        0.3        0.3        0.0        0.0        0.0       0.00 -136608.84 -136608.84        0.0        5.0        5.0        0.0        0.0        0.0        0.0       29.4       29.4        0.0        0.0        0.0
3/14/2017           0        210          0         15         31          0         21         31          0          0          0          0         90         94         87        0.0        0.0        0.0       53.9       57.2       50.0      29.88      29.98      29.82       0.01       0.00       0.00       50.9       53.7       48.1      29.88      29.98      29.82          0          0          0          0          0          0        0.0        0.0        0.0       0.00       0.00       0.00          0          0          0          0          0          0        0.0        0.0        0.0       0.00       0.00       0.00       0.00       0.00       0.00       0.00       0.00       0.00       0.00       0.00       0.00      0.000      0.000      0.000        0.0        0.0        0.0        0.0        0.0        0.0       0.00       0.00       0.00        0.0        0.0        0.0        0.0        0.0        0.0        0.0        0.0        0.0        0.0        0.0        0.0
3/16/2017         202        230          0         13         31          0         17         31          0          0          0          0         85         94         54        0.0        0.0        0.0       51.2       57.2       39.2      29.98      30.27      29.82       0.00       0.00       0.00       46.5       53.7       33.7      29.98      30.27      29.82          0          0          0          0          0          0        0.0        0.0        0.0       0.00       0.00       0.00          0          0          0          0          0          0        0.0        0.0        0.0       0.00       0.00       0.00       0.00       0.00       0.00       0.00       0.00       0.00       0.00       0.00       0.00      0.000      0.000      0.000        0.0        0.0        0.0        0.0        0.0        0.0       0.00       0.00       0.00        0.0        0.0        0.0        0.0        0.0        0.0        0.0        0.0        0.0        0.0        0.0        0.0
3/17/2017          90        200          0          7         29          0         11         29          0          0          0          0         87         93         76        0.0        0.0        0.0       45.6       57.2       35.6      29.88      30.18      29.64       0.01       0.00       0.00       42.0       51.9       32.1      29.88      30.18      29.64          0          0          0          0          0          0        0.0        0.0        0.0       0.00       0.00       0.00          0          0          0          0          0          0        0.0        0.0        0.0       0.00       0.00       0.00       0.00       0.00       0.00       0.00       0.00       0.00       0.00       0.00       0.00      0.000      0.000      0.000        0.0        0.2        0.2        0.0        0.0        0.0       0.00 -137190.16 -137190.16        0.0        5.5        5.5        0.0        0.0        0.0        0.0       29.9       29.9        0.0        0.0        0.0
3/18/2017         292        310          0         11         37          0         15         37          0          0          0          0         79         93         50        0.0        0.0        0.0       45.8       68.0       35.6      29.90      30.20      29.62       0.00       0.00       0.00       39.1       51.9       30.3      29.90      30.20      29.62          0          0          0          0          0          0        0.0        0.0        0.0       0.00       0.00       0.00          0          0          0          0          0          0        0.0        0.0        0.0       0.00       0.00       0.00       0.00       0.00       0.00       0.00       0.00       0.00       0.00       0.00       0.00      0.000      0.000      0.000        0.0        0.0        0.0        0.0        0.0        0.0       0.00       0.00       0.00        0.0        0.0        0.0        0.0        0.0        0.0        0.0        0.0        0.0        0.0        0.0        0.0
3/19/2017           0        360          0          6         17          0          9         17          0          0          0          0         68         93         41        0.0        0.0        0.0       42.7       53.6       32.0      30.19      30.28      30.04       0.00       0.00       0.00       32.0       35.7       28.3      30.19      30.28      30.04          0          0          0          0          0          0        0.0        0.0        0.0       0.00       0.00       0.00          0          0          0          0          0          0        0.0        0.0        0.0       0.00       0.00       0.00       0.00       0.00       0.00       0.00       0.00       0.00       0.00       0.00       0.00      0.000      0.000      0.000        0.0        0.3        0.3        0.0        0.0        0.0       0.00 -137691.64 -137691.64        0.0        6.2        6.2        0.0        0.0        0.0        0.0       30.6       30.6        0.0        0.0        0.0
3/20/2017          90        110          0          8         17          3         12         17          4          0          0          0         72         87         57        0.0        0.0        0.0       46.6       51.8       42.8      29.87      30.02      29.74       0.00       0.00       0.00       37.8       44.5       31.9      29.87      30.02      29.74          0          0          0          0          0          0        0.0        0.0        0.0       0.00       0.00       0.00          0          0          0          0          0          0        0.0        0.0        0.0       0.00       0.00       0.00       0.00       0.00       0.00       0.00       0.00       0.00       0.00       0.00       0.00      0.000      0.000      0.000        0.0        0.3        0.3        0.0        0.0        0.0       0.00 -137822.64 -137822.64        0.0        6.5        6.5        0.0        0.0        0.0        0.0       31.0       31.0        0.0        0.0        0.0
3/21/2017          90        200          0          8         19          3         11         19          4          0          0          0         78         87         63        0.0        0.0        0.0       51.5       57.2       46.4      29.68      29.73      29.65       0.00       0.00       0.00       44.7       46.6       42.7      29.68      29.73      29.65          0          0          0          0          0          0        0.0        0.0        0.0       0.00       0.00       0.00          0          0          0          0          0          0        0.0        0.0        0.0       0.00       0.00       0.00       0.00       0.00       0.00       0.00       0.00       0.00       0.00       0.00       0.00      0.000      0.000      0.000        0.0        0.3        0.3        0.0        0.0        0.0       0.00 -137959.78 -137959.78        0.0        6.8        6.8        0.0        0.0        0.0        0.0       31.3       31.3        0.0        0.0        0.0
3/22/2017         180        250          0          9         24          3         13         24          4          0          0          0         79         93         62        0.0        0.0        0.0       49.4       57.2       42.8      29.79      30.09      29.65       0.00       0.00       0.00       43.2       46.6       35.8      29.79      30.09      29.65          0          0          0          0          0          0        0.0        0.0        0.0       0.00       0.00       0.00          0          0          0          0          0          0        0.0        0.0        0.0       0.00       0.00       0.00       0.00       0.00       0.00       0.00       0.00       0.00       0.00       0.00       0.00      0.000      0.000      0.000        0.0        0.3        0.3        0.0        0.0        0.0       0.00 -137959.78 -137959.78        0.0        6.8        6.8        0.0        0.0        0.0        0.0       31.3       31.3        0.0        0.0        0.0
3/23/2017         112        180         80          7         16          3          9         16          4          0          0          0         80         93         54        0.0        0.0        0.0       45.9       53.6       39.2      29.97      30.09      29.80       0.00       0.00       0.00       39.8       42.7       37.4      29.97      30.09      29.80          0          0          0          0          0          0        0.0        0.0        0.0       0.00       0.00       0.00          0          0          0          0          0          0        0.0        0.0        0.0       0.00       0.00       0.00       0.00       0.00       0.00       0.00       0.00       0.00       0.00       0.00       0.00      0.000      0.000      0.000        0.0        0.5        0.5        0.0        0.0        0.0       0.00 -138201.31 -138201.31        0.0        7.3        7.3        0.0        0.0        0.0        0.0       31.8       31.8        0.0        0.0        0.0
3/24/2017         180        260         80          9         24          3         12         24          4          0          0          0         81         93         54        0.0        0.0        0.0       47.5       53.6       39.2      29.92      30.09      29.75       0.00       0.00       0.00       41.6       46.3       37.4      29.92      30.09      29.75          0          0          0          0          0          0        0.0        0.0        0.0       0.00       0.00       0.00          0          0          0          0          0          0        0.0        0.0        0.0       0.00       0.00       0.00       0.00       0.00       0.00       0.00       0.00       0.00       0.00       0.00       0.00      0.000      0.000      0.000        0.0        0.5        0.5        0.0        0.0        0.0       0.00 -138201.31 -138201.31        0.0        7.3        7.3        0.0        0.0        0.0        0.0       31.8       31.8        0.0        0.0        0.0
3/25/2017         180        310          0          4         10          0          6         10          0          0          0          0         77         93         57        0.0        0.0        0.0       45.5       48.2       42.8      30.08      30.14      29.99       0.00       0.00       0.00       38.6       41.0       33.7      30.08      30.14      29.99          0          0          0          0          0          0        0.0        0.0        0.0       0.00       0.00       0.00          0          0          0          0          0          0        0.0        0.0        0.0       0.00       0.00       0.00       0.00       0.00       0.00       0.00       0.00       0.00       0.00       0.00       0.00      0.000      0.000      0.000        0.0        0.6        0.6        0.0        0.0        0.0       0.00 -138461.27 -138461.27        0.0        7.9        7.9        0.0        0.0        0.0        0.0       32.3       32.3        0.0        0.0        0.0
3/26/2017         112        270         90          8         20          4         11         20          5          0          0          0         84         93         76        0.0        0.0        0.0       46.2       50.0       42.8      29.80      29.97      29.71       0.00       0.00       0.00       41.6       46.3       37.5      29.80      29.97      29.71          0          0          0          0          0          0        0.0        0.0        0.0       0.00       0.00       0.00          0          0          0          0          0          0        0.0        0.0        0.0       0.00       0.00       0.00       0.00       0.00       0.00       0.00       0.00       0.00       0.00       0.00       0.00      0.000      0.000      0.000        0.0        0.3        0.3        0.0        0.0        0.0       0.00 -138563.61 -138563.61        0.0        8.2        8.2        0.0        0.0        0.0        0.0       32.6       32.6        0.0        0.0        0.0
3/27/2017         225        260        150         10         22          4         13         22          5          0          0          0         84         93         71        0.0        0.0        0.0       46.9       51.8       44.6      30.13      30.28      29.88       0.00       0.00       0.00       42.2       42.7       39.1      30.13      30.28      29.88          0          0          0          0          0          0        0.0        0.0        0.0       0.00       0.00       0.00          0          0          0          0          0          0        0.0        0.0        0.0       0.00       0.00       0.00       0.00       0.00       0.00       0.00       0.00       0.00       0.00       0.00       0.00      0.000      0.000      0.000        0.0        0.3        0.3        0.0        0.0        0.0       0.00 -138704.84 -138704.84        0.0        8.5        8.5        0.0        0.0        0.0        0.0       32.9       32.9        0.0        0.0        0.0
3/28/2017         180        210        160         15         25          8         19         25         10          0          0          0         82         93         76        0.0        0.0        0.0       49.7       51.8       46.4      30.21      30.27      30.13       0.00       0.00       0.00       44.3       46.3       39.3      30.21      30.27      30.13          0          0          0          0          0          0        0.0        0.0        0.0       0.00       0.00       0.00          0          0          0          0          0          0        0.0        0.0        0.0       0.00       0.00       0.00       0.00       0.00       0.00       0.00       0.00       0.00       0.00       0.00       0.00      0.000      0.000      0.000        0.0        0.3        0.3        0.0        0.0        0.0       0.00 -138841.98 -138841.98        0.0        8.8        8.8        0.0        0.0        0.0        0.0       33.2       33.2        0.0        0.0        0.0
3/29/2017         270        290          0         14         31          3         19         31          4          0          0          0         84         94         71        0.0        0.0        0.0       49.4       51.8       44.6      29.97      30.09      29.87       0.00       0.00       0.00       44.9       48.3       39.1      29.97      30.09      29.87          0          0          0          0          0          0        0.0        0.0        0.0       0.00       0.00       0.00          0          0          0          0          0          0        0.0        0.0        0.0       0.00       0.00       0.00       0.00       0.00       0.00       0.00       0.00       0.00       0.00       0.00       0.00      0.000      0.000      0.000        0.0        0.3        0.3        0.0        0.0        0.0       0.00 -138960.70 -138960.70        0.0        9.1        9.1        0.0        0.0        0.0        0.0       33.5       33.5        0.0        0.0        0.0
3/30/2017         315        320        260         10         22          4         14         22          5          0          0          0         74         87         62        0.0        0.0        0.0       47.7       51.8       44.6      30.25      30.38      30.11       0.00       0.00       0.00       39.6       42.7       35.8      30.25      30.38      30.11          0          0          0          0          0          0        0.0        0.0        0.0       0.00       0.00       0.00          0          0          0          0          0          0        0.0        0.0        0.0       0.00       0.00       0.00       0.00       0.00       0.00       0.00       0.00       0.00       0.00       0.00       0.00      0.000      0.000      0.000        0.0        0.3        0.3        0.0        0.0        0.0       0.00 -139081.47 -139081.47        0.0        9.4        9.4        0.0        0.0        0.0        0.0       33.8       33.8        0.0        0.0        0.0
3/31/2017           0        360          0          4         11          0          6         11          0          0          0          0         71         81         58        0.0        0.0        0.0       48.1       53.6       44.6      30.34      30.41      30.23       0.00       0.00       0.00       39.1       42.7       35.7      30.34      30.41      30.23          0          0          0          0          0          0        0.0        0.0        0.0       0.00       0.00       0.00          0          0          0          0          0          0        0.0        0.0        0.0       0.00       0.00       0.00       0.00       0.00       0.00       0.00       0.00       0.00       0.00       0.00       0.00      0.000      0.000      0.000        0.0        0.3        0.3        0.0        0.0        0.0       0.00 -139222.70 -139222.70        0.0        9.7        9.7        0.0        0.0        0.0        0.0       34.1       34.1        0.0        0.0        0.0
4/1/2017          315        340          0          7         14          0          9         14          0          0          0          0         82         93         71        0.0        0.0        0.0       49.2       53.6       46.4      30.28      30.37      30.20       0.00       0.00       0.00       43.8       48.2       37.5      30.28      30.37      30.20          0          0          0          0          0          0        0.0        0.0        0.0       0.00       0.00       0.00          0          0          0          0          0          0        0.0        0.0        0.0       0.00       0.00       0.00       0.00       0.00       0.00       0.00       0.00       0.00       0.00       0.00       0.00      0.000      0.000      0.000        0.0        0.3        0.3        0.0        0.0        0.0       0.00 -139361.89 -139361.89        0.0       10.0       10.0        0.0        0.0        0.0        0.0       34.4       34.4        0.0        0.0        0.0
4/2/2017          270        340          0          7         19          0         10         19          0          0          0          0         68         81         50        0.0        0.0        0.0       47.0       51.8       42.8      30.37      30.40      30.31       0.00       0.00       0.00       36.9       39.3       33.7      30.37      30.40      30.31          0          0          0          0          0          0        0.0        0.0        0.0       0.00       0.00       0.00          0          0          0          0          0          0        0.0        0.0        0.0       0.00       0.00       0.00       0.00       0.00       0.00       0.00       0.00       0.00       0.00       0.00       0.00      0.000      0.000      0.000        0.0        0.3        0.3        0.0        0.0        0.0       0.00 -139496.98 -139496.98        0.0        0.3        0.3        0.0        0.0        0.0        0.0       34.7       34.7        0.0        0.0        0.0
4/3/2017            0        360          0          5         14          0          7         14          0          0          0          0         72         93         50        0.0        0.0        0.0       45.0       51.8       35.6      30.22      30.32      30.05       0.00       0.00       0.00       36.2       39.3       30.1      30.22      30.32      30.05          0          0          0          0          0          0        0.0        0.0        0.0       0.00       0.00       0.00          0          0          0          0          0          0        0.0        0.0        0.0       0.00       0.00       0.00       0.00       0.00       0.00       0.00       0.00       0.00       0.00       0.00       0.00      0.000      0.000      0.000        0.0        0.3        0.3        0.0        0.0        0.0       0.00 -139640.27 -139640.27        0.0        0.6        0.6        0.0        0.0        0.0        0.0       35.0       35.0        0.0        0.0        0.0
4/4/2017           90        220          0          4         11          0          6         11          0          0          0          0         71         82         39        0.0        0.0        0.0       50.2       59.0       44.6      29.94      30.03      29.87       0.00       0.00       0.00       40.8       46.5       34.1      29.94      30.03      29.87          0          0          0          0          0          0        0.0        0.0        0.0       0.00       0.00       0.00          0          0          0          0          0          0        0.0        0.0        0.0       0.00       0.00       0.00       0.00       0.00       0.00       0.00       0.00       0.00       0.00       0.00       0.00      0.000      0.000      0.000        0.0        0.3        0.3        0.0        0.0        0.0       0.00 -139781.50 -139781.50        0.0        0.9        0.9        0.0        0.0        0.0        0.0       35.3       35.3        0.0        0.0        0.0
4/5/2017           90        350          0          6         12          0          8         12          0          0          0          0         86         94         81        0.0        0.0        0.0       48.9       51.8       46.4      29.87      29.91      29.72       0.00       0.00       0.00       44.8       48.3       42.7      29.87      29.91      29.72          0          0          0          0          0          0        0.0        0.0        0.0       0.00       0.00       0.00          0          0          0          0          0          0        0.0        0.0        0.0       0.00       0.00       0.00       0.00       0.00       0.00       0.00       0.00       0.00       0.00       0.00       0.00      0.000      0.000      0.000        0.0        0.2        0.2        0.0        0.0        0.0       0.00 -139914.55 -139914.55        0.0        1.2        1.2        0.0        0.0        0.0        0.0       35.6       35.6        0.0        0.0        0.0
4/6/2017          180        350          0          7         19          0         11         19          0          0          0          0         78         93         58        0.0        0.0        0.0       51.2       55.4       46.4      29.61      29.73      29.18       0.00       0.00       0.00       44.3       46.6       37.5      29.61      29.73      29.18          0          0          0          0          0          0        0.0        0.0        0.0       0.00       0.00       0.00          0          0          0          0          0          0        0.0        0.0        0.0       0.00       0.00       0.00       0.00       0.00       0.00       0.00       0.00       0.00       0.00       0.00       0.00      0.000      0.000      0.000        0.0        0.3        0.3        0.0        0.0        0.0       0.00 -140051.69 -140051.69        0.0        1.4        1.4        0.0        0.0        0.0        0.0       35.8       35.8        0.0        0.0        0.0
4/7/2017          180        220         90         19         42          4         25         42          5          0          0          0         75         87         54        0.0        0.0        0.0       49.6       55.4       44.6      29.35      29.70      29.05       0.00       0.00       0.00       41.7       46.6       37.4      29.35      29.70      29.05          0          0          0          0          0          0        0.0        0.0        0.0       0.00       0.00       0.00          0          0          0          0          0          0        0.0        0.0        0.0       0.00       0.00       0.00       0.00       0.00       0.00       0.00       0.00       0.00       0.00       0.00       0.00      0.000      0.000      0.000        0.0        0.2        0.2        0.0        0.0        0.0       0.00 -140192.92 -140192.92        0.0        1.7        1.7        0.0        0.0        0.0        0.0       36.1       36.1        0.0        0.0        0.0
4/8/2017          248        250        130         10         22          4         15         22          5          0          0          0         71         87         54        0.0        0.0        0.0       45.5       51.8       39.2      29.92      30.09      29.71       0.00       0.00       0.00       36.2       37.5       32.0      29.92      30.09      29.71          0          0          0          0          0          0        0.0        0.0        0.0       0.00       0.00       0.00          0          0          0          0          0          0        0.0        0.0        0.0       0.00       0.00       0.00       0.00       0.00       0.00       0.00       0.00       0.00       0.00       0.00       0.00      0.000      0.000      0.000        0.0        0.3        0.3        0.0        0.0        0.0       0.00 -140325.97 -140325.97        0.0        1.9        1.9        0.0        0.0        0.0        0.0       36.3       36.3        0.0        0.0        0.0
4/9/2017          135        200         60          7         16          3         10         16          4          0          0          0         72         93         44        0.0        0.0        0.0       45.6       53.6       39.2      30.00      30.10      29.88       0.00       0.00       0.00       36.5       42.7       32.2      30.00      30.10      29.88          0          0          0          0          0          0        0.0        0.0        0.0       0.00       0.00       0.00          0          0          0          0          0          0        0.0        0.0        0.0       0.00       0.00       0.00       0.00       0.00       0.00       0.00       0.00       0.00       0.00       0.00       0.00      0.000      0.000      0.000        0.0        0.3        0.3        0.0        0.0        0.0       0.00 -140471.30 -140471.30        0.0        2.2        2.2        0.0        0.0        0.0        0.0       36.6       36.6        0.0        0.0        0.0
4/10/2017         202        240          0         10         28          0         14         28          0          0          0          0         76         93         58        0.0        0.0        0.0       45.7       51.8       39.2      30.08      30.17      29.94       0.00       0.00       0.00       38.3       41.0       37.4      30.08      30.17      29.94          0          0          0          0          0          0        0.0        0.0        0.0       0.00       0.00       0.00          0          0          0          0          0          0        0.0        0.0        0.0       0.00       0.00       0.00       0.00       0.00       0.00       0.00       0.00       0.00       0.00       0.00       0.00      0.000      0.000      0.000        0.0        0.0        0.0        0.0        0.0        0.0       0.00       0.00       0.00        0.0        0.0        0.0        0.0        0.0        0.0        0.0        0.0        0.0        0.0        0.0        0.0
4/11/2017          68        360          0          6         17          0          9         17          0          0          0          0         74         93         47        0.0        0.0        0.0       46.5       57.2       35.6      29.88      30.15      29.63       0.00       0.00       0.00       38.0       42.9       33.8      29.88      30.15      29.63          0          0          0          0          0          0        0.0        0.0        0.0       0.00       0.00       0.00          0          0          0          0          0          0        0.0        0.0        0.0       0.00       0.00       0.00       0.00       0.00       0.00       0.00       0.00       0.00       0.00       0.00       0.00      0.000      0.000      0.000        0.0        0.3        0.3        0.0        0.0        0.0       0.00 -140753.77 -140753.77        0.0        2.9        2.9        0.0        0.0        0.0        0.0       37.3       37.3        0.0        0.0        0.0
4/12/2017         180        200         70          9         28          4         13         28          5          0          0          0         82         93         62        0.0        0.0        0.0       49.1       53.6       44.6      29.67      29.72      29.56       0.00       0.00       0.00       43.8       46.5       37.5      29.67      29.72      29.56          0          0          0          0          0          0        0.0        0.0        0.0       0.00       0.00       0.00          0          0          0          0          0          0        0.0        0.0        0.0       0.00       0.00       0.00       0.00       0.00       0.00       0.00       0.00       0.00       0.00       0.00       0.00      0.000      0.000      0.000        0.0        0.0        0.0        0.0        0.0        0.0       0.00       0.00       0.00        0.0        0.0        0.0        0.0        0.0        0.0        0.0        0.0        0.0        0.0        0.0        0.0
4/13/2017         225        230          0          9         19          3         12         19          4          0          0          0         77         87         62        0.0        0.0        0.0       46.7       51.8       44.6      29.83      30.01      29.70       0.00       0.00       0.00       39.8       42.7       37.4      29.83      30.01      29.70          0          0          0          0          0          0        0.0        0.0        0.0       0.00       0.00       0.00          0          0          0          0          0          0        0.0        0.0        0.0       0.00       0.00       0.00       0.00       0.00       0.00       0.00       0.00       0.00       0.00       0.00       0.00      0.000      0.000      0.000        0.0        0.3        0.3        0.0        0.0        0.0       0.00 -141030.09 -141030.09        0.0        3.4        3.4        0.0        0.0        0.0        0.0       37.8       37.8        0.0        0.0        0.0
4/14/2017         225        270          0          8         16          3         10         16          4          0          0          0         74         87         58        0.0        0.0        0.0       46.3       51.8       42.8      30.15      30.26      30.03       0.00       0.00       0.00       38.2       39.3       35.7      30.15      30.26      30.03          0          0          0          0          0          0        0.0        0.0        0.0       0.00       0.00       0.00          0          0          0          0          0          0        0.0        0.0        0.0       0.00       0.00       0.00       0.00       0.00       0.00       0.00       0.00       0.00       0.00       0.00       0.00      0.000      0.000      0.000        0.0        0.3        0.3        0.0        0.0        0.0       0.00 -141163.14 -141163.14        0.0        3.8        3.8        0.0        0.0        0.0        0.0       38.2       38.2        0.0        0.0        0.0
4/15/2017         338        360          0          6         17          0          9         17          0          0          0          0         74         87         54        0.0        0.0        0.0       47.2       53.6       41.0      30.21      30.27      30.04       0.00       0.00       0.00       39.1       42.7       37.4      30.21      30.27      30.04          0          0          0          0          0          0        0.0        0.0        0.0       0.00       0.00       0.00          0          0          0          0          0          0        0.0        0.0        0.0       0.00       0.00       0.00       0.00       0.00       0.00       0.00       0.00       0.00       0.00       0.00       0.00      0.000      0.000      0.000        0.0        0.3        0.3        0.0        0.0        0.0       0.00 -141271.62 -141271.62        0.0        4.0        4.0        0.0        0.0        0.0        0.0       38.4       38.4        0.0        0.0        0.0
4/16/2017          90        250          0          8         17          0         11         17          0          0          0          0         58         81         32        0.0        0.0        0.0       53.0       66.2       46.4      29.82      30.01      29.74       0.00       0.00       0.00       37.9       42.9       33.7      29.82      30.01      29.74          0          0          0          0          0          0        0.0        0.0        0.0       0.00       0.00       0.00          0          0          0          0          0          0        0.0        0.0        0.0       0.00       0.00       0.00       0.00       0.00       0.00       0.00       0.00       0.00       0.00       0.00       0.00      0.000      0.000      0.000        0.0        0.3        0.3        0.0        0.0        0.0       0.00 -141408.77 -141408.77        0.0        4.3        4.3        0.0        0.0        0.0        0.0       38.7       38.7        0.0        0.0        0.0
4/17/2017         180        200          0          7         17          0         10         17          0          0          0          0         79         93         59        0.0        0.0        0.0       51.6       57.2       44.6      29.83      29.87      29.80       0.00       0.00       0.00       45.1       48.2       39.1      29.83      29.87      29.80          0          0          0          0          0          0        0.0        0.0        0.0       0.00       0.00       0.00          0          0          0          0          0          0        0.0        0.0        0.0       0.00       0.00       0.00       0.00       0.00       0.00       0.00       0.00       0.00       0.00       0.00       0.00      0.000      0.000      0.000        0.0        0.0        0.0        0.0        0.0        0.0       0.00       0.00       0.00        0.0        0.0        0.0        0.0        0.0        0.0        0.0        0.0        0.0        0.0        0.0        0.0
4/18/2017         202        210          0          9         23          0         13         23          0          0          0          0         75         93         59        0.0        0.0        0.0       52.9       57.2       48.2      29.96      30.04      29.86       0.00       0.00       0.00       44.9       48.1       39.3      29.96      30.04      29.86          0          0          0          0          0          0        0.0        0.0        0.0       0.00       0.00       0.00          0          0          0          0          0          0        0.0        0.0        0.0       0.00       0.00       0.00       0.00       0.00       0.00       0.00       0.00       0.00       0.00       0.00       0.00      0.000      0.000      0.000        0.0        0.2        0.2        0.0        0.0        0.0       0.00 -141666.67 -141666.67        0.0        4.7        4.7        0.0        0.0        0.0        0.0       39.1       39.1        0.0        0.0        0.0
4/19/2017           0        170          0          8         20          0         11         20          0          0          0          0         73         87         62        0.0        0.0        0.0       48.9       51.8       46.4      29.99      30.02      29.96       0.00       0.00       0.00       40.5       46.5       37.4      29.99      30.02      29.96          0          0          0          0          0          0        0.0        0.0        0.0       0.00       0.00       0.00          0          0          0          0          0          0        0.0        0.0        0.0       0.00       0.00       0.00       0.00       0.00       0.00       0.00       0.00       0.00       0.00       0.00       0.00      0.000      0.000      0.000        0.0        0.0        0.0        0.0        0.0        0.0       0.00       0.00       0.00        0.0        0.0        0.0        0.0        0.0        0.0        0.0        0.0        0.0        0.0        0.0        0.0
4/20/2017         225        260          0          8         20          0         12         20          0          0          0          0         77         93         62        0.0        0.0        0.0       50.6       55.4       46.4      30.19      30.41      29.96       0.00       0.00       0.00       43.5       48.2       37.4      30.19      30.41      29.96          0          0          0          0          0          0        0.0        0.0        0.0       0.00       0.00       0.00          0          0          0          0          0          0        0.0        0.0        0.0       0.00       0.00       0.00       0.00       0.00       0.00       0.00       0.00       0.00       0.00       0.00       0.00      0.000      0.000      0.000        0.0        0.0        0.0        0.0        0.0        0.0       0.00       0.00       0.00        0.0        0.0        0.0        0.0        0.0        0.0        0.0        0.0        0.0        0.0        0.0        0.0
4/21/2017          90        160          0          7         24          0         10         24          0          0          0          0         59         93         24        0.0        0.0        0.0       54.5       69.8       39.2      30.19      30.41      29.86       0.00       0.00       0.00       37.9       42.7       28.4      30.19      30.41      29.86          0          0          0          0          0          0        0.0        0.0        0.0       0.00       0.00       0.00          0          0          0          0          0          0        0.0        0.0        0.0       0.00       0.00       0.00       0.00       0.00       0.00       0.00       0.00       0.00       0.00       0.00       0.00      0.000      0.000      0.000        0.0        0.3        0.3        0.0        0.0        0.0       0.00 -141961.42 -141961.42        0.0        5.2        5.2        0.0        0.0        0.0        0.0       39.6       39.6        0.0        0.0        0.0
4/22/2017         202        220          0         10         23          0         14         23          0          0          0          0         74         87         41        0.0        0.0        0.0       52.9       59.0       48.2      29.87      29.98      29.73       0.00       0.00       0.00       44.6       48.3       35.4      29.87      29.98      29.73          0          0          0          0          0          0        0.0        0.0        0.0       0.00       0.00       0.00          0          0          0          0          0          0        0.0        0.0        0.0       0.00       0.00       0.00       0.00       0.00       0.00       0.00       0.00       0.00       0.00       0.00       0.00      0.000      0.000      0.000        0.0        0.2        0.2        0.0        0.0        0.0       0.00 -142104.70 -142104.70        0.0        5.4        5.4        0.0        0.0        0.0        0.0       39.8       39.8        0.0        0.0        0.0
4/23/2017           0        240          0         10         23          0         13         23          0          0          0          0         80         93         41        0.0        0.0        0.0       50.9       59.0       46.4      29.88      29.98      29.73       0.00       0.00       0.00       44.7       48.3       35.4      29.88      29.98      29.73          0          0          0          0          0          0        0.0        0.0        0.0       0.00       0.00       0.00          0          0          0          0          0          0        0.0        0.0        0.0       0.00       0.00       0.00       0.00       0.00       0.00       0.00       0.00       0.00       0.00       0.00       0.00      0.000      0.000      0.000        0.0        0.0        0.0        0.0        0.0        0.0       0.00       0.00       0.00        0.0        0.0        0.0        0.0        0.0        0.0        0.0        0.0        0.0        0.0        0.0        0.0
4/24/2017         202        360          0         10         23          0         13         23          0          0          0          0         81         93         41        0.0        0.0        0.0       50.0       59.0       44.6      29.85      29.98      29.63       0.00       0.00       0.00       44.2       48.3       35.4      29.85      29.98      29.63          0          0          0          0          0          0        0.0        0.0        0.0       0.00       0.00       0.00          0          0          0          0          0          0        0.0        0.0        0.0       0.00       0.00       0.00       0.00       0.00       0.00       0.00       0.00       0.00       0.00       0.00       0.00      0.000      0.000      0.000        0.0        0.0        0.0        0.0        0.0        0.0       0.00       0.00       0.00        0.0        0.0        0.0        0.0        0.0        0.0        0.0        0.0        0.0        0.0        0.0        0.0
4/25/2017         112        240          0          8         20          0         11         20          0          0          0          0         86         94         71        0.0        0.0        0.0       49.2       51.8       42.8      29.87      29.99      29.77       0.00       0.00       0.00       45.3       50.1       39.2      29.87      29.99      29.77          0          0          0          0          0          0        0.0        0.0        0.0       0.00       0.00       0.00          0          0          0          0          0          0        0.0        0.0        0.0       0.00       0.00       0.00       0.00       0.00       0.00       0.00       0.00       0.00       0.00       0.00       0.00      0.000      0.000      0.000        0.0        0.7        0.7        0.0        0.0        0.0       0.00 -142456.77 -142456.77        0.0        6.1        6.1        0.0        0.0        0.0        0.0       40.5       40.5        0.0        0.0        0.0
4/26/2017         270        290        220         10         17          4         13         17          5          0          0          0         83         93         67        0.0        0.0        0.0       48.7       53.6       44.6      29.93      30.08      29.85       0.00       0.00       0.00       43.5       46.3       39.1      29.93      30.08      29.85          0          0          0          0          0          0        0.0        0.0        0.0       0.00       0.00       0.00          0          0          0          0          0          0        0.0        0.0        0.0       0.00       0.00       0.00       0.00       0.00       0.00       0.00       0.00       0.00       0.00       0.00       0.00      0.000      0.000      0.000        0.0        0.3        0.3        0.0        0.0        0.0       0.00 -142593.91 -142593.91        0.0        6.4        6.4        0.0        0.0        0.0        0.0       40.8       40.8        0.0        0.0        0.0
4/27/2017         292        320        130          8         17          3         10         17          4          0          0          0         73         87         54        0.0        0.0        0.0       48.2       53.6       44.6      30.14      30.25      30.09       0.00       0.00       0.00       39.5       42.7       35.8      30.14      30.25      30.09          0          0          0          0          0          0        0.0        0.0        0.0       0.00       0.00       0.00          0          0          0          0          0          0        0.0        0.0        0.0       0.00       0.00       0.00       0.00       0.00       0.00       0.00       0.00       0.00       0.00       0.00       0.00      0.000      0.000      0.000        0.0        0.3        0.3        0.0        0.0        0.0       0.00 -142724.91 -142724.91        0.0        6.7        6.7        0.0        0.0        0.0        0.0       41.1       41.1        0.0        0.0        0.0
4/28/2017         315        360          0          6         16          0          8         16          0          0          0          0         76         93         54        0.0        0.0        0.0       47.6       55.4       41.0      30.34      30.39      30.25       0.00       0.00       0.00       39.9       44.5       37.4      30.34      30.39      30.25          0          0          0          0          0          0        0.0        0.0        0.0       0.00       0.00       0.00          0          0          0          0          0          0        0.0        0.0        0.0       0.00       0.00       0.00       0.00       0.00       0.00       0.00       0.00       0.00       0.00       0.00       0.00      0.000      0.000      0.000        0.0        0.3        0.3        0.0        0.0        0.0       0.00 -142851.81 -142851.81        0.0        7.0        7.0        0.0        0.0        0.0        0.0       41.4       41.4        0.0        0.0        0.0
4/29/2017         225        280          0          7         22          0         10         22          0          0          0          0         85         94         62        0.0        0.0        0.0       46.1       55.4       35.6      30.23      30.34      30.14       0.00       0.00       0.00       41.7       48.3       33.8      30.23      30.34      30.14          0          0          0          0          0          0        0.0        0.0        0.0       0.00       0.00       0.00          0          0          0          0          0          0        0.0        0.0        0.0       0.00       0.00       0.00       0.00       0.00       0.00       0.00       0.00       0.00       0.00       0.00       0.00      0.000      0.000      0.000        0.0        0.3        0.3        0.0        0.0        0.0       0.00 -142984.86 -142984.86        0.0        7.3        7.3        0.0        0.0        0.0        0.0       41.7       41.7        0.0        0.0        0.0
4/30/2017         270        320         80          8         20          3         11         20          4          0          0          0         71         93         54        0.0        0.0        0.0       49.4       53.6       44.6      30.32      30.39      30.18       0.00       0.00       0.00       39.9       46.3       37.4      30.32      30.39      30.18          0          0          0          0          0          0        0.0        0.0        0.0       0.00       0.00       0.00          0          0          0          0          0          0        0.0        0.0        0.0       0.00       0.00       0.00       0.00       0.00       0.00       0.00       0.00       0.00       0.00       0.00       0.00      0.000      0.000      0.000        0.0        0.4        0.4        0.0        0.0        0.0       0.00 -143119.95 -143119.95        0.0        7.6        7.6        0.0        0.0        0.0        0.0       42.0       42.0        0.0        0.0        0.0
5/1/2017           90        240          0          3          7          0          5          7          0          0          0          0         86         93         76        0.0        0.0        0.0       47.0       50.0       42.8      30.22      30.37      30.14       0.00       0.00       0.00       43.1       46.3       39.1      30.22      30.37      30.14          0          0          0          0          0          0        0.0        0.0        0.0       0.00       0.00       0.00          0          0          0          0          0          0        0.0        0.0        0.0       0.00       0.00       0.00       0.00       0.00       0.00       0.00       0.00       0.00       0.00       0.00       0.00      0.000      0.000      0.000        0.0        0.3        0.3        0.0        0.0        0.0       0.00 -143253.00 -143253.00        0.0        7.9        7.9        0.0        0.0        0.0        0.0       42.3       42.3        0.0        0.0        0.0
5/2/2017           90        360          0          4         12          0          6         12          0          0          0          0         92        100         82        0.0        0.0        0.0       52.9       57.2       48.2      30.16      30.19      30.13       0.00       0.00       0.00       50.6       53.7       46.3      30.16      30.19      30.13          0          0          0          0          0          0        0.0        0.0        0.0       0.00       0.00       0.00          0          0          0          0          0          0        0.0        0.0        0.0       0.00       0.00       0.00       0.00       0.00       0.00       0.00       0.00       0.00       0.00       0.00       0.00      0.000      0.000      0.000        0.0        0.3        0.3        0.0        0.0        0.0       0.00 -143375.81 -143375.81        0.0        0.3        0.3        0.0        0.0        0.0        0.0       42.6       42.6        0.0        0.0        0.0
5/3/2017          338        360          0          5         13          0          7         13          0          0          0          0         87        100         60        0.0        0.0        0.0       58.1       71.6       51.8      30.12      30.19      29.97       0.00       0.00       0.00       53.8       60.8       51.8      30.12      30.19      29.97          0          0          0          0          0          0        0.0        0.0        0.0       0.00       0.00       0.00          0          0          0          0          0          0        0.0        0.0        0.0       0.00       0.00       0.00       0.00       0.00       0.00       0.00       0.00       0.00       0.00       0.00       0.00      0.000      0.000      0.000        0.0        0.3        0.3        0.0        0.0        0.0       0.00 -143508.86 -143508.86        0.0        0.6        0.6        0.0        0.0        0.0        0.0       42.9       42.9        0.0        0.0        0.0
5/4/2017            0        360          0          5         14          0          7         14          0          0          0          0         90        100         60        0.0        0.0        0.0       55.9       71.6       51.8      30.00      30.19      29.80       0.00       0.00       0.00       52.9       60.8       50.1      30.00      30.19      29.80          0          0          0          0          0          0        0.0        0.0        0.0       0.00       0.00       0.00          0          0          0          0          0          0        0.0        0.0        0.0       0.00       0.00       0.00       0.00       0.00       0.00       0.00       0.00       0.00       0.00       0.00       0.00      0.000      0.000      0.000        0.0        0.0        0.0        0.0        0.0        0.0       0.00       0.00       0.00        0.0        0.0        0.0        0.0        0.0        0.0        0.0        0.0        0.0        0.0        0.0        0.0
5/5/2017          270        310        200         10         19          4         13         19          5          0          0          0         77         94         58        0.0        0.0        0.0       52.2       55.4       46.4      29.97      30.12      29.81       0.00       0.00       0.00       44.9       51.9       37.5      29.97      30.12      29.81          0          0          0          0          0          0        0.0        0.0        0.0       0.00       0.00       0.00          0          0          0          0          0          0        0.0        0.0        0.0       0.00       0.00       0.00       0.00       0.00       0.00       0.00       0.00       0.00       0.00       0.00       0.00      0.000      0.000      0.000        0.0        0.4        0.4        0.0        0.0        0.0       0.00 -143772.91 -143772.91        0.0        1.0        1.0        0.0        0.0        0.0        0.0       43.3       43.3        0.0        0.0        0.0
5/6/2017          315        350          0          8         17          0         11         17          0          0          0          0         67         87         47        0.0        0.0        0.0       50.1       55.4       42.8      30.17      30.22      30.12       0.00       0.00       0.00       39.0       42.7       35.5      30.17      30.22      30.12          0          0          0          0          0          0        0.0        0.0        0.0       0.00       0.00       0.00          0          0          0          0          0          0        0.0        0.0        0.0       0.00       0.00       0.00       0.00       0.00       0.00       0.00       0.00       0.00       0.00       0.00       0.00      0.000      0.000      0.000        0.0        0.2        0.2        0.0        0.0        0.0       0.00 -143912.09 -143912.09        0.0        1.2        1.2        0.0        0.0        0.0        0.0       43.5       43.5        0.0        0.0        0.0
5/7/2017          338        340          0          9         23          0         12         23          0          0          0          0         67         87         47        0.0        0.0        0.0       51.2       57.2       42.8      30.23      30.26      30.22       0.00       0.00       0.00       40.2       42.9       35.5      30.23      30.26      30.22          0          0          0          0          0          0        0.0        0.0        0.0       0.00       0.00       0.00          0          0          0          0          0          0        0.0        0.0        0.0       0.00       0.00       0.00       0.00       0.00       0.00       0.00       0.00       0.00       0.00       0.00       0.00      0.000      0.000      0.000        0.0        0.2        0.2        0.0        0.0        0.0       0.00 -144055.38 -144055.38        0.0        1.4        1.4        0.0        0.0        0.0        0.0       43.7       43.7        0.0        0.0        0.0
5/8/2017          315        360          0          6         16          0          9         16          0          0          0          0         73         93         45        0.0        0.0        0.0       51.2       60.8       41.0      30.17      30.23      30.12       0.00       0.00       0.00       42.3       46.5       37.4      30.17      30.23      30.12          0          0          0          0          0          0        0.0        0.0        0.0       0.00       0.00       0.00          0          0          0          0          0          0        0.0        0.0        0.0       0.00       0.00       0.00       0.00       0.00       0.00       0.00       0.00       0.00       0.00       0.00       0.00      0.000      0.000      0.000        0.0        0.2        0.2        0.0        0.0        0.0       0.00 -144190.47 -144190.47        0.0        1.6        1.6        0.0        0.0        0.0        0.0       43.9       43.9        0.0        0.0        0.0
5/9/2017            0        340          0          6         16          0          8         16          0          0          0          0         73         93         52        0.0        0.0        0.0       52.3       62.6       39.2      30.06      30.11      30.00       0.00       0.00       0.00       43.5       48.1       37.4      30.06      30.11      30.00          0          0          0          0          0          0        0.0        0.0        0.0       0.00       0.00       0.00          0          0          0          0          0          0        0.0        0.0        0.0       0.00       0.00       0.00       0.00       0.00       0.00       0.00       0.00       0.00       0.00       0.00       0.00      0.000      0.000      0.000        0.0        0.0        0.0        0.0        0.0        0.0       0.00       0.00       0.00        0.0        0.0        0.0        0.0        0.0        0.0        0.0        0.0        0.0        0.0        0.0        0.0
5/10/2017         248        360          0          7         20          0         10         20          0          0          0          0         74         93         52        0.0        0.0        0.0       53.6       62.6       39.2      29.98      30.11      29.87       0.00       0.00       0.00       45.2       50.1       37.4      29.98      30.11      29.87          0          0          0          0          0          0        0.0        0.0        0.0       0.00       0.00       0.00          0          0          0          0          0          0        0.0        0.0        0.0       0.00       0.00       0.00       0.00       0.00       0.00       0.00       0.00       0.00       0.00       0.00       0.00      0.000      0.000      0.000        0.0        0.0        0.0        0.0        0.0        0.0       0.00       0.00       0.00        0.0        0.0        0.0        0.0        0.0        0.0        0.0        0.0        0.0        0.0        0.0        0.0
5/11/2017         180        230          0          9         17          0         13         17          0          0          0          0         83         94         62        0.0        0.0        0.0       51.1       55.4       44.6      29.91      29.98      29.83       0.02       0.02      -0.00       46.0       51.9       39.1      29.91      29.98      29.83          0          0          0          0          0          0        0.0        0.0        0.0       0.00       0.00       0.00          0          0          0          0          0          0        0.0        0.0        0.0       0.00       0.00       0.00       0.00       0.00       0.00       0.00       0.00       0.00       0.00       0.00       0.00      0.000      0.000      0.000        0.0        0.3        0.3        0.0        0.0        0.0       0.00 -144573.23 -144573.23        0.0        2.1        2.1        0.0        0.0        0.0        0.0       44.4       44.4        0.0        0.0        0.0
5/12/2017         158        250          0          8         17          0         12         17          0          0          0          0         85         93         71        0.0        0.0        0.0       46.2       51.8       44.6      29.95      29.98      29.93       0.03       0.00       0.00       41.8       44.5       39.1      29.95      29.98      29.93          0          0          0          0          0          0        0.0        0.0        0.0       0.00       0.00       0.00          0          0          0          0          0          0        0.0        0.0        0.0       0.00       0.00       0.00       0.00       0.07       0.07       0.00       0.01       0.01       0.00       0.02       0.02      0.000      0.000      0.000        0.0        0.2        0.2        0.0        0.0        0.0       0.00 -144704.23 -144704.23        0.0        2.4        2.4        0.0        0.0        0.0        0.0       44.7       44.7        0.0        0.0        0.0
5/13/2017         158        270          0          7         17          0          9         17          0          0          0          0         82         93         62        0.0        0.0        0.0       48.4       55.4       44.6      29.98      30.02      29.95       0.01       0.00       0.00       42.9       44.7       40.9      29.98      30.02      29.95          0          0          0          0          0          0        0.0        0.0        0.0       0.00       0.00       0.00          0          0          0          0          0          0        0.0        0.0        0.0       0.00       0.00       0.00       0.00       0.00       0.00       0.00       0.00       0.00       0.00       0.00       0.00      0.000      0.000      0.000        0.0        0.3        0.3        0.0        0.0        0.0       0.00 -144831.14 -144831.14        0.0        2.7        2.7        0.0        0.0        0.0        0.0       45.0       45.0        0.0        0.0        0.0
5/14/2017         270        360          0          7         17          0         10         17          0          0          0          0         80         93         62        0.0        0.0        0.0       49.7       55.4       44.6      30.01      30.06      29.95       0.01       0.01      -0.00       43.4       44.7       40.9      30.01      30.06      29.95          0          0          0          0          0          0        0.0        0.0        0.0       0.00       0.00       0.00          0          0          0          0          0          0        0.0        0.0        0.0       0.00       0.00       0.00       0.00       0.00       0.00       0.00       0.00       0.00       0.00       0.00       0.00      0.000      0.000      0.000        0.0        0.3        0.3        0.0        0.0        0.0       0.00 -144831.14 -144831.14        0.0        2.7        2.7        0.0        0.0        0.0        0.0       45.0       45.0        0.0        0.0        0.0
5/15/2017         202        240          0          7         17          0         10         17          0          0          0          0         86         94         71        0.0        0.0        0.0       48.8       51.8       44.6      29.93      30.05      29.72       0.02       0.00       0.00       44.8       48.3       42.7      29.93      30.05      29.72          0          0          0          0          0          0        0.0        0.0        0.0       0.00       0.00       0.00          0          0          0          0          0          0        0.0        0.0        0.0       0.00       0.00       0.00       0.00       0.00       0.00       0.00       0.01       0.01       0.00       0.01       0.01      0.000      0.000      0.000        0.0        0.6        0.6        0.0        0.0        0.0       0.00 -145105.42 -145105.42        0.0        3.3        3.3        0.0        0.0        0.0        0.0       45.6       45.6        0.0        0.0        0.0
5/16/2017           0        300        240         11         20          6         15         20          7          0          0          0         89         93         71        0.0        0.0        0.0       47.9       50.0       46.4      29.70      29.72      29.68       0.01       0.00       0.00       44.7       46.3       39.3      29.70      29.72      29.68          0          0          0          0          0          0        0.0        0.0        0.0       0.00       0.00       0.00          0          0          0          0          0          0        0.0        0.0        0.0       0.00       0.00       0.00       0.00       0.00       0.00       0.00       0.00       0.00       0.00       0.00       0.00      0.000      0.000      0.000        0.0        0.0        0.0        0.0        0.0        0.0       0.00       0.00       0.00        0.0        0.0        0.0        0.0        0.0        0.0        0.0        0.0        0.0        0.0        0.0        0.0
5/17/2017         270        300          0          8         20          0         12         20          0          0          0          0         79         93         63        0.0        0.0        0.0       51.4       57.2       46.4      30.00      30.21      29.68       0.00       0.00       0.00       45.0       46.6       39.3      30.00      30.21      29.68          0          0          0          0          0          0        0.0        0.0        0.0       0.00       0.00       0.00          0          0          0          0          0          0        0.0        0.0        0.0       0.00       0.00       0.00       0.00       0.00       0.00       0.00       0.00       0.00       0.00       0.00       0.00      0.000      0.000      0.000        0.0        0.0        0.0        0.0        0.0        0.0       0.00       0.00       0.00        0.0        0.0        0.0        0.0        0.0        0.0        0.0        0.0        0.0        0.0        0.0        0.0
5/18/2017           0        360          0          4         12          0          6         12          0          0          0          0         75         93         55        0.0        0.0        0.0       52.9       60.8       44.6      30.15      30.20      30.10       0.00       0.00       0.00       44.9       46.6       41.0      30.15      30.20      30.10          0          0          0          0          0          0        0.0        0.0        0.0       0.00       0.00       0.00          0          0          0          0          0          0        0.0        0.0        0.0       0.00       0.00       0.00       0.00       0.00       0.00       0.00       0.00       0.00       0.00       0.00       0.00      0.000      0.000      0.000        0.0        0.3        0.3        0.0        0.0        0.0       0.00 -145371.52 -145371.52        0.0        3.8        3.8        0.0        0.0        0.0        0.0       46.1       46.1        0.0        0.0        0.0
5/19/2017         270        330          0          4         12          0          6         12          0          0          0          0         76         94         52        0.0        0.0        0.0       56.2       64.4       51.8      30.13      30.15      30.11       0.00       0.00       0.00       48.4       51.9       46.2      30.13      30.15      30.11          0          0          0          0          0          0        0.0        0.0        0.0       0.00       0.00       0.00          0          0          0          0          0          0        0.0        0.0        0.0       0.00       0.00       0.00       0.00       0.00       0.00       0.00       0.00       0.00       0.00       0.00       0.00      0.000      0.000      0.000        0.0        0.2        0.2        0.0        0.0        0.0       0.00 -145506.61 -145506.61        0.0        4.0        4.0        0.0        0.0        0.0        0.0       46.3       46.3        0.0        0.0        0.0
5/20/2017         292        340        230          8         17          3         10         17          4          0          0          0         84         94         68        0.0        0.0        0.0       55.6       62.6       51.8      30.19      30.22      30.15       0.00       0.00       0.00       50.8       53.7       48.1      30.19      30.22      30.15          0          0          0          0          0          0        0.0        0.0        0.0       0.00       0.00       0.00          0          0          0          0          0          0        0.0        0.0        0.0       0.00       0.00       0.00       0.00       0.01       0.01       0.00       0.00       0.00       0.00       0.00       0.00      0.000      0.000      0.000        0.0        0.1        0.1        0.0        0.0        0.0       0.00 -145635.56 -145635.56        0.0        4.1        4.1        0.0        0.0        0.0        0.0       46.4       46.4        0.0        0.0        0.0
5/21/2017         292        360          0          7         23          0         10         23          0          0          0          0         83        100         56        0.0        0.0        0.0       56.6       73.4       50.0      30.19      30.22      30.11       0.00       0.00       0.00       51.1       57.3       48.1      30.19      30.22      30.11          0          0          0          0          0          0        0.0        0.0        0.0       0.00       0.00       0.00          0          0          0          0          0          0        0.0        0.0        0.0       0.00       0.00       0.00       0.00       0.01       0.01       0.00       0.00       0.00       0.00       0.00       0.00      0.000      0.000      0.000        0.0        0.1        0.1        0.0        0.0        0.0       0.00 -145635.56 -145635.56        0.0        4.1        4.1        0.0        0.0        0.0        0.0       46.4       46.4        0.0        0.0        0.0
5/22/2017         315        340          0          7         25          0         10         25          0          0          0          0         67         93         37        0.0        0.0        0.0       63.4       82.4       48.2      30.07      30.13      30.02       0.00       0.00       0.00       51.2       55.3       46.3      30.07      30.13      30.02          0          0          0          0          0          0        0.0        0.0        0.0       0.00       0.00       0.00          0          0          0          0          0          0        0.0        0.0        0.0       0.00       0.00       0.00       0.00       0.00       0.00       0.00       0.00       0.00       0.00       0.00       0.00      0.000      0.000      0.000        0.0        0.3        0.3        0.0        0.0        0.0       0.00 -145905.75 -145905.75        0.0        4.4        4.4        0.0        0.1        0.1        0.0       46.7       46.7        0.0        0.1        0.1
5/23/2017         315        330        250         13         24          3         17         24          4          0          0          0         80         94         62        0.0        0.0        0.0       55.9       60.8       51.8      30.11      30.17      30.04       0.00       0.00       0.00       49.7       53.7       40.8      30.11      30.17      30.04          0          0          0          0          0          0        0.0        0.0        0.0       0.00       0.00       0.00          0          0          0          0          0          0        0.0        0.0        0.0       0.00       0.00       0.00       0.00       0.00       0.00       0.00       0.00       0.00       0.00       0.00       0.00      0.000      0.000      0.000        0.0        0.1        0.1        0.0        0.1        0.1       0.00 -146044.94 -146044.94        0.0        4.5        4.5        0.0        0.1        0.1        0.0       46.8       46.8        0.0        0.1        0.1
5/24/2017         315        330          0         11         23          0         15         23          0          0          0          0         69         87         62        0.0        0.0        0.0       53.5       57.2       48.2      30.07      30.16      29.96       0.00       0.00       0.00       43.6       46.6       39.1      30.07      30.16      29.96          0          0          0          0          0          0        0.0        0.0        0.0       0.00       0.00       0.00          0          0          0          0          0          0        0.0        0.0        0.0       0.00       0.00       0.00       0.00       0.00       0.00       0.00       0.00       0.00       0.00       0.00       0.00      0.000      0.000      0.000        0.0        0.2        0.2        0.0        0.0        0.0       0.00 -146175.94 -146175.94        0.0        4.6        4.6        0.0        0.1        0.1        0.0       46.9       46.9        0.0        0.1        0.1
5/25/2017         292        350          0          6         17          0          8         17          0          0          0          0         75         93         59        0.0        0.0        0.0       53.4       60.8       42.8      29.90      29.95      29.86       0.00       0.00       0.00       45.5       48.1       39.2      29.90      29.95      29.86          0          0          0          0          0          0        0.0        0.0        0.0       0.00       0.00       0.00          0          0          0          0          0          0        0.0        0.0        0.0       0.00       0.00       0.00       0.00       0.00       0.00       0.00       0.00       0.00       0.00       0.00       0.00      0.000      0.000      0.000        0.0        0.2        0.2        0.0        0.0        0.0       0.00 -146302.84 -146302.84        0.0        4.8        4.8        0.0        0.1        0.1        0.0       47.1       47.1        0.0        0.1        0.1
5/26/2017         315        360          0          6         17          0          8         17          0          0          0          0         74         94         46        0.0        0.0        0.0       55.3       69.8       42.8      29.93      30.02      29.86       0.00       0.00       0.00       46.7       53.7       39.2      29.93      30.02      29.86          0          0          0          0          0          0        0.0        0.0        0.0       0.00       0.00       0.00          0          0          0          0          0          0        0.0        0.0        0.0       0.00       0.00       0.00       0.00       0.00       0.00       0.00       0.00       0.00       0.00       0.00       0.00      0.000      0.000      0.000        0.0        0.2        0.2        0.0        0.0        0.0       0.00 -146302.84 -146302.84        0.0        4.8        4.8        0.0        0.1        0.1        0.0       47.1       47.1        0.0        0.1        0.1
5/27/2017         270        360          0          6         17          0          8         17          0          0          0          0         80        100         46        0.0        0.0        0.0       54.7       69.8       42.8      29.98      30.12      29.86       0.00       0.00       0.00       48.1       53.7       39.2      29.98      30.12      29.86          0          0          0          0          0          0        0.0        0.0        0.0       0.00       0.00       0.00          0          0          0          0          0          0        0.0        0.0        0.0       0.00       0.00       0.00       0.00       0.00       0.00       0.00       0.00       0.00       0.00       0.00       0.00      0.000      0.000      0.000        0.0        0.2        0.2        0.0        0.0        0.0       0.00 -146302.84 -146302.84        0.0        4.8        4.8        0.0        0.1        0.1        0.0       47.1       47.1        0.0        0.1        0.1
5/28/2017         270        280          0          4         12          0          6         12          0          0          0          0         81         87         72        0.0        0.0        0.0       53.9       57.2       51.8      30.13      30.15      30.11       0.00       0.00       0.00       48.3       50.1       48.1      30.13      30.15      30.11          0          0          0          0          0          0        0.0        0.0        0.0       0.00       0.00       0.00          0          0          0          0          0          0        0.0        0.0        0.0       0.00       0.00       0.00       0.00       0.00       0.00       0.00       0.00       0.00       0.00       0.00       0.00      0.000      0.000      0.000        0.0        0.5        0.5        0.0        0.0        0.0       0.00 -146722.45 -146722.45        0.0        5.3        5.3        0.0        0.2        0.2        0.0       47.6       47.6        0.0        0.2        0.2
5/29/2017         338        340          0          4         12          0          7         12          0          0          0          0         81         87         72        0.0        0.0        0.0       53.9       57.2       51.8      30.06      30.12      30.01       0.00       0.00       0.00       48.3       50.1       48.1      30.06      30.12      30.01          0          0          0          0          0          0        0.0        0.0        0.0       0.00       0.00       0.00          0          0          0          0          0          0        0.0        0.0        0.0       0.00       0.00       0.00       0.00       0.00       0.00       0.00       0.00       0.00       0.00       0.00       0.00      0.000      0.000      0.000        0.0        0.2        0.2        0.0        0.0        0.0       0.00 -146865.73 -146865.73        0.0        5.5        5.5        0.0        0.2        0.2        0.0       47.8       47.8        0.0        0.2        0.2
5/30/2017         248        340          0          4         11          0          6         11          0          0          0          0         82         94         67        0.0        0.0        0.0       54.0       57.2       51.8      30.00      30.03      29.97       0.00       0.00       0.00       48.4       50.1       46.4      30.00      30.03      29.97          0          0          0          0          0          0        0.0        0.0        0.0       0.00       0.00       0.00          0          0          0          0          0          0        0.0        0.0        0.0       0.00       0.00       0.00       0.00       0.00       0.00       0.00       0.00       0.00       0.00       0.00       0.00      0.000      0.000      0.000        0.0        0.2        0.2        0.0        0.0        0.0       0.00 -147009.02 -147009.02        0.0        5.7        5.7        0.0        0.2        0.2        0.0       47.9       47.9        0.0        0.2        0.2
5/31/2017         225        250          0          6         17          0          9         17          0          0          0          0         82         94         67        0.0        0.0        0.0       55.9       60.8       48.2      29.89      29.96      29.87       0.00       0.00       0.00       50.3       53.7       46.3      29.89      29.96      29.87          0          0          0          0          0          0        0.0        0.0        0.0       0.00       0.00       0.00          0          0          0          0          0          0        0.0        0.0        0.0       0.00       0.00       0.00       0.00       0.00       0.00       0.00       0.00       0.00       0.00       0.00       0.00      0.000      0.000      0.000        0.0        0.2        0.2        0.0        0.0        0.0       0.00 -147150.25 -147150.25        0.0        5.8        5.8        0.0        0.2        0.2        0.0       48.1       48.1        0.0        0.2        0.2
6/1/2017          180        270        170          7         17          4         10         17          5          0          0          0         86        100         67        0.0        0.0        0.0       55.9       59.0       53.6      29.95      30.02      29.87       0.00       0.00       0.00       51.6       53.7       46.5      29.95      30.02      29.87          0          0          0          0          0          0        0.0        0.0        0.0       0.00       0.00       0.00          0          0          0          0          0          0        0.0        0.0        0.0       0.00       0.00       0.00       0.00       0.00       0.00       0.00       0.00       0.00       0.00       0.00       0.00      0.000      0.000      0.000        0.0        0.1        0.1        0.0        0.0        0.0       0.00 -147283.30 -147283.30        0.0        5.9        5.9        0.0        0.2        0.2        0.0       48.2       48.2        0.0        0.2        0.2
6/2/2017          248        320          0          6         22          0          8         22          0          0          0          0         74         82         63        0.0        0.0        0.0       57.6       62.6       53.6      30.06      30.11      30.01       0.00       0.00       0.00       49.2       51.9       46.5      30.06      30.11      30.01          0          0          0          0          0          0        0.0        0.0        0.0       0.00       0.00       0.00          0          0          0          0          0          0        0.0        0.0        0.0       0.00       0.00       0.00       0.00       0.00       0.00       0.00       0.00       0.00       0.00       0.00       0.00      0.000      0.000      0.000        0.0        0.0        0.0        0.0        0.0        0.0       0.00       0.00       0.00        0.0        0.0        0.0        0.0        0.0        0.0        0.0        0.0        0.0        0.0        0.0        0.0
6/3/2017          315        340          0          8         19          3         11         19          4          0          0          0         66         77         51        0.0        0.0        0.0       56.4       60.8       51.8      30.08      30.10      30.04       0.00       0.00       0.00       45.0       48.3       42.6      30.08      30.10      30.04          0          0          0          0          0          0        0.0        0.0        0.0       0.00       0.00       0.00          0          0          0          0          0          0        0.0        0.0        0.0       0.00       0.00       0.00       0.00       0.00       0.00       0.00       0.00       0.00       0.00       0.00       0.00      0.000      0.000      0.000        0.0        0.1        0.1        0.0        0.0        0.0       0.00 -147553.48 -147553.48        0.0        0.3        0.3        0.0        0.0        0.0        0.0       48.5       48.5        0.0        0.2        0.2
6/4/2017          315        340          0          7         17          0          9         17          0          0          0          0         68         93         45        0.0        0.0        0.0       53.7       60.8       44.6      30.15      30.22      30.08       0.00       0.00       0.00       42.6       44.5       39.3      30.15      30.22      30.08          0          0          0          0          0          0        0.0        0.0        0.0       0.00       0.00       0.00          0          0          0          0          0          0        0.0        0.0        0.0       0.00       0.00       0.00       0.00       0.00       0.00       0.00       0.00       0.00       0.00       0.00       0.00      0.000      0.000      0.000        0.0        0.1        0.1        0.0        0.0        0.0       0.00 -147692.67 -147692.67        0.0        0.4        0.4        0.0        0.0        0.0        0.0       48.7       48.7        0.0        0.2        0.2
6/5/2017          338        360          0          7         20          0         10         20          0          0          0          0         71         87         49        0.0        0.0        0.0       54.9       64.4       42.8      30.12      30.21      30.03       0.00       0.00       0.00       45.2       50.2       37.4      30.12      30.21      30.03          0          0          0          0          0          0        0.0        0.0        0.0       0.00       0.00       0.00          0          0          0          0          0          0        0.0        0.0        0.0       0.00       0.00       0.00       0.00       0.00       0.00       0.00       0.00       0.00       0.00       0.00       0.00      0.000      0.000      0.000        0.0        0.0        0.0        0.0        0.0        0.0       0.00       0.00       0.00        0.0        0.0        0.0        0.0        0.0        0.0        0.0        0.0        0.0        0.0        0.0        0.0
6/6/2017          248        270          0          5         17          0          8         17          0          0          0          0         79         93         64        0.0        0.0        0.0       56.7       64.4       46.4      29.97      30.02      29.93       0.00       0.00       0.00       50.1       53.6       44.5      29.97      30.02      29.93          0          0          0          0          0          0        0.0        0.0        0.0       0.00       0.00       0.00          0          0          0          0          0          0        0.0        0.0        0.0       0.00       0.00       0.00       0.00       0.00       0.00       0.00       0.00       0.00       0.00       0.00       0.00      0.000      0.000      0.000        0.0        0.1        0.1        0.0        0.0        0.0       0.00 -147973.09 -147973.09        0.0        0.7        0.7        0.0        0.0        0.0        0.0       49.0       49.0        0.0        0.2        0.2
6/7/2017          225        240          0          5         16          0          8         16          0          0          0          0         78         94         45        0.0        0.0        0.0       56.4       62.6       48.2      29.80      29.94      29.71       0.00       0.01      -0.00       49.3       51.9       39.3      29.80      29.94      29.71          0          0          0          0          0          0        0.0        0.0        0.0       0.00       0.00       0.00          0          0          0          0          0          0        0.0        0.0        0.0       0.00       0.00       0.00       0.00       0.00       0.00       0.00       0.00       0.00       0.00       0.00       0.00      0.000      0.000      0.000        0.0        0.1        0.1        0.0        0.0        0.0       0.00 -148112.28 -148112.28        0.0        0.9        0.9        0.0        0.0        0.0        0.0       49.1       49.1        0.0        0.2        0.2
6/8/2017          180        270          0          8         17          0         11         17          0          0          0          0         83         94         63        0.0        0.0        0.0       54.7       57.2       51.8      29.80      29.95      29.64       0.00       0.00       0.00       49.5       51.9       44.6      29.80      29.95      29.64          0          0          0          0          0          0        0.0        0.0        0.0       0.00       0.00       0.00          0          0          0          0          0          0        0.0        0.0        0.0       0.00       0.00       0.00       0.00       0.00       0.00       0.00       0.00       0.00       0.00       0.01       0.01      0.000      0.000      0.000        0.0        0.1        0.1        0.0        0.0        0.0       0.00 -148251.47 -148251.47        0.0        1.0        1.0        0.0        0.0        0.0        0.0       49.2       49.2        0.0        0.2        0.2
6/9/2017          158        280          0          7         20          0         10         20          0          0          0          0         79         93         59        0.0        0.0        0.0       53.3       59.0       48.2      29.87      29.93      29.85       0.01       0.00       0.00       46.6       48.3       44.7      29.87      29.93      29.85          0          0          0          0          0          0        0.0        0.0        0.0       0.00       0.00       0.00          0          0          0          0          0          0        0.0        0.0        0.0       0.00       0.00       0.00       0.00       0.00       0.00       0.00       0.00       0.00       0.00       0.00       0.00      0.000      0.000      0.000        0.0        0.2        0.2        0.0        0.0        0.0       0.00 -148392.70 -148392.70        0.0        1.2        1.2        0.0        0.0        0.0        0.0       49.4       49.4        0.0        0.2        0.2
6/10/2017         270        330          0          5         13          0          7         13          0          0          0          0         79         93         63        0.0        0.0        0.0       52.7       57.2       46.4      29.89      29.99      29.83       0.00       0.00       0.00       46.3       48.3       44.5      29.89      29.99      29.83          0          0          0          0          0          0        0.0        0.0        0.0       0.00       0.00       0.00          0          0          0          0          0          0        0.0        0.0        0.0       0.00       0.00       0.00       0.00       0.00       0.00       0.00       0.00       0.00       0.00       0.00       0.00      0.000      0.000      0.000        0.0        0.2        0.2        0.0        0.0        0.0       0.00 -148529.84 -148529.84        0.0        1.4        1.4        0.0        0.0        0.0        0.0       49.6       49.6        0.0        0.2        0.2
6/11/2017         315        340          0          7         19          0          9         19          0          0          0          0         75         93         52        0.0        0.0        0.0       55.1       62.6       46.4      30.04      30.06      30.00       0.00       0.00       0.00       46.6       50.0       44.5      30.04      30.06      30.00          0          0          0          0          0          0        0.0        0.0        0.0       0.00       0.00       0.00          0          0          0          0          0          0        0.0        0.0        0.0       0.00       0.00       0.00       0.00       0.00       0.00       0.00       0.00       0.00       0.00       0.00       0.00      0.000      0.000      0.000        0.0        0.2        0.2        0.0        0.0        0.0       0.00 -148654.70 -148654.70        0.0        1.6        1.6        0.0        0.0        0.0        0.0       49.8       49.8        0.0        0.2        0.2
6/12/2017         292        310          0          7         17          0         10         17          0          0          0          0         76         88         63        0.0        0.0        0.0       55.2       57.2       53.6      30.09      30.16      30.03       0.00       0.00       0.00       47.6       50.1       44.7      30.09      30.16      30.03          0          0          0          0          0          0        0.0        0.0        0.0       0.00       0.00       0.00          0          0          0          0          0          0        0.0        0.0        0.0       0.00       0.00       0.00       0.00       0.00       0.00       0.00       0.00       0.00       0.00       0.00       0.00      0.000      0.000      0.000        0.0        0.2        0.2        0.0        0.0        0.0       0.00 -148771.38 -148771.38        0.0        1.7        1.7        0.0        0.0        0.0        0.0       50.0       50.0        0.0        0.2        0.2
6/13/2017         270        310        160          7         12          3          9         12          4          0          0          0         71         87         55        0.0        0.0        0.0       55.3       60.8       51.8      30.15      30.17      30.13       0.00       0.00       0.00       46.0       48.2       42.6      30.15      30.17      30.13          0          0          0          0          0          0        0.0        0.0        0.0       0.00       0.00       0.00          0          0          0          0          0          0        0.0        0.0        0.0       0.00       0.00       0.00       0.00       0.01       0.01       0.00       0.00       0.00       0.00       0.00       0.00      0.000      0.000      0.000        0.0        0.2        0.2        0.0        0.0        0.0       0.00 -148902.38 -148902.38        0.0        1.9        1.9        0.0        0.0        0.0        0.0       50.1       50.1        0.0        0.2        0.2
6/14/2017           0        240          0          6         17          0          8         17          0          0          0          0         73         87         55        0.0        0.0        0.0       55.3       62.6       51.8      30.10      30.12      30.08       0.00       0.00       0.00       46.4       48.2       44.5      30.10      30.12      30.08          0          0          0          0          0          0        0.0        0.0        0.0       0.00       0.00       0.00          0          0          0          0          0          0        0.0        0.0        0.0       0.00       0.00       0.00       0.00       0.00       0.00       0.00       0.00       0.00       0.00       0.00       0.00      0.000      0.000      0.000        0.0        0.0        0.0        0.0        0.0        0.0       0.00       0.00       0.00        0.0        0.0        0.0        0.0        0.0        0.0        0.0        0.0        0.0        0.0        0.0        0.0
6/15/2017         135        250          0         12         29          0         16         29          0          0          0          0         83         94         55        0.0        0.0        0.0       56.6       62.6       51.8      29.96      30.12      29.82       0.01       0.04      -0.00       51.3       55.5       44.5      29.96      30.12      29.82          0          0          0          0          0          0        0.0        0.0        0.0       0.00       0.00       0.00          0          0          0          0          0          0        0.0        0.0        0.0       0.00       0.00       0.00       0.00       0.00       0.00       0.00       0.00       0.00       0.00       0.00       0.00      0.000      0.000      0.000        0.0        0.0        0.0        0.0        0.0        0.0       0.00       0.00       0.00        0.0        0.0        0.0        0.0        0.0        0.0        0.0        0.0        0.0        0.0        0.0        0.0
6/16/2017         270        350          0          6         13          0          8         13          0          0          0          0         81         94         63        0.0        0.0        0.0       56.7       60.8       53.6      30.08      30.16      29.99       0.00       0.00       0.00       50.8       53.7       46.5      30.08      30.16      29.99          0          0          0          0          0          0        0.0        0.0        0.0       0.00       0.00       0.00          0          0          0          0          0          0        0.0        0.0        0.0       0.00       0.00       0.00       0.00       0.02       0.02       0.00       0.01       0.01       0.00       0.03       0.03      0.000      0.000      0.000        0.0        0.2        0.2        0.0        0.0        0.0       0.00 -149225.78 -149225.78        0.0        2.2        2.2        0.0        0.0        0.0        0.0       50.5       50.5        0.0        0.2        0.2
6/17/2017         270        360          0          6         13          0          8         13          0          0          0          0         80         94         59        0.0        0.0        0.0       56.7       60.8       50.0      30.12      30.18      29.99       0.00       0.01      -0.00       50.2       53.7       44.6      30.12      30.18      29.99          0          0          0          0          0          0        0.0        0.0        0.0       0.00       0.00       0.00          0          0          0          0          0          0        0.0        0.0        0.0       0.00       0.00       0.00       0.00       0.02       0.02       0.00       0.01       0.01       0.00       0.03       0.03      0.000      0.000      0.000        0.0        0.2        0.2        0.0        0.0        0.0       0.00 -149225.78 -149225.78        0.0        2.2        2.2        0.0        0.0        0.0        0.0       50.5       50.5        0.0        0.2        0.2
6/18/2017          90        340          0          3         10          0          5         10          0          0          0          0         86        100         68        0.0        0.0        0.0       60.7       68.0       55.4      30.13      30.17      30.07       0.00       0.00       0.00       56.4       59.1       53.7      30.13      30.17      30.07          0          0          0          0          0          0        0.0        0.0        0.0       0.00       0.00       0.00          0          0          0          0          0          0        0.0        0.0        0.0       0.00       0.00       0.00       0.00       0.00       0.00       0.00       0.01       0.01       0.00       0.01       0.01      0.000      0.000      0.000        0.0        0.3        0.3        0.0        0.0        0.0       0.00 -149479.59 -149479.59        0.0        2.5        2.5        0.0        0.0        0.0        0.0       50.7       50.7        0.0        0.2        0.2
6/19/2017         270        350          0          5         19          0          7         19          0          0          0          0         86        100         65        0.0        0.0        0.0       61.9       73.4       55.4      30.07      30.17      29.98       0.00       0.00       0.00       57.4       62.5       53.7      30.07      30.17      29.98          0          0          0          0          0          0        0.0        0.0        0.0       0.00       0.00       0.00          0          0          0          0          0          0        0.0        0.0        0.0       0.00       0.00       0.00       0.00       0.00       0.00       0.00       0.01       0.01       0.00       0.01       0.01      0.000      0.000      0.000        0.0        0.3        0.3        0.0        0.0        0.0       0.00 -149479.59 -149479.59        0.0        2.5        2.5        0.0        0.0        0.0        0.0       50.7       50.7        0.0        0.2        0.2
6/20/2017         338        340        200         10         23          3         13         23          4          0          0          0         83        100         63        0.0        0.0        0.0       59.1       62.6       55.4      30.17      30.29      30.07       0.00       0.00       0.00       53.7       59.0       44.6      30.17      30.29      30.07          0          0          0          0          0          0        0.0        0.0        0.0       0.00       0.00       0.00          0          0          0          0          0          0        0.0        0.0        0.0       0.00       0.00       0.00       0.00       0.00       0.00       0.00       0.00       0.00       0.00       0.00       0.00      0.000      0.000      0.000        0.0        0.1        0.1        0.0        0.1        0.1       0.00 -149733.41 -149733.41        0.0        2.6        2.6        0.0        0.1        0.1        0.0       50.9       50.9        0.0        0.2        0.2
6/21/2017         338        350        320         12         22          8         16         22         10          0          0          0         66         77         55        0.0        0.0        0.0       58.1       64.4       55.4      30.31      30.34      30.29       0.00       0.00       0.00       46.8       48.4       44.7      30.31      30.34      30.29          0          0          0          0          0          0        0.0        0.0        0.0       0.00       0.00       0.00          0          0          0          0          0          0        0.0        0.0        0.0       0.00       0.00       0.00       0.00       0.00       0.00       0.00       0.00       0.00       0.00       0.00       0.00      0.000      0.000      0.000        0.0        0.1        0.1        0.0        0.0        0.0       0.00 -149845.98 -149845.98        0.0        2.7        2.7        0.0        0.1        0.1        0.0       51.0       51.0        0.0        0.2        0.2
6/22/2017         315        340          0          9         28          0         13         28          0          0          0          0         74         93         56        0.0        0.0        0.0       58.7       69.8       46.4      30.25      30.29      30.20       0.00       0.00       0.00       49.8       53.7       42.7      30.25      30.29      30.20          0          0          0          0          0          0        0.0        0.0        0.0       0.00       0.00       0.00          0          0          0          0          0          0        0.0        0.0        0.0       0.00       0.00       0.00       0.00       0.00       0.00       0.00       0.00       0.00       0.00       0.00       0.00      0.000      0.000      0.000        0.0        0.1        0.1        0.0        0.0        0.0       0.00 -149989.27 -149989.27        0.0        2.8        2.8        0.0        0.1        0.1        0.0       51.1       51.1        0.0        0.2        0.2
6/23/2017         315        350          0          7         20          0         11         20          0          0          0          0         64         87         36        0.0        0.0        0.0       64.5       78.8       50.0      30.13      30.21      30.06       0.00       0.00       0.00       50.7       55.3       46.3      30.13      30.21      30.06          0          0          0          0          0          0        0.0        0.0        0.0       0.00       0.00       0.00          0          0          0          0          0          0        0.0        0.0        0.0       0.00       0.00       0.00       0.00       0.00       0.00       0.00       0.00       0.00       0.00       0.00       0.00      0.000      0.000      0.000        0.0        0.1        0.1        0.0        0.0        0.0       0.00 -150120.27 -150120.27        0.0        2.9        2.9        0.0        0.1        0.1        0.0       51.2       51.2        0.0        0.3        0.3
6/24/2017          90        340          0          9         19          0         12         19          0          0          0          0         49         82         26        0.0        0.0        0.0       75.2       91.4       55.4      29.99      30.07      29.89       0.00       0.00       0.00       52.9       60.8       47.9      29.99      30.07      29.89          0          0          0          0          0          0        0.0        0.0        0.0       0.00       0.00       0.00          0          0          0          0          0          0        0.0        0.0        0.0       0.00       0.00       0.00       0.00       0.00       0.00       0.00       0.00       0.00       0.00       0.00       0.00      0.000      0.000      0.000        0.0        0.1        0.1        0.0        0.1        0.1       0.00 -150245.12 -150245.12        0.0        3.0        3.0        0.0        0.2        0.2        0.0       51.2       51.2        0.0        0.4        0.4
6/25/2017         248        260          0          9         17          0         12         17          0          0          0          0         84         94         68        0.0        0.0        0.0       59.4       66.2       55.4      29.93      29.99      29.88       0.00       0.00       0.00       54.3       57.4       51.8      29.93      29.99      29.88          0          0          0          0          0          0        0.0        0.0        0.0       0.00       0.00       0.00          0          0          0          0          0          0        0.0        0.0        0.0       0.00       0.00       0.00       0.00       0.00       0.00       0.00       0.00       0.00       0.00       0.00       0.00      0.000      0.000      0.000        0.0        0.0        0.0        0.0        0.2        0.2       0.00 -150378.17 -150378.17        0.0        3.0        3.0        0.0        0.4        0.4        0.0       51.3       51.3        0.0        0.6        0.6
6/26/2017         292        340        150          7         16          3          9         16          4          0          0          0         80         94         64        0.0        0.0        0.0       58.7       64.4       55.4      30.02      30.06      29.97       0.00       0.00       0.00       52.4       55.5       48.3      30.02      30.06      29.97          0          0          0          0          0          0        0.0        0.0        0.0       0.00       0.00       0.00          0          0          0          0          0          0        0.0        0.0        0.0       0.00       0.00       0.00       0.00       0.00       0.00       0.00       0.00       0.00       0.00       0.00       0.00      0.000      0.000      0.000        0.0        0.1        0.1        0.0        0.0        0.0       0.00 -150503.03 -150503.03        0.0        3.1        3.1        0.0        0.4        0.4        0.0       51.3       51.3        0.0        0.6        0.6
6/27/2017         270        300          0          5         14          0          8         14          0          0          0          0         67         82         56        0.0        0.0        0.0       59.8       64.4       55.4      30.05      30.07      30.02       0.00       0.00       0.00       48.8       51.9       46.4      30.05      30.07      30.02          0          0          0          0          0          0        0.0        0.0        0.0       0.00       0.00       0.00          0          0          0          0          0          0        0.0        0.0        0.0       0.00       0.00       0.00       0.00       0.00       0.00       0.00       0.00       0.00       0.00       0.00       0.00      0.000      0.000      0.000        0.0        0.1        0.1        0.0        0.0        0.0       0.00 -150629.94 -150629.94        0.0        3.2        3.2        0.0        0.4        0.4        0.0       51.4       51.4        0.0        0.6        0.6
6/28/2017         270        320        230          7         14          3          9         14          4          0          0          0         74         88         63        0.0        0.0        0.0       58.8       62.6       55.4      30.07      30.11      30.02       0.00       0.00       0.00       50.4       51.9       48.3      30.07      30.11      30.02          0          0          0          0          0          0        0.0        0.0        0.0       0.00       0.00       0.00          0          0          0          0          0          0        0.0        0.0        0.0       0.00       0.00       0.00       0.00       0.00       0.00       0.00       0.00       0.00       0.00       0.00       0.00      0.000      0.000      0.000        0.0        0.1        0.1        0.0        0.0        0.0       0.00 -150765.03 -150765.03        0.0        3.2        3.2        0.0        0.4        0.4        0.0       51.5       51.5        0.0        0.6        0.6
6/29/2017         315        350          0          8         19          0         11         19          0          0          0          0         73         94         63        0.0        0.0        0.0       60.0       66.2       55.4      30.13      30.16      30.10       0.00       0.00       0.00       51.1       53.7       48.1      30.13      30.16      30.10          0          0          0          0          0          0        0.0        0.0        0.0       0.00       0.00       0.00          0          0          0          0          0          0        0.0        0.0        0.0       0.00       0.00       0.00       0.00       0.00       0.00       0.00       0.00       0.00       0.00       0.00       0.00      0.000      0.000      0.000        0.0        0.1        0.1        0.0        0.0        0.0       0.00 -150904.22 -150904.22        0.0        3.3        3.3        0.0        0.4        0.4        0.0       51.6       51.6        0.0        0.6        0.6
6/30/2017         292        340          0          7         12          4          9         12          5          0          0          0         88         94         82        0.0        0.0        0.0       56.7       59.0       55.4      30.09      30.10      30.07       0.00       0.00       0.00       53.0       53.7       51.8      30.09      30.10      30.07          0          0          0          0          0          0        0.0        0.0        0.0       0.00       0.00       0.00          0          0          0          0          0          0        0.0        0.0        0.0       0.00       0.00       0.00       0.00       0.00       0.00       0.00       0.00       0.00       0.00       0.00       0.00      0.000      0.000      0.000        0.0        0.1        0.1        0.0        0.0        0.0       0.00 -151037.27 -151037.27        0.0        3.4        3.4        0.0        0.4        0.4        0.0       51.6       51.6        0.0        0.6        0.6
7/1/2017          292        350          0          6         14          0          9         14          0          0          0          0         76         94         60        0.0        0.0        0.0       57.1       64.4       53.6      30.11      30.14      30.09       0.00       0.00       0.00       49.6       51.9       48.1      30.11      30.14      30.09          0          0          0          0          0          0        0.0        0.0        0.0       0.00       0.00       0.00          0          0          0          0          0          0        0.0        0.0        0.0       0.00       0.00       0.00       0.00       0.00       0.00       0.00       0.00       0.00       0.00       0.00       0.00      0.000      0.000      0.000        0.0        0.1        0.1        0.0        0.0        0.0       0.00 -151172.36 -151172.36        0.0        3.5        3.5        0.0        0.4        0.4        0.0       51.7       51.7        0.0        0.6        0.6
7/2/2017            0        350          0         10         22          4         13         22          5          0          0          0         74         94         64        0.0        0.0        0.0       60.6       66.2       55.4      30.11      30.16      30.08       0.00       0.00       0.00       51.9       55.6       48.1      30.11      30.16      30.08          0          0          0          0          0          0        0.0        0.0        0.0       0.00       0.00       0.00          0          0          0          0          0          0        0.0        0.0        0.0       0.00       0.00       0.00       0.00       0.00       0.00       0.00       0.00       0.00       0.00       0.00       0.00      0.000      0.000      0.000        0.0        0.0        0.0        0.0        0.0        0.0       0.00       0.00       0.00        0.0        0.0        0.0        0.0        0.0        0.0        0.0        0.0        0.0        0.0        0.0        0.0
7/3/2017          315        360          0         12         23          4         15         23          5          0          0          0         70         94         59        0.0        0.0        0.0       60.3       66.2       55.4      30.15      30.23      30.08       0.00       0.00       0.00       50.5       55.6       46.4      30.15      30.23      30.08          0          0          0          0          0          0        0.0        0.0        0.0       0.00       0.00       0.00          0          0          0          0          0          0        0.0        0.0        0.0       0.00       0.00       0.00       0.00       0.00       0.00       0.00       0.00       0.00       0.00       0.00       0.00      0.000      0.000      0.000        0.0        0.0        0.0        0.0        0.0        0.0       0.00       0.00       0.00        0.0        0.0        0.0        0.0        0.0        0.0        0.0        0.0        0.0        0.0        0.0        0.0
7/4/2017          315        330          0          8         23          0         12         23          0          0          0          0         79         94         68        0.0        0.0        0.0       56.8       64.4       48.2      30.06      30.11      29.99       0.00       0.00       0.00       50.2       53.6       44.5      30.06      30.11      29.99          0          0          0          0          0          0        0.0        0.0        0.0       0.00       0.00       0.00          0          0          0          0          0          0        0.0        0.0        0.0       0.00       0.00       0.00       0.00       0.00       0.00       0.00       0.00       0.00       0.00       0.00       0.00      0.000      0.000      0.000        0.0        0.1        0.1        0.0        0.0        0.0       0.00 -151536.70 -151536.70        0.0        0.2        0.2        0.0        0.0        0.0        0.0       52.0       52.0        0.0        0.6        0.6
7/5/2017          248        360          0          5         17          0          7         17          0          0          0          0         80        100         60        0.0        0.0        0.0       58.2       68.0       48.2      30.04      30.15      29.98       0.00       0.00       0.00       51.9       55.4       46.3      30.04      30.15      29.98          0          0          0          0          0          0        0.0        0.0        0.0       0.00       0.00       0.00          0          0          0          0          0          0        0.0        0.0        0.0       0.00       0.00       0.00       0.00       0.00       0.00       0.00       0.00       0.00       0.00       0.00       0.00      0.000      0.000      0.000        0.0        0.1        0.1        0.0        0.0        0.0       0.00 -151671.80 -151671.80        0.0        0.3        0.3        0.0        0.0        0.0        0.0       52.1       52.1        0.0        0.6        0.6
7/6/2017          338        360        240          8         14          4         11         14          5          0          0          0         73         88         64        0.0        0.0        0.0       59.6       66.2       55.4      30.15      30.17      30.12       0.00       0.00       0.00       50.9       53.7       48.3      30.15      30.17      30.12          0          0          0          0          0          0        0.0        0.0        0.0       0.00       0.00       0.00          0          0          0          0          0          0        0.0        0.0        0.0       0.00       0.00       0.00       0.00       0.00       0.00       0.00       0.00       0.00       0.00       0.00       0.00      0.000      0.000      0.000        0.0        0.1        0.1        0.0        0.0        0.0       0.00 -151804.84 -151804.84        0.0        0.4        0.4        0.0        0.0        0.0        0.0       52.2       52.2        0.0        0.6        0.6
7/7/2017          225        350        210          7         17          3          9         17          4          0          0          0         77         94         60        0.0        0.0        0.0       58.7       64.4       53.6      30.23      30.30      30.15       0.00       0.00       0.00       51.1       52.0       49.8      30.23      30.30      30.15          0          0          0          0          0          0        0.0        0.0        0.0       0.00       0.00       0.00          0          0          0          0          0          0        0.0        0.0        0.0       0.00       0.00       0.00       0.00       0.00       0.00       0.00       0.00       0.00       0.00       0.00       0.00      0.000      0.000      0.000        0.0        0.1        0.1        0.0        0.0        0.0       0.00 -151935.84 -151935.84        0.0        0.5        0.5        0.0        0.0        0.0        0.0       52.3       52.3        0.0        0.6        0.6
7/8/2017          292        350          0          9         25          0         12         25          0          0          0          0         80         94         60        0.0        0.0        0.0       58.2       68.0       48.2      30.13      30.19      30.08       0.00       0.00       0.00       51.7       55.6       46.3      30.13      30.19      30.08          0          0          0          0          0          0        0.0        0.0        0.0       0.00       0.00       0.00          0          0          0          0          0          0        0.0        0.0        0.0       0.00       0.00       0.00       0.00       0.00       0.00       0.00       0.00       0.00       0.00       0.00       0.00      0.000      0.000      0.000        0.0        0.1        0.1        0.0        0.0        0.0       0.00 -152072.98 -152072.98        0.0        0.6        0.6        0.0        0.0        0.0        0.0       52.3       52.3        0.0        0.6        0.6
7/9/2017          270        350          0          7         17          0          9         17          0          0          0          0         83         94         73        0.0        0.0        0.0       59.8       66.2       55.4      30.13      30.16      30.09       0.00       0.00       0.00       54.6       59.1       51.8      30.13      30.16      30.09          0          0          0          0          0          0        0.0        0.0        0.0       0.00       0.00       0.00          0          0          0          0          0          0        0.0        0.0        0.0       0.00       0.00       0.00       0.00       0.00       0.00       0.00       0.00       0.00       0.00       0.00       0.00      0.000      0.000      0.000        0.0        0.1        0.1        0.0        0.0        0.0       0.00 -152203.98 -152203.98        0.0        0.7        0.7        0.0        0.0        0.0        0.0       52.5       52.5        0.0        0.6        0.6
7/10/2017         315        340        290         11         22          4         15         22          5          0          0          0         71         82         59        0.0        0.0        0.0       59.7       64.4       57.2      30.12      30.15      30.08       0.00       0.00       0.00       50.0       52.0       46.4      30.12      30.15      30.08          0          0          0          0          0          0        0.0        0.0        0.0       0.00       0.00       0.00          0          0          0          0          0          0        0.0        0.0        0.0       0.00       0.00       0.00       0.00       0.00       0.00       0.00       0.00       0.00       0.00       0.00       0.00      0.000      0.000      0.000        0.0        0.1        0.1        0.0        0.0        0.0       0.00 -152339.08 -152339.08        0.0        0.8        0.8        0.0        0.1        0.1        0.0       52.5       52.5        0.0        0.6        0.6
7/11/2017         315        350         10         11         20          5         14         20          6          0          0          0         69         82         56        0.0        0.0        0.0       59.2       64.4       55.4      30.12      30.15      30.07       0.00       0.00       0.00       48.8       51.8       46.4      30.12      30.15      30.07          0          0          0          0          0          0        0.0        0.0        0.0       0.00       0.00       0.00          0          0          0          0          0          0        0.0        0.0        0.0       0.00       0.00       0.00       0.00       0.00       0.00       0.00       0.00       0.00       0.00       0.00       0.00      0.000      0.000      0.000        0.0        0.1        0.1        0.0        0.0        0.0       0.00 -152468.03 -152468.03        0.0        0.9        0.9        0.0        0.1        0.1        0.0       52.6       52.6        0.0        0.6        0.6
7/12/2017         315        350          0          5         14          0          7         14          0          0          0          0         78         94         60        0.0        0.0        0.0       58.3       66.2       51.8      30.08      30.09      30.05       0.00       0.00       0.00       51.1       53.7       48.1      30.08      30.09      30.05          0          0          0          0          0          0        0.0        0.0        0.0       0.00       0.00       0.00          0          0          0          0          0          0        0.0        0.0        0.0       0.00       0.00       0.00       0.00       0.00       0.00       0.00       0.00       0.00       0.00       0.00       0.00      0.000      0.000      0.000        0.0        0.0        0.0        0.0        0.0        0.0       0.00       0.00       0.00        0.0        0.0        0.0        0.0        0.0        0.0        0.0        0.0        0.0        0.0        0.0        0.0
7/15/2017         270        350          0          6         14          0          9         14          0          0          0          0         74         94         60        0.0        0.0        0.0       60.1       66.2       51.8      30.17      30.26      30.05       0.00       0.00       0.00       51.5       53.7       48.1      30.17      30.26      30.05          0          0          0          0          0          0        0.0        0.0        0.0       0.00       0.00       0.00          0          0          0          0          0          0        0.0        0.0        0.0       0.00       0.00       0.00       0.00       0.00       0.00       0.00       0.00       0.00       0.00       0.00       0.00      0.000      0.000      0.000        0.0        0.0        0.0        0.0        0.0        0.0       0.00       0.00       0.00        0.0        0.0        0.0        0.0        0.0        0.0        0.0        0.0        0.0        0.0        0.0        0.0
7/16/2017         338        340          0          9         20          0         11         20          0          0          0          0         73         94         56        0.0        0.0        0.0       59.4       66.2       51.8      30.25      30.30      30.16       0.00       0.00       0.00       50.5       52.0       48.1      30.25      30.30      30.16          0          0          0          0          0          0        0.0        0.0        0.0       0.00       0.00       0.00          0          0          0          0          0          0        0.0        0.0        0.0       0.00       0.00       0.00       0.00       0.00       0.00       0.00       0.00       0.00       0.00       0.00       0.00      0.000      0.000      0.000        0.0        0.1        0.1        0.0        0.0        0.0       0.00 -152770.97 -152770.97        0.0        1.0        1.0        0.0        0.1        0.1        0.0       52.8       52.8        0.0        0.7        0.7
7/17/2017         315        330          0         10         22          0         13         22          0          0          0          0         78         94         60        0.0        0.0        0.0       58.6       66.2       48.2      30.10      30.15      30.04       0.00       0.00       0.00       51.6       55.3       44.5      30.10      30.15      30.04          0          0          0          0          0          0        0.0        0.0        0.0       0.00       0.00       0.00          0          0          0          0          0          0        0.0        0.0        0.0       0.00       0.00       0.00       0.00       0.00       0.00       0.00       0.00       0.00       0.00       0.00       0.00      0.000      0.000      0.000        0.0        0.1        0.1        0.0        0.0        0.0       0.00 -152910.16 -152910.16        0.0        1.1        1.1        0.0        0.1        0.1        0.0       52.8       52.8        0.0        0.7        0.7
7/18/2017         315        330          0          6         17          0          8         17          0          0          0          0         80        100         53        0.0        0.0        0.0       57.9       69.8       50.0      30.07      30.11      30.05       0.00       0.00       0.00       51.3       53.7       48.3      30.07      30.11      30.05          0          0          0          0          0          0        0.0        0.0        0.0       0.00       0.00       0.00          0          0          0          0          0          0        0.0        0.0        0.0       0.00       0.00       0.00       0.00       0.00       0.00       0.00       0.00       0.00       0.00       0.00       0.00      0.000      0.000      0.000        0.0        0.1        0.1        0.0        0.0        0.0       0.00 -153051.39 -153051.39        0.0        1.2        1.2        0.0        0.1        0.1        0.0       52.9       52.9        0.0        0.7        0.7
7/19/2017           0        360          0          5         12          0          7         12          0          0          0          0         77         94         60        0.0        0.0        0.0       59.4       68.0       48.2      30.10      30.14      30.07       0.00       0.00       0.00       51.9       53.7       46.3      30.10      30.14      30.07          0          0          0          0          0          0        0.0        0.0        0.0       0.00       0.00       0.00          0          0          0          0          0          0        0.0        0.0        0.0       0.00       0.00       0.00       0.00       0.00       0.00       0.00       0.00       0.00       0.00       0.00       0.00      0.000      0.000      0.000        0.0        0.1        0.1        0.0        0.0        0.0       0.00 -153170.11 -153170.11        0.0        1.3        1.3        0.0        0.1        0.1        0.0       53.1       53.1        0.0        0.7        0.7
7/20/2017         202        290          0          6         14          0          8         14          0          0          0          0         80         94         60        0.0        0.0        0.0       60.9       66.2       55.4      30.13      30.18      30.07       0.00       0.00       0.00       54.4       57.4       51.9      30.13      30.18      30.07          0          0          0          0          0          0        0.0        0.0        0.0       0.00       0.00       0.00          0          0          0          0          0          0        0.0        0.0        0.0       0.00       0.00       0.00       0.00       0.00       0.00       0.00       0.00       0.00       0.00       0.00       0.00      0.000      0.000      0.000        0.0        0.1        0.1        0.0        0.0        0.0       0.00 -153301.11 -153301.11        0.0        1.4        1.4        0.0        0.1        0.1        0.0       53.2       53.2        0.0        0.7        0.7
7/21/2017         270        310          0          5         12          0          6         12          0          0          0          0         77         94         64        0.0        0.0        0.0       60.3       68.0       50.0      30.15      30.17      30.13       0.00       0.00       0.00       52.9       55.6       48.1      30.15      30.17      30.13          0          0          0          0          0          0        0.0        0.0        0.0       0.00       0.00       0.00          0          0          0          0          0          0        0.0        0.0        0.0       0.00       0.00       0.00       0.00       0.00       0.00       0.00       0.00       0.00       0.00       0.00       0.00      0.000      0.000      0.000        0.0        0.1        0.1        0.0        0.0        0.0       0.00 -153434.16 -153434.16        0.0        1.5        1.5        0.0        0.1        0.1        0.0       53.2       53.2        0.0        0.7        0.7
7/22/2017         315        350          0          7         19          0          9         19          0          0          0          0         77         88         60        0.0        0.0        0.0       65.9       73.4       59.0      30.15      30.19      30.11       0.00       0.00       0.00       58.2       62.6       55.3      30.15      30.19      30.11          0          0          0          0          0          0        0.0        0.0        0.0       0.00       0.00       0.00          0          0          0          0          0          0        0.0        0.0        0.0       0.00       0.00       0.00       0.00       0.00       0.00       0.00       0.00       0.00       0.00       0.00       0.00      0.000      0.000      0.000        0.0        0.1        0.1        0.0        0.0        0.0       0.00 -153573.34 -153573.34        0.0        1.5        1.5        0.0        0.2        0.2        0.0       53.3       53.3        0.0        0.8        0.8
7/23/2017         338        340        320         15         25         10         20         25         12          0          0          0         74         82         60        0.0        0.0        0.0       61.6       66.2       57.2      30.09      30.12      30.04       0.00       0.00       0.00       52.9       55.3       49.8      30.09      30.12      30.04          0          0          0          0          0          0        0.0        0.0        0.0       0.00       0.00       0.00          0          0          0          0          0          0        0.0        0.0        0.0       0.00       0.00       0.00       0.00       0.00       0.00       0.00       0.00       0.00       0.00       0.00       0.00      0.000      0.000      0.000        0.0        0.0        0.0        0.0        0.1        0.1       0.00 -153700.25 -153700.25        0.0        1.6        1.6        0.0        0.2        0.2        0.0       53.3       53.3        0.0        0.8        0.8
7/24/2017         315        350          0          8         23          0         11         23          0          0          0          0         79         94         57        0.0        0.0        0.0       61.3       71.6       53.6      30.01      30.04      29.96       0.00       0.00       0.00       54.4       57.3       51.9      30.01      30.04      29.96          0          0          0          0          0          0        0.0        0.0        0.0       0.00       0.00       0.00          0          0          0          0          0          0        0.0        0.0        0.0       0.00       0.00       0.00       0.00       0.00       0.00       0.00       0.00       0.00       0.00       0.00       0.00      0.000      0.000      0.000        0.0        0.0        0.0        0.0        0.0        0.0       0.00 -153841.48 -153841.48        0.0        1.6        1.6        0.0        0.2        0.2        0.0       53.3       53.3        0.0        0.8        0.8
7/25/2017         292        350        260         10         22          3         13         22          4          0          0          0         78         88         60        0.0        0.0        0.0       61.6       69.8       57.2      30.05      30.09      30.02       0.00       0.00       0.00       54.4       55.6       53.6      30.05      30.09      30.02          0          0          0          0          0          0        0.0        0.0        0.0       0.00       0.00       0.00          0          0          0          0          0          0        0.0        0.0        0.0       0.00       0.00       0.00       0.00       0.00       0.00       0.00       0.00       0.00       0.00       0.00       0.00      0.000      0.000      0.000        0.0        0.1        0.1        0.0        0.0        0.0       0.00 -153982.72 -153982.72        0.0        1.7        1.7        0.0        0.3        0.3        0.0       53.4       53.4        0.0        0.9        0.9
7/26/2017         315        350        280         10         16          6         12         16          7          0          0          0         81         94         68        0.0        0.0        0.0       60.5       68.0       55.4      30.12      30.15      30.09       0.00       0.00       0.00       54.7       57.3       51.8      30.12      30.15      30.09          0          0          0          0          0          0        0.0        0.0        0.0       0.00       0.00       0.00          0          0          0          0          0          0        0.0        0.0        0.0       0.00       0.00       0.00       0.00       0.00       0.00       0.00       0.00       0.00       0.00       0.00       0.00      0.000      0.000      0.000        0.0        0.1        0.1        0.0        0.0        0.0       0.00 -154091.20 -154091.20        0.0        1.7        1.7        0.0        0.3        0.3        0.0       53.5       53.5        0.0        0.9        0.9
7/27/2017         315        350        290          9         22          3         13         22          4          0          0          0         74         88         56        0.0        0.0        0.0       60.7       66.2       57.2      30.15      30.19      30.12       0.00       0.00       0.00       52.3       53.7       50.1      30.15      30.19      30.12          0          0          0          0          0          0        0.0        0.0        0.0       0.00       0.00       0.00          0          0          0          0          0          0        0.0        0.0        0.0       0.00       0.00       0.00       0.00       0.00       0.00       0.00       0.00       0.00       0.00       0.00       0.00      0.000      0.000      0.000        0.0        0.0        0.0        0.0        0.0        0.0       0.00       0.00       0.00        0.0        0.0        0.0        0.0        0.0        0.0        0.0        0.0        0.0        0.0        0.0        0.0
7/28/2017         338        350          0         10         22          0         13         22          0          0          0          0         74         87         63        0.0        0.0        0.0       59.6       66.2       50.0      30.13      30.14      30.12       0.00       0.00       0.00       51.2       53.7       46.3      30.13      30.14      30.12          0          0          0          0          0          0        0.0        0.0        0.0       0.00       0.00       0.00          0          0          0          0          0          0        0.0        0.0        0.0       0.00       0.00       0.00       0.00       0.00       0.00       0.00       0.00       0.00       0.00       0.00       0.00      0.000      0.000      0.000        0.0        0.1        0.1        0.0        0.0        0.0       0.00 -154361.39 -154361.39        0.0        1.8        1.8        0.0        0.3        0.3        0.0       53.6       53.6        0.0        0.9        0.9
7/29/2017         135        360          0          7         17          0         10         17          0          0          0          0         77         94         56        0.0        0.0        0.0       60.1       69.8       48.2      30.18      30.23      30.13       0.00       0.00       0.00       52.3       57.2       44.5      30.18      30.23      30.13          0          0          0          0          0          0        0.0        0.0        0.0       0.00       0.00       0.00          0          0          0          0          0          0        0.0        0.0        0.0       0.00       0.00       0.00       0.00       0.00       0.00       0.00       0.00       0.00       0.00       0.00       0.00      0.000      0.000      0.000        0.0        0.0        0.0        0.0        0.0        0.0       0.00       0.00       0.00        0.0        0.0        0.0        0.0        0.0        0.0        0.0        0.0        0.0        0.0        0.0        0.0
7/30/2017         315        360          0         11         22          3         14         22          4          0          0          0         74         88         53        0.0        0.0        0.0       64.4       71.6       60.8      30.27      30.30      30.23       0.00       0.00       0.00       55.4       57.5       49.8      30.27      30.30      30.23          0          0          0          0          0          0        0.0        0.0        0.0       0.00       0.00       0.00          0          0          0          0          0          0        0.0        0.0        0.0       0.00       0.00       0.00       0.00       0.00       0.00       0.00       0.00       0.00       0.00       0.00       0.00      0.000      0.000      0.000        0.0        0.1        0.1        0.0        0.0        0.0       0.00 -154631.58 -154631.58        0.0        2.0        2.0        0.0        0.3        0.3        0.0       53.7       53.7        0.0        0.9        0.9
7/31/2017         315        330          0          8         24          0         12         24          0          0          0          0         71         93         50        0.0        0.0        0.0       62.7       75.2       48.2      30.20      30.27      30.13       0.00       0.00       0.00       52.3       57.4       46.3      30.20      30.27      30.13          0          0          0          0          0          0        0.0        0.0        0.0       0.00       0.00       0.00          0          0          0          0          0          0        0.0        0.0        0.0       0.00       0.00       0.00       0.00       0.00       0.00       0.00       0.00       0.00       0.00       0.00       0.00      0.000      0.000      0.000        0.0        0.0        0.0        0.0        0.0        0.0       0.00 -154768.72 -154768.72        0.0        2.0        2.0        0.0        0.4        0.4        0.0       53.8       53.8        0.0        1.0        1.0
8/1/2017          315        350          0          6         20          0          8         20          0          0          0          0         69         94         39        0.0        0.0        0.0       65.9       82.4       51.8      30.08      30.15      30.01       0.00       0.00       0.00       54.1       59.1       48.1      30.08      30.15      30.01          0          0          0          0          0          0        0.0        0.0        0.0       0.00       0.00       0.00          0          0          0          0          0          0        0.0        0.0        0.0       0.00       0.00       0.00       0.00       0.00       0.00       0.00       0.00       0.00       0.00       0.00       0.00      0.000      0.000      0.000        0.0        0.1        0.1        0.0        0.1        0.1       0.00 -154907.91 -154907.91        0.0        2.1        2.1        0.0        0.4        0.4        0.0       53.8       53.8        0.0        1.0        1.0
8/2/2017          338        340          0          4         16          0          6         16          0          0          0          0         64         94         32        0.0        0.0        0.0       71.9       91.4       50.0      29.95      30.01      29.88       0.00       0.00       0.00       56.8       62.8       48.3      29.95      30.01      29.88          0          0          0          0          0          0        0.0        0.0        0.0       0.00       0.00       0.00          0          0          0          0          0          0        0.0        0.0        0.0       0.00       0.00       0.00       0.00       0.00       0.00       0.00       0.00       0.00       0.00       0.00       0.00      0.000      0.000      0.000        0.0        0.0        0.0        0.0        0.0        0.0       0.00       0.00       0.00        0.0        0.0        0.0        0.0        0.0        0.0        0.0        0.0        0.0        0.0        0.0        0.0
8/3/2017          248        280          0          6         14          0          8         14          0          0          0          0         73         88         53        0.0        0.0        0.0       66.3       75.2       59.0      29.92      29.95      29.89       0.00       0.00       0.00       56.7       58.9       55.2      29.92      29.95      29.89          0          0          0          0          0          0        0.0        0.0        0.0       0.00       0.00       0.00          0          0          0          0          0          0        0.0        0.0        0.0       0.00       0.00       0.00       0.00       0.00       0.00       0.00       0.00       0.00       0.00       0.00       0.00      0.000      0.000      0.000        0.0        0.0        0.0        0.0        0.2        0.2       0.00 -155157.62 -155157.62        0.0        0.1        0.1        0.0        0.3        0.3        0.0       53.9       53.9        0.0        1.3        1.3
8/4/2017          225        250          0          7         16          4          9         16          5          0          0          0         84        100         73        0.0        0.0        0.0       61.5       66.2       57.2      29.93      29.95      29.90       0.00       0.00       0.00       56.4       59.1       55.3      29.93      29.95      29.90          0          0          0          0          0          0        0.0        0.0        0.0       0.00       0.00       0.00          0          0          0          0          0          0        0.0        0.0        0.0       0.00       0.00       0.00       0.00       0.00       0.00       0.00       0.00       0.00       0.00       0.00       0.00      0.000      0.000      0.000        0.0        0.0        0.0        0.0        0.1        0.1       0.00 -155296.81 -155296.81        0.0        0.1        0.1        0.0        0.3        0.3        0.0       54.0       54.0        0.0        1.4        1.4
8/5/2017          202        280          0          6         16          0          8         16          0          0          0          0         81        100         64        0.0        0.0        0.0       62.6       69.8       57.2      29.93      29.95      29.90       0.00       0.00       0.00       56.5       59.1       55.3      29.93      29.95      29.90          0          0          0          0          0          0        0.0        0.0        0.0       0.00       0.00       0.00          0          0          0          0          0          0        0.0        0.0        0.0       0.00       0.00       0.00       0.00       0.00       0.00       0.00       0.00       0.00       0.00       0.00       0.00      0.000      0.000      0.000        0.0        0.0        0.0        0.0        0.1        0.1       0.00 -155296.81 -155296.81        0.0        0.1        0.1        0.0        0.3        0.3        0.0       54.0       54.0        0.0        1.4        1.4
8/6/2017          315        330          0          5         14          0          7         14          0          0          0          0         86        100         68        0.0        0.0        0.0       60.7       68.0       55.4      29.96      29.99      29.94       0.00       0.00       0.00       56.3       59.0       53.7      29.96      29.99      29.94          0          0          0          0          0          0        0.0        0.0        0.0       0.00       0.00       0.00          0          0          0          0          0          0        0.0        0.0        0.0       0.00       0.00       0.00       0.00       0.00       0.00       0.00       0.00       0.00       0.00       0.00       0.00      0.000      0.000      0.000        0.0        0.1        0.1        0.0        0.0        0.0       0.00 -155564.95 -155564.95        0.0        0.2        0.2        0.0        0.4        0.4        0.0       54.0       54.0        0.0        1.4        1.4
8/7/2017            0        330        270          6         13          5          8         13          6          0          0          0         90         94         77        0.0        0.0        0.0       58.5       62.6       57.2      30.01      30.03      29.99       0.00       0.00       0.00       55.4       55.5       55.3      30.01      30.03      29.99          0          0          0          0          0          0        0.0        0.0        0.0       0.00       0.00       0.00          0          0          0          0          0          0        0.0        0.0        0.0       0.00       0.00       0.00       0.00       0.00       0.00       0.00       0.00       0.00       0.00       0.00       0.00      0.000      0.000      0.000        0.0        0.0        0.0        0.0        0.0        0.0       0.00       0.00       0.00        0.0        0.0        0.0        0.0        0.0        0.0        0.0        0.0        0.0        0.0        0.0        0.0
8/8/2017          248        260        240          6         12          5          9         12          6          0          0          0         79         83         77        0.0        0.0        0.0       62.6       62.6       62.6      29.98      29.99      29.96       0.00       0.00       0.00       56.0       57.4       55.3      29.98      29.99      29.96          0          0          0          0          0          0        0.0        0.0        0.0       0.00       0.00       0.00          0          0          0          0          0          0        0.0        0.0        0.0       0.00       0.00       0.00       0.00       0.00       0.00       0.00       0.00       0.00       0.00       0.00       0.00      0.000      0.000      0.000        0.0        0.0        0.0        0.0        0.0        0.0       0.00       0.00       0.00        0.0        0.0        0.0        0.0        0.0        0.0        0.0        0.0        0.0        0.0        0.0        0.0
8/9/2017          248        290          0          4         12          0          7         12          0          0          0          0         86         94         77        0.0        0.0        0.0       59.8       62.6       57.2      29.98      30.00      29.96       0.00       0.00       0.00       55.5       57.4       53.7      29.98      30.00      29.96          0          0          0          0          0          0        0.0        0.0        0.0       0.00       0.00       0.00          0          0          0          0          0          0        0.0        0.0        0.0       0.00       0.00       0.00       0.00       0.00       0.00       0.00       0.00       0.00       0.00       0.00       0.00      0.000      0.000      0.000        0.0        0.0        0.0        0.0        0.0        0.0       0.00       0.00       0.00        0.0        0.0        0.0        0.0        0.0        0.0        0.0        0.0        0.0        0.0        0.0        0.0
8/10/2017         270        320          0          4         10          0          6         10          0          0          0          0         91        100         82        0.0        0.0        0.0       58.1       60.8       57.2      29.98      30.00      29.96       0.00       0.00       0.00       55.4       57.3       53.5      29.98      30.00      29.96          0          0          0          0          0          0        0.0        0.0        0.0       0.00       0.00       0.00          0          0          0          0          0          0        0.0        0.0        0.0       0.00       0.00       0.00       0.00       0.00       0.00       0.00       0.00       0.00       0.00       0.00       0.00      0.000      0.000      0.000        0.0        0.0        0.0        0.0        0.0        0.0       0.00 -155882.22 -155882.22        0.0        0.4        0.4        0.0        0.4        0.4        0.0       54.2       54.2        0.0        1.4        1.4
8/11/2017         270        290          0          4         10          0          6         10          0          0          0          0         88         94         73        0.0        0.0        0.0       58.6       64.4       57.2      29.98      30.01      29.96       0.00       0.00       0.00       54.9       57.4       53.5      29.98      30.01      29.96          0          0          0          0          0          0        0.0        0.0        0.0       0.00       0.00       0.00          0          0          0          0          0          0        0.0        0.0        0.0       0.00       0.00       0.00       0.00       0.00       0.00       0.00       0.00       0.00       0.00       0.00       0.00      0.000      0.000      0.000        0.0        0.1        0.1        0.0        0.0        0.0       0.00 -156025.50 -156025.50        0.0        0.5        0.5        0.0        0.4        0.4        0.0       54.3       54.3        0.0        1.4        1.4
8/12/2017         270        290          0          5         16          0          7         16          0          0          0          0         85         94         68        0.0        0.0        0.0       59.5       66.2       55.4      29.98      30.01      29.96       0.00       0.03      -0.00       54.8       57.4       51.9      29.98      30.01      29.96          0          0          0          0          0          0        0.0        0.0        0.0       0.00       0.00       0.00          0          0          0          0          0          0        0.0        0.0        0.0       0.00       0.00       0.00       0.00       0.00       0.00       0.00       0.00       0.00       0.00       0.00       0.00      0.000      0.000      0.000        0.0        0.1        0.1        0.0        0.0        0.0       0.00 -156025.50 -156025.50        0.0        0.5        0.5        0.0        0.4        0.4        0.0       54.3       54.3        0.0        1.4        1.4
8/13/2017         315        340        170          9         17          3         13         17          4          0          0          0         80         94         64        0.0        0.0        0.0       61.8       66.2       55.4      30.02      30.08      29.94       0.01       0.00       0.00       55.4       57.4       51.9      30.02      30.08      29.94          0          0          0          0          0          0        0.0        0.0        0.0       0.00       0.00       0.00          0          0          0          0          0          0        0.0        0.0        0.0       0.00       0.00       0.00       0.00       0.00       0.00       0.00       0.03       0.03       0.00       0.03       0.03      0.000      0.000      0.000        0.0        0.1        0.1        0.0        0.0        0.0       0.00 -156293.64 -156293.64        0.0        0.6        0.6        0.0        0.4        0.4        0.0       54.4       54.4        0.0        1.4        1.4
8/14/2017         315        360          0          6         19          0          9         19          0          0          0          0         79         94         56        0.0        0.0        0.0       58.5       66.2       51.8      30.00      30.07      29.93       0.00       0.00       0.00       51.5       53.7       48.1      30.00      30.07      29.93          0          0          0          0          0          0        0.0        0.0        0.0       0.00       0.00       0.00          0          0          0          0          0          0        0.0        0.0        0.0       0.00       0.00       0.00       0.00       0.00       0.00       0.00       0.00       0.00       0.00       0.00       0.00      0.000      0.000      0.000        0.0        0.0        0.0        0.0        0.0        0.0       0.00 -156430.78 -156430.78        0.0        0.7        0.7        0.0        0.4        0.4        0.0       54.5       54.5        0.0        1.5        1.5
8/15/2017         315        330          0          9         23          0         12         23          0          0          0          0         74         94         56        0.0        0.0        0.0       59.0       69.8       48.2      29.98      30.07      29.93       0.00       0.00       0.00       50.3       55.3       44.5      29.98      30.07      29.93          0          0          0          0          0          0        0.0        0.0        0.0       0.00       0.00       0.00          0          0          0          0          0          0        0.0        0.0        0.0       0.00       0.00       0.00       0.00       0.00       0.00       0.00       0.00       0.00       0.00       0.00       0.00      0.000      0.000      0.000        0.0        0.1        0.1        0.0        0.0        0.0       0.00 -156572.02 -156572.02        0.0        0.8        0.8        0.0        0.4        0.4        0.0       54.6       54.6        0.0        1.5        1.5
8/16/2017         338        350          0          8         16          0         11         16          0          0          0          0         80         94         68        0.0        0.0        0.0       61.7       68.0       55.4      30.13      30.16      30.07       0.00       0.00       0.00       55.3       60.9       51.8      30.13      30.16      30.07          0          0          0          0          0          0        0.0        0.0        0.0       0.00       0.00       0.00          0          0          0          0          0          0        0.0        0.0        0.0       0.00       0.00       0.00       0.00       0.00       0.00       0.00       0.00       0.00       0.00       0.00       0.00      0.000      0.000      0.000        0.0        0.1        0.1        0.0        0.0        0.0       0.00 -156705.06 -156705.06        0.0        0.8        0.8        0.0        0.5        0.5        0.0       54.7       54.7        0.0        1.5        1.5
8/17/2017         338        360          0          9         20          3         13         20          4          0          0          0         73         88         60        0.0        0.0        0.0       62.2       66.2       59.0      30.19      30.22      30.16       0.00       0.00       0.00       53.2       55.5       51.7      30.19      30.22      30.16          0          0          0          0          0          0        0.0        0.0        0.0       0.00       0.00       0.00          0          0          0          0          0          0        0.0        0.0        0.0       0.00       0.00       0.00       0.00       0.00       0.00       0.00       0.00       0.00       0.00       0.00       0.00      0.000      0.000      0.000        0.0        0.1        0.1        0.0        0.0        0.0       0.00 -156842.20 -156842.20        0.0        0.9        0.9        0.0        0.5        0.5        0.0       54.7       54.7        0.0        1.5        1.5
8/18/2017         338        350          0          5         19          0          8         19          0          0          0          0         81         94         68        0.0        0.0        0.0       59.9       68.0       50.0      30.19      30.21      30.17       0.00       0.00       0.00       54.0       59.0       48.1      30.19      30.21      30.17          0          0          0          0          0          0        0.0        0.0        0.0       0.00       0.00       0.00          0          0          0          0          0          0        0.0        0.0        0.0       0.00       0.00       0.00       0.00       0.00       0.00       0.00       0.00       0.00       0.00       0.00       0.00      0.000      0.000      0.000        0.0        0.0        0.0        0.0        0.0        0.0       0.00 -156977.30 -156977.30        0.0        0.9        0.9        0.0        0.5        0.5        0.0       54.8       54.8        0.0        1.5        1.5
8/19/2017         338        340        310         13         22          6         16         22          7          0          0          0         75         88         60        0.0        0.0        0.0       60.5       66.2       57.2      30.21      30.24      30.19       0.00       0.00       0.00       52.4       55.3       51.7      30.21      30.24      30.19          0          0          0          0          0          0        0.0        0.0        0.0       0.00       0.00       0.00          0          0          0          0          0          0        0.0        0.0        0.0       0.00       0.00       0.00       0.00       0.00       0.00       0.00       0.00       0.00       0.00       0.00       0.00      0.000      0.000      0.000        0.0        0.1        0.1        0.0        0.0        0.0       0.00 -157108.30 -157108.30        0.0        1.0        1.0        0.0        0.5        0.5        0.0       54.9       54.9        0.0        1.5        1.5
8/20/2017         315        340          0         11         23          0         14         23          0          0          0          0         81         93         64        0.0        0.0        0.0       60.3       68.0       48.2      30.15      30.19      30.11       0.00       0.00       0.00       54.1       57.4       46.3      30.15      30.19      30.11          0          0          0          0          0          0        0.0        0.0        0.0       0.00       0.00       0.00          0          0          0          0          0          0        0.0        0.0        0.0       0.00       0.00       0.00       0.00       0.00       0.00       0.00       0.00       0.00       0.00       0.00       0.00      0.000      0.000      0.000        0.0        0.1        0.1        0.0        0.0        0.0       0.00 -157251.58 -157251.58        0.0        1.1        1.1        0.0        0.5        0.5        0.0       54.9       54.9        0.0        1.6        1.6
8/21/2017         315        330          0          7         22          0         10         22          0          0          0          0         82        100         57        0.0        0.0        0.0       62.1       73.4       55.4      30.05      30.12      29.97       0.00       0.00       0.00       55.9       59.2       51.9      30.05      30.12      29.97          0          0          0          0          0          0        0.0        0.0        0.0       0.00       0.00       0.00          0          0          0          0          0          0        0.0        0.0        0.0       0.00       0.00       0.00       0.00       0.00       0.00       0.00       0.00       0.00       0.00       0.00       0.00      0.000      0.000      0.000        0.0        0.1        0.1        0.0        0.0        0.0       0.00 -157390.77 -157390.77        0.0        1.2        1.2        0.0        0.5        0.5        0.0       55.0       55.0        0.0        1.6        1.6
8/22/2017         270        280          0          5         13          0          8         13          0          0          0          0         92        100         77        0.0        0.0        0.0       57.6       64.4       51.8      30.06      30.10      29.98       0.00       0.00       0.00       55.1       57.4       50.1      30.06      30.10      29.98          0          0          0          0          0          0        0.0        0.0        0.0       0.00       0.00       0.00          0          0          0          0          0          0        0.0        0.0        0.0       0.00       0.00       0.00       0.00       0.00       0.00       0.00       0.00       0.00       0.00       0.00       0.00      0.000      0.000      0.000        0.0        0.1        0.1        0.0        0.0        0.0       0.00 -157534.05 -157534.05        0.0        1.2        1.2        0.0        0.6        0.6        0.0       55.1       55.1        0.0        1.6        1.6
8/23/2017         315        350          0          6         14          0          8         14          0          0          0          0         84        100         63        0.0        0.0        0.0       61.4       68.0       57.2      30.05      30.09      30.02       0.00       0.00       0.00       56.1       59.1       48.1      30.05      30.09      30.02          0          0          0          0          0          0        0.0        0.0        0.0       0.00       0.00       0.00          0          0          0          0          0          0        0.0        0.0        0.0       0.00       0.00       0.00       0.00       0.00       0.00       0.00       0.00       0.00       0.00       0.00       0.00      0.000      0.000      0.000        0.0        0.1        0.1        0.0        0.0        0.0       0.00 -157663.00 -157663.00        0.0        1.4        1.4        0.0        0.6        0.6        0.0       55.2       55.2        0.0        1.6        1.6
8/24/2017         315        340          0          8         17          0         10         17          0          0          0          0         74         94         56        0.0        0.0        0.0       60.8       66.2       51.8      30.09      30.12      30.06       0.00       0.00       0.00       51.9       53.7       48.2      30.09      30.12      30.06          0          0          0          0          0          0        0.0        0.0        0.0       0.00       0.00       0.00          0          0          0          0          0          0        0.0        0.0        0.0       0.00       0.00       0.00       0.00       0.00       0.00       0.00       0.00       0.00       0.00       0.00       0.00      0.000      0.000      0.000        0.0        0.1        0.1        0.0        0.0        0.0       0.00 -157806.28 -157806.28        0.0        1.4        1.4        0.0        0.6        0.6        0.0       55.2       55.2        0.0        1.6        1.6
8/25/2017         315        350          0          7         23          0         10         23          0          0          0          0         76        100         46        0.0        0.0        0.0       58.7       69.8       48.2      30.07      30.10      30.06       0.00       0.00       0.00       50.3       53.7       46.3      30.07      30.10      30.06          0          0          0          0          0          0        0.0        0.0        0.0       0.00       0.00       0.00          0          0          0          0          0          0        0.0        0.0        0.0       0.00       0.00       0.00       0.00       0.00       0.00       0.00       0.00       0.00       0.00       0.00       0.00      0.000      0.000      0.000        0.0        0.1        0.1        0.0        0.0        0.0       0.00 -157943.42 -157943.42        0.0        1.5        1.5        0.0        0.6        0.6        0.0       55.3       55.3        0.0        1.6        1.6
8/26/2017         315        360          0          8         24          0         11         24          0          0          0          0         72         94         44        0.0        0.0        0.0       61.8       77.0       48.2      30.09      30.14      30.04       0.00       0.00       0.00       51.6       55.6       46.3      30.09      30.14      30.04          0          0          0          0          0          0        0.0        0.0        0.0       0.00       0.00       0.00          0          0          0          0          0          0        0.0        0.0        0.0       0.00       0.00       0.00       0.00       0.00       0.00       0.00       0.00       0.00       0.00       0.00       0.00      0.000      0.000      0.000        0.0        0.1        0.1        0.0        0.0        0.0       0.00 -158076.47 -158076.47        0.0        1.6        1.6        0.0        0.6        0.6        0.0       55.4       55.4        0.0        1.7        1.7
8/27/2017         338        340          0          4         16          0          6         16          0          0          0          0         69         94         42        0.0        0.0        0.0       65.2       82.4       50.0      29.99      30.06      29.92       0.00       0.00       0.00       53.5       59.2       46.3      29.99      30.06      29.92          0          0          0          0          0          0        0.0        0.0        0.0       0.00       0.00       0.00          0          0          0          0          0          0        0.0        0.0        0.0       0.00       0.00       0.00       0.00       0.00       0.00       0.00       0.00       0.00       0.00       0.00       0.00      0.000      0.000      0.000        0.0        0.1        0.1        0.0        0.1        0.1       0.00 -158207.47 -158207.47        0.0        1.7        1.7        0.0        0.7        0.7        0.0       55.5       55.5        0.0        1.7        1.7
8/28/2017         225        320          0          3         11          0          5         11          0          0          0          0         69         94         42        0.0        0.0        0.0       67.3       84.2       55.4      29.86      29.92      29.80       0.00       0.00       0.00       55.7       60.9       51.7      29.86      29.92      29.80          0          0          0          0          0          0        0.0        0.0        0.0       0.00       0.00       0.00          0          0          0          0          0          0        0.0        0.0        0.0       0.00       0.00       0.00       0.00       0.00       0.00       0.00       0.00       0.00       0.00       0.00       0.00      0.000      0.000      0.000        0.0        0.1        0.1        0.0        0.1        0.1       0.00 -158338.47 -158338.47        0.0        1.7        1.7        0.0        0.8        0.8        0.0       55.6       55.6        0.0        1.8        1.8
8/29/2017         225        320          0          5         16          0          7         16          0          0          0          0         77         94         42        0.0        0.0        0.0       63.5       84.2       55.4      29.89      29.95      29.80       0.00       0.00       0.00       55.5       60.9       51.7      29.89      29.95      29.80          0          0          0          0          0          0        0.0        0.0        0.0       0.00       0.00       0.00          0          0          0          0          0          0        0.0        0.0        0.0       0.00       0.00       0.00       0.00       0.00       0.00       0.00       0.00       0.00       0.00       0.00       0.00      0.000      0.000      0.000        0.0        0.0        0.0        0.0        0.0        0.0       0.00       0.00       0.00        0.0        0.0        0.0        0.0        0.0        0.0        0.0        0.0        0.0        0.0        0.0        0.0
8/30/2017         225        260          0          5         17          0          7         17          0          0          0          0         88        100         73        0.0        0.0        0.0       61.0       66.2       57.2      30.03      30.08      29.96       0.00       0.00       0.00       57.3       59.1       55.5      30.03      30.08      29.96          0          0          0          0          0          0        0.0        0.0        0.0       0.00       0.00       0.00          0          0          0          0          0          0        0.0        0.0        0.0       0.00       0.00       0.00       0.00       0.00       0.00       0.00       0.00       0.00       0.00       0.00       0.00      0.000      0.000      0.000        0.0        0.1        0.1        0.0        0.1        0.1       0.00 -158584.09 -158584.09        0.0        1.8        1.8        0.0        0.9        0.9        0.0       55.7       55.7        0.0        1.9        1.9
8/31/2017         315        340        120         10         20          3         13         20          4          0          0          0         77        100         53        0.0        0.0        0.0       62.5       69.8       55.4      30.14      30.18      30.09       0.00       0.00       0.00       54.5       60.8       51.7      30.14      30.18      30.09          0          0          0          0          0          0        0.0        0.0        0.0       0.00       0.00       0.00          0          0          0          0          0          0        0.0        0.0        0.0       0.00       0.00       0.00       0.00       0.00       0.00       0.00       0.00       0.00       0.00       0.00       0.00      0.000      0.000      0.000        0.0        0.1        0.1        0.0        0.0        0.0       0.00 -158711.00 -158711.00        0.0        1.9        1.9        0.0        0.9        0.9        0.0       55.7       55.7        0.0        2.0        2.0
9/1/2017          315        360          0          7         17          0          9         17          0          0          0          0         69         94         49        0.0        0.0        0.0       63.4       77.0       50.0      30.06      30.13      29.96       0.00       0.00       0.00       52.4       57.5       46.3      30.06      30.13      29.96          0          0          0          0          0          0        0.0        0.0        0.0       0.00       0.00       0.00          0          0          0          0          0          0        0.0        0.0        0.0       0.00       0.00       0.00       0.00       0.00       0.00       0.00       0.00       0.00       0.00       0.00       0.00      0.000      0.000      0.000        0.0        0.0        0.0        0.0        0.0        0.0       0.00 -158852.23 -158852.23        0.0        2.0        2.0        0.0        0.9        0.9        0.0       55.8       55.8        0.0        2.0        2.0
9/2/2017          315        340          0          6         20          0          9         20          0          0          0          0         70         94         37        0.0        0.0        0.0       67.7       84.2       53.6      29.94      29.97      29.89       0.00       0.00       0.00       56.3       62.6       48.2      29.94      29.97      29.89          0          0          0          0          0          0        0.0        0.0        0.0       0.00       0.00       0.00          0          0          0          0          0          0        0.0        0.0        0.0       0.00       0.00       0.00       0.00       0.00       0.00       0.00       0.00       0.00       0.00       0.00       0.00      0.000      0.000      0.000        0.0        0.1        0.1        0.0        0.1        0.1       0.00 -158991.42 -158991.42        0.0        0.1        0.1        0.0        0.1        0.1        0.0       55.9       55.9        0.0        2.1        2.1
9/3/2017          315        350          0          4         16          0          5         16          0          0          0          0         74         94         45        0.0        0.0        0.0       68.2       84.2       55.4      29.95      29.99      29.91       0.00       0.00       0.00       58.6       64.3       51.9      29.95      29.99      29.91          0          0          0          0          0          0        0.0        0.0        0.0       0.00       0.00       0.00          0          0          0          0          0          0        0.0        0.0        0.0       0.00       0.00       0.00       0.00       0.00       0.00       0.00       0.00       0.00       0.00       0.00       0.00      0.000      0.000      0.000        0.0        0.0        0.0        0.0        0.1        0.1       0.00 -159128.56 -159128.56        0.0        0.1        0.1        0.0        0.2        0.2        0.0       55.9       55.9        0.0        2.2        2.2
9/4/2017          315        350          0          3         12          0          5         12          0          0          0          0         68         94         32        0.0        0.0        0.0       70.6       89.6       53.6      29.91      30.00      29.80       0.00       0.00       0.00       57.9       62.4       51.9      29.91      30.00      29.80          0          0          0          0          0          0        0.0        0.0        0.0       0.00       0.00       0.00          0          0          0          0          0          0        0.0        0.0        0.0       0.00       0.00       0.00       0.00       0.00       0.00       0.00       0.00       0.00       0.00       0.00       0.00      0.000      0.000      0.000        0.0        0.0        0.0        0.0        0.1        0.1       0.00 -159257.52 -159257.52        0.0        0.2        0.2        0.0        0.3        0.3        0.0       55.9       55.9        0.0        2.3        2.3
9/5/2017          248        270          0          6         16          0          9         16          0          0          0          0         77         88         64        0.0        0.0        0.0       64.5       69.8       59.0      29.90      29.96      29.82       0.00       0.00       0.00       56.9       60.9       53.6      29.90      29.96      29.82          0          0          0          0          0          0        0.0        0.0        0.0       0.00       0.00       0.00          0          0          0          0          0          0        0.0        0.0        0.0       0.00       0.00       0.00       0.00       0.00       0.00       0.00       0.00       0.00       0.00       0.00       0.00      0.000      0.000      0.000        0.0        0.0        0.0        0.0        0.2        0.2       0.00 -159396.70 -159396.70        0.0        0.2        0.2        0.0        0.5        0.5        0.0       56.0       56.0        0.0        2.4        2.4
9/6/2017          225        340          0          5         13          0          8         13          0          0          0          0         89        100         77        0.0        0.0        0.0       60.0       68.0       57.2      29.95      29.98      29.92       0.00       0.00       0.00       56.8       60.9       55.5      29.95      29.98      29.92          0          0          0          0          0          0        0.0        0.0        0.0       0.00       0.00       0.00          0          0          0          0          0          0        0.0        0.0        0.0       0.00       0.00       0.00       0.00       0.00       0.00       0.00       0.00       0.00       0.00       0.00       0.00      0.000      0.000      0.000        0.0        0.0        0.0        0.0        0.0        0.0       0.00 -159531.80 -159531.80        0.0        0.2        0.2        0.0        0.5        0.5        0.0       56.0       56.0        0.0        2.5        2.5
9/7/2017          248        350          0          5         13          0          8         13          0          0          0          0         90        100         78        0.0        0.0        0.0       62.3       68.0       57.2      29.93      29.97      29.89       0.00       0.00       0.00       59.2       60.9       55.5      29.93      29.97      29.89          0          0          0          0          0          0        0.0        0.0        0.0       0.00       0.00       0.00          0          0          0          0          0          0        0.0        0.0        0.0       0.00       0.00       0.00       0.00       0.00       0.00       0.00       0.00       0.00       0.00       0.00       0.00      0.000      0.000      0.000        0.0        0.1        0.1        0.0        0.0        0.0       0.00 -159654.61 -159654.61        0.0        0.3        0.3        0.0        0.5        0.5        0.0       56.1       56.1        0.0        2.5        2.5
9/8/2017          315        330          0          7         16          0          9         16          0          0          0          0         87        100         68        0.0        0.0        0.0       61.8       66.2       57.2      29.98      30.02      29.94       0.00       0.00       0.00       57.7       60.9       53.5      29.98      30.02      29.94          0          0          0          0          0          0        0.0        0.0        0.0       0.00       0.00       0.00          0          0          0          0          0          0        0.0        0.0        0.0       0.00       0.00       0.00       0.00       0.00       0.00       0.00       0.00       0.00       0.00       0.00       0.00      0.000      0.000      0.000        0.0        0.0        0.0        0.0        0.0        0.0       0.00 -159787.66 -159787.66        0.0        0.3        0.3        0.0        0.5        0.5        0.0       56.1       56.1        0.0        2.5        2.5
9/9/2017          180        270          0          5         14          0          8         14          0          0          0          0         88        100         64        0.0        0.0        0.0       57.9       64.4       53.6      30.10      30.20      30.03       0.00       0.00       0.00       54.4       57.2       51.9      30.10      30.20      30.03          0          0          0          0          0          0        0.0        0.0        0.0       0.00       0.00       0.00          0          0          0          0          0          0        0.0        0.0        0.0       0.00       0.00       0.00       0.00       0.00       0.00       0.00       0.00       0.00       0.00       0.00       0.00      0.000      0.000      0.000        0.0        0.0        0.0        0.0        0.0        0.0       0.00 -159926.84 -159926.84        0.0        0.4        0.4        0.0        0.5        0.5        0.0       56.2       56.2        0.0        2.5        2.5
9/10/2017         315        360          0          4         14          0          6         14          0          0          0          0         81        100         53        0.0        0.0        0.0       59.2       69.8       51.8      30.24      30.30      30.18       0.00       0.00       0.00       52.7       55.6       50.0      30.24      30.30      30.18          0          0          0          0          0          0        0.0        0.0        0.0       0.00       0.00       0.00          0          0          0          0          0          0        0.0        0.0        0.0       0.00       0.00       0.00       0.00       0.00       0.00       0.00       0.00       0.00       0.00       0.00       0.00      0.000      0.000      0.000        0.0        0.1        0.1        0.0        0.0        0.0       0.00 -160031.23 -160031.23        0.0        0.5        0.5        0.0        0.5        0.5        0.0       56.2       56.2        0.0        2.5        2.5
9/11/2017         315        340          0          7         23          0         10         23          0          0          0          0         71         94         41        0.0        0.0        0.0       62.3       78.8       48.2      30.08      30.17      30.01       0.00       0.00       0.00       51.5       55.7       46.3      30.08      30.17      30.01          0          0          0          0          0          0        0.0        0.0        0.0       0.00       0.00       0.00          0          0          0          0          0          0        0.0        0.0        0.0       0.00       0.00       0.00       0.00       0.00       0.00       0.00       0.00       0.00       0.00       0.00       0.00      0.000      0.000      0.000        0.0        0.1        0.1        0.0        0.0        0.0       0.00 -160168.38 -160168.38        0.0        0.6        0.6        0.0        0.6        0.6        0.0       56.4       56.4        0.0        2.6        2.6
9/12/2017         315        340          0          8         22          0         11         22          0          0          0          0         84        100         64        0.0        0.0        0.0       60.3       68.0       53.6      30.02      30.04      30.00       0.00       0.00       0.00       55.2       60.8       50.1      30.02      30.04      30.00          0          0          0          0          0          0        0.0        0.0        0.0       0.00       0.00       0.00          0          0          0          0          0          0        0.0        0.0        0.0       0.00       0.00       0.00       0.00       0.00       0.00       0.00       0.00       0.00       0.00       0.00       0.00      0.000      0.000      0.000        0.0        0.0        0.0        0.0        0.0        0.0       0.00       0.00       0.00        0.0        0.0        0.0        0.0        0.0        0.0        0.0        0.0        0.0        0.0        0.0        0.0
9/13/2017         270        340          0          4         13          0          6         13          0          0          0          0         77         94         59        0.0        0.0        0.0       57.5       64.4       48.2      29.98      30.03      29.92       0.00       0.00       0.00       49.8       53.7       46.3      29.98      30.03      29.92          0          0          0          0          0          0        0.0        0.0        0.0       0.00       0.00       0.00          0          0          0          0          0          0        0.0        0.0        0.0       0.00       0.00       0.00       0.00       0.00       0.00       0.00       0.00       0.00       0.00       0.00       0.00      0.000      0.000      0.000        0.0        0.1        0.1        0.0        0.0        0.0       0.00 -160426.28 -160426.28        0.0        0.7        0.7        0.0        0.6        0.6        0.0       56.5       56.5        0.0        2.6        2.6
9/14/2017         158        350          0          4         14          0          6         14          0          0          0          0         81         94         60        0.0        0.0        0.0       57.1       66.2       50.0      29.95      30.01      29.91       0.00       0.00       0.00       50.9       53.7       46.3      29.95      30.01      29.91          0          0          0          0          0          0        0.0        0.0        0.0       0.00       0.00       0.00          0          0          0          0          0          0        0.0        0.0        0.0       0.00       0.00       0.00       0.00       0.00       0.00       0.00       0.00       0.00       0.00       0.00       0.00      0.000      0.000      0.000        0.0        0.1        0.1        0.0        0.0        0.0       0.00 -160557.28 -160557.28        0.0        0.8        0.8        0.0        0.7        0.7        0.0       56.6       56.6        0.0        2.6        2.6
9/15/2017         135        290          0          4         12          0          6         12          0          0          0          0         79        100         38        0.0        0.0        0.0       55.8       69.8       42.8      30.06      30.09      30.02       0.00       0.00       0.00       48.5       55.5       39.2      30.06      30.09      30.02          0          0          0          0          0          0        0.0        0.0        0.0       0.00       0.00       0.00          0          0          0          0          0          0        0.0        0.0        0.0       0.00       0.00       0.00       0.00       0.00       0.00       0.00       0.00       0.00       0.00       0.00       0.00      0.000      0.000      0.000        0.0        0.1        0.1        0.0        0.0        0.0       0.00 -160704.66 -160704.66        0.0        0.9        0.9        0.0        0.7        0.7        0.0       56.7       56.7        0.0        2.6        2.6
9/16/2017         315        330          0          4         11          0          6         11          0          0          0          0         89        100         68        0.0        0.0        0.0       56.4       66.2       51.8      29.98      30.02      29.93       0.00       0.00       0.00       53.1       55.6       50.1      29.98      30.02      29.93          0          0          0          0          0          0        0.0        0.0        0.0       0.00       0.00       0.00          0          0          0          0          0          0        0.0        0.0        0.0       0.00       0.00       0.00       0.00       0.00       0.00       0.00       0.00       0.00       0.00       0.00       0.00      0.000      0.000      0.000        0.0        0.2        0.2        0.0        0.0        0.0       0.00 -160825.42 -160825.42        0.0        1.1        1.1        0.0        0.7        0.7        0.0       56.9       56.9        0.0        2.7        2.7
9/17/2017           0        160          0          2          6          0          3          6          0          0          0          0         93        100         87        0.0        0.0        0.0       52.0       55.4       48.2      29.90      29.93      29.89       0.00       0.00       0.00       50.1       51.9       48.1      29.90      29.93      29.89          0          0          0          0          0          0        0.0        0.0        0.0       0.00       0.00       0.00          0          0          0          0          0          0        0.0        0.0        0.0       0.00       0.00       0.00       0.00       0.00       0.00       0.00       0.00       0.00       0.00       0.00       0.00      0.000      0.000      0.000        0.0        0.0        0.0        0.0        0.0        0.0       0.00       0.00       0.00        0.0        0.0        0.0        0.0        0.0        0.0        0.0        0.0        0.0        0.0        0.0        0.0
9/22/2017           0        250          0          3         11          0          4         11          0          0          0          0         91        100         77        0.0        0.0        0.0       53.0       60.8       48.2      29.92      30.05      29.89       0.00       0.00       0.00       50.5       53.6       48.1      29.92      30.05      29.89          0          0          0          0          0          0        0.0        0.0        0.0       0.00       0.00       0.00          0          0          0          0          0          0        0.0        0.0        0.0       0.00       0.00       0.00       0.00       0.00       0.00       0.00       0.00       0.00       0.00       0.00       0.00      0.000      0.000      0.000        0.0        0.0        0.0        0.0        0.0        0.0       0.00       0.00       0.00        0.0        0.0        0.0        0.0        0.0        0.0        0.0        0.0        0.0        0.0        0.0        0.0
9/29/2017           0        250          0          3         11          0          5         11          0          0          0          0         90        100         77        0.0        0.0        0.0       53.2       60.8       48.2      29.94      30.08      29.89       0.00       0.00       0.00       50.4       53.6       48.1      29.94      30.08      29.89          0          0          0          0          0          0        0.0        0.0        0.0       0.00       0.00       0.00          0          0          0          0          0          0        0.0        0.0        0.0       0.00       0.00       0.00       0.00       0.00       0.00       0.00       0.00       0.00       0.00       0.00       0.00      0.000      0.000      0.000        0.0        0.0        0.0        0.0        0.0        0.0       0.00       0.00       0.00        0.0        0.0        0.0        0.0        0.0        0.0        0.0        0.0        0.0        0.0        0.0        0.0
9/30/2017         225        260          0          5         14          0          8         14          0          0          0          0         84        100         63        0.0        0.0        0.0       56.1       62.6       48.2      30.05      30.14      29.89       0.00       0.00       0.00       51.2       53.7       48.1      30.05      30.14      29.89          0          0          0          0          0          0        0.0        0.0        0.0       0.00       0.00       0.00          0          0          0          0          0          0        0.0        0.0        0.0       0.00       0.00       0.00       0.00       0.00       0.00       0.00       0.00       0.00       0.00       0.00       0.00      0.000      0.000      0.000        0.0        0.0        0.0        0.0        0.0        0.0       0.00       0.00       0.00        0.0        0.0        0.0        0.0        0.0        0.0        0.0        0.0        0.0        0.0        0.0        0.0
10/1/2017         225        350          0          7         19          0          9         19          0          0          0          0         79        100         55        0.0        0.0        0.0       56.0       62.6       48.2      30.10      30.17      29.89       0.00       0.00       0.00       49.4       53.7       44.5      30.10      30.17      29.89          0          0          0          0          0          0        0.0        0.0        0.0       0.00       0.00       0.00          0          0          0          0          0          0        0.0        0.0        0.0       0.00       0.00       0.00       0.00       0.00       0.00       0.00       0.00       0.00       0.00       0.00       0.00      0.000      0.000      0.000        0.0        0.0        0.0        0.0        0.0        0.0       0.00       0.00       0.00        0.0        0.0        0.0        0.0        0.0        0.0        0.0        0.0        0.0        0.0        0.0        0.0
10/2/2017         135        360          0          5         16          0          7         16          0          0          0          0         74         93         48        0.0        0.0        0.0       53.4       62.6       42.8      30.14      30.21      30.12       0.00       0.00       0.00       44.6       48.3       40.9      30.14      30.21      30.12          0          0          0          0          0          0        0.0        0.0        0.0       0.00       0.00       0.00          0          0          0          0          0          0        0.0        0.0        0.0       0.00       0.00       0.00       0.00       0.00       0.00       0.00       0.00       0.00       0.00       0.00       0.00      0.000      0.000      0.000        0.0        0.2        0.2        0.0        0.0        0.0       0.00 -161210.23 -161210.23        0.0        1.5        1.5        0.0        0.7        0.7        0.0       57.3       57.3        0.0        2.7        2.7
10/3/2017          22        350          0          3         11          0          6         11          0          0          0          0         71         93         35        0.0        0.0        0.0       53.5       68.0       42.8      30.20      30.25      30.15       0.00       0.00       0.00       43.0       50.2       39.2      30.20      30.25      30.15          0          0          0          0          0          0        0.0        0.0        0.0       0.00       0.00       0.00          0          0          0          0          0          0        0.0        0.0        0.0       0.00       0.00       0.00       0.00       0.00       0.00       0.00       0.00       0.00       0.00       0.00       0.00      0.000      0.000      0.000        0.0        0.2        0.2        0.0        0.0        0.0       0.00 -161345.33 -161345.33        0.0        1.7        1.7        0.0        0.7        0.7        0.0       57.5       57.5        0.0        2.7        2.7
10/4/2017          45        330          0          4         12          0          6         12          0          0          0          0         69         93         31        0.0        0.0        0.0       54.4       69.8       44.6      30.12      30.15      30.10       0.00       0.00       0.00       42.7       46.6       37.1      30.12      30.15      30.10          0          0          0          0          0          0        0.0        0.0        0.0       0.00       0.00       0.00          0          0          0          0          0          0        0.0        0.0        0.0       0.00       0.00       0.00       0.00       0.00       0.00       0.00       0.00       0.00       0.00       0.00       0.00      0.000      0.000      0.000        0.0        0.2        0.2        0.0        0.0        0.0       0.00 -161480.42 -161480.42        0.0        1.8        1.8        0.0        0.7        0.7        0.0       57.6       57.6        0.0        2.7        2.7
10/5/2017         112        350          0          4         11          0          6         11          0          0          0          0         74         93         46        0.0        0.0        0.0       53.3       69.8       39.2      30.13      30.15      30.11       0.00       0.00       0.00       44.2       52.0       37.4      30.13      30.15      30.11          0          0          0          0          0          0        0.0        0.0        0.0       0.00       0.00       0.00          0          0          0          0          0          0        0.0        0.0        0.0       0.00       0.00       0.00       0.00       0.00       0.00       0.00       0.00       0.00       0.00       0.00       0.00      0.000      0.000      0.000        0.0        0.2        0.2        0.0        0.0        0.0       0.00 -161621.66 -161621.66        0.0        2.0        2.0        0.0        0.7        0.7        0.0       57.8       57.8        0.0        2.7        2.7
10/6/2017         202        260          0          8         20          0         10         20          0          0          0          0         84         94         68        0.0        0.0        0.0       51.8       60.8       39.2      30.10      30.16      29.99       0.00       0.00       0.00       46.8       55.5       37.4      30.10      30.16      29.99          0          0          0          0          0          0        0.0